<?xml version="1.0" encoding="UTF-8" standalone="no" ?>
<gpx xmlns="http://www.topografix.com/GPX/1/1" xmlns:xsi="http://www.w3.org/2001/XMLSchema-instance" xsi:schemaLocation="http://www.topografix.com/GPX/1/1 http://www.topografix.com/GPX/1/1/gpx.xsd" version="1.1" creator="VisuGPX - https://www.visugpx.com">
  <metadata>
    <name>Randonnée Poses</name>
    <desc><![CDATA[Circuit au départ de la guinguette des écluses de Poses en passant par Léry et le pont ferroviaire du Vaudreuil]]></desc>
  </metadata>
  <trk>
    <name><![CDATA[Randonnée Poses_1]]></name>
    <trkseg>
      <trkpt lat="49.31261" lon="1.23815">
        <ele>9</ele>
        <time>2017-03-21T14:00:16Z</time>
      </trkpt>
      <trkpt lat="49.31259" lon="1.2382">
        <ele>9</ele>
        <time>2017-03-21T14:00:16Z</time>
      </trkpt>
      <trkpt lat="49.31258" lon="1.23827">
        <ele>9</ele>
        <time>2017-03-21T14:00:16Z</time>
      </trkpt>
      <trkpt lat="49.31257" lon="1.23831">
        <ele>9</ele>
        <time>2017-03-21T14:00:16Z</time>
      </trkpt>
      <trkpt lat="49.31255" lon="1.23836">
        <ele>9</ele>
        <time>2017-03-21T14:00:16Z</time>
      </trkpt>
      <trkpt lat="49.31253" lon="1.23834">
        <ele>9</ele>
        <time>2017-03-21T14:00:32Z</time>
      </trkpt>
      <trkpt lat="49.31251" lon="1.23831">
        <ele>9</ele>
        <time>2017-03-21T14:00:32Z</time>
      </trkpt>
      <trkpt lat="49.31248" lon="1.23827">
        <ele>9</ele>
        <time>2017-03-21T14:00:32Z</time>
      </trkpt>
      <trkpt lat="49.31245" lon="1.23824">
        <ele>9</ele>
        <time>2017-03-21T14:00:32Z</time>
      </trkpt>
      <trkpt lat="49.31243" lon="1.23821">
        <ele>9</ele>
        <time>2017-03-21T14:00:49Z</time>
      </trkpt>
      <trkpt lat="49.31241" lon="1.23819">
        <ele>9</ele>
        <time>2017-03-21T14:00:49Z</time>
      </trkpt>
      <trkpt lat="49.31237" lon="1.23817">
        <ele>9</ele>
        <time>2017-03-21T14:00:49Z</time>
      </trkpt>
      <trkpt lat="49.31234" lon="1.23813">
        <ele>9</ele>
        <time>2017-03-21T14:00:49Z</time>
      </trkpt>
      <trkpt lat="49.3123" lon="1.2381">
        <ele>9</ele>
        <time>2017-03-21T14:01:05Z</time>
      </trkpt>
      <trkpt lat="49.31224" lon="1.23806">
        <ele>9</ele>
        <time>2017-03-21T14:01:05Z</time>
      </trkpt>
      <trkpt lat="49.3122" lon="1.23803">
        <ele>9</ele>
        <time>2017-03-21T14:01:05Z</time>
      </trkpt>
      <trkpt lat="49.31216" lon="1.23799">
        <ele>9</ele>
        <time>2017-03-21T14:01:05Z</time>
      </trkpt>
      <trkpt lat="49.31212" lon="1.23796">
        <ele>9</ele>
        <time>2017-03-21T14:01:21Z</time>
      </trkpt>
      <trkpt lat="49.31207" lon="1.23792">
        <ele>9</ele>
        <time>2017-03-21T14:01:21Z</time>
      </trkpt>
      <trkpt lat="49.31204" lon="1.23789">
        <ele>8</ele>
        <time>2017-03-21T14:01:21Z</time>
      </trkpt>
      <trkpt lat="49.312" lon="1.23786">
        <ele>8</ele>
        <time>2017-03-21T14:01:21Z</time>
      </trkpt>
      <trkpt lat="49.31197" lon="1.23783">
        <ele>8</ele>
        <time>2017-03-21T14:01:37Z</time>
      </trkpt>
      <trkpt lat="49.31193" lon="1.2378">
        <ele>8</ele>
        <time>2017-03-21T14:01:37Z</time>
      </trkpt>
      <trkpt lat="49.31188" lon="1.23777">
        <ele>8</ele>
        <time>2017-03-21T14:01:37Z</time>
      </trkpt>
      <trkpt lat="49.31185" lon="1.23772">
        <ele>8</ele>
        <time>2017-03-21T14:01:37Z</time>
      </trkpt>
      <trkpt lat="49.31181" lon="1.23768">
        <ele>8</ele>
        <time>2017-03-21T14:01:53Z</time>
      </trkpt>
      <trkpt lat="49.31177" lon="1.23764">
        <ele>8</ele>
        <time>2017-03-21T14:01:53Z</time>
      </trkpt>
      <trkpt lat="49.31173" lon="1.23761">
        <ele>8</ele>
        <time>2017-03-21T14:01:53Z</time>
      </trkpt>
      <trkpt lat="49.31169" lon="1.23757">
        <ele>8</ele>
        <time>2017-03-21T14:01:53Z</time>
      </trkpt>
      <trkpt lat="49.31164" lon="1.23754">
        <ele>8</ele>
        <time>2017-03-21T14:02:09Z</time>
      </trkpt>
      <trkpt lat="49.31162" lon="1.2375">
        <ele>8</ele>
        <time>2017-03-21T14:02:09Z</time>
      </trkpt>
      <trkpt lat="49.31158" lon="1.23745">
        <ele>8</ele>
        <time>2017-03-21T14:02:09Z</time>
      </trkpt>
      <trkpt lat="49.31154" lon="1.23742">
        <ele>8</ele>
        <time>2017-03-21T14:02:09Z</time>
      </trkpt>
      <trkpt lat="49.3115" lon="1.2374">
        <ele>8</ele>
        <time>2017-03-21T14:02:25Z</time>
      </trkpt>
      <trkpt lat="49.31145" lon="1.23736">
        <ele>8</ele>
        <time>2017-03-21T14:02:25Z</time>
      </trkpt>
      <trkpt lat="49.31139" lon="1.23734">
        <ele>8</ele>
        <time>2017-03-21T14:02:25Z</time>
      </trkpt>
      <trkpt lat="49.31135" lon="1.23732">
        <ele>8</ele>
        <time>2017-03-21T14:02:25Z</time>
      </trkpt>
      <trkpt lat="49.3113" lon="1.23729">
        <ele>8</ele>
        <time>2017-03-21T14:02:41Z</time>
      </trkpt>
      <trkpt lat="49.31125" lon="1.23724">
        <ele>8</ele>
        <time>2017-03-21T14:02:41Z</time>
      </trkpt>
      <trkpt lat="49.31119" lon="1.23718">
        <ele>8</ele>
        <time>2017-03-21T14:02:41Z</time>
      </trkpt>
      <trkpt lat="49.31116" lon="1.23717">
        <ele>8</ele>
        <time>2017-03-21T14:02:41Z</time>
      </trkpt>
      <trkpt lat="49.31111" lon="1.23714">
        <ele>8</ele>
        <time>2017-03-21T14:02:57Z</time>
      </trkpt>
      <trkpt lat="49.31106" lon="1.2371">
        <ele>8</ele>
        <time>2017-03-21T14:02:57Z</time>
      </trkpt>
      <trkpt lat="49.31102" lon="1.23705">
        <ele>5</ele>
        <time>2017-03-21T14:02:57Z</time>
      </trkpt>
      <trkpt lat="49.31097" lon="1.237">
        <ele>5</ele>
        <time>2017-03-21T14:02:57Z</time>
      </trkpt>
      <trkpt lat="49.31093" lon="1.23696">
        <ele>5</ele>
        <time>2017-03-21T14:03:12Z</time>
      </trkpt>
      <trkpt lat="49.31089" lon="1.23693">
        <ele>5</ele>
        <time>2017-03-21T14:03:12Z</time>
      </trkpt>
      <trkpt lat="49.31082" lon="1.23688">
        <ele>5</ele>
        <time>2017-03-21T14:03:12Z</time>
      </trkpt>
      <trkpt lat="49.31078" lon="1.23686">
        <ele>5</ele>
        <time>2017-03-21T14:03:12Z</time>
      </trkpt>
      <trkpt lat="49.31073" lon="1.23682">
        <ele>5</ele>
        <time>2017-03-21T14:03:29Z</time>
      </trkpt>
      <trkpt lat="49.3107" lon="1.2368">
        <ele>5</ele>
        <time>2017-03-21T14:03:29Z</time>
      </trkpt>
      <trkpt lat="49.31066" lon="1.23676">
        <ele>5</ele>
        <time>2017-03-21T14:03:29Z</time>
      </trkpt>
      <trkpt lat="49.31061" lon="1.23673">
        <ele>5</ele>
        <time>2017-03-21T14:03:29Z</time>
      </trkpt>
      <trkpt lat="49.31057" lon="1.23669">
        <ele>5</ele>
        <time>2017-03-21T14:03:44Z</time>
      </trkpt>
      <trkpt lat="49.31053" lon="1.23665">
        <ele>5</ele>
        <time>2017-03-21T14:03:44Z</time>
      </trkpt>
      <trkpt lat="49.31047" lon="1.2366">
        <ele>5</ele>
        <time>2017-03-21T14:03:44Z</time>
      </trkpt>
      <trkpt lat="49.31042" lon="1.23656">
        <ele>5</ele>
        <time>2017-03-21T14:03:44Z</time>
      </trkpt>
      <trkpt lat="49.31038" lon="1.23649">
        <ele>5</ele>
        <time>2017-03-21T14:04:00Z</time>
      </trkpt>
      <trkpt lat="49.31033" lon="1.23645">
        <ele>5</ele>
        <time>2017-03-21T14:04:00Z</time>
      </trkpt>
      <trkpt lat="49.31029" lon="1.23641">
        <ele>5</ele>
        <time>2017-03-21T14:04:00Z</time>
      </trkpt>
      <trkpt lat="49.31025" lon="1.23636">
        <ele>5</ele>
        <time>2017-03-21T14:04:00Z</time>
      </trkpt>
      <trkpt lat="49.31021" lon="1.23633">
        <ele>5</ele>
        <time>2017-03-21T14:04:17Z</time>
      </trkpt>
      <trkpt lat="49.31017" lon="1.23633">
        <ele>5</ele>
        <time>2017-03-21T14:04:17Z</time>
      </trkpt>
      <trkpt lat="49.31013" lon="1.2363">
        <ele>5</ele>
        <time>2017-03-21T14:04:17Z</time>
      </trkpt>
      <trkpt lat="49.31008" lon="1.23626">
        <ele>5</ele>
        <time>2017-03-21T14:04:17Z</time>
      </trkpt>
      <trkpt lat="49.31003" lon="1.23621">
        <ele>5</ele>
        <time>2017-03-21T14:04:32Z</time>
      </trkpt>
      <trkpt lat="49.30998" lon="1.23619">
        <ele>5</ele>
        <time>2017-03-21T14:04:32Z</time>
      </trkpt>
      <trkpt lat="49.30994" lon="1.23616">
        <ele>5</ele>
        <time>2017-03-21T14:04:32Z</time>
      </trkpt>
      <trkpt lat="49.30989" lon="1.23612">
        <ele>5</ele>
        <time>2017-03-21T14:04:32Z</time>
      </trkpt>
      <trkpt lat="49.30986" lon="1.23608">
        <ele>5</ele>
        <time>2017-03-21T14:04:48Z</time>
      </trkpt>
      <trkpt lat="49.30982" lon="1.23605">
        <ele>5</ele>
        <time>2017-03-21T14:04:48Z</time>
      </trkpt>
      <trkpt lat="49.30978" lon="1.23601">
        <ele>5</ele>
        <time>2017-03-21T14:04:48Z</time>
      </trkpt>
      <trkpt lat="49.30974" lon="1.23596">
        <ele>5</ele>
        <time>2017-03-21T14:04:48Z</time>
      </trkpt>
      <trkpt lat="49.30969" lon="1.23591">
        <ele>5</ele>
        <time>2017-03-21T14:05:04Z</time>
      </trkpt>
      <trkpt lat="49.30964" lon="1.23587">
        <ele>5</ele>
        <time>2017-03-21T14:05:04Z</time>
      </trkpt>
      <trkpt lat="49.30959" lon="1.23582">
        <ele>5</ele>
        <time>2017-03-21T14:05:04Z</time>
      </trkpt>
      <trkpt lat="49.30953" lon="1.23578">
        <ele>5</ele>
        <time>2017-03-21T14:05:04Z</time>
      </trkpt>
      <trkpt lat="49.30949" lon="1.23576">
        <ele>5</ele>
        <time>2017-03-21T14:05:20Z</time>
      </trkpt>
      <trkpt lat="49.30945" lon="1.23572">
        <ele>5</ele>
        <time>2017-03-21T14:05:20Z</time>
      </trkpt>
      <trkpt lat="49.30941" lon="1.23569">
        <ele>5</ele>
        <time>2017-03-21T14:05:20Z</time>
      </trkpt>
      <trkpt lat="49.30937" lon="1.23567">
        <ele>5</ele>
        <time>2017-03-21T14:05:20Z</time>
      </trkpt>
      <trkpt lat="49.30933" lon="1.23564">
        <ele>5</ele>
        <time>2017-03-21T14:05:36Z</time>
      </trkpt>
      <trkpt lat="49.30927" lon="1.23559">
        <ele>5</ele>
        <time>2017-03-21T14:05:36Z</time>
      </trkpt>
      <trkpt lat="49.30924" lon="1.23556">
        <ele>5</ele>
        <time>2017-03-21T14:05:36Z</time>
      </trkpt>
      <trkpt lat="49.30918" lon="1.23554">
        <ele>5</ele>
        <time>2017-03-21T14:05:36Z</time>
      </trkpt>
      <trkpt lat="49.30913" lon="1.23549">
        <ele>5</ele>
        <time>2017-03-21T14:05:53Z</time>
      </trkpt>
      <trkpt lat="49.30908" lon="1.23542">
        <ele>5</ele>
        <time>2017-03-21T14:05:53Z</time>
      </trkpt>
      <trkpt lat="49.30905" lon="1.23538">
        <ele>5</ele>
        <time>2017-03-21T14:05:53Z</time>
      </trkpt>
      <trkpt lat="49.309" lon="1.23533">
        <ele>5</ele>
        <time>2017-03-21T14:05:53Z</time>
      </trkpt>
      <trkpt lat="49.30898" lon="1.23529">
        <ele>5</ele>
        <time>2017-03-21T14:06:09Z</time>
      </trkpt>
      <trkpt lat="49.30893" lon="1.23524">
        <ele>5</ele>
        <time>2017-03-21T14:06:09Z</time>
      </trkpt>
      <trkpt lat="49.30889" lon="1.2352">
        <ele>5</ele>
        <time>2017-03-21T14:06:09Z</time>
      </trkpt>
      <trkpt lat="49.30885" lon="1.23518">
        <ele>5</ele>
        <time>2017-03-21T14:06:09Z</time>
      </trkpt>
      <trkpt lat="49.30882" lon="1.23514">
        <ele>5</ele>
        <time>2017-03-21T14:06:24Z</time>
      </trkpt>
      <trkpt lat="49.30876" lon="1.23508">
        <ele>5</ele>
        <time>2017-03-21T14:06:24Z</time>
      </trkpt>
      <trkpt lat="49.30873" lon="1.23503">
        <ele>9</ele>
        <time>2017-03-21T14:06:24Z</time>
      </trkpt>
      <trkpt lat="49.30869" lon="1.23498">
        <ele>9</ele>
        <time>2017-03-21T14:06:24Z</time>
      </trkpt>
      <trkpt lat="49.30866" lon="1.23502">
        <ele>9</ele>
        <time>2017-03-21T14:07:08Z</time>
      </trkpt>
      <trkpt lat="49.30866" lon="1.23493">
        <ele>9</ele>
        <time>2017-03-21T14:07:08Z</time>
      </trkpt>
      <trkpt lat="49.30869" lon="1.23489">
        <ele>9</ele>
        <time>2017-03-21T14:07:08Z</time>
      </trkpt>
      <trkpt lat="49.30864" lon="1.23485">
        <ele>9</ele>
        <time>2017-03-21T14:07:08Z</time>
      </trkpt>
      <trkpt lat="49.30863" lon="1.23478">
        <ele>9</ele>
        <time>2017-03-21T14:07:08Z</time>
      </trkpt>
      <trkpt lat="49.30864" lon="1.2347">
        <ele>9</ele>
        <time>2017-03-21T14:07:25Z</time>
      </trkpt>
      <trkpt lat="49.30865" lon="1.23461">
        <ele>9</ele>
        <time>2017-03-21T14:07:25Z</time>
      </trkpt>
      <trkpt lat="49.30868" lon="1.23455">
        <ele>9</ele>
        <time>2017-03-21T14:07:25Z</time>
      </trkpt>
      <trkpt lat="49.30871" lon="1.23448">
        <ele>9</ele>
        <time>2017-03-21T14:07:25Z</time>
      </trkpt>
      <trkpt lat="49.30872" lon="1.23441">
        <ele>9</ele>
        <time>2017-03-21T14:07:41Z</time>
      </trkpt>
      <trkpt lat="49.30875" lon="1.23435">
        <ele>9</ele>
        <time>2017-03-21T14:07:41Z</time>
      </trkpt>
      <trkpt lat="49.30878" lon="1.23432">
        <ele>2</ele>
        <time>2017-03-21T14:07:41Z</time>
      </trkpt>
      <trkpt lat="49.3088" lon="1.23424">
        <ele>2</ele>
        <time>2017-03-21T14:07:41Z</time>
      </trkpt>
      <trkpt lat="49.30884" lon="1.23417">
        <ele>2</ele>
        <time>2017-03-21T14:07:56Z</time>
      </trkpt>
      <trkpt lat="49.30887" lon="1.23411">
        <ele>2</ele>
        <time>2017-03-21T14:07:56Z</time>
      </trkpt>
      <trkpt lat="49.30889" lon="1.23404">
        <ele>2</ele>
        <time>2017-03-21T14:07:56Z</time>
      </trkpt>
      <trkpt lat="49.30889" lon="1.23397">
        <ele>2</ele>
        <time>2017-03-21T14:07:56Z</time>
      </trkpt>
      <trkpt lat="49.30889" lon="1.2339">
        <ele>2</ele>
        <time>2017-03-21T14:08:12Z</time>
      </trkpt>
      <trkpt lat="49.30889" lon="1.23381">
        <ele>2</ele>
        <time>2017-03-21T14:08:12Z</time>
      </trkpt>
      <trkpt lat="49.30888" lon="1.23375">
        <ele>4</ele>
        <time>2017-03-21T14:08:12Z</time>
      </trkpt>
      <trkpt lat="49.30888" lon="1.23368">
        <ele>4</ele>
        <time>2017-03-21T14:08:12Z</time>
      </trkpt>
      <trkpt lat="49.30888" lon="1.2336">
        <ele>4</ele>
        <time>2017-03-21T14:08:29Z</time>
      </trkpt>
      <trkpt lat="49.30888" lon="1.23353">
        <ele>4</ele>
        <time>2017-03-21T14:08:29Z</time>
      </trkpt>
      <trkpt lat="49.30888" lon="1.23346">
        <ele>4</ele>
        <time>2017-03-21T14:08:29Z</time>
      </trkpt>
      <trkpt lat="49.30887" lon="1.23338">
        <ele>4</ele>
        <time>2017-03-21T14:08:29Z</time>
      </trkpt>
      <trkpt lat="49.30886" lon="1.23331">
        <ele>4</ele>
        <time>2017-03-21T14:08:45Z</time>
      </trkpt>
      <trkpt lat="49.30886" lon="1.23323">
        <ele>4</ele>
        <time>2017-03-21T14:08:45Z</time>
      </trkpt>
      <trkpt lat="49.30891" lon="1.23323">
        <ele>4</ele>
        <time>2017-03-21T14:08:45Z</time>
      </trkpt>
      <trkpt lat="49.30901" lon="1.23327">
        <ele>4</ele>
        <time>2017-03-21T14:08:45Z</time>
      </trkpt>
      <trkpt lat="49.30914" lon="1.23331">
        <ele>4</ele>
        <time>2017-03-21T14:09:01Z</time>
      </trkpt>
      <trkpt lat="49.30927" lon="1.23333">
        <ele>4</ele>
        <time>2017-03-21T14:09:01Z</time>
      </trkpt>
      <trkpt lat="49.30936" lon="1.2333">
        <ele>4</ele>
        <time>2017-03-21T14:09:01Z</time>
      </trkpt>
      <trkpt lat="49.30943" lon="1.23327">
        <ele>4</ele>
        <time>2017-03-21T14:09:01Z</time>
      </trkpt>
      <trkpt lat="49.30952" lon="1.23324">
        <ele>4</ele>
        <time>2017-03-21T14:09:16Z</time>
      </trkpt>
      <trkpt lat="49.30955" lon="1.23323">
        <ele>4</ele>
        <time>2017-03-21T14:09:16Z</time>
      </trkpt>
      <trkpt lat="49.30959" lon="1.23321">
        <ele>4</ele>
        <time>2017-03-21T14:09:16Z</time>
      </trkpt>
      <trkpt lat="49.30962" lon="1.2332">
        <ele>4</ele>
        <time>2017-03-21T14:09:16Z</time>
      </trkpt>
      <trkpt lat="49.30966" lon="1.23315">
        <ele>4</ele>
        <time>2017-03-21T14:09:33Z</time>
      </trkpt>
      <trkpt lat="49.30972" lon="1.23305">
        <ele>4</ele>
        <time>2017-03-21T14:09:33Z</time>
      </trkpt>
      <trkpt lat="49.30974" lon="1.23299">
        <ele>4</ele>
        <time>2017-03-21T14:09:33Z</time>
      </trkpt>
      <trkpt lat="49.30978" lon="1.23291">
        <ele>4</ele>
        <time>2017-03-21T14:09:33Z</time>
      </trkpt>
      <trkpt lat="49.30982" lon="1.23285">
        <ele>4</ele>
        <time>2017-03-21T14:09:48Z</time>
      </trkpt>
      <trkpt lat="49.30984" lon="1.23277">
        <ele>4</ele>
        <time>2017-03-21T14:09:48Z</time>
      </trkpt>
      <trkpt lat="49.30986" lon="1.23269">
        <ele>4</ele>
        <time>2017-03-21T14:09:48Z</time>
      </trkpt>
      <trkpt lat="49.30985" lon="1.23261">
        <ele>4</ele>
        <time>2017-03-21T14:09:48Z</time>
      </trkpt>
      <trkpt lat="49.30983" lon="1.23253">
        <ele>4</ele>
        <time>2017-03-21T14:10:04Z</time>
      </trkpt>
      <trkpt lat="49.30982" lon="1.23248">
        <ele>4</ele>
        <time>2017-03-21T14:10:04Z</time>
      </trkpt>
      <trkpt lat="49.3098" lon="1.23241">
        <ele>4</ele>
        <time>2017-03-21T14:10:04Z</time>
      </trkpt>
      <trkpt lat="49.30978" lon="1.23235">
        <ele>4</ele>
        <time>2017-03-21T14:10:04Z</time>
      </trkpt>
      <trkpt lat="49.30978" lon="1.2323">
        <ele>4</ele>
        <time>2017-03-21T14:10:21Z</time>
      </trkpt>
      <trkpt lat="49.30982" lon="1.23217">
        <ele>4</ele>
        <time>2017-03-21T14:10:21Z</time>
      </trkpt>
      <trkpt lat="49.30985" lon="1.23208">
        <ele>6</ele>
        <time>2017-03-21T14:10:21Z</time>
      </trkpt>
      <trkpt lat="49.30988" lon="1.232">
        <ele>6</ele>
        <time>2017-03-21T14:10:21Z</time>
      </trkpt>
      <trkpt lat="49.30991" lon="1.23191">
        <ele>6</ele>
        <time>2017-03-21T14:10:36Z</time>
      </trkpt>
      <trkpt lat="49.30994" lon="1.23184">
        <ele>6</ele>
        <time>2017-03-21T14:10:36Z</time>
      </trkpt>
      <trkpt lat="49.30996" lon="1.23177">
        <ele>6</ele>
        <time>2017-03-21T14:10:36Z</time>
      </trkpt>
      <trkpt lat="49.30997" lon="1.23172">
        <ele>6</ele>
        <time>2017-03-21T14:10:36Z</time>
      </trkpt>
      <trkpt lat="49.30996" lon="1.23163">
        <ele>6</ele>
        <time>2017-03-21T14:10:53Z</time>
      </trkpt>
      <trkpt lat="49.30995" lon="1.23157">
        <ele>6</ele>
        <time>2017-03-21T14:10:53Z</time>
      </trkpt>
      <trkpt lat="49.30993" lon="1.23147">
        <ele>6</ele>
        <time>2017-03-21T14:10:53Z</time>
      </trkpt>
      <trkpt lat="49.30991" lon="1.23142">
        <ele>6</ele>
        <time>2017-03-21T14:10:53Z</time>
      </trkpt>
      <trkpt lat="49.30989" lon="1.23136">
        <ele>6</ele>
        <time>2017-03-21T14:11:09Z</time>
      </trkpt>
      <trkpt lat="49.30988" lon="1.23129">
        <ele>6</ele>
        <time>2017-03-21T14:11:09Z</time>
      </trkpt>
      <trkpt lat="49.30986" lon="1.2312">
        <ele>6</ele>
        <time>2017-03-21T14:11:09Z</time>
      </trkpt>
      <trkpt lat="49.30987" lon="1.23112">
        <ele>6</ele>
        <time>2017-03-21T14:11:09Z</time>
      </trkpt>
      <trkpt lat="49.30993" lon="1.23099">
        <ele>6</ele>
        <time>2017-03-21T14:11:25Z</time>
      </trkpt>
      <trkpt lat="49.30998" lon="1.23091">
        <ele>6</ele>
        <time>2017-03-21T14:11:25Z</time>
      </trkpt>
      <trkpt lat="49.31002" lon="1.23083">
        <ele>6</ele>
        <time>2017-03-21T14:11:25Z</time>
      </trkpt>
      <trkpt lat="49.31002" lon="1.23076">
        <ele>6</ele>
        <time>2017-03-21T14:11:25Z</time>
      </trkpt>
      <trkpt lat="49.31001" lon="1.23069">
        <ele>6</ele>
        <time>2017-03-21T14:11:40Z</time>
      </trkpt>
      <trkpt lat="49.31" lon="1.23063">
        <ele>6</ele>
        <time>2017-03-21T14:11:40Z</time>
      </trkpt>
      <trkpt lat="49.31002" lon="1.23055">
        <ele>6</ele>
        <time>2017-03-21T14:11:40Z</time>
      </trkpt>
      <trkpt lat="49.31005" lon="1.23048">
        <ele>6</ele>
        <time>2017-03-21T14:11:40Z</time>
      </trkpt>
      <trkpt lat="49.31007" lon="1.23039">
        <ele>7</ele>
        <time>2017-03-21T14:11:56Z</time>
      </trkpt>
      <trkpt lat="49.31008" lon="1.23024">
        <ele>7</ele>
        <time>2017-03-21T14:11:56Z</time>
      </trkpt>
      <trkpt lat="49.31008" lon="1.23017">
        <ele>7</ele>
        <time>2017-03-21T14:11:56Z</time>
      </trkpt>
      <trkpt lat="49.31009" lon="1.23012">
        <ele>7</ele>
        <time>2017-03-21T14:11:56Z</time>
      </trkpt>
      <trkpt lat="49.3101" lon="1.23002">
        <ele>7</ele>
        <time>2017-03-21T14:12:13Z</time>
      </trkpt>
      <trkpt lat="49.3101" lon="1.22996">
        <ele>7</ele>
        <time>2017-03-21T14:12:13Z</time>
      </trkpt>
      <trkpt lat="49.31012" lon="1.22987">
        <ele>7</ele>
        <time>2017-03-21T14:12:13Z</time>
      </trkpt>
      <trkpt lat="49.3101" lon="1.22978">
        <ele>7</ele>
        <time>2017-03-21T14:12:13Z</time>
      </trkpt>
      <trkpt lat="49.31009" lon="1.22973">
        <ele>7</ele>
        <time>2017-03-21T14:12:29Z</time>
      </trkpt>
      <trkpt lat="49.31007" lon="1.22967">
        <ele>7</ele>
        <time>2017-03-21T14:12:29Z</time>
      </trkpt>
      <trkpt lat="49.31004" lon="1.22959">
        <ele>7</ele>
        <time>2017-03-21T14:12:29Z</time>
      </trkpt>
      <trkpt lat="49.31002" lon="1.22955">
        <ele>8</ele>
        <time>2017-03-21T14:12:29Z</time>
      </trkpt>
      <trkpt lat="49.31003" lon="1.22944">
        <ele>8</ele>
        <time>2017-03-21T14:12:44Z</time>
      </trkpt>
      <trkpt lat="49.31009" lon="1.22932">
        <ele>8</ele>
        <time>2017-03-21T14:12:44Z</time>
      </trkpt>
      <trkpt lat="49.31009" lon="1.22927">
        <ele>8</ele>
        <time>2017-03-21T14:12:44Z</time>
      </trkpt>
      <trkpt lat="49.31006" lon="1.2292">
        <ele>8</ele>
        <time>2017-03-21T14:12:44Z</time>
      </trkpt>
      <trkpt lat="49.31005" lon="1.22913">
        <ele>8</ele>
        <time>2017-03-21T14:13:01Z</time>
      </trkpt>
      <trkpt lat="49.31009" lon="1.22901">
        <ele>8</ele>
        <time>2017-03-21T14:13:01Z</time>
      </trkpt>
      <trkpt lat="49.3101" lon="1.22892">
        <ele>8</ele>
        <time>2017-03-21T14:13:01Z</time>
      </trkpt>
      <trkpt lat="49.31009" lon="1.22885">
        <ele>8</ele>
        <time>2017-03-21T14:13:01Z</time>
      </trkpt>
      <trkpt lat="49.31007" lon="1.22879">
        <ele>8</ele>
        <time>2017-03-21T14:13:17Z</time>
      </trkpt>
      <trkpt lat="49.31005" lon="1.2287">
        <ele>8</ele>
        <time>2017-03-21T14:13:17Z</time>
      </trkpt>
      <trkpt lat="49.31004" lon="1.22865">
        <ele>8</ele>
        <time>2017-03-21T14:13:17Z</time>
      </trkpt>
      <trkpt lat="49.31002" lon="1.22856">
        <ele>8</ele>
        <time>2017-03-21T14:13:17Z</time>
      </trkpt>
      <trkpt lat="49.31001" lon="1.22851">
        <ele>8</ele>
        <time>2017-03-21T14:13:33Z</time>
      </trkpt>
      <trkpt lat="49.31003" lon="1.22841">
        <ele>8</ele>
        <time>2017-03-21T14:13:33Z</time>
      </trkpt>
      <trkpt lat="49.31007" lon="1.2283">
        <ele>8</ele>
        <time>2017-03-21T14:13:33Z</time>
      </trkpt>
      <trkpt lat="49.31012" lon="1.22822">
        <ele>8</ele>
        <time>2017-03-21T14:13:33Z</time>
      </trkpt>
      <trkpt lat="49.31015" lon="1.22814">
        <ele>8</ele>
        <time>2017-03-21T14:13:53Z</time>
      </trkpt>
      <trkpt lat="49.31014" lon="1.2281">
        <ele>8</ele>
        <time>2017-03-21T14:13:53Z</time>
      </trkpt>
      <trkpt lat="49.31013" lon="1.22808">
        <ele>8</ele>
        <time>2017-03-21T14:13:53Z</time>
      </trkpt>
      <trkpt lat="49.31009" lon="1.22807">
        <ele>8</ele>
        <time>2017-03-21T14:13:53Z</time>
      </trkpt>
      <trkpt lat="49.31005" lon="1.22807">
        <ele>8</ele>
        <time>2017-03-21T14:13:53Z</time>
      </trkpt>
      <trkpt lat="49.31001" lon="1.22809">
        <ele>8</ele>
        <time>2017-03-21T14:14:08Z</time>
      </trkpt>
      <trkpt lat="49.30997" lon="1.22809">
        <ele>8</ele>
        <time>2017-03-21T14:14:08Z</time>
      </trkpt>
      <trkpt lat="49.30993" lon="1.22808">
        <ele>8</ele>
        <time>2017-03-21T14:14:08Z</time>
      </trkpt>
      <trkpt lat="49.30988" lon="1.22807">
        <ele>8</ele>
        <time>2017-03-21T14:14:08Z</time>
      </trkpt>
      <trkpt lat="49.30984" lon="1.22808">
        <ele>8</ele>
        <time>2017-03-21T14:14:25Z</time>
      </trkpt>
      <trkpt lat="49.30981" lon="1.22808">
        <ele>8</ele>
        <time>2017-03-21T14:14:25Z</time>
      </trkpt>
      <trkpt lat="49.30975" lon="1.22806">
        <ele>8</ele>
        <time>2017-03-21T14:14:25Z</time>
      </trkpt>
      <trkpt lat="49.30972" lon="1.22804">
        <ele>8</ele>
        <time>2017-03-21T14:14:25Z</time>
      </trkpt>
      <trkpt lat="49.30965" lon="1.22804">
        <ele>8</ele>
        <time>2017-03-21T14:14:41Z</time>
      </trkpt>
      <trkpt lat="49.30959" lon="1.22807">
        <ele>8</ele>
        <time>2017-03-21T14:14:41Z</time>
      </trkpt>
      <trkpt lat="49.30954" lon="1.22806">
        <ele>8</ele>
        <time>2017-03-21T14:14:41Z</time>
      </trkpt>
      <trkpt lat="49.3095" lon="1.22805">
        <ele>8</ele>
        <time>2017-03-21T14:14:41Z</time>
      </trkpt>
      <trkpt lat="49.30945" lon="1.22802">
        <ele>8</ele>
        <time>2017-03-21T14:14:57Z</time>
      </trkpt>
      <trkpt lat="49.30941" lon="1.22801">
        <ele>8</ele>
        <time>2017-03-21T14:14:57Z</time>
      </trkpt>
      <trkpt lat="49.30935" lon="1.22805">
        <ele>8</ele>
        <time>2017-03-21T14:14:57Z</time>
      </trkpt>
      <trkpt lat="49.3093" lon="1.22809">
        <ele>8</ele>
        <time>2017-03-21T14:14:57Z</time>
      </trkpt>
      <trkpt lat="49.30927" lon="1.22808">
        <ele>8</ele>
        <time>2017-03-21T14:15:16Z</time>
      </trkpt>
      <trkpt lat="49.30924" lon="1.22806">
        <ele>8</ele>
        <time>2017-03-21T14:15:16Z</time>
      </trkpt>
      <trkpt lat="49.30923" lon="1.22803">
        <ele>8</ele>
        <time>2017-03-21T14:15:16Z</time>
      </trkpt>
      <trkpt lat="49.30921" lon="1.22798">
        <ele>8</ele>
        <time>2017-03-21T14:15:16Z</time>
      </trkpt>
      <trkpt lat="49.30917" lon="1.22791">
        <ele>7</ele>
        <time>2017-03-21T14:15:16Z</time>
      </trkpt>
      <trkpt lat="49.30913" lon="1.22785">
        <ele>7</ele>
        <time>2017-03-21T14:15:32Z</time>
      </trkpt>
      <trkpt lat="49.30912" lon="1.22777">
        <ele>7</ele>
        <time>2017-03-21T14:15:32Z</time>
      </trkpt>
      <trkpt lat="49.3091" lon="1.22771">
        <ele>7</ele>
        <time>2017-03-21T14:15:32Z</time>
      </trkpt>
      <trkpt lat="49.30908" lon="1.22763">
        <ele>7</ele>
        <time>2017-03-21T14:15:32Z</time>
      </trkpt>
      <trkpt lat="49.30906" lon="1.22756">
        <ele>7</ele>
        <time>2017-03-21T14:15:48Z</time>
      </trkpt>
      <trkpt lat="49.30904" lon="1.22751">
        <ele>7</ele>
        <time>2017-03-21T14:15:48Z</time>
      </trkpt>
      <trkpt lat="49.30901" lon="1.22744">
        <ele>7</ele>
        <time>2017-03-21T14:15:48Z</time>
      </trkpt>
      <trkpt lat="49.30898" lon="1.22738">
        <ele>7</ele>
        <time>2017-03-21T14:15:48Z</time>
      </trkpt>
      <trkpt lat="49.30895" lon="1.22732">
        <ele>7</ele>
        <time>2017-03-21T14:16:04Z</time>
      </trkpt>
      <trkpt lat="49.30891" lon="1.22725">
        <ele>7</ele>
        <time>2017-03-21T14:16:04Z</time>
      </trkpt>
      <trkpt lat="49.30887" lon="1.22719">
        <ele>7</ele>
        <time>2017-03-21T14:16:04Z</time>
      </trkpt>
      <trkpt lat="49.30884" lon="1.22714">
        <ele>7</ele>
        <time>2017-03-21T14:16:04Z</time>
      </trkpt>
      <trkpt lat="49.30879" lon="1.22709">
        <ele>7</ele>
        <time>2017-03-21T14:16:21Z</time>
      </trkpt>
      <trkpt lat="49.30874" lon="1.22704">
        <ele>7</ele>
        <time>2017-03-21T14:16:21Z</time>
      </trkpt>
      <trkpt lat="49.3087" lon="1.22701">
        <ele>7</ele>
        <time>2017-03-21T14:16:21Z</time>
      </trkpt>
      <trkpt lat="49.30865" lon="1.22697">
        <ele>7</ele>
        <time>2017-03-21T14:16:21Z</time>
      </trkpt>
      <trkpt lat="49.3086" lon="1.22691">
        <ele>7</ele>
        <time>2017-03-21T14:16:37Z</time>
      </trkpt>
      <trkpt lat="49.30856" lon="1.22687">
        <ele>7</ele>
        <time>2017-03-21T14:16:37Z</time>
      </trkpt>
      <trkpt lat="49.30852" lon="1.22684">
        <ele>7</ele>
        <time>2017-03-21T14:16:37Z</time>
      </trkpt>
      <trkpt lat="49.30848" lon="1.2268">
        <ele>7</ele>
        <time>2017-03-21T14:16:37Z</time>
      </trkpt>
      <trkpt lat="49.30844" lon="1.22675">
        <ele>7</ele>
        <time>2017-03-21T14:16:52Z</time>
      </trkpt>
      <trkpt lat="49.3084" lon="1.2267">
        <ele>7</ele>
        <time>2017-03-21T14:16:52Z</time>
      </trkpt>
      <trkpt lat="49.30836" lon="1.22665">
        <ele>7</ele>
        <time>2017-03-21T14:16:52Z</time>
      </trkpt>
      <trkpt lat="49.30831" lon="1.22662">
        <ele>7</ele>
        <time>2017-03-21T14:16:52Z</time>
      </trkpt>
      <trkpt lat="49.30827" lon="1.22658">
        <ele>7</ele>
        <time>2017-03-21T14:17:09Z</time>
      </trkpt>
      <trkpt lat="49.30821" lon="1.22653">
        <ele>7</ele>
        <time>2017-03-21T14:17:09Z</time>
      </trkpt>
      <trkpt lat="49.30817" lon="1.22649">
        <ele>7</ele>
        <time>2017-03-21T14:17:09Z</time>
      </trkpt>
      <trkpt lat="49.30812" lon="1.22644">
        <ele>7</ele>
        <time>2017-03-21T14:17:09Z</time>
      </trkpt>
      <trkpt lat="49.30808" lon="1.2264">
        <ele>7</ele>
        <time>2017-03-21T14:17:25Z</time>
      </trkpt>
      <trkpt lat="49.30801" lon="1.22634">
        <ele>7</ele>
        <time>2017-03-21T14:17:25Z</time>
      </trkpt>
      <trkpt lat="49.30796" lon="1.22629">
        <ele>7</ele>
        <time>2017-03-21T14:17:25Z</time>
      </trkpt>
      <trkpt lat="49.30792" lon="1.22625">
        <ele>7</ele>
        <time>2017-03-21T14:17:25Z</time>
      </trkpt>
      <trkpt lat="49.30788" lon="1.22621">
        <ele>9</ele>
        <time>2017-03-21T14:17:41Z</time>
      </trkpt>
      <trkpt lat="49.30784" lon="1.22618">
        <ele>9</ele>
        <time>2017-03-21T14:17:41Z</time>
      </trkpt>
      <trkpt lat="49.3078" lon="1.22613">
        <ele>9</ele>
        <time>2017-03-21T14:17:41Z</time>
      </trkpt>
      <trkpt lat="49.30775" lon="1.22609">
        <ele>9</ele>
        <time>2017-03-21T14:17:41Z</time>
      </trkpt>
      <trkpt lat="49.30771" lon="1.22604">
        <ele>9</ele>
        <time>2017-03-21T14:17:56Z</time>
      </trkpt>
      <trkpt lat="49.30768" lon="1.22599">
        <ele>9</ele>
        <time>2017-03-21T14:17:56Z</time>
      </trkpt>
      <trkpt lat="49.30764" lon="1.22594">
        <ele>9</ele>
        <time>2017-03-21T14:17:56Z</time>
      </trkpt>
      <trkpt lat="49.30761" lon="1.22589">
        <ele>9</ele>
        <time>2017-03-21T14:17:57Z</time>
      </trkpt>
      <trkpt lat="49.30756" lon="1.22585">
        <ele>9</ele>
        <time>2017-03-21T14:18:12Z</time>
      </trkpt>
      <trkpt lat="49.30751" lon="1.22578">
        <ele>9</ele>
        <time>2017-03-21T14:18:12Z</time>
      </trkpt>
      <trkpt lat="49.30747" lon="1.22572">
        <ele>9</ele>
        <time>2017-03-21T14:18:12Z</time>
      </trkpt>
      <trkpt lat="49.30743" lon="1.22568">
        <ele>9</ele>
        <time>2017-03-21T14:18:12Z</time>
      </trkpt>
      <trkpt lat="49.3074" lon="1.22564">
        <ele>9</ele>
        <time>2017-03-21T14:18:29Z</time>
      </trkpt>
      <trkpt lat="49.30736" lon="1.2256">
        <ele>9</ele>
        <time>2017-03-21T14:18:29Z</time>
      </trkpt>
      <trkpt lat="49.30733" lon="1.2255">
        <ele>9</ele>
        <time>2017-03-21T14:18:29Z</time>
      </trkpt>
      <trkpt lat="49.30731" lon="1.22544">
        <ele>9</ele>
        <time>2017-03-21T14:18:29Z</time>
      </trkpt>
      <trkpt lat="49.30727" lon="1.22537">
        <ele>8</ele>
        <time>2017-03-21T14:18:45Z</time>
      </trkpt>
      <trkpt lat="49.30724" lon="1.22532">
        <ele>8</ele>
        <time>2017-03-21T14:18:45Z</time>
      </trkpt>
      <trkpt lat="49.3072" lon="1.22527">
        <ele>8</ele>
        <time>2017-03-21T14:18:45Z</time>
      </trkpt>
      <trkpt lat="49.30717" lon="1.22525">
        <ele>8</ele>
        <time>2017-03-21T14:18:45Z</time>
      </trkpt>
      <trkpt lat="49.30712" lon="1.22521">
        <ele>8</ele>
        <time>2017-03-21T14:19:01Z</time>
      </trkpt>
      <trkpt lat="49.30708" lon="1.22515">
        <ele>8</ele>
        <time>2017-03-21T14:19:01Z</time>
      </trkpt>
      <trkpt lat="49.30704" lon="1.22511">
        <ele>8</ele>
        <time>2017-03-21T14:19:01Z</time>
      </trkpt>
      <trkpt lat="49.307" lon="1.22509">
        <ele>8</ele>
        <time>2017-03-21T14:19:01Z</time>
      </trkpt>
      <trkpt lat="49.30697" lon="1.22506">
        <ele>8</ele>
        <time>2017-03-21T14:19:16Z</time>
      </trkpt>
      <trkpt lat="49.30693" lon="1.22499">
        <ele>8</ele>
        <time>2017-03-21T14:19:16Z</time>
      </trkpt>
      <trkpt lat="49.30691" lon="1.22489">
        <ele>8</ele>
        <time>2017-03-21T14:19:16Z</time>
      </trkpt>
      <trkpt lat="49.3069" lon="1.2248">
        <ele>8</ele>
        <time>2017-03-21T14:19:16Z</time>
      </trkpt>
      <trkpt lat="49.30689" lon="1.22475">
        <ele>8</ele>
        <time>2017-03-21T14:19:33Z</time>
      </trkpt>
      <trkpt lat="49.30688" lon="1.22469">
        <ele>8</ele>
        <time>2017-03-21T14:19:33Z</time>
      </trkpt>
      <trkpt lat="49.30685" lon="1.22462">
        <ele>8</ele>
        <time>2017-03-21T14:19:33Z</time>
      </trkpt>
      <trkpt lat="49.30684" lon="1.22455">
        <ele>9</ele>
        <time>2017-03-21T14:19:33Z</time>
      </trkpt>
      <trkpt lat="49.30683" lon="1.22445">
        <ele>9</ele>
        <time>2017-03-21T14:19:49Z</time>
      </trkpt>
      <trkpt lat="49.30682" lon="1.22437">
        <ele>9</ele>
        <time>2017-03-21T14:19:49Z</time>
      </trkpt>
      <trkpt lat="49.30682" lon="1.22431">
        <ele>9</ele>
        <time>2017-03-21T14:19:49Z</time>
      </trkpt>
      <trkpt lat="49.30681" lon="1.22423">
        <ele>9</ele>
        <time>2017-03-21T14:19:49Z</time>
      </trkpt>
      <trkpt lat="49.3068" lon="1.22416">
        <ele>9</ele>
        <time>2017-03-21T14:20:05Z</time>
      </trkpt>
      <trkpt lat="49.30679" lon="1.22408">
        <ele>9</ele>
        <time>2017-03-21T14:20:05Z</time>
      </trkpt>
      <trkpt lat="49.30678" lon="1.224">
        <ele>9</ele>
        <time>2017-03-21T14:20:05Z</time>
      </trkpt>
      <trkpt lat="49.30677" lon="1.22393">
        <ele>9</ele>
        <time>2017-03-21T14:20:05Z</time>
      </trkpt>
      <trkpt lat="49.30676" lon="1.22386">
        <ele>9</ele>
        <time>2017-03-21T14:20:21Z</time>
      </trkpt>
      <trkpt lat="49.30676" lon="1.22384">
        <ele>9</ele>
        <time>2017-03-21T14:20:21Z</time>
      </trkpt>
      <trkpt lat="49.30674" lon="1.22374">
        <ele>8</ele>
        <time>2017-03-21T14:20:21Z</time>
      </trkpt>
      <trkpt lat="49.30672" lon="1.22368">
        <ele>8</ele>
        <time>2017-03-21T14:20:21Z</time>
      </trkpt>
      <trkpt lat="49.30671" lon="1.2235">
        <ele>8</ele>
        <time>2017-03-21T14:20:57Z</time>
      </trkpt>
      <trkpt lat="49.30669" lon="1.2234">
        <ele>8</ele>
        <time>2017-03-21T14:20:57Z</time>
      </trkpt>
      <trkpt lat="49.30667" lon="1.22332">
        <ele>8</ele>
        <time>2017-03-21T14:20:58Z</time>
      </trkpt>
      <trkpt lat="49.30664" lon="1.22323">
        <ele>8</ele>
        <time>2017-03-21T14:20:58Z</time>
      </trkpt>
      <trkpt lat="49.30664" lon="1.22309">
        <ele>8</ele>
        <time>2017-03-21T14:20:58Z</time>
      </trkpt>
      <trkpt lat="49.30663" lon="1.22302">
        <ele>8</ele>
        <time>2017-03-21T14:21:13Z</time>
      </trkpt>
      <trkpt lat="49.30661" lon="1.22293">
        <ele>8</ele>
        <time>2017-03-21T14:21:13Z</time>
      </trkpt>
      <trkpt lat="49.30662" lon="1.22281">
        <ele>6</ele>
        <time>2017-03-21T14:21:13Z</time>
      </trkpt>
      <trkpt lat="49.30662" lon="1.22272">
        <ele>6</ele>
        <time>2017-03-21T14:21:13Z</time>
      </trkpt>
      <trkpt lat="49.30661" lon="1.22262">
        <ele>6</ele>
        <time>2017-03-21T14:21:28Z</time>
      </trkpt>
      <trkpt lat="49.30661" lon="1.22255">
        <ele>6</ele>
        <time>2017-03-21T14:21:28Z</time>
      </trkpt>
      <trkpt lat="49.3066" lon="1.22244">
        <ele>6</ele>
        <time>2017-03-21T14:21:28Z</time>
      </trkpt>
      <trkpt lat="49.30659" lon="1.22234">
        <ele>6</ele>
        <time>2017-03-21T14:21:28Z</time>
      </trkpt>
      <trkpt lat="49.30658" lon="1.22225">
        <ele>6</ele>
        <time>2017-03-21T14:21:45Z</time>
      </trkpt>
      <trkpt lat="49.30656" lon="1.22217">
        <ele>6</ele>
        <time>2017-03-21T14:21:45Z</time>
      </trkpt>
      <trkpt lat="49.30654" lon="1.22208">
        <ele>5</ele>
        <time>2017-03-21T14:21:45Z</time>
      </trkpt>
      <trkpt lat="49.30652" lon="1.22202">
        <ele>5</ele>
        <time>2017-03-21T14:21:45Z</time>
      </trkpt>
      <trkpt lat="49.30652" lon="1.22195">
        <ele>5</ele>
        <time>2017-03-21T14:22:01Z</time>
      </trkpt>
      <trkpt lat="49.30652" lon="1.22187">
        <ele>5</ele>
        <time>2017-03-21T14:22:01Z</time>
      </trkpt>
      <trkpt lat="49.30652" lon="1.22181">
        <ele>5</ele>
        <time>2017-03-21T14:22:01Z</time>
      </trkpt>
      <trkpt lat="49.30651" lon="1.22174">
        <ele>5</ele>
        <time>2017-03-21T14:22:01Z</time>
      </trkpt>
      <trkpt lat="49.3065" lon="1.22169">
        <ele>5</ele>
        <time>2017-03-21T14:22:16Z</time>
      </trkpt>
      <trkpt lat="49.30649" lon="1.22161">
        <ele>5</ele>
        <time>2017-03-21T14:22:16Z</time>
      </trkpt>
      <trkpt lat="49.30647" lon="1.22151">
        <ele>5</ele>
        <time>2017-03-21T14:22:16Z</time>
      </trkpt>
      <trkpt lat="49.30646" lon="1.22146">
        <ele>5</ele>
        <time>2017-03-21T14:22:16Z</time>
      </trkpt>
      <trkpt lat="49.30645" lon="1.22135">
        <ele>5</ele>
        <time>2017-03-21T14:22:33Z</time>
      </trkpt>
      <trkpt lat="49.30645" lon="1.22126">
        <ele>5</ele>
        <time>2017-03-21T14:22:33Z</time>
      </trkpt>
      <trkpt lat="49.30644" lon="1.22118">
        <ele>5</ele>
        <time>2017-03-21T14:22:33Z</time>
      </trkpt>
      <trkpt lat="49.30643" lon="1.2211">
        <ele>5</ele>
        <time>2017-03-21T14:22:33Z</time>
      </trkpt>
      <trkpt lat="49.30642" lon="1.22103">
        <ele>5</ele>
        <time>2017-03-21T14:22:49Z</time>
      </trkpt>
      <trkpt lat="49.30639" lon="1.22096">
        <ele>5</ele>
        <time>2017-03-21T14:22:49Z</time>
      </trkpt>
      <trkpt lat="49.30636" lon="1.22088">
        <ele>5</ele>
        <time>2017-03-21T14:22:49Z</time>
      </trkpt>
      <trkpt lat="49.30635" lon="1.2208">
        <ele>5</ele>
        <time>2017-03-21T14:22:49Z</time>
      </trkpt>
      <trkpt lat="49.30636" lon="1.22073">
        <ele>5</ele>
        <time>2017-03-21T14:23:05Z</time>
      </trkpt>
      <trkpt lat="49.30638" lon="1.22065">
        <ele>5</ele>
        <time>2017-03-21T14:23:05Z</time>
      </trkpt>
      <trkpt lat="49.30639" lon="1.22056">
        <ele>5</ele>
        <time>2017-03-21T14:23:05Z</time>
      </trkpt>
      <trkpt lat="49.3064" lon="1.22049">
        <ele>5</ele>
        <time>2017-03-21T14:23:05Z</time>
      </trkpt>
      <trkpt lat="49.3064" lon="1.2204">
        <ele>6</ele>
        <time>2017-03-21T14:23:21Z</time>
      </trkpt>
      <trkpt lat="49.3064" lon="1.22032">
        <ele>6</ele>
        <time>2017-03-21T14:23:21Z</time>
      </trkpt>
      <trkpt lat="49.30638" lon="1.22023">
        <ele>6</ele>
        <time>2017-03-21T14:23:21Z</time>
      </trkpt>
      <trkpt lat="49.30636" lon="1.22015">
        <ele>6</ele>
        <time>2017-03-21T14:23:21Z</time>
      </trkpt>
      <trkpt lat="49.30635" lon="1.22006">
        <ele>6</ele>
        <time>2017-03-21T14:23:37Z</time>
      </trkpt>
      <trkpt lat="49.30633" lon="1.21999">
        <ele>6</ele>
        <time>2017-03-21T14:23:37Z</time>
      </trkpt>
      <trkpt lat="49.30633" lon="1.21992">
        <ele>6</ele>
        <time>2017-03-21T14:23:37Z</time>
      </trkpt>
      <trkpt lat="49.30632" lon="1.21985">
        <ele>6</ele>
        <time>2017-03-21T14:23:37Z</time>
      </trkpt>
      <trkpt lat="49.3063" lon="1.21973">
        <ele>6</ele>
        <time>2017-03-21T14:23:53Z</time>
      </trkpt>
      <trkpt lat="49.30631" lon="1.21965">
        <ele>6</ele>
        <time>2017-03-21T14:23:53Z</time>
      </trkpt>
      <trkpt lat="49.30631" lon="1.21957">
        <ele>8</ele>
        <time>2017-03-21T14:23:53Z</time>
      </trkpt>
      <trkpt lat="49.3063" lon="1.21949">
        <ele>8</ele>
        <time>2017-03-21T14:23:53Z</time>
      </trkpt>
      <trkpt lat="49.30629" lon="1.21941">
        <ele>8</ele>
        <time>2017-03-21T14:24:09Z</time>
      </trkpt>
      <trkpt lat="49.30626" lon="1.21935">
        <ele>8</ele>
        <time>2017-03-21T14:24:09Z</time>
      </trkpt>
      <trkpt lat="49.30623" lon="1.2193">
        <ele>9</ele>
        <time>2017-03-21T14:24:09Z</time>
      </trkpt>
      <trkpt lat="49.30621" lon="1.21923">
        <ele>9</ele>
        <time>2017-03-21T14:24:09Z</time>
      </trkpt>
      <trkpt lat="49.30618" lon="1.21917">
        <ele>9</ele>
        <time>2017-03-21T14:24:30Z</time>
      </trkpt>
      <trkpt lat="49.30614" lon="1.21903">
        <ele>9</ele>
        <time>2017-03-21T14:24:30Z</time>
      </trkpt>
      <trkpt lat="49.30612" lon="1.21895">
        <ele>9</ele>
        <time>2017-03-21T14:24:30Z</time>
      </trkpt>
      <trkpt lat="49.30613" lon="1.21889">
        <ele>9</ele>
        <time>2017-03-21T14:24:30Z</time>
      </trkpt>
      <trkpt lat="49.30613" lon="1.21881">
        <ele>9</ele>
        <time>2017-03-21T14:24:44Z</time>
      </trkpt>
      <trkpt lat="49.30613" lon="1.2187">
        <ele>8</ele>
        <time>2017-03-21T14:24:44Z</time>
      </trkpt>
      <trkpt lat="49.30615" lon="1.2186">
        <ele>8</ele>
        <time>2017-03-21T14:24:44Z</time>
      </trkpt>
      <trkpt lat="49.30617" lon="1.21855">
        <ele>8</ele>
        <time>2017-03-21T14:24:44Z</time>
      </trkpt>
      <trkpt lat="49.30619" lon="1.2185">
        <ele>8</ele>
        <time>2017-03-21T14:25:00Z</time>
      </trkpt>
      <trkpt lat="49.30621" lon="1.21841">
        <ele>8</ele>
        <time>2017-03-21T14:25:00Z</time>
      </trkpt>
      <trkpt lat="49.30623" lon="1.21833">
        <ele>8</ele>
        <time>2017-03-21T14:25:00Z</time>
      </trkpt>
      <trkpt lat="49.30624" lon="1.21827">
        <ele>8</ele>
        <time>2017-03-21T14:25:00Z</time>
      </trkpt>
      <trkpt lat="49.30623" lon="1.21818">
        <ele>8</ele>
        <time>2017-03-21T14:25:16Z</time>
      </trkpt>
      <trkpt lat="49.30622" lon="1.21811">
        <ele>8</ele>
        <time>2017-03-21T14:25:16Z</time>
      </trkpt>
      <trkpt lat="49.30622" lon="1.21805">
        <ele>8</ele>
        <time>2017-03-21T14:25:16Z</time>
      </trkpt>
      <trkpt lat="49.3062" lon="1.21798">
        <ele>8</ele>
        <time>2017-03-21T14:25:16Z</time>
      </trkpt>
      <trkpt lat="49.30618" lon="1.21791">
        <ele>14</ele>
        <time>2017-03-21T14:25:33Z</time>
      </trkpt>
      <trkpt lat="49.30614" lon="1.21785">
        <ele>14</ele>
        <time>2017-03-21T14:25:33Z</time>
      </trkpt>
      <trkpt lat="49.3061" lon="1.2178">
        <ele>14</ele>
        <time>2017-03-21T14:25:33Z</time>
      </trkpt>
      <trkpt lat="49.30606" lon="1.21777">
        <ele>14</ele>
        <time>2017-03-21T14:25:33Z</time>
      </trkpt>
      <trkpt lat="49.30601" lon="1.21774">
        <ele>14</ele>
        <time>2017-03-21T14:25:49Z</time>
      </trkpt>
      <trkpt lat="49.30595" lon="1.21771">
        <ele>14</ele>
        <time>2017-03-21T14:25:49Z</time>
      </trkpt>
      <trkpt lat="49.30591" lon="1.21771">
        <ele>14</ele>
        <time>2017-03-21T14:25:49Z</time>
      </trkpt>
      <trkpt lat="49.30586" lon="1.21772">
        <ele>14</ele>
        <time>2017-03-21T14:25:49Z</time>
      </trkpt>
      <trkpt lat="49.30581" lon="1.21773">
        <ele>14</ele>
        <time>2017-03-21T14:26:04Z</time>
      </trkpt>
      <trkpt lat="49.30576" lon="1.21775">
        <ele>14</ele>
        <time>2017-03-21T14:26:04Z</time>
      </trkpt>
      <trkpt lat="49.3057" lon="1.21777">
        <ele>14</ele>
        <time>2017-03-21T14:26:04Z</time>
      </trkpt>
      <trkpt lat="49.30566" lon="1.21779">
        <ele>14</ele>
        <time>2017-03-21T14:26:04Z</time>
      </trkpt>
      <trkpt lat="49.30561" lon="1.2178">
        <ele>14</ele>
        <time>2017-03-21T14:26:21Z</time>
      </trkpt>
      <trkpt lat="49.30554" lon="1.21783">
        <ele>14</ele>
        <time>2017-03-21T14:26:21Z</time>
      </trkpt>
      <trkpt lat="49.30551" lon="1.21783">
        <ele>14</ele>
        <time>2017-03-21T14:26:21Z</time>
      </trkpt>
      <trkpt lat="49.30546" lon="1.21782">
        <ele>14</ele>
        <time>2017-03-21T14:26:21Z</time>
      </trkpt>
      <trkpt lat="49.30542" lon="1.21782">
        <ele>14</ele>
        <time>2017-03-21T14:26:37Z</time>
      </trkpt>
      <trkpt lat="49.30536" lon="1.21782">
        <ele>17</ele>
        <time>2017-03-21T14:26:37Z</time>
      </trkpt>
      <trkpt lat="49.3053" lon="1.21782">
        <ele>17</ele>
        <time>2017-03-21T14:26:37Z</time>
      </trkpt>
      <trkpt lat="49.30526" lon="1.21783">
        <ele>17</ele>
        <time>2017-03-21T14:26:37Z</time>
      </trkpt>
      <trkpt lat="49.30518" lon="1.21783">
        <ele>17</ele>
        <time>2017-03-21T14:26:53Z</time>
      </trkpt>
      <trkpt lat="49.30513" lon="1.21783">
        <ele>17</ele>
        <time>2017-03-21T14:26:53Z</time>
      </trkpt>
      <trkpt lat="49.30507" lon="1.21787">
        <ele>17</ele>
        <time>2017-03-21T14:26:53Z</time>
      </trkpt>
      <trkpt lat="49.30501" lon="1.2179">
        <ele>17</ele>
        <time>2017-03-21T14:26:53Z</time>
      </trkpt>
      <trkpt lat="49.30496" lon="1.21792">
        <ele>9</ele>
        <time>2017-03-21T14:27:09Z</time>
      </trkpt>
      <trkpt lat="49.30492" lon="1.21792">
        <ele>9</ele>
        <time>2017-03-21T14:27:09Z</time>
      </trkpt>
      <trkpt lat="49.30487" lon="1.21794">
        <ele>9</ele>
        <time>2017-03-21T14:27:09Z</time>
      </trkpt>
      <trkpt lat="49.30483" lon="1.21795">
        <ele>9</ele>
        <time>2017-03-21T14:27:09Z</time>
      </trkpt>
      <trkpt lat="49.30479" lon="1.21797">
        <ele>9</ele>
        <time>2017-03-21T14:27:25Z</time>
      </trkpt>
      <trkpt lat="49.30474" lon="1.21797">
        <ele>9</ele>
        <time>2017-03-21T14:27:25Z</time>
      </trkpt>
      <trkpt lat="49.30469" lon="1.21796">
        <ele>9</ele>
        <time>2017-03-21T14:27:25Z</time>
      </trkpt>
      <trkpt lat="49.30462" lon="1.21795">
        <ele>9</ele>
        <time>2017-03-21T14:27:25Z</time>
      </trkpt>
      <trkpt lat="49.30459" lon="1.21794">
        <ele>9</ele>
        <time>2017-03-21T14:27:41Z</time>
      </trkpt>
      <trkpt lat="49.30455" lon="1.21791">
        <ele>8</ele>
        <time>2017-03-21T14:27:41Z</time>
      </trkpt>
      <trkpt lat="49.3045" lon="1.21786">
        <ele>8</ele>
        <time>2017-03-21T14:27:41Z</time>
      </trkpt>
      <trkpt lat="49.30446" lon="1.21781">
        <ele>8</ele>
        <time>2017-03-21T14:27:41Z</time>
      </trkpt>
      <trkpt lat="49.30442" lon="1.21778">
        <ele>8</ele>
        <time>2017-03-21T14:27:57Z</time>
      </trkpt>
      <trkpt lat="49.30438" lon="1.21772">
        <ele>8</ele>
        <time>2017-03-21T14:27:57Z</time>
      </trkpt>
      <trkpt lat="49.30435" lon="1.21765">
        <ele>8</ele>
        <time>2017-03-21T14:27:57Z</time>
      </trkpt>
      <trkpt lat="49.30432" lon="1.21759">
        <ele>8</ele>
        <time>2017-03-21T14:27:57Z</time>
      </trkpt>
      <trkpt lat="49.30429" lon="1.21756">
        <ele>8</ele>
        <time>2017-03-21T14:28:13Z</time>
      </trkpt>
      <trkpt lat="49.30426" lon="1.21749">
        <ele>8</ele>
        <time>2017-03-21T14:28:13Z</time>
      </trkpt>
      <trkpt lat="49.30423" lon="1.21742">
        <ele>8</ele>
        <time>2017-03-21T14:28:13Z</time>
      </trkpt>
      <trkpt lat="49.30418" lon="1.21734">
        <ele>8</ele>
        <time>2017-03-21T14:28:13Z</time>
      </trkpt>
      <trkpt lat="49.30414" lon="1.2173">
        <ele>8</ele>
        <time>2017-03-21T14:28:28Z</time>
      </trkpt>
      <trkpt lat="49.30411" lon="1.21726">
        <ele>8</ele>
        <time>2017-03-21T14:28:28Z</time>
      </trkpt>
      <trkpt lat="49.30409" lon="1.21719">
        <ele>8</ele>
        <time>2017-03-21T14:28:28Z</time>
      </trkpt>
      <trkpt lat="49.30407" lon="1.21712">
        <ele>8</ele>
        <time>2017-03-21T14:28:28Z</time>
      </trkpt>
      <trkpt lat="49.30404" lon="1.21707">
        <ele>12</ele>
        <time>2017-03-21T14:28:45Z</time>
      </trkpt>
      <trkpt lat="49.30402" lon="1.21702">
        <ele>12</ele>
        <time>2017-03-21T14:28:45Z</time>
      </trkpt>
      <trkpt lat="49.30396" lon="1.21694">
        <ele>12</ele>
        <time>2017-03-21T14:28:45Z</time>
      </trkpt>
      <trkpt lat="49.30392" lon="1.21691">
        <ele>12</ele>
        <time>2017-03-21T14:28:45Z</time>
      </trkpt>
      <trkpt lat="49.30389" lon="1.21685">
        <ele>12</ele>
        <time>2017-03-21T14:29:01Z</time>
      </trkpt>
      <trkpt lat="49.30387" lon="1.21679">
        <ele>12</ele>
        <time>2017-03-21T14:29:01Z</time>
      </trkpt>
      <trkpt lat="49.30384" lon="1.21673">
        <ele>12</ele>
        <time>2017-03-21T14:29:01Z</time>
      </trkpt>
      <trkpt lat="49.30379" lon="1.21667">
        <ele>12</ele>
        <time>2017-03-21T14:29:01Z</time>
      </trkpt>
      <trkpt lat="49.30375" lon="1.21663">
        <ele>12</ele>
        <time>2017-03-21T14:29:17Z</time>
      </trkpt>
      <trkpt lat="49.30373" lon="1.21656">
        <ele>6</ele>
        <time>2017-03-21T14:29:17Z</time>
      </trkpt>
      <trkpt lat="49.30369" lon="1.21647">
        <ele>6</ele>
        <time>2017-03-21T14:29:17Z</time>
      </trkpt>
      <trkpt lat="49.30367" lon="1.21643">
        <ele>6</ele>
        <time>2017-03-21T14:29:17Z</time>
      </trkpt>
      <trkpt lat="49.30364" lon="1.21638">
        <ele>6</ele>
        <time>2017-03-21T14:29:32Z</time>
      </trkpt>
      <trkpt lat="49.30361" lon="1.21634">
        <ele>6</ele>
        <time>2017-03-21T14:29:32Z</time>
      </trkpt>
      <trkpt lat="49.30356" lon="1.21626">
        <ele>6</ele>
        <time>2017-03-21T14:29:32Z</time>
      </trkpt>
      <trkpt lat="49.30353" lon="1.21622">
        <ele>10</ele>
        <time>2017-03-21T14:29:32Z</time>
      </trkpt>
      <trkpt lat="49.3035" lon="1.21615">
        <ele>10</ele>
        <time>2017-03-21T14:29:49Z</time>
      </trkpt>
      <trkpt lat="49.30347" lon="1.21607">
        <ele>10</ele>
        <time>2017-03-21T14:29:49Z</time>
      </trkpt>
      <trkpt lat="49.30342" lon="1.216">
        <ele>10</ele>
        <time>2017-03-21T14:29:49Z</time>
      </trkpt>
      <trkpt lat="49.3034" lon="1.21596">
        <ele>10</ele>
        <time>2017-03-21T14:29:49Z</time>
      </trkpt>
      <trkpt lat="49.30337" lon="1.21591">
        <ele>10</ele>
        <time>2017-03-21T14:30:05Z</time>
      </trkpt>
      <trkpt lat="49.30333" lon="1.21587">
        <ele>10</ele>
        <time>2017-03-21T14:30:05Z</time>
      </trkpt>
      <trkpt lat="49.30329" lon="1.21581">
        <ele>10</ele>
        <time>2017-03-21T14:30:05Z</time>
      </trkpt>
      <trkpt lat="49.30324" lon="1.21578">
        <ele>10</ele>
        <time>2017-03-21T14:30:05Z</time>
      </trkpt>
      <trkpt lat="49.30321" lon="1.21573">
        <ele>10</ele>
        <time>2017-03-21T14:30:20Z</time>
      </trkpt>
      <trkpt lat="49.30318" lon="1.21569">
        <ele>10</ele>
        <time>2017-03-21T14:30:20Z</time>
      </trkpt>
      <trkpt lat="49.30315" lon="1.21564">
        <ele>10</ele>
        <time>2017-03-21T14:30:20Z</time>
      </trkpt>
      <trkpt lat="49.30313" lon="1.2156">
        <ele>10</ele>
        <time>2017-03-21T14:30:20Z</time>
      </trkpt>
      <trkpt lat="49.3031" lon="1.21553">
        <ele>10</ele>
        <time>2017-03-21T14:30:36Z</time>
      </trkpt>
      <trkpt lat="49.30307" lon="1.21546">
        <ele>10</ele>
        <time>2017-03-21T14:30:36Z</time>
      </trkpt>
      <trkpt lat="49.30303" lon="1.2154">
        <ele>12</ele>
        <time>2017-03-21T14:30:36Z</time>
      </trkpt>
      <trkpt lat="49.30302" lon="1.21535">
        <ele>12</ele>
        <time>2017-03-21T14:30:36Z</time>
      </trkpt>
      <trkpt lat="49.30302" lon="1.21528">
        <ele>12</ele>
        <time>2017-03-21T14:30:53Z</time>
      </trkpt>
      <trkpt lat="49.303" lon="1.21522">
        <ele>12</ele>
        <time>2017-03-21T14:30:53Z</time>
      </trkpt>
      <trkpt lat="49.30296" lon="1.21518">
        <ele>12</ele>
        <time>2017-03-21T14:30:53Z</time>
      </trkpt>
      <trkpt lat="49.30292" lon="1.21514">
        <ele>12</ele>
        <time>2017-03-21T14:30:53Z</time>
      </trkpt>
      <trkpt lat="49.30289" lon="1.2151">
        <ele>10</ele>
        <time>2017-03-21T14:31:09Z</time>
      </trkpt>
      <trkpt lat="49.30288" lon="1.21502">
        <ele>10</ele>
        <time>2017-03-21T14:31:09Z</time>
      </trkpt>
      <trkpt lat="49.30284" lon="1.21495">
        <ele>10</ele>
        <time>2017-03-21T14:31:09Z</time>
      </trkpt>
      <trkpt lat="49.3028" lon="1.21491">
        <ele>10</ele>
        <time>2017-03-21T14:31:09Z</time>
      </trkpt>
      <trkpt lat="49.30276" lon="1.21487">
        <ele>10</ele>
        <time>2017-03-21T14:31:25Z</time>
      </trkpt>
      <trkpt lat="49.30273" lon="1.21482">
        <ele>10</ele>
        <time>2017-03-21T14:31:25Z</time>
      </trkpt>
      <trkpt lat="49.30269" lon="1.21478">
        <ele>10</ele>
        <time>2017-03-21T14:31:25Z</time>
      </trkpt>
      <trkpt lat="49.30266" lon="1.21473">
        <ele>10</ele>
        <time>2017-03-21T14:31:25Z</time>
      </trkpt>
      <trkpt lat="49.30262" lon="1.21469">
        <ele>10</ele>
        <time>2017-03-21T14:31:41Z</time>
      </trkpt>
      <trkpt lat="49.30257" lon="1.21462">
        <ele>10</ele>
        <time>2017-03-21T14:31:41Z</time>
      </trkpt>
      <trkpt lat="49.30253" lon="1.2146">
        <ele>10</ele>
        <time>2017-03-21T14:31:41Z</time>
      </trkpt>
      <trkpt lat="49.30249" lon="1.21459">
        <ele>10</ele>
        <time>2017-03-21T14:31:41Z</time>
      </trkpt>
      <trkpt lat="49.30244" lon="1.21457">
        <ele>11</ele>
        <time>2017-03-21T14:31:57Z</time>
      </trkpt>
      <trkpt lat="49.3024" lon="1.21452">
        <ele>11</ele>
        <time>2017-03-21T14:31:57Z</time>
      </trkpt>
      <trkpt lat="49.30235" lon="1.21452">
        <ele>11</ele>
        <time>2017-03-21T14:31:57Z</time>
      </trkpt>
      <trkpt lat="49.30231" lon="1.21452">
        <ele>11</ele>
        <time>2017-03-21T14:31:57Z</time>
      </trkpt>
      <trkpt lat="49.30226" lon="1.21451">
        <ele>11</ele>
        <time>2017-03-21T14:32:13Z</time>
      </trkpt>
      <trkpt lat="49.30222" lon="1.2145">
        <ele>11</ele>
        <time>2017-03-21T14:32:13Z</time>
      </trkpt>
      <trkpt lat="49.30216" lon="1.21451">
        <ele>11</ele>
        <time>2017-03-21T14:32:13Z</time>
      </trkpt>
      <trkpt lat="49.30211" lon="1.2145">
        <ele>11</ele>
        <time>2017-03-21T14:32:13Z</time>
      </trkpt>
      <trkpt lat="49.30206" lon="1.2145">
        <ele>9</ele>
        <time>2017-03-21T14:32:29Z</time>
      </trkpt>
      <trkpt lat="49.30202" lon="1.21448">
        <ele>9</ele>
        <time>2017-03-21T14:32:29Z</time>
      </trkpt>
      <trkpt lat="49.30198" lon="1.21446">
        <ele>9</ele>
        <time>2017-03-21T14:32:29Z</time>
      </trkpt>
      <trkpt lat="49.30194" lon="1.21442">
        <ele>9</ele>
        <time>2017-03-21T14:32:29Z</time>
      </trkpt>
      <trkpt lat="49.3019" lon="1.21438">
        <ele>9</ele>
        <time>2017-03-21T14:32:45Z</time>
      </trkpt>
      <trkpt lat="49.30185" lon="1.21436">
        <ele>9</ele>
        <time>2017-03-21T14:32:45Z</time>
      </trkpt>
      <trkpt lat="49.3018" lon="1.21436">
        <ele>9</ele>
        <time>2017-03-21T14:32:45Z</time>
      </trkpt>
      <trkpt lat="49.30176" lon="1.21434">
        <ele>9</ele>
        <time>2017-03-21T14:32:45Z</time>
      </trkpt>
      <trkpt lat="49.30172" lon="1.21432">
        <ele>9</ele>
        <time>2017-03-21T14:33:01Z</time>
      </trkpt>
      <trkpt lat="49.30168" lon="1.21429">
        <ele>9</ele>
        <time>2017-03-21T14:33:01Z</time>
      </trkpt>
      <trkpt lat="49.30163" lon="1.21424">
        <ele>9</ele>
        <time>2017-03-21T14:33:01Z</time>
      </trkpt>
      <trkpt lat="49.3016" lon="1.21422">
        <ele>9</ele>
        <time>2017-03-21T14:33:01Z</time>
      </trkpt>
      <trkpt lat="49.30154" lon="1.21421">
        <ele>9</ele>
        <time>2017-03-21T14:33:17Z</time>
      </trkpt>
      <trkpt lat="49.30147" lon="1.21419">
        <ele>9</ele>
        <time>2017-03-21T14:33:17Z</time>
      </trkpt>
      <trkpt lat="49.30142" lon="1.21415">
        <ele>9</ele>
        <time>2017-03-21T14:33:17Z</time>
      </trkpt>
      <trkpt lat="49.30136" lon="1.21413">
        <ele>9</ele>
        <time>2017-03-21T14:33:17Z</time>
      </trkpt>
      <trkpt lat="49.30132" lon="1.2141">
        <ele>9</ele>
        <time>2017-03-21T14:33:33Z</time>
      </trkpt>
      <trkpt lat="49.30129" lon="1.21409">
        <ele>9</ele>
        <time>2017-03-21T14:33:33Z</time>
      </trkpt>
      <trkpt lat="49.30124" lon="1.21409">
        <ele>9</ele>
        <time>2017-03-21T14:33:33Z</time>
      </trkpt>
      <trkpt lat="49.3012" lon="1.21407">
        <ele>9</ele>
        <time>2017-03-21T14:33:33Z</time>
      </trkpt>
      <trkpt lat="49.30116" lon="1.21404">
        <ele>9</ele>
        <time>2017-03-21T14:33:49Z</time>
      </trkpt>
      <trkpt lat="49.30111" lon="1.21398">
        <ele>9</ele>
        <time>2017-03-21T14:33:50Z</time>
      </trkpt>
      <trkpt lat="49.30109" lon="1.21395">
        <ele>9</ele>
        <time>2017-03-21T14:33:50Z</time>
      </trkpt>
      <trkpt lat="49.30104" lon="1.2139">
        <ele>9</ele>
        <time>2017-03-21T14:33:50Z</time>
      </trkpt>
      <trkpt lat="49.301" lon="1.21388">
        <ele>9</ele>
        <time>2017-03-21T14:34:04Z</time>
      </trkpt>
      <trkpt lat="49.30095" lon="1.21385">
        <ele>9</ele>
        <time>2017-03-21T14:34:04Z</time>
      </trkpt>
      <trkpt lat="49.30089" lon="1.21386">
        <ele>9</ele>
        <time>2017-03-21T14:34:04Z</time>
      </trkpt>
      <trkpt lat="49.30084" lon="1.21388">
        <ele>9</ele>
        <time>2017-03-21T14:34:05Z</time>
      </trkpt>
      <trkpt lat="49.30079" lon="1.21388">
        <ele>9</ele>
        <time>2017-03-21T14:34:21Z</time>
      </trkpt>
      <trkpt lat="49.30074" lon="1.21389">
        <ele>9</ele>
        <time>2017-03-21T14:34:21Z</time>
      </trkpt>
      <trkpt lat="49.30069" lon="1.21392">
        <ele>9</ele>
        <time>2017-03-21T14:34:21Z</time>
      </trkpt>
      <trkpt lat="49.30066" lon="1.21396">
        <ele>9</ele>
        <time>2017-03-21T14:34:21Z</time>
      </trkpt>
      <trkpt lat="49.30062" lon="1.21398">
        <ele>9</ele>
        <time>2017-03-21T14:34:37Z</time>
      </trkpt>
      <trkpt lat="49.30057" lon="1.21401">
        <ele>9</ele>
        <time>2017-03-21T14:34:37Z</time>
      </trkpt>
      <trkpt lat="49.30052" lon="1.21401">
        <ele>9</ele>
        <time>2017-03-21T14:34:37Z</time>
      </trkpt>
      <trkpt lat="49.30048" lon="1.214">
        <ele>9</ele>
        <time>2017-03-21T14:34:37Z</time>
      </trkpt>
      <trkpt lat="49.30043" lon="1.21405">
        <ele>9</ele>
        <time>2017-03-21T14:34:53Z</time>
      </trkpt>
      <trkpt lat="49.30039" lon="1.21408">
        <ele>8</ele>
        <time>2017-03-21T14:34:53Z</time>
      </trkpt>
      <trkpt lat="49.30033" lon="1.21409">
        <ele>8</ele>
        <time>2017-03-21T14:34:53Z</time>
      </trkpt>
      <trkpt lat="49.30029" lon="1.21409">
        <ele>8</ele>
        <time>2017-03-21T14:34:53Z</time>
      </trkpt>
      <trkpt lat="49.30023" lon="1.2141">
        <ele>8</ele>
        <time>2017-03-21T14:35:09Z</time>
      </trkpt>
      <trkpt lat="49.30018" lon="1.2141">
        <ele>8</ele>
        <time>2017-03-21T14:35:09Z</time>
      </trkpt>
      <trkpt lat="49.30014" lon="1.21409">
        <ele>8</ele>
        <time>2017-03-21T14:35:09Z</time>
      </trkpt>
      <trkpt lat="49.3001" lon="1.21409">
        <ele>8</ele>
        <time>2017-03-21T14:35:09Z</time>
      </trkpt>
      <trkpt lat="49.30006" lon="1.21408">
        <ele>8</ele>
        <time>2017-03-21T14:35:25Z</time>
      </trkpt>
      <trkpt lat="49.30001" lon="1.21407">
        <ele>8</ele>
        <time>2017-03-21T14:35:25Z</time>
      </trkpt>
      <trkpt lat="49.29997" lon="1.21405">
        <ele>8</ele>
        <time>2017-03-21T14:35:25Z</time>
      </trkpt>
      <trkpt lat="49.29992" lon="1.21402">
        <ele>8</ele>
        <time>2017-03-21T14:35:25Z</time>
      </trkpt>
      <trkpt lat="49.29988" lon="1.21398">
        <ele>8</ele>
        <time>2017-03-21T14:35:40Z</time>
      </trkpt>
      <trkpt lat="49.29986" lon="1.21394">
        <ele>8</ele>
        <time>2017-03-21T14:35:40Z</time>
      </trkpt>
      <trkpt lat="49.29985" lon="1.21387">
        <ele>8</ele>
        <time>2017-03-21T14:35:40Z</time>
      </trkpt>
      <trkpt lat="49.29983" lon="1.21382">
        <ele>8</ele>
        <time>2017-03-21T14:35:40Z</time>
      </trkpt>
      <trkpt lat="49.29982" lon="1.21379">
        <ele>8</ele>
        <time>2017-03-21T14:35:56Z</time>
      </trkpt>
      <trkpt lat="49.2998" lon="1.21369">
        <ele>7</ele>
        <time>2017-03-21T14:35:56Z</time>
      </trkpt>
      <trkpt lat="49.2998" lon="1.21363">
        <ele>7</ele>
        <time>2017-03-21T14:35:56Z</time>
      </trkpt>
      <trkpt lat="49.29982" lon="1.21354">
        <ele>7</ele>
        <time>2017-03-21T14:35:56Z</time>
      </trkpt>
      <trkpt lat="49.29986" lon="1.21346">
        <ele>7</ele>
        <time>2017-03-21T14:36:13Z</time>
      </trkpt>
      <trkpt lat="49.29991" lon="1.21339">
        <ele>7</ele>
        <time>2017-03-21T14:36:13Z</time>
      </trkpt>
      <trkpt lat="49.29996" lon="1.21331">
        <ele>7</ele>
        <time>2017-03-21T14:36:13Z</time>
      </trkpt>
      <trkpt lat="49.29998" lon="1.21323">
        <ele>7</ele>
        <time>2017-03-21T14:36:13Z</time>
      </trkpt>
      <trkpt lat="49.30001" lon="1.21318">
        <ele>7</ele>
        <time>2017-03-21T14:36:33Z</time>
      </trkpt>
      <trkpt lat="49.30005" lon="1.21317">
        <ele>7</ele>
        <time>2017-03-21T14:36:33Z</time>
      </trkpt>
      <trkpt lat="49.30007" lon="1.21314">
        <ele>7</ele>
        <time>2017-03-21T14:36:33Z</time>
      </trkpt>
      <trkpt lat="49.30007" lon="1.21308">
        <ele>7</ele>
        <time>2017-03-21T14:36:33Z</time>
      </trkpt>
      <trkpt lat="49.30006" lon="1.21301">
        <ele>7</ele>
        <time>2017-03-21T14:36:33Z</time>
      </trkpt>
      <trkpt lat="49.30006" lon="1.21294">
        <ele>7</ele>
        <time>2017-03-21T14:36:50Z</time>
      </trkpt>
      <trkpt lat="49.30005" lon="1.21287">
        <ele>4</ele>
        <time>2017-03-21T14:36:50Z</time>
      </trkpt>
      <trkpt lat="49.30005" lon="1.2128">
        <ele>4</ele>
        <time>2017-03-21T14:36:50Z</time>
      </trkpt>
      <trkpt lat="49.30004" lon="1.21271">
        <ele>4</ele>
        <time>2017-03-21T14:36:50Z</time>
      </trkpt>
      <trkpt lat="49.30003" lon="1.21266">
        <ele>4</ele>
        <time>2017-03-21T14:37:05Z</time>
      </trkpt>
      <trkpt lat="49.30003" lon="1.21259">
        <ele>4</ele>
        <time>2017-03-21T14:37:05Z</time>
      </trkpt>
      <trkpt lat="49.30002" lon="1.21252">
        <ele>4</ele>
        <time>2017-03-21T14:37:05Z</time>
      </trkpt>
      <trkpt lat="49.30003" lon="1.21246">
        <ele>4</ele>
        <time>2017-03-21T14:37:05Z</time>
      </trkpt>
      <trkpt lat="49.30004" lon="1.2124">
        <ele>4</ele>
        <time>2017-03-21T14:37:21Z</time>
      </trkpt>
      <trkpt lat="49.30004" lon="1.21232">
        <ele>4</ele>
        <time>2017-03-21T14:37:21Z</time>
      </trkpt>
      <trkpt lat="49.30005" lon="1.21227">
        <ele>4</ele>
        <time>2017-03-21T14:37:21Z</time>
      </trkpt>
      <trkpt lat="49.30005" lon="1.21226">
        <ele>4</ele>
        <time>2017-03-21T14:37:21Z</time>
      </trkpt>
      <trkpt lat="49.30007" lon="1.21214">
        <ele>4</ele>
        <time>2017-03-21T14:37:37Z</time>
      </trkpt>
      <trkpt lat="49.30007" lon="1.21207">
        <ele>4</ele>
        <time>2017-03-21T14:37:37Z</time>
      </trkpt>
      <trkpt lat="49.30009" lon="1.21201">
        <ele>4</ele>
        <time>2017-03-21T14:37:37Z</time>
      </trkpt>
      <trkpt lat="49.30011" lon="1.21193">
        <ele>4</ele>
        <time>2017-03-21T14:37:37Z</time>
      </trkpt>
      <trkpt lat="49.30012" lon="1.21188">
        <ele>4</ele>
        <time>2017-03-21T14:37:52Z</time>
      </trkpt>
      <trkpt lat="49.30014" lon="1.2118">
        <ele>4</ele>
        <time>2017-03-21T14:37:52Z</time>
      </trkpt>
      <trkpt lat="49.30014" lon="1.21176">
        <ele>4</ele>
        <time>2017-03-21T14:37:52Z</time>
      </trkpt>
      <trkpt lat="49.30015" lon="1.21171">
        <ele>4</ele>
        <time>2017-03-21T14:37:52Z</time>
      </trkpt>
      <trkpt lat="49.30015" lon="1.21166">
        <ele>4</ele>
        <time>2017-03-21T14:38:09Z</time>
      </trkpt>
      <trkpt lat="49.30015" lon="1.21163">
        <ele>4</ele>
        <time>2017-03-21T14:38:09Z</time>
      </trkpt>
      <trkpt lat="49.30017" lon="1.21159">
        <ele>4</ele>
        <time>2017-03-21T14:38:09Z</time>
      </trkpt>
      <trkpt lat="49.3003" lon="1.21189">
        <ele>4</ele>
        <time>2017-03-21T14:38:09Z</time>
      </trkpt>
      <trkpt lat="49.30038" lon="1.21182">
        <ele>4</ele>
        <time>2017-03-21T14:38:25Z</time>
      </trkpt>
      <trkpt lat="49.30057" lon="1.21194">
        <ele>4</ele>
        <time>2017-03-21T14:38:25Z</time>
      </trkpt>
      <trkpt lat="49.3007" lon="1.21192">
        <ele>4</ele>
        <time>2017-03-21T14:38:25Z</time>
      </trkpt>
      <trkpt lat="49.30083" lon="1.21192">
        <ele>4</ele>
        <time>2017-03-21T14:38:25Z</time>
      </trkpt>
      <trkpt lat="49.30094" lon="1.21193">
        <ele>4</ele>
        <time>2017-03-21T14:38:40Z</time>
      </trkpt>
      <trkpt lat="49.30105" lon="1.21188">
        <ele>4</ele>
        <time>2017-03-21T14:38:40Z</time>
      </trkpt>
      <trkpt lat="49.30114" lon="1.21185">
        <ele>4</ele>
        <time>2017-03-21T14:38:40Z</time>
      </trkpt>
      <trkpt lat="49.30119" lon="1.21179">
        <ele>4</ele>
        <time>2017-03-21T14:38:40Z</time>
      </trkpt>
      <trkpt lat="49.30125" lon="1.21173">
        <ele>4</ele>
        <time>2017-03-21T14:38:58Z</time>
      </trkpt>
      <trkpt lat="49.30133" lon="1.21171">
        <ele>5</ele>
        <time>2017-03-21T14:38:58Z</time>
      </trkpt>
      <trkpt lat="49.30142" lon="1.21166">
        <ele>5</ele>
        <time>2017-03-21T14:38:58Z</time>
      </trkpt>
      <trkpt lat="49.30149" lon="1.21161">
        <ele>5</ele>
        <time>2017-03-21T14:38:58Z</time>
      </trkpt>
      <trkpt lat="49.30152" lon="1.21157">
        <ele>5</ele>
        <time>2017-03-21T14:39:13Z</time>
      </trkpt>
      <trkpt lat="49.30156" lon="1.21151">
        <ele>5</ele>
        <time>2017-03-21T14:39:13Z</time>
      </trkpt>
      <trkpt lat="49.30159" lon="1.21147">
        <ele>5</ele>
        <time>2017-03-21T14:39:13Z</time>
      </trkpt>
      <trkpt lat="49.30161" lon="1.21139">
        <ele>5</ele>
        <time>2017-03-21T14:39:13Z</time>
      </trkpt>
      <trkpt lat="49.30162" lon="1.2113">
        <ele>5</ele>
        <time>2017-03-21T14:39:29Z</time>
      </trkpt>
      <trkpt lat="49.30163" lon="1.21123">
        <ele>4</ele>
        <time>2017-03-21T14:39:29Z</time>
      </trkpt>
      <trkpt lat="49.30165" lon="1.2112">
        <ele>4</ele>
        <time>2017-03-21T14:39:29Z</time>
      </trkpt>
      <trkpt lat="49.30168" lon="1.21116">
        <ele>4</ele>
        <time>2017-03-21T14:39:29Z</time>
      </trkpt>
      <trkpt lat="49.30171" lon="1.21108">
        <ele>4</ele>
        <time>2017-03-21T14:39:44Z</time>
      </trkpt>
      <trkpt lat="49.30175" lon="1.21103">
        <ele>4</ele>
        <time>2017-03-21T14:39:44Z</time>
      </trkpt>
      <trkpt lat="49.3018" lon="1.21098">
        <ele>4</ele>
        <time>2017-03-21T14:39:44Z</time>
      </trkpt>
      <trkpt lat="49.30187" lon="1.21097">
        <ele>4</ele>
        <time>2017-03-21T14:39:44Z</time>
      </trkpt>
      <trkpt lat="49.30191" lon="1.21095">
        <ele>4</ele>
        <time>2017-03-21T14:40:04Z</time>
      </trkpt>
      <trkpt lat="49.30194" lon="1.21092">
        <ele>4</ele>
        <time>2017-03-21T14:40:04Z</time>
      </trkpt>
      <trkpt lat="49.30195" lon="1.21089">
        <ele>4</ele>
        <time>2017-03-21T14:40:04Z</time>
      </trkpt>
      <trkpt lat="49.30197" lon="1.21086">
        <ele>4</ele>
        <time>2017-03-21T14:40:04Z</time>
      </trkpt>
      <trkpt lat="49.30199" lon="1.21082">
        <ele>4</ele>
        <time>2017-03-21T14:40:04Z</time>
      </trkpt>
      <trkpt lat="49.30206" lon="1.2108">
        <ele>4</ele>
        <time>2017-03-21T14:40:20Z</time>
      </trkpt>
      <trkpt lat="49.30209" lon="1.21074">
        <ele>6</ele>
        <time>2017-03-21T14:40:20Z</time>
      </trkpt>
      <trkpt lat="49.30214" lon="1.2107">
        <ele>6</ele>
        <time>2017-03-21T14:40:20Z</time>
      </trkpt>
      <trkpt lat="49.30222" lon="1.21067">
        <ele>6</ele>
        <time>2017-03-21T14:40:20Z</time>
      </trkpt>
      <trkpt lat="49.30226" lon="1.21062">
        <ele>6</ele>
        <time>2017-03-21T14:40:36Z</time>
      </trkpt>
      <trkpt lat="49.3023" lon="1.21058">
        <ele>6</ele>
        <time>2017-03-21T14:40:36Z</time>
      </trkpt>
      <trkpt lat="49.30232" lon="1.21053">
        <ele>6</ele>
        <time>2017-03-21T14:40:36Z</time>
      </trkpt>
      <trkpt lat="49.30235" lon="1.21049">
        <ele>6</ele>
        <time>2017-03-21T14:40:36Z</time>
      </trkpt>
      <trkpt lat="49.30237" lon="1.21045">
        <ele>6</ele>
        <time>2017-03-21T14:40:53Z</time>
      </trkpt>
      <trkpt lat="49.30238" lon="1.21041">
        <ele>4</ele>
        <time>2017-03-21T14:40:53Z</time>
      </trkpt>
      <trkpt lat="49.30238" lon="1.21036">
        <ele>4</ele>
        <time>2017-03-21T14:40:53Z</time>
      </trkpt>
      <trkpt lat="49.3024" lon="1.2103">
        <ele>4</ele>
        <time>2017-03-21T14:40:53Z</time>
      </trkpt>
      <trkpt lat="49.30238" lon="1.21024">
        <ele>4</ele>
        <time>2017-03-21T14:41:09Z</time>
      </trkpt>
      <trkpt lat="49.30239" lon="1.21016">
        <ele>4</ele>
        <time>2017-03-21T14:41:09Z</time>
      </trkpt>
      <trkpt lat="49.30243" lon="1.21011">
        <ele>4</ele>
        <time>2017-03-21T14:41:09Z</time>
      </trkpt>
      <trkpt lat="49.30247" lon="1.21002">
        <ele>4</ele>
        <time>2017-03-21T14:41:09Z</time>
      </trkpt>
      <trkpt lat="49.30248" lon="1.20995">
        <ele>4</ele>
        <time>2017-03-21T14:41:25Z</time>
      </trkpt>
      <trkpt lat="49.30247" lon="1.20989">
        <ele>4</ele>
        <time>2017-03-21T14:41:25Z</time>
      </trkpt>
      <trkpt lat="49.30247" lon="1.20981">
        <ele>4</ele>
        <time>2017-03-21T14:41:25Z</time>
      </trkpt>
      <trkpt lat="49.30248" lon="1.20974">
        <ele>4</ele>
        <time>2017-03-21T14:41:25Z</time>
      </trkpt>
      <trkpt lat="49.30248" lon="1.20967">
        <ele>4</ele>
        <time>2017-03-21T14:41:41Z</time>
      </trkpt>
      <trkpt lat="49.3025" lon="1.20961">
        <ele>4</ele>
        <time>2017-03-21T14:41:41Z</time>
      </trkpt>
      <trkpt lat="49.30249" lon="1.20953">
        <ele>4</ele>
        <time>2017-03-21T14:41:41Z</time>
      </trkpt>
      <trkpt lat="49.30248" lon="1.20946">
        <ele>4</ele>
        <time>2017-03-21T14:41:41Z</time>
      </trkpt>
      <trkpt lat="49.30247" lon="1.2094">
        <ele>4</ele>
        <time>2017-03-21T14:41:57Z</time>
      </trkpt>
      <trkpt lat="49.30244" lon="1.20933">
        <ele>4</ele>
        <time>2017-03-21T14:41:57Z</time>
      </trkpt>
      <trkpt lat="49.30242" lon="1.20925">
        <ele>4</ele>
        <time>2017-03-21T14:41:57Z</time>
      </trkpt>
      <trkpt lat="49.30241" lon="1.20919">
        <ele>4</ele>
        <time>2017-03-21T14:41:57Z</time>
      </trkpt>
      <trkpt lat="49.3024" lon="1.2091">
        <ele>4</ele>
        <time>2017-03-21T14:42:12Z</time>
      </trkpt>
      <trkpt lat="49.30238" lon="1.20905">
        <ele>4</ele>
        <time>2017-03-21T14:42:12Z</time>
      </trkpt>
      <trkpt lat="49.30234" lon="1.209">
        <ele>4</ele>
        <time>2017-03-21T14:42:12Z</time>
      </trkpt>
      <trkpt lat="49.30231" lon="1.20897">
        <ele>4</ele>
        <time>2017-03-21T14:42:12Z</time>
      </trkpt>
      <trkpt lat="49.30228" lon="1.20895">
        <ele>4</ele>
        <time>2017-03-21T14:42:29Z</time>
      </trkpt>
      <trkpt lat="49.30225" lon="1.20895">
        <ele>4</ele>
        <time>2017-03-21T14:42:29Z</time>
      </trkpt>
      <trkpt lat="49.3022" lon="1.20893">
        <ele>4</ele>
        <time>2017-03-21T14:42:29Z</time>
      </trkpt>
      <trkpt lat="49.30217" lon="1.20888">
        <ele>4</ele>
        <time>2017-03-21T14:42:29Z</time>
      </trkpt>
      <trkpt lat="49.30214" lon="1.20882">
        <ele>4</ele>
        <time>2017-03-21T14:42:44Z</time>
      </trkpt>
      <trkpt lat="49.3021" lon="1.20878">
        <ele>4</ele>
        <time>2017-03-21T14:42:44Z</time>
      </trkpt>
      <trkpt lat="49.30208" lon="1.20873">
        <ele>6</ele>
        <time>2017-03-21T14:42:44Z</time>
      </trkpt>
      <trkpt lat="49.30204" lon="1.20865">
        <ele>6</ele>
        <time>2017-03-21T14:42:44Z</time>
      </trkpt>
      <trkpt lat="49.302" lon="1.20862">
        <ele>6</ele>
        <time>2017-03-21T14:43:01Z</time>
      </trkpt>
      <trkpt lat="49.30195" lon="1.20859">
        <ele>6</ele>
        <time>2017-03-21T14:43:01Z</time>
      </trkpt>
      <trkpt lat="49.30191" lon="1.20856">
        <ele>6</ele>
        <time>2017-03-21T14:43:01Z</time>
      </trkpt>
      <trkpt lat="49.30188" lon="1.20853">
        <ele>6</ele>
        <time>2017-03-21T14:43:01Z</time>
      </trkpt>
      <trkpt lat="49.30185" lon="1.2085">
        <ele>6</ele>
        <time>2017-03-21T14:43:16Z</time>
      </trkpt>
      <trkpt lat="49.30181" lon="1.20847">
        <ele>6</ele>
        <time>2017-03-21T14:43:16Z</time>
      </trkpt>
      <trkpt lat="49.30177" lon="1.20843">
        <ele>6</ele>
        <time>2017-03-21T14:43:16Z</time>
      </trkpt>
      <trkpt lat="49.30172" lon="1.2084">
        <ele>6</ele>
        <time>2017-03-21T14:43:16Z</time>
      </trkpt>
      <trkpt lat="49.30167" lon="1.20839">
        <ele>6</ele>
        <time>2017-03-21T14:43:33Z</time>
      </trkpt>
      <trkpt lat="49.30163" lon="1.20839">
        <ele>6</ele>
        <time>2017-03-21T14:43:33Z</time>
      </trkpt>
      <trkpt lat="49.30157" lon="1.20839">
        <ele>6</ele>
        <time>2017-03-21T14:43:33Z</time>
      </trkpt>
      <trkpt lat="49.30152" lon="1.20839">
        <ele>6</ele>
        <time>2017-03-21T14:43:33Z</time>
      </trkpt>
      <trkpt lat="49.30146" lon="1.20841">
        <ele>6</ele>
        <time>2017-03-21T14:43:48Z</time>
      </trkpt>
      <trkpt lat="49.30143" lon="1.20842">
        <ele>6</ele>
        <time>2017-03-21T14:43:48Z</time>
      </trkpt>
      <trkpt lat="49.30137" lon="1.20844">
        <ele>6</ele>
        <time>2017-03-21T14:43:48Z</time>
      </trkpt>
      <trkpt lat="49.30132" lon="1.20845">
        <ele>6</ele>
        <time>2017-03-21T14:43:48Z</time>
      </trkpt>
      <trkpt lat="49.30128" lon="1.20845">
        <ele>6</ele>
        <time>2017-03-21T14:44:04Z</time>
      </trkpt>
      <trkpt lat="49.30123" lon="1.20847">
        <ele>5</ele>
        <time>2017-03-21T14:44:04Z</time>
      </trkpt>
      <trkpt lat="49.30118" lon="1.20851">
        <ele>5</ele>
        <time>2017-03-21T14:44:04Z</time>
      </trkpt>
      <trkpt lat="49.30113" lon="1.20852">
        <ele>5</ele>
        <time>2017-03-21T14:44:04Z</time>
      </trkpt>
      <trkpt lat="49.3011" lon="1.20856">
        <ele>5</ele>
        <time>2017-03-21T14:44:20Z</time>
      </trkpt>
      <trkpt lat="49.30105" lon="1.20858">
        <ele>5</ele>
        <time>2017-03-21T14:44:20Z</time>
      </trkpt>
      <trkpt lat="49.30101" lon="1.20856">
        <ele>5</ele>
        <time>2017-03-21T14:44:20Z</time>
      </trkpt>
      <trkpt lat="49.30097" lon="1.20855">
        <ele>5</ele>
        <time>2017-03-21T14:44:20Z</time>
      </trkpt>
      <trkpt lat="49.30092" lon="1.20858">
        <ele>5</ele>
        <time>2017-03-21T14:44:37Z</time>
      </trkpt>
      <trkpt lat="49.30088" lon="1.20862">
        <ele>5</ele>
        <time>2017-03-21T14:44:37Z</time>
      </trkpt>
      <trkpt lat="49.30084" lon="1.20866">
        <ele>5</ele>
        <time>2017-03-21T14:44:37Z</time>
      </trkpt>
      <trkpt lat="49.3008" lon="1.20869">
        <ele>5</ele>
        <time>2017-03-21T14:44:37Z</time>
      </trkpt>
      <trkpt lat="49.30077" lon="1.20872">
        <ele>5</ele>
        <time>2017-03-21T14:44:53Z</time>
      </trkpt>
      <trkpt lat="49.30073" lon="1.20873">
        <ele>5</ele>
        <time>2017-03-21T14:44:53Z</time>
      </trkpt>
      <trkpt lat="49.3007" lon="1.20875">
        <ele>5</ele>
        <time>2017-03-21T14:44:53Z</time>
      </trkpt>
      <trkpt lat="49.30066" lon="1.20877">
        <ele>5</ele>
        <time>2017-03-21T14:44:53Z</time>
      </trkpt>
      <trkpt lat="49.30061" lon="1.20877">
        <ele>5</ele>
        <time>2017-03-21T14:45:09Z</time>
      </trkpt>
      <trkpt lat="49.30056" lon="1.20876">
        <ele>5</ele>
        <time>2017-03-21T14:45:09Z</time>
      </trkpt>
      <trkpt lat="49.30052" lon="1.20875">
        <ele>5</ele>
        <time>2017-03-21T14:45:09Z</time>
      </trkpt>
      <trkpt lat="49.30048" lon="1.20875">
        <ele>5</ele>
        <time>2017-03-21T14:45:09Z</time>
      </trkpt>
      <trkpt lat="49.30044" lon="1.20876">
        <ele>5</ele>
        <time>2017-03-21T14:45:24Z</time>
      </trkpt>
      <trkpt lat="49.30041" lon="1.20877">
        <ele>8</ele>
        <time>2017-03-21T14:45:24Z</time>
      </trkpt>
      <trkpt lat="49.30036" lon="1.2088">
        <ele>8</ele>
        <time>2017-03-21T14:45:24Z</time>
      </trkpt>
      <trkpt lat="49.30031" lon="1.20882">
        <ele>8</ele>
        <time>2017-03-21T14:45:24Z</time>
      </trkpt>
      <trkpt lat="49.30026" lon="1.20885">
        <ele>8</ele>
        <time>2017-03-21T14:45:40Z</time>
      </trkpt>
      <trkpt lat="49.30021" lon="1.20887">
        <ele>8</ele>
        <time>2017-03-21T14:45:40Z</time>
      </trkpt>
      <trkpt lat="49.30018" lon="1.20889">
        <ele>8</ele>
        <time>2017-03-21T14:45:40Z</time>
      </trkpt>
      <trkpt lat="49.30013" lon="1.20891">
        <ele>8</ele>
        <time>2017-03-21T14:45:40Z</time>
      </trkpt>
      <trkpt lat="49.30009" lon="1.20894">
        <ele>8</ele>
        <time>2017-03-21T14:45:57Z</time>
      </trkpt>
      <trkpt lat="49.30004" lon="1.20897">
        <ele>8</ele>
        <time>2017-03-21T14:45:57Z</time>
      </trkpt>
      <trkpt lat="49.3" lon="1.209">
        <ele>8</ele>
        <time>2017-03-21T14:45:57Z</time>
      </trkpt>
      <trkpt lat="49.29995" lon="1.20903">
        <ele>8</ele>
        <time>2017-03-21T14:45:57Z</time>
      </trkpt>
      <trkpt lat="49.29989" lon="1.20905">
        <ele>8</ele>
        <time>2017-03-21T14:46:13Z</time>
      </trkpt>
      <trkpt lat="49.29984" lon="1.20906">
        <ele>8</ele>
        <time>2017-03-21T14:46:13Z</time>
      </trkpt>
      <trkpt lat="49.29978" lon="1.20907">
        <ele>8</ele>
        <time>2017-03-21T14:46:13Z</time>
      </trkpt>
      <trkpt lat="49.29975" lon="1.20907">
        <ele>8</ele>
        <time>2017-03-21T14:46:13Z</time>
      </trkpt>
      <trkpt lat="49.29971" lon="1.20908">
        <ele>8</ele>
        <time>2017-03-21T14:46:29Z</time>
      </trkpt>
      <trkpt lat="49.29965" lon="1.20909">
        <ele>8</ele>
        <time>2017-03-21T14:46:29Z</time>
      </trkpt>
      <trkpt lat="49.29962" lon="1.2091">
        <ele>8</ele>
        <time>2017-03-21T14:46:29Z</time>
      </trkpt>
      <trkpt lat="49.29956" lon="1.20912">
        <ele>7</ele>
        <time>2017-03-21T14:46:29Z</time>
      </trkpt>
      <trkpt lat="49.29952" lon="1.2091">
        <ele>7</ele>
        <time>2017-03-21T14:46:44Z</time>
      </trkpt>
      <trkpt lat="49.29946" lon="1.20913">
        <ele>7</ele>
        <time>2017-03-21T14:46:44Z</time>
      </trkpt>
      <trkpt lat="49.29942" lon="1.20916">
        <ele>7</ele>
        <time>2017-03-21T14:46:44Z</time>
      </trkpt>
      <trkpt lat="49.29938" lon="1.20917">
        <ele>7</ele>
        <time>2017-03-21T14:46:44Z</time>
      </trkpt>
      <trkpt lat="49.29934" lon="1.2092">
        <ele>7</ele>
        <time>2017-03-21T14:47:01Z</time>
      </trkpt>
      <trkpt lat="49.29929" lon="1.20922">
        <ele>7</ele>
        <time>2017-03-21T14:47:01Z</time>
      </trkpt>
      <trkpt lat="49.29926" lon="1.20925">
        <ele>7</ele>
        <time>2017-03-21T14:47:01Z</time>
      </trkpt>
      <trkpt lat="49.29924" lon="1.2093">
        <ele>7</ele>
        <time>2017-03-21T14:47:01Z</time>
      </trkpt>
      <trkpt lat="49.29919" lon="1.20937">
        <ele>7</ele>
        <time>2017-03-21T14:47:18Z</time>
      </trkpt>
      <trkpt lat="49.29915" lon="1.2094">
        <ele>7</ele>
        <time>2017-03-21T14:47:18Z</time>
      </trkpt>
      <trkpt lat="49.2991" lon="1.2094">
        <ele>7</ele>
        <time>2017-03-21T14:47:18Z</time>
      </trkpt>
      <trkpt lat="49.29905" lon="1.20941">
        <ele>7</ele>
        <time>2017-03-21T14:47:18Z</time>
      </trkpt>
      <trkpt lat="49.29901" lon="1.20944">
        <ele>7</ele>
        <time>2017-03-21T14:47:33Z</time>
      </trkpt>
      <trkpt lat="49.29897" lon="1.20948">
        <ele>7</ele>
        <time>2017-03-21T14:47:33Z</time>
      </trkpt>
      <trkpt lat="49.29891" lon="1.2095">
        <ele>7</ele>
        <time>2017-03-21T14:47:33Z</time>
      </trkpt>
      <trkpt lat="49.29888" lon="1.20951">
        <ele>7</ele>
        <time>2017-03-21T14:47:33Z</time>
      </trkpt>
      <trkpt lat="49.29883" lon="1.20953">
        <ele>7</ele>
        <time>2017-03-21T14:47:49Z</time>
      </trkpt>
      <trkpt lat="49.29877" lon="1.20955">
        <ele>7</ele>
        <time>2017-03-21T14:47:49Z</time>
      </trkpt>
      <trkpt lat="49.29872" lon="1.20959">
        <ele>6</ele>
        <time>2017-03-21T14:47:49Z</time>
      </trkpt>
      <trkpt lat="49.29866" lon="1.20964">
        <ele>6</ele>
        <time>2017-03-21T14:47:49Z</time>
      </trkpt>
      <trkpt lat="49.29863" lon="1.20968">
        <ele>6</ele>
        <time>2017-03-21T14:48:05Z</time>
      </trkpt>
      <trkpt lat="49.29861" lon="1.20971">
        <ele>6</ele>
        <time>2017-03-21T14:48:05Z</time>
      </trkpt>
      <trkpt lat="49.29857" lon="1.20972">
        <ele>6</ele>
        <time>2017-03-21T14:48:05Z</time>
      </trkpt>
      <trkpt lat="49.29852" lon="1.20973">
        <ele>6</ele>
        <time>2017-03-21T14:48:05Z</time>
      </trkpt>
      <trkpt lat="49.29848" lon="1.20973">
        <ele>6</ele>
        <time>2017-03-21T14:48:20Z</time>
      </trkpt>
      <trkpt lat="49.29841" lon="1.20975">
        <ele>6</ele>
        <time>2017-03-21T14:48:20Z</time>
      </trkpt>
      <trkpt lat="49.29838" lon="1.20976">
        <ele>6</ele>
        <time>2017-03-21T14:48:20Z</time>
      </trkpt>
      <trkpt lat="49.29834" lon="1.20979">
        <ele>6</ele>
        <time>2017-03-21T14:48:20Z</time>
      </trkpt>
      <trkpt lat="49.29831" lon="1.20982">
        <ele>6</ele>
        <time>2017-03-21T14:48:37Z</time>
      </trkpt>
      <trkpt lat="49.29825" lon="1.20985">
        <ele>6</ele>
        <time>2017-03-21T14:48:37Z</time>
      </trkpt>
      <trkpt lat="49.2982" lon="1.20987">
        <ele>6</ele>
        <time>2017-03-21T14:48:37Z</time>
      </trkpt>
      <trkpt lat="49.29816" lon="1.20992">
        <ele>6</ele>
        <time>2017-03-21T14:48:37Z</time>
      </trkpt>
      <trkpt lat="49.29813" lon="1.20999">
        <ele>6</ele>
        <time>2017-03-21T14:48:52Z</time>
      </trkpt>
      <trkpt lat="49.29809" lon="1.21004">
        <ele>6</ele>
        <time>2017-03-21T14:48:52Z</time>
      </trkpt>
      <trkpt lat="49.29804" lon="1.21008">
        <ele>6</ele>
        <time>2017-03-21T14:48:52Z</time>
      </trkpt>
      <trkpt lat="49.29798" lon="1.21013">
        <ele>6</ele>
        <time>2017-03-21T14:48:52Z</time>
      </trkpt>
      <trkpt lat="49.29794" lon="1.21018">
        <ele>6</ele>
        <time>2017-03-21T14:49:09Z</time>
      </trkpt>
      <trkpt lat="49.2979" lon="1.21021">
        <ele>6</ele>
        <time>2017-03-21T14:49:09Z</time>
      </trkpt>
      <trkpt lat="49.29786" lon="1.21022">
        <ele>6</ele>
        <time>2017-03-21T14:49:09Z</time>
      </trkpt>
      <trkpt lat="49.29783" lon="1.21025">
        <ele>6</ele>
        <time>2017-03-21T14:49:09Z</time>
      </trkpt>
      <trkpt lat="49.29778" lon="1.21029">
        <ele>6</ele>
        <time>2017-03-21T14:49:25Z</time>
      </trkpt>
      <trkpt lat="49.29773" lon="1.21034">
        <ele>6</ele>
        <time>2017-03-21T14:49:25Z</time>
      </trkpt>
      <trkpt lat="49.29769" lon="1.21036">
        <ele>6</ele>
        <time>2017-03-21T14:49:25Z</time>
      </trkpt>
      <trkpt lat="49.29763" lon="1.21039">
        <ele>6</ele>
        <time>2017-03-21T14:49:25Z</time>
      </trkpt>
      <trkpt lat="49.29759" lon="1.21042">
        <ele>6</ele>
        <time>2017-03-21T14:49:40Z</time>
      </trkpt>
      <trkpt lat="49.29754" lon="1.21046">
        <ele>6</ele>
        <time>2017-03-21T14:49:40Z</time>
      </trkpt>
      <trkpt lat="49.29748" lon="1.21049">
        <ele>6</ele>
        <time>2017-03-21T14:49:40Z</time>
      </trkpt>
      <trkpt lat="49.29745" lon="1.21048">
        <ele>6</ele>
        <time>2017-03-21T14:49:40Z</time>
      </trkpt>
      <trkpt lat="49.2974" lon="1.21046">
        <ele>6</ele>
        <time>2017-03-21T14:49:57Z</time>
      </trkpt>
      <trkpt lat="49.29736" lon="1.21045">
        <ele>6</ele>
        <time>2017-03-21T14:49:57Z</time>
      </trkpt>
      <trkpt lat="49.29731" lon="1.21048">
        <ele>6</ele>
        <time>2017-03-21T14:49:57Z</time>
      </trkpt>
      <trkpt lat="49.29724" lon="1.2105">
        <ele>6</ele>
        <time>2017-03-21T14:49:57Z</time>
      </trkpt>
      <trkpt lat="49.2972" lon="1.21048">
        <ele>6</ele>
        <time>2017-03-21T14:50:13Z</time>
      </trkpt>
      <trkpt lat="49.29716" lon="1.21046">
        <ele>6</ele>
        <time>2017-03-21T14:50:13Z</time>
      </trkpt>
      <trkpt lat="49.2971" lon="1.21043">
        <ele>6</ele>
        <time>2017-03-21T14:50:13Z</time>
      </trkpt>
      <trkpt lat="49.29706" lon="1.21041">
        <ele>7</ele>
        <time>2017-03-21T14:50:13Z</time>
      </trkpt>
      <trkpt lat="49.29701" lon="1.21039">
        <ele>7</ele>
        <time>2017-03-21T14:50:29Z</time>
      </trkpt>
      <trkpt lat="49.29697" lon="1.21037">
        <ele>7</ele>
        <time>2017-03-21T14:50:29Z</time>
      </trkpt>
      <trkpt lat="49.29693" lon="1.21035">
        <ele>7</ele>
        <time>2017-03-21T14:50:29Z</time>
      </trkpt>
      <trkpt lat="49.29689" lon="1.21032">
        <ele>7</ele>
        <time>2017-03-21T14:50:29Z</time>
      </trkpt>
      <trkpt lat="49.29686" lon="1.2103">
        <ele>7</ele>
        <time>2017-03-21T14:50:45Z</time>
      </trkpt>
      <trkpt lat="49.29682" lon="1.21026">
        <ele>7</ele>
        <time>2017-03-21T14:50:45Z</time>
      </trkpt>
      <trkpt lat="49.29677" lon="1.21022">
        <ele>7</ele>
        <time>2017-03-21T14:50:45Z</time>
      </trkpt>
      <trkpt lat="49.29674" lon="1.2102">
        <ele>7</ele>
        <time>2017-03-21T14:50:45Z</time>
      </trkpt>
      <trkpt lat="49.29669" lon="1.21015">
        <ele>7</ele>
        <time>2017-03-21T14:51:00Z</time>
      </trkpt>
      <trkpt lat="49.29668" lon="1.21013">
        <ele>7</ele>
        <time>2017-03-21T14:51:00Z</time>
      </trkpt>
      <trkpt lat="49.29662" lon="1.21009">
        <ele>7</ele>
        <time>2017-03-21T14:51:00Z</time>
      </trkpt>
      <trkpt lat="49.29658" lon="1.21004">
        <ele>7</ele>
        <time>2017-03-21T14:51:00Z</time>
      </trkpt>
      <trkpt lat="49.29653" lon="1.20998">
        <ele>7</ele>
        <time>2017-03-21T14:51:17Z</time>
      </trkpt>
      <trkpt lat="49.29645" lon="1.20997">
        <ele>7</ele>
        <time>2017-03-21T14:51:17Z</time>
      </trkpt>
      <trkpt lat="49.29639" lon="1.20996">
        <ele>7</ele>
        <time>2017-03-21T14:51:17Z</time>
      </trkpt>
      <trkpt lat="49.29633" lon="1.20998">
        <ele>7</ele>
        <time>2017-03-21T14:51:17Z</time>
      </trkpt>
      <trkpt lat="49.29629" lon="1.21">
        <ele>7</ele>
        <time>2017-03-21T14:51:34Z</time>
      </trkpt>
      <trkpt lat="49.29625" lon="1.20999">
        <ele>7</ele>
        <time>2017-03-21T14:51:34Z</time>
      </trkpt>
      <trkpt lat="49.29621" lon="1.21">
        <ele>8</ele>
        <time>2017-03-21T14:51:34Z</time>
      </trkpt>
      <trkpt lat="49.29616" lon="1.21001">
        <ele>8</ele>
        <time>2017-03-21T14:51:34Z</time>
      </trkpt>
      <trkpt lat="49.29612" lon="1.21004">
        <ele>8</ele>
        <time>2017-03-21T14:51:49Z</time>
      </trkpt>
      <trkpt lat="49.29607" lon="1.21007">
        <ele>8</ele>
        <time>2017-03-21T14:51:49Z</time>
      </trkpt>
      <trkpt lat="49.29603" lon="1.2101">
        <ele>8</ele>
        <time>2017-03-21T14:51:49Z</time>
      </trkpt>
      <trkpt lat="49.29598" lon="1.21014">
        <ele>8</ele>
        <time>2017-03-21T14:51:49Z</time>
      </trkpt>
      <trkpt lat="49.29594" lon="1.21016">
        <ele>8</ele>
        <time>2017-03-21T14:52:04Z</time>
      </trkpt>
      <trkpt lat="49.29588" lon="1.21017">
        <ele>8</ele>
        <time>2017-03-21T14:52:04Z</time>
      </trkpt>
      <trkpt lat="49.29585" lon="1.21019">
        <ele>8</ele>
        <time>2017-03-21T14:52:04Z</time>
      </trkpt>
      <trkpt lat="49.29581" lon="1.21024">
        <ele>8</ele>
        <time>2017-03-21T14:52:04Z</time>
      </trkpt>
      <trkpt lat="49.29576" lon="1.21028">
        <ele>8</ele>
        <time>2017-03-21T14:52:21Z</time>
      </trkpt>
      <trkpt lat="49.29571" lon="1.21032">
        <ele>8</ele>
        <time>2017-03-21T14:52:21Z</time>
      </trkpt>
      <trkpt lat="49.29568" lon="1.21035">
        <ele>8</ele>
        <time>2017-03-21T14:52:21Z</time>
      </trkpt>
      <trkpt lat="49.2956" lon="1.21041">
        <ele>8</ele>
        <time>2017-03-21T14:52:22Z</time>
      </trkpt>
      <trkpt lat="49.29556" lon="1.21045">
        <ele>9</ele>
        <time>2017-03-21T14:52:37Z</time>
      </trkpt>
      <trkpt lat="49.29551" lon="1.2105">
        <ele>9</ele>
        <time>2017-03-21T14:52:37Z</time>
      </trkpt>
      <trkpt lat="49.29547" lon="1.21057">
        <ele>9</ele>
        <time>2017-03-21T14:52:37Z</time>
      </trkpt>
      <trkpt lat="49.29543" lon="1.21061">
        <ele>9</ele>
        <time>2017-03-21T14:52:37Z</time>
      </trkpt>
      <trkpt lat="49.2954" lon="1.21063">
        <ele>7</ele>
        <time>2017-03-21T14:52:53Z</time>
      </trkpt>
      <trkpt lat="49.29538" lon="1.21068">
        <ele>7</ele>
        <time>2017-03-21T14:52:53Z</time>
      </trkpt>
      <trkpt lat="49.29537" lon="1.21078">
        <ele>7</ele>
        <time>2017-03-21T14:52:53Z</time>
      </trkpt>
      <trkpt lat="49.29534" lon="1.21085">
        <ele>7</ele>
        <time>2017-03-21T14:52:53Z</time>
      </trkpt>
      <trkpt lat="49.29531" lon="1.21088">
        <ele>7</ele>
        <time>2017-03-21T14:53:08Z</time>
      </trkpt>
      <trkpt lat="49.29526" lon="1.21092">
        <ele>7</ele>
        <time>2017-03-21T14:53:08Z</time>
      </trkpt>
      <trkpt lat="49.29522" lon="1.21097">
        <ele>7</ele>
        <time>2017-03-21T14:53:08Z</time>
      </trkpt>
      <trkpt lat="49.29518" lon="1.21099">
        <ele>7</ele>
        <time>2017-03-21T14:53:08Z</time>
      </trkpt>
      <trkpt lat="49.29513" lon="1.21101">
        <ele>7</ele>
        <time>2017-03-21T14:53:25Z</time>
      </trkpt>
      <trkpt lat="49.29509" lon="1.21104">
        <ele>7</ele>
        <time>2017-03-21T14:53:25Z</time>
      </trkpt>
      <trkpt lat="49.29506" lon="1.2111">
        <ele>7</ele>
        <time>2017-03-21T14:53:25Z</time>
      </trkpt>
      <trkpt lat="49.29503" lon="1.21115">
        <ele>7</ele>
        <time>2017-03-21T14:53:25Z</time>
      </trkpt>
      <trkpt lat="49.295" lon="1.21121">
        <ele>7</ele>
        <time>2017-03-21T14:53:41Z</time>
      </trkpt>
      <trkpt lat="49.29498" lon="1.21128">
        <ele>7</ele>
        <time>2017-03-21T14:53:41Z</time>
      </trkpt>
      <trkpt lat="49.29494" lon="1.21136">
        <ele>7</ele>
        <time>2017-03-21T14:53:41Z</time>
      </trkpt>
      <trkpt lat="49.29491" lon="1.21142">
        <ele>7</ele>
        <time>2017-03-21T14:53:41Z</time>
      </trkpt>
      <trkpt lat="49.29487" lon="1.21148">
        <ele>7</ele>
        <time>2017-03-21T14:53:57Z</time>
      </trkpt>
      <trkpt lat="49.29483" lon="1.21154">
        <ele>7</ele>
        <time>2017-03-21T14:53:57Z</time>
      </trkpt>
      <trkpt lat="49.2948" lon="1.21159">
        <ele>7</ele>
        <time>2017-03-21T14:53:57Z</time>
      </trkpt>
      <trkpt lat="49.29477" lon="1.21164">
        <ele>7</ele>
        <time>2017-03-21T14:53:57Z</time>
      </trkpt>
      <trkpt lat="49.29473" lon="1.21169">
        <ele>7</ele>
        <time>2017-03-21T14:54:14Z</time>
      </trkpt>
      <trkpt lat="49.29469" lon="1.21173">
        <ele>7</ele>
        <time>2017-03-21T14:54:14Z</time>
      </trkpt>
      <trkpt lat="49.29465" lon="1.21177">
        <ele>7</ele>
        <time>2017-03-21T14:54:14Z</time>
      </trkpt>
      <trkpt lat="49.29459" lon="1.21181">
        <ele>7</ele>
        <time>2017-03-21T14:54:14Z</time>
      </trkpt>
      <trkpt lat="49.29456" lon="1.21183">
        <ele>8</ele>
        <time>2017-03-21T14:54:29Z</time>
      </trkpt>
      <trkpt lat="49.29452" lon="1.21186">
        <ele>8</ele>
        <time>2017-03-21T14:54:29Z</time>
      </trkpt>
      <trkpt lat="49.29448" lon="1.21188">
        <ele>8</ele>
        <time>2017-03-21T14:54:29Z</time>
      </trkpt>
      <trkpt lat="49.29445" lon="1.21196">
        <ele>8</ele>
        <time>2017-03-21T14:54:29Z</time>
      </trkpt>
      <trkpt lat="49.29443" lon="1.21201">
        <ele>8</ele>
        <time>2017-03-21T14:58:04Z</time>
      </trkpt>
      <trkpt lat="49.2944" lon="1.21204">
        <ele>8</ele>
        <time>2017-03-21T14:58:04Z</time>
      </trkpt>
      <trkpt lat="49.29437" lon="1.21208">
        <ele>8</ele>
        <time>2017-03-21T14:58:04Z</time>
      </trkpt>
      <trkpt lat="49.29433" lon="1.21211">
        <ele>6</ele>
        <time>2017-03-21T14:58:04Z</time>
      </trkpt>
      <trkpt lat="49.29429" lon="1.21214">
        <ele>6</ele>
        <time>2017-03-21T14:58:04Z</time>
      </trkpt>
      <trkpt lat="49.29425" lon="1.21217">
        <ele>6</ele>
        <time>2017-03-21T14:58:20Z</time>
      </trkpt>
      <trkpt lat="49.29421" lon="1.2122">
        <ele>6</ele>
        <time>2017-03-21T14:58:20Z</time>
      </trkpt>
      <trkpt lat="49.29417" lon="1.21221">
        <ele>6</ele>
        <time>2017-03-21T14:58:20Z</time>
      </trkpt>
      <trkpt lat="49.29414" lon="1.21223">
        <ele>6</ele>
        <time>2017-03-21T14:58:20Z</time>
      </trkpt>
      <trkpt lat="49.2941" lon="1.21223">
        <ele>6</ele>
        <time>2017-03-21T14:58:36Z</time>
      </trkpt>
      <trkpt lat="49.29406" lon="1.21223">
        <ele>6</ele>
        <time>2017-03-21T14:58:36Z</time>
      </trkpt>
      <trkpt lat="49.29403" lon="1.21232">
        <ele>6</ele>
        <time>2017-03-21T14:58:36Z</time>
      </trkpt>
      <trkpt lat="49.29403" lon="1.21233">
        <ele>6</ele>
        <time>2017-03-21T14:58:36Z</time>
      </trkpt>
      <trkpt lat="49.29402" lon="1.21233">
        <ele>6</ele>
        <time>2017-03-21T14:59:33Z</time>
      </trkpt>
      <trkpt lat="49.29399" lon="1.21237">
        <ele>6</ele>
        <time>2017-03-21T14:59:33Z</time>
      </trkpt>
      <trkpt lat="49.29394" lon="1.21238">
        <ele>6</ele>
        <time>2017-03-21T14:59:33Z</time>
      </trkpt>
      <trkpt lat="49.29388" lon="1.21239">
        <ele>6</ele>
        <time>2017-03-21T14:59:33Z</time>
      </trkpt>
      <trkpt lat="49.29385" lon="1.21242">
        <ele>6</ele>
        <time>2017-03-21T14:59:33Z</time>
      </trkpt>
      <trkpt lat="49.29381" lon="1.21244">
        <ele>6</ele>
        <time>2017-03-21T14:59:49Z</time>
      </trkpt>
      <trkpt lat="49.29376" lon="1.21242">
        <ele>6</ele>
        <time>2017-03-21T14:59:49Z</time>
      </trkpt>
      <trkpt lat="49.29372" lon="1.21238">
        <ele>6</ele>
        <time>2017-03-21T14:59:49Z</time>
      </trkpt>
      <trkpt lat="49.2937" lon="1.21233">
        <ele>6</ele>
        <time>2017-03-21T14:59:49Z</time>
      </trkpt>
      <trkpt lat="49.29366" lon="1.21227">
        <ele>6</ele>
        <time>2017-03-21T15:00:05Z</time>
      </trkpt>
      <trkpt lat="49.29364" lon="1.21224">
        <ele>6</ele>
        <time>2017-03-21T15:00:05Z</time>
      </trkpt>
      <trkpt lat="49.29359" lon="1.21219">
        <ele>6</ele>
        <time>2017-03-21T15:00:05Z</time>
      </trkpt>
      <trkpt lat="49.29356" lon="1.21217">
        <ele>6</ele>
        <time>2017-03-21T15:00:05Z</time>
      </trkpt>
      <trkpt lat="49.29352" lon="1.21217">
        <ele>6</ele>
        <time>2017-03-21T15:00:20Z</time>
      </trkpt>
      <trkpt lat="49.29347" lon="1.21217">
        <ele>6</ele>
        <time>2017-03-21T15:00:20Z</time>
      </trkpt>
      <trkpt lat="49.29342" lon="1.21217">
        <ele>6</ele>
        <time>2017-03-21T15:00:20Z</time>
      </trkpt>
      <trkpt lat="49.29336" lon="1.21218">
        <ele>6</ele>
        <time>2017-03-21T15:00:20Z</time>
      </trkpt>
      <trkpt lat="49.29331" lon="1.21223">
        <ele>6</ele>
        <time>2017-03-21T15:00:37Z</time>
      </trkpt>
      <trkpt lat="49.29326" lon="1.21224">
        <ele>6</ele>
        <time>2017-03-21T15:00:37Z</time>
      </trkpt>
      <trkpt lat="49.29321" lon="1.21223">
        <ele>6</ele>
        <time>2017-03-21T15:00:37Z</time>
      </trkpt>
      <trkpt lat="49.29317" lon="1.21219">
        <ele>6</ele>
        <time>2017-03-21T15:00:37Z</time>
      </trkpt>
      <trkpt lat="49.29315" lon="1.21221">
        <ele>6</ele>
        <time>2017-03-21T15:02:29Z</time>
      </trkpt>
      <trkpt lat="49.29312" lon="1.21216">
        <ele>6</ele>
        <time>2017-03-21T15:02:29Z</time>
      </trkpt>
      <trkpt lat="49.29311" lon="1.21213">
        <ele>6</ele>
        <time>2017-03-21T15:02:29Z</time>
      </trkpt>
      <trkpt lat="49.29305" lon="1.21217">
        <ele>6</ele>
        <time>2017-03-21T15:02:29Z</time>
      </trkpt>
      <trkpt lat="49.29301" lon="1.21226">
        <ele>6</ele>
        <time>2017-03-21T15:02:29Z</time>
      </trkpt>
      <trkpt lat="49.29298" lon="1.21231">
        <ele>6</ele>
        <time>2017-03-21T15:02:46Z</time>
      </trkpt>
      <trkpt lat="49.29295" lon="1.21229">
        <ele>6</ele>
        <time>2017-03-21T15:02:46Z</time>
      </trkpt>
      <trkpt lat="49.29291" lon="1.21226">
        <ele>9</ele>
        <time>2017-03-21T15:02:46Z</time>
      </trkpt>
      <trkpt lat="49.29283" lon="1.21225">
        <ele>9</ele>
        <time>2017-03-21T15:02:46Z</time>
      </trkpt>
      <trkpt lat="49.2928" lon="1.21227">
        <ele>9</ele>
        <time>2017-03-21T15:03:01Z</time>
      </trkpt>
      <trkpt lat="49.29277" lon="1.21225">
        <ele>9</ele>
        <time>2017-03-21T15:03:01Z</time>
      </trkpt>
      <trkpt lat="49.29273" lon="1.2122">
        <ele>9</ele>
        <time>2017-03-21T15:03:01Z</time>
      </trkpt>
      <trkpt lat="49.2927" lon="1.21213">
        <ele>9</ele>
        <time>2017-03-21T15:03:01Z</time>
      </trkpt>
      <trkpt lat="49.29268" lon="1.21206">
        <ele>8</ele>
        <time>2017-03-21T15:03:17Z</time>
      </trkpt>
      <trkpt lat="49.29266" lon="1.21199">
        <ele>8</ele>
        <time>2017-03-21T15:03:17Z</time>
      </trkpt>
      <trkpt lat="49.29265" lon="1.21191">
        <ele>8</ele>
        <time>2017-03-21T15:03:17Z</time>
      </trkpt>
      <trkpt lat="49.29262" lon="1.21183">
        <ele>8</ele>
        <time>2017-03-21T15:03:17Z</time>
      </trkpt>
      <trkpt lat="49.2926" lon="1.21178">
        <ele>8</ele>
        <time>2017-03-21T15:03:33Z</time>
      </trkpt>
      <trkpt lat="49.29257" lon="1.21172">
        <ele>8</ele>
        <time>2017-03-21T15:03:33Z</time>
      </trkpt>
      <trkpt lat="49.29254" lon="1.21167">
        <ele>8</ele>
        <time>2017-03-21T15:03:33Z</time>
      </trkpt>
      <trkpt lat="49.2925" lon="1.21162">
        <ele>8</ele>
        <time>2017-03-21T15:03:33Z</time>
      </trkpt>
      <trkpt lat="49.29247" lon="1.21158">
        <ele>8</ele>
        <time>2017-03-21T15:03:53Z</time>
      </trkpt>
      <trkpt lat="49.29243" lon="1.21157">
        <ele>8</ele>
        <time>2017-03-21T15:03:53Z</time>
      </trkpt>
      <trkpt lat="49.29242" lon="1.21157">
        <ele>8</ele>
        <time>2017-03-21T15:03:53Z</time>
      </trkpt>
      <trkpt lat="49.2924" lon="1.21159">
        <ele>8</ele>
        <time>2017-03-21T15:03:53Z</time>
      </trkpt>
      <trkpt lat="49.29235" lon="1.21161">
        <ele>8</ele>
        <time>2017-03-21T15:03:53Z</time>
      </trkpt>
      <trkpt lat="49.29229" lon="1.21164">
        <ele>8</ele>
        <time>2017-03-21T15:04:09Z</time>
      </trkpt>
      <trkpt lat="49.29224" lon="1.21165">
        <ele>8</ele>
        <time>2017-03-21T15:04:09Z</time>
      </trkpt>
      <trkpt lat="49.29222" lon="1.21166">
        <ele>8</ele>
        <time>2017-03-21T15:04:09Z</time>
      </trkpt>
      <trkpt lat="49.29217" lon="1.21168">
        <ele>8</ele>
        <time>2017-03-21T15:04:09Z</time>
      </trkpt>
      <trkpt lat="49.29212" lon="1.2117">
        <ele>8</ele>
        <time>2017-03-21T15:04:24Z</time>
      </trkpt>
      <trkpt lat="49.29209" lon="1.21171">
        <ele>8</ele>
        <time>2017-03-21T15:04:24Z</time>
      </trkpt>
      <trkpt lat="49.29205" lon="1.21173">
        <ele>8</ele>
        <time>2017-03-21T15:04:24Z</time>
      </trkpt>
      <trkpt lat="49.29201" lon="1.21175">
        <ele>8</ele>
        <time>2017-03-21T15:04:24Z</time>
      </trkpt>
      <trkpt lat="49.29197" lon="1.21177">
        <ele>8</ele>
        <time>2017-03-21T15:04:41Z</time>
      </trkpt>
      <trkpt lat="49.29191" lon="1.21181">
        <ele>8</ele>
        <time>2017-03-21T15:04:41Z</time>
      </trkpt>
      <trkpt lat="49.29187" lon="1.21184">
        <ele>8</ele>
        <time>2017-03-21T15:04:41Z</time>
      </trkpt>
      <trkpt lat="49.29182" lon="1.21188">
        <ele>8</ele>
        <time>2017-03-21T15:04:41Z</time>
      </trkpt>
      <trkpt lat="49.29178" lon="1.21191">
        <ele>8</ele>
        <time>2017-03-21T15:04:57Z</time>
      </trkpt>
      <trkpt lat="49.29174" lon="1.21194">
        <ele>8</ele>
        <time>2017-03-21T15:04:57Z</time>
      </trkpt>
      <trkpt lat="49.29169" lon="1.21198">
        <ele>8</ele>
        <time>2017-03-21T15:04:57Z</time>
      </trkpt>
      <trkpt lat="49.29165" lon="1.21201">
        <ele>8</ele>
        <time>2017-03-21T15:04:57Z</time>
      </trkpt>
      <trkpt lat="49.2916" lon="1.21204">
        <ele>8</ele>
        <time>2017-03-21T15:05:13Z</time>
      </trkpt>
      <trkpt lat="49.29155" lon="1.21207">
        <ele>8</ele>
        <time>2017-03-21T15:05:13Z</time>
      </trkpt>
      <trkpt lat="49.29151" lon="1.2121">
        <ele>8</ele>
        <time>2017-03-21T15:05:13Z</time>
      </trkpt>
      <trkpt lat="49.29147" lon="1.21214">
        <ele>8</ele>
        <time>2017-03-21T15:05:13Z</time>
      </trkpt>
      <trkpt lat="49.29142" lon="1.21218">
        <ele>8</ele>
        <time>2017-03-21T15:05:28Z</time>
      </trkpt>
      <trkpt lat="49.29138" lon="1.21221">
        <ele>8</ele>
        <time>2017-03-21T15:05:28Z</time>
      </trkpt>
      <trkpt lat="49.29133" lon="1.21225">
        <ele>8</ele>
        <time>2017-03-21T15:05:28Z</time>
      </trkpt>
      <trkpt lat="49.29128" lon="1.21228">
        <ele>8</ele>
        <time>2017-03-21T15:05:28Z</time>
      </trkpt>
      <trkpt lat="49.29124" lon="1.21231">
        <ele>9</ele>
        <time>2017-03-21T15:05:45Z</time>
      </trkpt>
      <trkpt lat="49.29121" lon="1.21233">
        <ele>9</ele>
        <time>2017-03-21T15:05:45Z</time>
      </trkpt>
      <trkpt lat="49.29117" lon="1.21236">
        <ele>9</ele>
        <time>2017-03-21T15:05:45Z</time>
      </trkpt>
      <trkpt lat="49.29112" lon="1.2124">
        <ele>9</ele>
        <time>2017-03-21T15:05:45Z</time>
      </trkpt>
      <trkpt lat="49.29108" lon="1.21245">
        <ele>9</ele>
        <time>2017-03-21T15:06:01Z</time>
      </trkpt>
      <trkpt lat="49.29103" lon="1.21248">
        <ele>9</ele>
        <time>2017-03-21T15:06:01Z</time>
      </trkpt>
      <trkpt lat="49.29099" lon="1.21251">
        <ele>9</ele>
        <time>2017-03-21T15:06:01Z</time>
      </trkpt>
      <trkpt lat="49.29095" lon="1.21254">
        <ele>9</ele>
        <time>2017-03-21T15:06:01Z</time>
      </trkpt>
      <trkpt lat="49.29089" lon="1.21258">
        <ele>9</ele>
        <time>2017-03-21T15:06:17Z</time>
      </trkpt>
      <trkpt lat="49.29085" lon="1.2126">
        <ele>9</ele>
        <time>2017-03-21T15:06:17Z</time>
      </trkpt>
      <trkpt lat="49.2908" lon="1.21262">
        <ele>9</ele>
        <time>2017-03-21T15:06:17Z</time>
      </trkpt>
      <trkpt lat="49.29074" lon="1.21265">
        <ele>9</ele>
        <time>2017-03-21T15:06:17Z</time>
      </trkpt>
      <trkpt lat="49.29069" lon="1.21269">
        <ele>9</ele>
        <time>2017-03-21T15:06:32Z</time>
      </trkpt>
      <trkpt lat="49.29065" lon="1.21273">
        <ele>9</ele>
        <time>2017-03-21T15:06:32Z</time>
      </trkpt>
      <trkpt lat="49.29061" lon="1.21276">
        <ele>9</ele>
        <time>2017-03-21T15:06:32Z</time>
      </trkpt>
      <trkpt lat="49.29056" lon="1.21279">
        <ele>9</ele>
        <time>2017-03-21T15:06:32Z</time>
      </trkpt>
      <trkpt lat="49.29052" lon="1.21282">
        <ele>9</ele>
        <time>2017-03-21T15:06:48Z</time>
      </trkpt>
      <trkpt lat="49.29047" lon="1.21284">
        <ele>9</ele>
        <time>2017-03-21T15:06:48Z</time>
      </trkpt>
      <trkpt lat="49.29042" lon="1.21287">
        <ele>9</ele>
        <time>2017-03-21T15:06:48Z</time>
      </trkpt>
      <trkpt lat="49.29038" lon="1.2129">
        <ele>7</ele>
        <time>2017-03-21T15:06:48Z</time>
      </trkpt>
      <trkpt lat="49.29034" lon="1.21294">
        <ele>9</ele>
        <time>2017-03-21T15:07:04Z</time>
      </trkpt>
      <trkpt lat="49.2903" lon="1.21296">
        <ele>9</ele>
        <time>2017-03-21T15:07:04Z</time>
      </trkpt>
      <trkpt lat="49.29025" lon="1.21299">
        <ele>9</ele>
        <time>2017-03-21T15:07:04Z</time>
      </trkpt>
      <trkpt lat="49.2902" lon="1.21303">
        <ele>9</ele>
        <time>2017-03-21T15:07:04Z</time>
      </trkpt>
      <trkpt lat="49.29016" lon="1.21305">
        <ele>9</ele>
        <time>2017-03-21T15:07:20Z</time>
      </trkpt>
      <trkpt lat="49.29012" lon="1.21308">
        <ele>9</ele>
        <time>2017-03-21T15:07:20Z</time>
      </trkpt>
      <trkpt lat="49.29007" lon="1.21311">
        <ele>9</ele>
        <time>2017-03-21T15:07:20Z</time>
      </trkpt>
      <trkpt lat="49.29002" lon="1.21313">
        <ele>9</ele>
        <time>2017-03-21T15:07:20Z</time>
      </trkpt>
      <trkpt lat="49.28998" lon="1.21315">
        <ele>9</ele>
        <time>2017-03-21T15:07:36Z</time>
      </trkpt>
      <trkpt lat="49.28994" lon="1.2132">
        <ele>9</ele>
        <time>2017-03-21T15:07:36Z</time>
      </trkpt>
      <trkpt lat="49.2899" lon="1.21323">
        <ele>9</ele>
        <time>2017-03-21T15:07:36Z</time>
      </trkpt>
      <trkpt lat="49.28985" lon="1.21329">
        <ele>9</ele>
        <time>2017-03-21T15:07:36Z</time>
      </trkpt>
      <trkpt lat="49.28979" lon="1.21334">
        <ele>9</ele>
        <time>2017-03-21T15:07:53Z</time>
      </trkpt>
      <trkpt lat="49.28975" lon="1.21336">
        <ele>9</ele>
        <time>2017-03-21T15:07:53Z</time>
      </trkpt>
      <trkpt lat="49.28971" lon="1.21339">
        <ele>9</ele>
        <time>2017-03-21T15:07:53Z</time>
      </trkpt>
      <trkpt lat="49.28967" lon="1.21342">
        <ele>9</ele>
        <time>2017-03-21T15:07:53Z</time>
      </trkpt>
      <trkpt lat="49.28962" lon="1.21345">
        <ele>9</ele>
        <time>2017-03-21T15:08:12Z</time>
      </trkpt>
      <trkpt lat="49.28958" lon="1.21343">
        <ele>8</ele>
        <time>2017-03-21T15:08:12Z</time>
      </trkpt>
      <trkpt lat="49.28954" lon="1.21345">
        <ele>8</ele>
        <time>2017-03-21T15:08:12Z</time>
      </trkpt>
      <trkpt lat="49.28954" lon="1.21347">
        <ele>8</ele>
        <time>2017-03-21T15:08:12Z</time>
      </trkpt>
      <trkpt lat="49.28952" lon="1.21348">
        <ele>8</ele>
        <time>2017-03-21T15:08:12Z</time>
      </trkpt>
      <trkpt lat="49.28947" lon="1.21351">
        <ele>8</ele>
        <time>2017-03-21T15:08:30Z</time>
      </trkpt>
      <trkpt lat="49.28944" lon="1.21354">
        <ele>8</ele>
        <time>2017-03-21T15:08:30Z</time>
      </trkpt>
      <trkpt lat="49.2894" lon="1.21355">
        <ele>8</ele>
        <time>2017-03-21T15:08:30Z</time>
      </trkpt>
      <trkpt lat="49.28935" lon="1.21359">
        <ele>8</ele>
        <time>2017-03-21T15:08:30Z</time>
      </trkpt>
      <trkpt lat="49.28932" lon="1.2136">
        <ele>8</ele>
        <time>2017-03-21T15:08:45Z</time>
      </trkpt>
      <trkpt lat="49.28928" lon="1.21362">
        <ele>8</ele>
        <time>2017-03-21T15:08:45Z</time>
      </trkpt>
      <trkpt lat="49.28924" lon="1.21365">
        <ele>8</ele>
        <time>2017-03-21T15:08:45Z</time>
      </trkpt>
      <trkpt lat="49.2892" lon="1.21366">
        <ele>8</ele>
        <time>2017-03-21T15:08:45Z</time>
      </trkpt>
      <trkpt lat="49.28921" lon="1.21369">
        <ele>8</ele>
        <time>2017-03-21T15:10:25Z</time>
      </trkpt>
      <trkpt lat="49.28921" lon="1.2137">
        <ele>8</ele>
        <time>2017-03-21T15:10:25Z</time>
      </trkpt>
      <trkpt lat="49.28921" lon="1.21372">
        <ele>8</ele>
        <time>2017-03-21T15:10:25Z</time>
      </trkpt>
      <trkpt lat="49.28922" lon="1.21373">
        <ele>8</ele>
        <time>2017-03-21T15:10:25Z</time>
      </trkpt>
      <trkpt lat="49.28923" lon="1.21373">
        <ele>8</ele>
        <time>2017-03-21T15:10:25Z</time>
      </trkpt>
      <trkpt lat="49.28922" lon="1.21373">
        <ele>8</ele>
        <time>2017-03-21T15:11:17Z</time>
      </trkpt>
      <trkpt lat="49.28917" lon="1.2137">
        <ele>8</ele>
        <time>2017-03-21T15:11:17Z</time>
      </trkpt>
      <trkpt lat="49.28914" lon="1.21364">
        <ele>8</ele>
        <time>2017-03-21T15:11:17Z</time>
      </trkpt>
      <trkpt lat="49.28913" lon="1.21358">
        <ele>8</ele>
        <time>2017-03-21T15:11:17Z</time>
      </trkpt>
      <trkpt lat="49.28907" lon="1.21352">
        <ele>8</ele>
        <time>2017-03-21T15:11:17Z</time>
      </trkpt>
      <trkpt lat="49.28903" lon="1.21349">
        <ele>8</ele>
        <time>2017-03-21T15:11:32Z</time>
      </trkpt>
      <trkpt lat="49.28901" lon="1.21343">
        <ele>8</ele>
        <time>2017-03-21T15:11:32Z</time>
      </trkpt>
      <trkpt lat="49.28899" lon="1.21332">
        <ele>8</ele>
        <time>2017-03-21T15:11:32Z</time>
      </trkpt>
      <trkpt lat="49.28897" lon="1.21324">
        <ele>8</ele>
        <time>2017-03-21T15:11:32Z</time>
      </trkpt>
      <trkpt lat="49.28895" lon="1.21314">
        <ele>8</ele>
        <time>2017-03-21T15:11:49Z</time>
      </trkpt>
      <trkpt lat="49.28893" lon="1.21308">
        <ele>8</ele>
        <time>2017-03-21T15:11:49Z</time>
      </trkpt>
      <trkpt lat="49.28891" lon="1.21299">
        <ele>8</ele>
        <time>2017-03-21T15:11:49Z</time>
      </trkpt>
      <trkpt lat="49.28891" lon="1.21291">
        <ele>8</ele>
        <time>2017-03-21T15:11:49Z</time>
      </trkpt>
      <trkpt lat="49.28888" lon="1.21284">
        <ele>8</ele>
        <time>2017-03-21T15:12:05Z</time>
      </trkpt>
      <trkpt lat="49.28885" lon="1.21277">
        <ele>8</ele>
        <time>2017-03-21T15:12:05Z</time>
      </trkpt>
      <trkpt lat="49.28882" lon="1.2127">
        <ele>8</ele>
        <time>2017-03-21T15:12:05Z</time>
      </trkpt>
      <trkpt lat="49.2888" lon="1.2126">
        <ele>8</ele>
        <time>2017-03-21T15:12:05Z</time>
      </trkpt>
      <trkpt lat="49.28877" lon="1.21253">
        <ele>8</ele>
        <time>2017-03-21T15:12:21Z</time>
      </trkpt>
      <trkpt lat="49.28875" lon="1.21247">
        <ele>5</ele>
        <time>2017-03-21T15:12:21Z</time>
      </trkpt>
      <trkpt lat="49.28872" lon="1.21239">
        <ele>5</ele>
        <time>2017-03-21T15:12:21Z</time>
      </trkpt>
      <trkpt lat="49.2887" lon="1.2123">
        <ele>5</ele>
        <time>2017-03-21T15:12:21Z</time>
      </trkpt>
      <trkpt lat="49.28868" lon="1.21222">
        <ele>5</ele>
        <time>2017-03-21T15:12:37Z</time>
      </trkpt>
      <trkpt lat="49.28866" lon="1.21215">
        <ele>5</ele>
        <time>2017-03-21T15:12:37Z</time>
      </trkpt>
      <trkpt lat="49.28862" lon="1.21207">
        <ele>7</ele>
        <time>2017-03-21T15:12:37Z</time>
      </trkpt>
      <trkpt lat="49.2886" lon="1.21198">
        <ele>7</ele>
        <time>2017-03-21T15:12:37Z</time>
      </trkpt>
      <trkpt lat="49.28857" lon="1.21188">
        <ele>7</ele>
        <time>2017-03-21T15:12:52Z</time>
      </trkpt>
      <trkpt lat="49.28855" lon="1.21183">
        <ele>7</ele>
        <time>2017-03-21T15:12:52Z</time>
      </trkpt>
      <trkpt lat="49.28852" lon="1.21175">
        <ele>7</ele>
        <time>2017-03-21T15:12:52Z</time>
      </trkpt>
      <trkpt lat="49.28849" lon="1.21167">
        <ele>7</ele>
        <time>2017-03-21T15:12:52Z</time>
      </trkpt>
      <trkpt lat="49.28847" lon="1.2116">
        <ele>7</ele>
        <time>2017-03-21T15:13:09Z</time>
      </trkpt>
      <trkpt lat="49.28844" lon="1.21153">
        <ele>7</ele>
        <time>2017-03-21T15:13:09Z</time>
      </trkpt>
      <trkpt lat="49.28842" lon="1.21146">
        <ele>7</ele>
        <time>2017-03-21T15:13:09Z</time>
      </trkpt>
      <trkpt lat="49.28839" lon="1.2114">
        <ele>7</ele>
        <time>2017-03-21T15:13:09Z</time>
      </trkpt>
      <trkpt lat="49.28837" lon="1.21133">
        <ele>7</ele>
        <time>2017-03-21T15:13:24Z</time>
      </trkpt>
      <trkpt lat="49.28834" lon="1.21122">
        <ele>8</ele>
        <time>2017-03-21T15:13:24Z</time>
      </trkpt>
      <trkpt lat="49.28832" lon="1.21116">
        <ele>8</ele>
        <time>2017-03-21T15:13:24Z</time>
      </trkpt>
      <trkpt lat="49.2883" lon="1.21109">
        <ele>8</ele>
        <time>2017-03-21T15:13:24Z</time>
      </trkpt>
      <trkpt lat="49.28827" lon="1.21101">
        <ele>8</ele>
        <time>2017-03-21T15:13:41Z</time>
      </trkpt>
      <trkpt lat="49.28825" lon="1.21093">
        <ele>8</ele>
        <time>2017-03-21T15:13:41Z</time>
      </trkpt>
      <trkpt lat="49.28822" lon="1.21084">
        <ele>8</ele>
        <time>2017-03-21T15:13:41Z</time>
      </trkpt>
      <trkpt lat="49.28821" lon="1.21078">
        <ele>8</ele>
        <time>2017-03-21T15:13:41Z</time>
      </trkpt>
      <trkpt lat="49.28819" lon="1.21072">
        <ele>8</ele>
        <time>2017-03-21T15:13:57Z</time>
      </trkpt>
      <trkpt lat="49.28816" lon="1.21063">
        <ele>8</ele>
        <time>2017-03-21T15:13:57Z</time>
      </trkpt>
      <trkpt lat="49.28814" lon="1.21058">
        <ele>8</ele>
        <time>2017-03-21T15:13:57Z</time>
      </trkpt>
      <trkpt lat="49.28813" lon="1.21055">
        <ele>8</ele>
        <time>2017-03-21T15:13:57Z</time>
      </trkpt>
      <trkpt lat="49.28803" lon="1.21023">
        <ele>7</ele>
        <time>2017-03-21T15:14:21Z</time>
      </trkpt>
      <trkpt lat="49.288" lon="1.21015">
        <ele>7</ele>
        <time>2017-03-21T15:14:21Z</time>
      </trkpt>
      <trkpt lat="49.28796" lon="1.21008">
        <ele>7</ele>
        <time>2017-03-21T15:14:21Z</time>
      </trkpt>
      <trkpt lat="49.28794" lon="1.21">
        <ele>7</ele>
        <time>2017-03-21T15:14:21Z</time>
      </trkpt>
      <trkpt lat="49.28792" lon="1.20992">
        <ele>8</ele>
        <time>2017-03-21T15:14:37Z</time>
      </trkpt>
      <trkpt lat="49.28789" lon="1.20985">
        <ele>8</ele>
        <time>2017-03-21T15:14:37Z</time>
      </trkpt>
      <trkpt lat="49.28787" lon="1.20978">
        <ele>8</ele>
        <time>2017-03-21T15:14:37Z</time>
      </trkpt>
      <trkpt lat="49.28783" lon="1.20969">
        <ele>8</ele>
        <time>2017-03-21T15:14:37Z</time>
      </trkpt>
      <trkpt lat="49.28782" lon="1.2096">
        <ele>8</ele>
        <time>2017-03-21T15:14:53Z</time>
      </trkpt>
      <trkpt lat="49.28781" lon="1.20957">
        <ele>9</ele>
        <time>2017-03-21T15:14:53Z</time>
      </trkpt>
      <trkpt lat="49.28778" lon="1.20948">
        <ele>9</ele>
        <time>2017-03-21T15:14:53Z</time>
      </trkpt>
      <trkpt lat="49.28776" lon="1.20943">
        <ele>9</ele>
        <time>2017-03-21T15:14:53Z</time>
      </trkpt>
      <trkpt lat="49.28774" lon="1.20935">
        <ele>9</ele>
        <time>2017-03-21T15:15:09Z</time>
      </trkpt>
      <trkpt lat="49.28772" lon="1.20926">
        <ele>9</ele>
        <time>2017-03-21T15:15:09Z</time>
      </trkpt>
      <trkpt lat="49.28769" lon="1.20916">
        <ele>9</ele>
        <time>2017-03-21T15:15:09Z</time>
      </trkpt>
      <trkpt lat="49.28767" lon="1.20908">
        <ele>9</ele>
        <time>2017-03-21T15:15:09Z</time>
      </trkpt>
      <trkpt lat="49.28765" lon="1.20901">
        <ele>9</ele>
        <time>2017-03-21T15:15:25Z</time>
      </trkpt>
      <trkpt lat="49.28763" lon="1.20892">
        <ele>9</ele>
        <time>2017-03-21T15:15:25Z</time>
      </trkpt>
      <trkpt lat="49.28761" lon="1.20884">
        <ele>9</ele>
        <time>2017-03-21T15:15:25Z</time>
      </trkpt>
      <trkpt lat="49.28761" lon="1.20877">
        <ele>9</ele>
        <time>2017-03-21T15:15:25Z</time>
      </trkpt>
      <trkpt lat="49.28761" lon="1.2087">
        <ele>11</ele>
        <time>2017-03-21T15:15:41Z</time>
      </trkpt>
      <trkpt lat="49.28763" lon="1.20863">
        <ele>11</ele>
        <time>2017-03-21T15:15:41Z</time>
      </trkpt>
      <trkpt lat="49.28767" lon="1.20859">
        <ele>11</ele>
        <time>2017-03-21T15:15:41Z</time>
      </trkpt>
      <trkpt lat="49.28771" lon="1.20855">
        <ele>11</ele>
        <time>2017-03-21T15:15:41Z</time>
      </trkpt>
      <trkpt lat="49.28774" lon="1.20849">
        <ele>11</ele>
        <time>2017-03-21T15:15:57Z</time>
      </trkpt>
      <trkpt lat="49.28779" lon="1.20845">
        <ele>11</ele>
        <time>2017-03-21T15:15:57Z</time>
      </trkpt>
      <trkpt lat="49.28783" lon="1.20841">
        <ele>11</ele>
        <time>2017-03-21T15:15:57Z</time>
      </trkpt>
      <trkpt lat="49.28786" lon="1.20839">
        <ele>11</ele>
        <time>2017-03-21T15:15:57Z</time>
      </trkpt>
      <trkpt lat="49.2879" lon="1.20836">
        <ele>11</ele>
        <time>2017-03-21T15:16:13Z</time>
      </trkpt>
      <trkpt lat="49.28794" lon="1.2083">
        <ele>6</ele>
        <time>2017-03-21T15:16:13Z</time>
      </trkpt>
      <trkpt lat="49.28798" lon="1.20824">
        <ele>6</ele>
        <time>2017-03-21T15:16:13Z</time>
      </trkpt>
      <trkpt lat="49.28801" lon="1.2082">
        <ele>6</ele>
        <time>2017-03-21T15:16:13Z</time>
      </trkpt>
      <trkpt lat="49.28805" lon="1.20817">
        <ele>6</ele>
        <time>2017-03-21T15:16:29Z</time>
      </trkpt>
      <trkpt lat="49.28809" lon="1.20815">
        <ele>6</ele>
        <time>2017-03-21T15:16:29Z</time>
      </trkpt>
      <trkpt lat="49.28815" lon="1.20815">
        <ele>6</ele>
        <time>2017-03-21T15:16:29Z</time>
      </trkpt>
      <trkpt lat="49.28822" lon="1.20811">
        <ele>6</ele>
        <time>2017-03-21T15:16:29Z</time>
      </trkpt>
      <trkpt lat="49.28823" lon="1.2081">
        <ele>6</ele>
        <time>2017-03-21T15:16:46Z</time>
      </trkpt>
      <trkpt lat="49.2883" lon="1.20805">
        <ele>6</ele>
        <time>2017-03-21T15:16:46Z</time>
      </trkpt>
      <trkpt lat="49.28831" lon="1.20802">
        <ele>6</ele>
        <time>2017-03-21T15:16:46Z</time>
      </trkpt>
      <trkpt lat="49.28837" lon="1.20796">
        <ele>6</ele>
        <time>2017-03-21T15:16:46Z</time>
      </trkpt>
      <trkpt lat="49.28841" lon="1.20793">
        <ele>6</ele>
        <time>2017-03-21T15:17:02Z</time>
      </trkpt>
      <trkpt lat="49.28845" lon="1.20791">
        <ele>8</ele>
        <time>2017-03-21T15:17:02Z</time>
      </trkpt>
      <trkpt lat="49.2885" lon="1.20787">
        <ele>8</ele>
        <time>2017-03-21T15:17:02Z</time>
      </trkpt>
      <trkpt lat="49.28856" lon="1.20783">
        <ele>8</ele>
        <time>2017-03-21T15:17:02Z</time>
      </trkpt>
      <trkpt lat="49.2886" lon="1.20783">
        <ele>8</ele>
        <time>2017-03-21T15:17:17Z</time>
      </trkpt>
      <trkpt lat="49.28865" lon="1.2078">
        <ele>8</ele>
        <time>2017-03-21T15:17:17Z</time>
      </trkpt>
      <trkpt lat="49.28871" lon="1.20775">
        <ele>8</ele>
        <time>2017-03-21T15:17:17Z</time>
      </trkpt>
      <trkpt lat="49.28873" lon="1.20772">
        <ele>8</ele>
        <time>2017-03-21T15:17:17Z</time>
      </trkpt>
      <trkpt lat="49.28878" lon="1.20768">
        <ele>8</ele>
        <time>2017-03-21T15:17:33Z</time>
      </trkpt>
      <trkpt lat="49.28882" lon="1.20764">
        <ele>8</ele>
        <time>2017-03-21T15:17:33Z</time>
      </trkpt>
      <trkpt lat="49.28887" lon="1.20761">
        <ele>8</ele>
        <time>2017-03-21T15:17:33Z</time>
      </trkpt>
      <trkpt lat="49.28892" lon="1.20756">
        <ele>8</ele>
        <time>2017-03-21T15:17:33Z</time>
      </trkpt>
      <trkpt lat="49.28898" lon="1.20751">
        <ele>8</ele>
        <time>2017-03-21T15:17:48Z</time>
      </trkpt>
      <trkpt lat="49.28902" lon="1.20748">
        <ele>8</ele>
        <time>2017-03-21T15:17:48Z</time>
      </trkpt>
      <trkpt lat="49.28907" lon="1.20746">
        <ele>8</ele>
        <time>2017-03-21T15:17:48Z</time>
      </trkpt>
      <trkpt lat="49.28911" lon="1.20744">
        <ele>8</ele>
        <time>2017-03-21T15:17:48Z</time>
      </trkpt>
      <trkpt lat="49.28916" lon="1.20741">
        <ele>8</ele>
        <time>2017-03-21T15:18:05Z</time>
      </trkpt>
      <trkpt lat="49.2892" lon="1.20739">
        <ele>8</ele>
        <time>2017-03-21T15:18:05Z</time>
      </trkpt>
      <trkpt lat="49.28925" lon="1.20736">
        <ele>8</ele>
        <time>2017-03-21T15:18:05Z</time>
      </trkpt>
      <trkpt lat="49.28929" lon="1.20733">
        <ele>8</ele>
        <time>2017-03-21T15:18:05Z</time>
      </trkpt>
      <trkpt lat="49.28932" lon="1.20729">
        <ele>8</ele>
        <time>2017-03-21T15:18:21Z</time>
      </trkpt>
      <trkpt lat="49.28938" lon="1.20726">
        <ele>8</ele>
        <time>2017-03-21T15:18:21Z</time>
      </trkpt>
      <trkpt lat="49.28941" lon="1.20721">
        <ele>8</ele>
        <time>2017-03-21T15:18:21Z</time>
      </trkpt>
      <trkpt lat="49.28945" lon="1.20717">
        <ele>8</ele>
        <time>2017-03-21T15:18:21Z</time>
      </trkpt>
      <trkpt lat="49.28951" lon="1.20713">
        <ele>8</ele>
        <time>2017-03-21T15:18:37Z</time>
      </trkpt>
      <trkpt lat="49.28954" lon="1.2071">
        <ele>8</ele>
        <time>2017-03-21T15:18:37Z</time>
      </trkpt>
      <trkpt lat="49.2896" lon="1.20709">
        <ele>7</ele>
        <time>2017-03-21T15:18:37Z</time>
      </trkpt>
      <trkpt lat="49.28965" lon="1.20706">
        <ele>7</ele>
        <time>2017-03-21T15:18:37Z</time>
      </trkpt>
      <trkpt lat="49.2897" lon="1.20702">
        <ele>7</ele>
        <time>2017-03-21T15:18:52Z</time>
      </trkpt>
      <trkpt lat="49.28974" lon="1.20699">
        <ele>7</ele>
        <time>2017-03-21T15:18:52Z</time>
      </trkpt>
      <trkpt lat="49.28978" lon="1.20695">
        <ele>7</ele>
        <time>2017-03-21T15:18:52Z</time>
      </trkpt>
      <trkpt lat="49.28982" lon="1.20691">
        <ele>7</ele>
        <time>2017-03-21T15:18:52Z</time>
      </trkpt>
      <trkpt lat="49.28986" lon="1.20687">
        <ele>7</ele>
        <time>2017-03-21T15:19:09Z</time>
      </trkpt>
      <trkpt lat="49.2899" lon="1.20683">
        <ele>7</ele>
        <time>2017-03-21T15:19:09Z</time>
      </trkpt>
      <trkpt lat="49.28995" lon="1.20679">
        <ele>7</ele>
        <time>2017-03-21T15:19:09Z</time>
      </trkpt>
      <trkpt lat="49.29" lon="1.20676">
        <ele>7</ele>
        <time>2017-03-21T15:19:09Z</time>
      </trkpt>
      <trkpt lat="49.29002" lon="1.20673">
        <ele>7</ele>
        <time>2017-03-21T15:19:25Z</time>
      </trkpt>
      <trkpt lat="49.29006" lon="1.20668">
        <ele>7</ele>
        <time>2017-03-21T15:19:25Z</time>
      </trkpt>
      <trkpt lat="49.2901" lon="1.20664">
        <ele>7</ele>
        <time>2017-03-21T15:19:25Z</time>
      </trkpt>
      <trkpt lat="49.29015" lon="1.20659">
        <ele>7</ele>
        <time>2017-03-21T15:19:26Z</time>
      </trkpt>
      <trkpt lat="49.29018" lon="1.20656">
        <ele>7</ele>
        <time>2017-03-21T15:19:41Z</time>
      </trkpt>
      <trkpt lat="49.29022" lon="1.20651">
        <ele>7</ele>
        <time>2017-03-21T15:19:41Z</time>
      </trkpt>
      <trkpt lat="49.29025" lon="1.20647">
        <ele>7</ele>
        <time>2017-03-21T15:19:41Z</time>
      </trkpt>
      <trkpt lat="49.29028" lon="1.20642">
        <ele>7</ele>
        <time>2017-03-21T15:19:41Z</time>
      </trkpt>
      <trkpt lat="49.2903" lon="1.20637">
        <ele>7</ele>
        <time>2017-03-21T15:19:58Z</time>
      </trkpt>
      <trkpt lat="49.29035" lon="1.20635">
        <ele>7</ele>
        <time>2017-03-21T15:19:58Z</time>
      </trkpt>
      <trkpt lat="49.29038" lon="1.2063">
        <ele>7</ele>
        <time>2017-03-21T15:19:58Z</time>
      </trkpt>
      <trkpt lat="49.29035" lon="1.20622">
        <ele>8</ele>
        <time>2017-03-21T15:19:58Z</time>
      </trkpt>
      <trkpt lat="49.29034" lon="1.20616">
        <ele>8</ele>
        <time>2017-03-21T15:20:13Z</time>
      </trkpt>
      <trkpt lat="49.29033" lon="1.20607">
        <ele>8</ele>
        <time>2017-03-21T15:20:13Z</time>
      </trkpt>
      <trkpt lat="49.29031" lon="1.206">
        <ele>8</ele>
        <time>2017-03-21T15:20:13Z</time>
      </trkpt>
      <trkpt lat="49.2903" lon="1.20592">
        <ele>8</ele>
        <time>2017-03-21T15:20:13Z</time>
      </trkpt>
      <trkpt lat="49.29029" lon="1.20584">
        <ele>8</ele>
        <time>2017-03-21T15:20:29Z</time>
      </trkpt>
      <trkpt lat="49.29027" lon="1.20576">
        <ele>8</ele>
        <time>2017-03-21T15:20:29Z</time>
      </trkpt>
      <trkpt lat="49.29026" lon="1.20569">
        <ele>8</ele>
        <time>2017-03-21T15:20:29Z</time>
      </trkpt>
      <trkpt lat="49.29024" lon="1.20562">
        <ele>8</ele>
        <time>2017-03-21T15:20:29Z</time>
      </trkpt>
      <trkpt lat="49.29022" lon="1.20556">
        <ele>8</ele>
        <time>2017-03-21T15:20:44Z</time>
      </trkpt>
      <trkpt lat="49.2902" lon="1.20548">
        <ele>8</ele>
        <time>2017-03-21T15:20:44Z</time>
      </trkpt>
      <trkpt lat="49.29019" lon="1.20542">
        <ele>9</ele>
        <time>2017-03-21T15:20:44Z</time>
      </trkpt>
      <trkpt lat="49.29018" lon="1.20535">
        <ele>9</ele>
        <time>2017-03-21T15:20:44Z</time>
      </trkpt>
      <trkpt lat="49.29015" lon="1.20522">
        <ele>9</ele>
        <time>2017-03-21T15:21:01Z</time>
      </trkpt>
      <trkpt lat="49.29014" lon="1.20517">
        <ele>9</ele>
        <time>2017-03-21T15:21:01Z</time>
      </trkpt>
      <trkpt lat="49.29011" lon="1.20511">
        <ele>9</ele>
        <time>2017-03-21T15:21:01Z</time>
      </trkpt>
      <trkpt lat="49.29009" lon="1.20503">
        <ele>9</ele>
        <time>2017-03-21T15:21:01Z</time>
      </trkpt>
      <trkpt lat="49.29006" lon="1.20493">
        <ele>9</ele>
        <time>2017-03-21T15:21:17Z</time>
      </trkpt>
      <trkpt lat="49.29005" lon="1.20489">
        <ele>9</ele>
        <time>2017-03-21T15:21:17Z</time>
      </trkpt>
      <trkpt lat="49.29001" lon="1.20482">
        <ele>9</ele>
        <time>2017-03-21T15:21:17Z</time>
      </trkpt>
      <trkpt lat="49.29" lon="1.20476">
        <ele>9</ele>
        <time>2017-03-21T15:21:17Z</time>
      </trkpt>
      <trkpt lat="49.28998" lon="1.20468">
        <ele>9</ele>
        <time>2017-03-21T15:21:33Z</time>
      </trkpt>
      <trkpt lat="49.28996" lon="1.20459">
        <ele>9</ele>
        <time>2017-03-21T15:21:33Z</time>
      </trkpt>
      <trkpt lat="49.28996" lon="1.20453">
        <ele>10</ele>
        <time>2017-03-21T15:21:33Z</time>
      </trkpt>
      <trkpt lat="49.28995" lon="1.20446">
        <ele>10</ele>
        <time>2017-03-21T15:21:33Z</time>
      </trkpt>
      <trkpt lat="49.28995" lon="1.20439">
        <ele>10</ele>
        <time>2017-03-21T15:21:49Z</time>
      </trkpt>
      <trkpt lat="49.28994" lon="1.2043">
        <ele>10</ele>
        <time>2017-03-21T15:21:49Z</time>
      </trkpt>
      <trkpt lat="49.28993" lon="1.20423">
        <ele>10</ele>
        <time>2017-03-21T15:21:49Z</time>
      </trkpt>
      <trkpt lat="49.28991" lon="1.20416">
        <ele>10</ele>
        <time>2017-03-21T15:21:49Z</time>
      </trkpt>
      <trkpt lat="49.28991" lon="1.2041">
        <ele>10</ele>
        <time>2017-03-21T15:22:05Z</time>
      </trkpt>
      <trkpt lat="49.2899" lon="1.20404">
        <ele>10</ele>
        <time>2017-03-21T15:22:05Z</time>
      </trkpt>
      <trkpt lat="49.28987" lon="1.20398">
        <ele>10</ele>
        <time>2017-03-21T15:22:05Z</time>
      </trkpt>
      <trkpt lat="49.28984" lon="1.20395">
        <ele>10</ele>
        <time>2017-03-21T15:22:05Z</time>
      </trkpt>
      <trkpt lat="49.28981" lon="1.2039">
        <ele>10</ele>
        <time>2017-03-21T15:22:21Z</time>
      </trkpt>
      <trkpt lat="49.28976" lon="1.20388">
        <ele>10</ele>
        <time>2017-03-21T15:22:21Z</time>
      </trkpt>
      <trkpt lat="49.2897" lon="1.20386">
        <ele>10</ele>
        <time>2017-03-21T15:22:21Z</time>
      </trkpt>
      <trkpt lat="49.28967" lon="1.20386">
        <ele>10</ele>
        <time>2017-03-21T15:22:21Z</time>
      </trkpt>
      <trkpt lat="49.28961" lon="1.20386">
        <ele>10</ele>
        <time>2017-03-21T15:22:37Z</time>
      </trkpt>
      <trkpt lat="49.28958" lon="1.20385">
        <ele>10</ele>
        <time>2017-03-21T15:22:37Z</time>
      </trkpt>
      <trkpt lat="49.28955" lon="1.20386">
        <ele>10</ele>
        <time>2017-03-21T15:22:37Z</time>
      </trkpt>
      <trkpt lat="49.2895" lon="1.20387">
        <ele>10</ele>
        <time>2017-03-21T15:22:37Z</time>
      </trkpt>
      <trkpt lat="49.28944" lon="1.20388">
        <ele>10</ele>
        <time>2017-03-21T15:22:52Z</time>
      </trkpt>
      <trkpt lat="49.2894" lon="1.2039">
        <ele>10</ele>
        <time>2017-03-21T15:22:52Z</time>
      </trkpt>
      <trkpt lat="49.28935" lon="1.20391">
        <ele>10</ele>
        <time>2017-03-21T15:22:52Z</time>
      </trkpt>
      <trkpt lat="49.2893" lon="1.20393">
        <ele>10</ele>
        <time>2017-03-21T15:22:53Z</time>
      </trkpt>
      <trkpt lat="49.28925" lon="1.20395">
        <ele>10</ele>
        <time>2017-03-21T15:23:09Z</time>
      </trkpt>
      <trkpt lat="49.28919" lon="1.20396">
        <ele>10</ele>
        <time>2017-03-21T15:23:09Z</time>
      </trkpt>
      <trkpt lat="49.28915" lon="1.20397">
        <ele>10</ele>
        <time>2017-03-21T15:23:09Z</time>
      </trkpt>
      <trkpt lat="49.28911" lon="1.20398">
        <ele>10</ele>
        <time>2017-03-21T15:23:09Z</time>
      </trkpt>
      <trkpt lat="49.28905" lon="1.20401">
        <ele>10</ele>
        <time>2017-03-21T15:23:24Z</time>
      </trkpt>
      <trkpt lat="49.28902" lon="1.20402">
        <ele>10</ele>
        <time>2017-03-21T15:23:24Z</time>
      </trkpt>
      <trkpt lat="49.28897" lon="1.20403">
        <ele>10</ele>
        <time>2017-03-21T15:23:24Z</time>
      </trkpt>
      <trkpt lat="49.28894" lon="1.20405">
        <ele>10</ele>
        <time>2017-03-21T15:23:24Z</time>
      </trkpt>
      <trkpt lat="49.2889" lon="1.20407">
        <ele>10</ele>
        <time>2017-03-21T15:23:41Z</time>
      </trkpt>
      <trkpt lat="49.28884" lon="1.20402">
        <ele>10</ele>
        <time>2017-03-21T15:23:41Z</time>
      </trkpt>
      <trkpt lat="49.28882" lon="1.20396">
        <ele>10</ele>
        <time>2017-03-21T15:23:41Z</time>
      </trkpt>
      <trkpt lat="49.28882" lon="1.20386">
        <ele>10</ele>
        <time>2017-03-21T15:23:41Z</time>
      </trkpt>
      <trkpt lat="49.28882" lon="1.20381">
        <ele>10</ele>
        <time>2017-03-21T15:23:57Z</time>
      </trkpt>
      <trkpt lat="49.28882" lon="1.20373">
        <ele>11</ele>
        <time>2017-03-21T15:23:57Z</time>
      </trkpt>
      <trkpt lat="49.28881" lon="1.20363">
        <ele>11</ele>
        <time>2017-03-21T15:23:57Z</time>
      </trkpt>
      <trkpt lat="49.28881" lon="1.20358">
        <ele>11</ele>
        <time>2017-03-21T15:23:57Z</time>
      </trkpt>
      <trkpt lat="49.2888" lon="1.2035">
        <ele>11</ele>
        <time>2017-03-21T15:24:13Z</time>
      </trkpt>
      <trkpt lat="49.28879" lon="1.20344">
        <ele>11</ele>
        <time>2017-03-21T15:24:13Z</time>
      </trkpt>
      <trkpt lat="49.28878" lon="1.20336">
        <ele>11</ele>
        <time>2017-03-21T15:24:13Z</time>
      </trkpt>
      <trkpt lat="49.28878" lon="1.20329">
        <ele>11</ele>
        <time>2017-03-21T15:24:13Z</time>
      </trkpt>
      <trkpt lat="49.28878" lon="1.20321">
        <ele>11</ele>
        <time>2017-03-21T15:24:29Z</time>
      </trkpt>
      <trkpt lat="49.28876" lon="1.20316">
        <ele>11</ele>
        <time>2017-03-21T15:24:29Z</time>
      </trkpt>
      <trkpt lat="49.28875" lon="1.20306">
        <ele>11</ele>
        <time>2017-03-21T15:24:29Z</time>
      </trkpt>
      <trkpt lat="49.28877" lon="1.20303">
        <ele>11</ele>
        <time>2017-03-21T15:24:29Z</time>
      </trkpt>
      <trkpt lat="49.28877" lon="1.20293">
        <ele>11</ele>
        <time>2017-03-21T15:25:00Z</time>
      </trkpt>
      <trkpt lat="49.28876" lon="1.20288">
        <ele>14</ele>
        <time>2017-03-21T15:25:00Z</time>
      </trkpt>
      <trkpt lat="49.28873" lon="1.20284">
        <ele>13</ele>
        <time>2017-03-21T15:25:00Z</time>
      </trkpt>
      <trkpt lat="49.28871" lon="1.20278">
        <ele>13</ele>
        <time>2017-03-21T15:25:00Z</time>
      </trkpt>
      <trkpt lat="49.28869" lon="1.20271">
        <ele>13</ele>
        <time>2017-03-21T15:25:00Z</time>
      </trkpt>
      <trkpt lat="49.28867" lon="1.20264">
        <ele>13</ele>
        <time>2017-03-21T15:25:17Z</time>
      </trkpt>
      <trkpt lat="49.28866" lon="1.20256">
        <ele>13</ele>
        <time>2017-03-21T15:25:17Z</time>
      </trkpt>
      <trkpt lat="49.28864" lon="1.20249">
        <ele>13</ele>
        <time>2017-03-21T15:25:17Z</time>
      </trkpt>
      <trkpt lat="49.28863" lon="1.20244">
        <ele>13</ele>
        <time>2017-03-21T15:25:17Z</time>
      </trkpt>
      <trkpt lat="49.28864" lon="1.20236">
        <ele>13</ele>
        <time>2017-03-21T15:25:32Z</time>
      </trkpt>
      <trkpt lat="49.28864" lon="1.2023">
        <ele>13</ele>
        <time>2017-03-21T15:25:32Z</time>
      </trkpt>
      <trkpt lat="49.28863" lon="1.20223">
        <ele>13</ele>
        <time>2017-03-21T15:25:32Z</time>
      </trkpt>
      <trkpt lat="49.28864" lon="1.20215">
        <ele>13</ele>
        <time>2017-03-21T15:25:32Z</time>
      </trkpt>
      <trkpt lat="49.28866" lon="1.20207">
        <ele>18</ele>
        <time>2017-03-21T15:25:48Z</time>
      </trkpt>
      <trkpt lat="49.28867" lon="1.20199">
        <ele>18</ele>
        <time>2017-03-21T15:25:48Z</time>
      </trkpt>
      <trkpt lat="49.28867" lon="1.20194">
        <ele>18</ele>
        <time>2017-03-21T15:25:48Z</time>
      </trkpt>
      <trkpt lat="49.28867" lon="1.20187">
        <ele>18</ele>
        <time>2017-03-21T15:25:48Z</time>
      </trkpt>
      <trkpt lat="49.28867" lon="1.20178">
        <ele>18</ele>
        <time>2017-03-21T15:26:05Z</time>
      </trkpt>
      <trkpt lat="49.28868" lon="1.20172">
        <ele>18</ele>
        <time>2017-03-21T15:26:05Z</time>
      </trkpt>
      <trkpt lat="49.28868" lon="1.20165">
        <ele>18</ele>
        <time>2017-03-21T15:26:05Z</time>
      </trkpt>
      <trkpt lat="49.28865" lon="1.20158">
        <ele>18</ele>
        <time>2017-03-21T15:26:05Z</time>
      </trkpt>
      <trkpt lat="49.28865" lon="1.20151">
        <ele>18</ele>
        <time>2017-03-21T15:26:20Z</time>
      </trkpt>
      <trkpt lat="49.28865" lon="1.20143">
        <ele>18</ele>
        <time>2017-03-21T15:26:20Z</time>
      </trkpt>
      <trkpt lat="49.28866" lon="1.20136">
        <ele>18</ele>
        <time>2017-03-21T15:26:20Z</time>
      </trkpt>
      <trkpt lat="49.28866" lon="1.20131">
        <ele>18</ele>
        <time>2017-03-21T15:26:20Z</time>
      </trkpt>
      <trkpt lat="49.28866" lon="1.20122">
        <ele>24</ele>
        <time>2017-03-21T15:26:36Z</time>
      </trkpt>
      <trkpt lat="49.28866" lon="1.20115">
        <ele>24</ele>
        <time>2017-03-21T15:26:36Z</time>
      </trkpt>
      <trkpt lat="49.28866" lon="1.20107">
        <ele>24</ele>
        <time>2017-03-21T15:26:36Z</time>
      </trkpt>
      <trkpt lat="49.28865" lon="1.201">
        <ele>24</ele>
        <time>2017-03-21T15:26:36Z</time>
      </trkpt>
      <trkpt lat="49.28864" lon="1.20093">
        <ele>24</ele>
        <time>2017-03-21T15:26:53Z</time>
      </trkpt>
      <trkpt lat="49.28865" lon="1.20086">
        <ele>24</ele>
        <time>2017-03-21T15:26:53Z</time>
      </trkpt>
      <trkpt lat="49.28865" lon="1.2008">
        <ele>24</ele>
        <time>2017-03-21T15:26:53Z</time>
      </trkpt>
      <trkpt lat="49.28866" lon="1.20072">
        <ele>24</ele>
        <time>2017-03-21T15:26:53Z</time>
      </trkpt>
      <trkpt lat="49.28868" lon="1.20063">
        <ele>24</ele>
        <time>2017-03-21T15:27:09Z</time>
      </trkpt>
      <trkpt lat="49.28869" lon="1.20057">
        <ele>24</ele>
        <time>2017-03-21T15:27:09Z</time>
      </trkpt>
      <trkpt lat="49.28871" lon="1.20048">
        <ele>24</ele>
        <time>2017-03-21T15:27:09Z</time>
      </trkpt>
      <trkpt lat="49.28872" lon="1.20041">
        <ele>31</ele>
        <time>2017-03-21T15:27:09Z</time>
      </trkpt>
      <trkpt lat="49.28873" lon="1.20033">
        <ele>31</ele>
        <time>2017-03-21T15:27:25Z</time>
      </trkpt>
      <trkpt lat="49.28875" lon="1.20028">
        <ele>31</ele>
        <time>2017-03-21T15:27:25Z</time>
      </trkpt>
      <trkpt lat="49.28875" lon="1.20021">
        <ele>31</ele>
        <time>2017-03-21T15:27:25Z</time>
      </trkpt>
      <trkpt lat="49.28876" lon="1.20015">
        <ele>36</ele>
        <time>2017-03-21T15:27:25Z</time>
      </trkpt>
      <trkpt lat="49.28876" lon="1.20006">
        <ele>36</ele>
        <time>2017-03-21T15:27:42Z</time>
      </trkpt>
      <trkpt lat="49.28877" lon="1.2">
        <ele>36</ele>
        <time>2017-03-21T15:27:42Z</time>
      </trkpt>
      <trkpt lat="49.28878" lon="1.19993">
        <ele>36</ele>
        <time>2017-03-21T15:27:42Z</time>
      </trkpt>
      <trkpt lat="49.28879" lon="1.19984">
        <ele>36</ele>
        <time>2017-03-21T15:27:42Z</time>
      </trkpt>
      <trkpt lat="49.28879" lon="1.19979">
        <ele>36</ele>
        <time>2017-03-21T15:27:56Z</time>
      </trkpt>
      <trkpt lat="49.2888" lon="1.19972">
        <ele>36</ele>
        <time>2017-03-21T15:27:56Z</time>
      </trkpt>
      <trkpt lat="49.2888" lon="1.19965">
        <ele>36</ele>
        <time>2017-03-21T15:27:56Z</time>
      </trkpt>
      <trkpt lat="49.2888" lon="1.19961">
        <ele>36</ele>
        <time>2017-03-21T15:27:56Z</time>
      </trkpt>
      <trkpt lat="49.28881" lon="1.19956">
        <ele>43</ele>
        <time>2017-03-21T15:28:13Z</time>
      </trkpt>
      <trkpt lat="49.28881" lon="1.1995">
        <ele>43</ele>
        <time>2017-03-21T15:28:13Z</time>
      </trkpt>
      <trkpt lat="49.2888" lon="1.19943">
        <ele>43</ele>
        <time>2017-03-21T15:28:13Z</time>
      </trkpt>
      <trkpt lat="49.2888" lon="1.19937">
        <ele>43</ele>
        <time>2017-03-21T15:28:13Z</time>
      </trkpt>
      <trkpt lat="49.28879" lon="1.1993">
        <ele>43</ele>
        <time>2017-03-21T15:28:29Z</time>
      </trkpt>
      <trkpt lat="49.28879" lon="1.19925">
        <ele>43</ele>
        <time>2017-03-21T15:28:29Z</time>
      </trkpt>
      <trkpt lat="49.28878" lon="1.1992">
        <ele>43</ele>
        <time>2017-03-21T15:28:29Z</time>
      </trkpt>
      <trkpt lat="49.28877" lon="1.19913">
        <ele>43</ele>
        <time>2017-03-21T15:28:29Z</time>
      </trkpt>
      <trkpt lat="49.28876" lon="1.19906">
        <ele>43</ele>
        <time>2017-03-21T15:28:44Z</time>
      </trkpt>
      <trkpt lat="49.28875" lon="1.19897">
        <ele>43</ele>
        <time>2017-03-21T15:28:44Z</time>
      </trkpt>
      <trkpt lat="49.28874" lon="1.19892">
        <ele>41</ele>
        <time>2017-03-21T15:28:44Z</time>
      </trkpt>
      <trkpt lat="49.28874" lon="1.19889">
        <ele>41</ele>
        <time>2017-03-21T15:28:44Z</time>
      </trkpt>
      <trkpt lat="49.28876" lon="1.19886">
        <ele>43</ele>
        <time>2017-03-21T15:29:01Z</time>
      </trkpt>
      <trkpt lat="49.28875" lon="1.19884">
        <ele>41</ele>
        <time>2017-03-21T15:29:01Z</time>
      </trkpt>
      <trkpt lat="49.28872" lon="1.19878">
        <ele>41</ele>
        <time>2017-03-21T15:29:01Z</time>
      </trkpt>
      <trkpt lat="49.28869" lon="1.19871">
        <ele>52</ele>
        <time>2017-03-21T15:29:01Z</time>
      </trkpt>
      <trkpt lat="49.28867" lon="1.19865">
        <ele>52</ele>
        <time>2017-03-21T15:29:16Z</time>
      </trkpt>
      <trkpt lat="49.28864" lon="1.19861">
        <ele>52</ele>
        <time>2017-03-21T15:29:16Z</time>
      </trkpt>
      <trkpt lat="49.28863" lon="1.19855">
        <ele>52</ele>
        <time>2017-03-21T15:29:16Z</time>
      </trkpt>
      <trkpt lat="49.28862" lon="1.19848">
        <ele>52</ele>
        <time>2017-03-21T15:29:16Z</time>
      </trkpt>
      <trkpt lat="49.28862" lon="1.19842">
        <ele>52</ele>
        <time>2017-03-21T15:29:33Z</time>
      </trkpt>
      <trkpt lat="49.28861" lon="1.19835">
        <ele>52</ele>
        <time>2017-03-21T15:29:33Z</time>
      </trkpt>
      <trkpt lat="49.2886" lon="1.19828">
        <ele>52</ele>
        <time>2017-03-21T15:29:33Z</time>
      </trkpt>
      <trkpt lat="49.28859" lon="1.19819">
        <ele>52</ele>
        <time>2017-03-21T15:29:33Z</time>
      </trkpt>
      <trkpt lat="49.28858" lon="1.19815">
        <ele>52</ele>
        <time>2017-03-21T15:29:53Z</time>
      </trkpt>
      <trkpt lat="49.28858" lon="1.19809">
        <ele>52</ele>
        <time>2017-03-21T15:29:53Z</time>
      </trkpt>
      <trkpt lat="49.2886" lon="1.19809">
        <ele>52</ele>
        <time>2017-03-21T15:29:53Z</time>
      </trkpt>
      <trkpt lat="49.28858" lon="1.19804">
        <ele>52</ele>
        <time>2017-03-21T15:29:53Z</time>
      </trkpt>
      <trkpt lat="49.28858" lon="1.19799">
        <ele>52</ele>
        <time>2017-03-21T15:29:53Z</time>
      </trkpt>
      <trkpt lat="49.28859" lon="1.19794">
        <ele>52</ele>
        <time>2017-03-21T15:30:09Z</time>
      </trkpt>
      <trkpt lat="49.28859" lon="1.1979">
        <ele>63</ele>
        <time>2017-03-21T15:30:09Z</time>
      </trkpt>
      <trkpt lat="49.28858" lon="1.19784">
        <ele>63</ele>
        <time>2017-03-21T15:30:09Z</time>
      </trkpt>
      <trkpt lat="49.28857" lon="1.19777">
        <ele>63</ele>
        <time>2017-03-21T15:30:09Z</time>
      </trkpt>
      <trkpt lat="49.28856" lon="1.1977">
        <ele>63</ele>
        <time>2017-03-21T15:30:25Z</time>
      </trkpt>
      <trkpt lat="49.28854" lon="1.19764">
        <ele>63</ele>
        <time>2017-03-21T15:30:25Z</time>
      </trkpt>
      <trkpt lat="49.28854" lon="1.19757">
        <ele>63</ele>
        <time>2017-03-21T15:30:25Z</time>
      </trkpt>
      <trkpt lat="49.28853" lon="1.1975">
        <ele>63</ele>
        <time>2017-03-21T15:30:25Z</time>
      </trkpt>
      <trkpt lat="49.28853" lon="1.19748">
        <ele>63</ele>
        <time>2017-03-21T15:31:00Z</time>
      </trkpt>
      <trkpt lat="49.28853" lon="1.19744">
        <ele>63</ele>
        <time>2017-03-21T15:31:00Z</time>
      </trkpt>
      <trkpt lat="49.28851" lon="1.1974">
        <ele>63</ele>
        <time>2017-03-21T15:31:01Z</time>
      </trkpt>
      <trkpt lat="49.28849" lon="1.19736">
        <ele>63</ele>
        <time>2017-03-21T15:31:01Z</time>
      </trkpt>
      <trkpt lat="49.28849" lon="1.19733">
        <ele>63</ele>
        <time>2017-03-21T15:31:01Z</time>
      </trkpt>
      <trkpt lat="49.28849" lon="1.1973">
        <ele>63</ele>
        <time>2017-03-21T15:31:17Z</time>
      </trkpt>
      <trkpt lat="49.28851" lon="1.19725">
        <ele>63</ele>
        <time>2017-03-21T15:31:17Z</time>
      </trkpt>
      <trkpt lat="49.28852" lon="1.1972">
        <ele>63</ele>
        <time>2017-03-21T15:31:17Z</time>
      </trkpt>
      <trkpt lat="49.28853" lon="1.19715">
        <ele>63</ele>
        <time>2017-03-21T15:31:17Z</time>
      </trkpt>
      <trkpt lat="49.28853" lon="1.19707">
        <ele>73</ele>
        <time>2017-03-21T15:31:33Z</time>
      </trkpt>
      <trkpt lat="49.28853" lon="1.19702">
        <ele>73</ele>
        <time>2017-03-21T15:31:33Z</time>
      </trkpt>
      <trkpt lat="49.28854" lon="1.19695">
        <ele>73</ele>
        <time>2017-03-21T15:31:33Z</time>
      </trkpt>
      <trkpt lat="49.28854" lon="1.19688">
        <ele>73</ele>
        <time>2017-03-21T15:31:33Z</time>
      </trkpt>
      <trkpt lat="49.28855" lon="1.1968">
        <ele>73</ele>
        <time>2017-03-21T15:31:48Z</time>
      </trkpt>
      <trkpt lat="49.28855" lon="1.19675">
        <ele>73</ele>
        <time>2017-03-21T15:31:48Z</time>
      </trkpt>
      <trkpt lat="49.28855" lon="1.19667">
        <ele>73</ele>
        <time>2017-03-21T15:31:48Z</time>
      </trkpt>
      <trkpt lat="49.28855" lon="1.19662">
        <ele>73</ele>
        <time>2017-03-21T15:31:48Z</time>
      </trkpt>
      <trkpt lat="49.28856" lon="1.19655">
        <ele>73</ele>
        <time>2017-03-21T15:32:05Z</time>
      </trkpt>
      <trkpt lat="49.28856" lon="1.19648">
        <ele>73</ele>
        <time>2017-03-21T15:32:05Z</time>
      </trkpt>
      <trkpt lat="49.28856" lon="1.19642">
        <ele>73</ele>
        <time>2017-03-21T15:32:05Z</time>
      </trkpt>
      <trkpt lat="49.28857" lon="1.19633">
        <ele>73</ele>
        <time>2017-03-21T15:32:05Z</time>
      </trkpt>
      <trkpt lat="49.28857" lon="1.19628">
        <ele>73</ele>
        <time>2017-03-21T15:32:21Z</time>
      </trkpt>
      <trkpt lat="49.28857" lon="1.19622">
        <ele>78</ele>
        <time>2017-03-21T15:32:21Z</time>
      </trkpt>
      <trkpt lat="49.28858" lon="1.19615">
        <ele>78</ele>
        <time>2017-03-21T15:32:21Z</time>
      </trkpt>
      <trkpt lat="49.28858" lon="1.19609">
        <ele>78</ele>
        <time>2017-03-21T15:32:21Z</time>
      </trkpt>
      <trkpt lat="49.28855" lon="1.19597">
        <ele>78</ele>
        <time>2017-03-21T15:32:52Z</time>
      </trkpt>
      <trkpt lat="49.28849" lon="1.19598">
        <ele>78</ele>
        <time>2017-03-21T15:32:52Z</time>
      </trkpt>
      <trkpt lat="49.28846" lon="1.19596">
        <ele>78</ele>
        <time>2017-03-21T15:32:52Z</time>
      </trkpt>
      <trkpt lat="49.28844" lon="1.19592">
        <ele>78</ele>
        <time>2017-03-21T15:32:52Z</time>
      </trkpt>
      <trkpt lat="49.28841" lon="1.19585">
        <ele>78</ele>
        <time>2017-03-21T15:32:52Z</time>
      </trkpt>
      <trkpt lat="49.28841" lon="1.19576">
        <ele>78</ele>
        <time>2017-03-21T15:33:09Z</time>
      </trkpt>
      <trkpt lat="49.2884" lon="1.19571">
        <ele>78</ele>
        <time>2017-03-21T15:33:09Z</time>
      </trkpt>
      <trkpt lat="49.28839" lon="1.19566">
        <ele>78</ele>
        <time>2017-03-21T15:33:09Z</time>
      </trkpt>
      <trkpt lat="49.28835" lon="1.19562">
        <ele>78</ele>
        <time>2017-03-21T15:33:09Z</time>
      </trkpt>
      <trkpt lat="49.28835" lon="1.19558">
        <ele>78</ele>
        <time>2017-03-21T15:33:25Z</time>
      </trkpt>
      <trkpt lat="49.28835" lon="1.19552">
        <ele>78</ele>
        <time>2017-03-21T15:33:25Z</time>
      </trkpt>
      <trkpt lat="49.28836" lon="1.19549">
        <ele>78</ele>
        <time>2017-03-21T15:33:25Z</time>
      </trkpt>
      <trkpt lat="49.28834" lon="1.19543">
        <ele>78</ele>
        <time>2017-03-21T15:33:25Z</time>
      </trkpt>
      <trkpt lat="49.28832" lon="1.19537">
        <ele>83</ele>
        <time>2017-03-21T15:33:41Z</time>
      </trkpt>
      <trkpt lat="49.2883" lon="1.19534">
        <ele>83</ele>
        <time>2017-03-21T15:33:41Z</time>
      </trkpt>
      <trkpt lat="49.28828" lon="1.19528">
        <ele>83</ele>
        <time>2017-03-21T15:33:42Z</time>
      </trkpt>
      <trkpt lat="49.28825" lon="1.19523">
        <ele>83</ele>
        <time>2017-03-21T15:33:42Z</time>
      </trkpt>
      <trkpt lat="49.28823" lon="1.19517">
        <ele>83</ele>
        <time>2017-03-21T15:33:57Z</time>
      </trkpt>
      <trkpt lat="49.28822" lon="1.19512">
        <ele>83</ele>
        <time>2017-03-21T15:33:57Z</time>
      </trkpt>
      <trkpt lat="49.2882" lon="1.19507">
        <ele>83</ele>
        <time>2017-03-21T15:33:57Z</time>
      </trkpt>
      <trkpt lat="49.28817" lon="1.195">
        <ele>83</ele>
        <time>2017-03-21T15:33:57Z</time>
      </trkpt>
      <trkpt lat="49.28815" lon="1.19493">
        <ele>83</ele>
        <time>2017-03-21T15:34:13Z</time>
      </trkpt>
      <trkpt lat="49.28813" lon="1.1949">
        <ele>83</ele>
        <time>2017-03-21T15:34:13Z</time>
      </trkpt>
      <trkpt lat="49.28811" lon="1.19482">
        <ele>83</ele>
        <time>2017-03-21T15:34:13Z</time>
      </trkpt>
      <trkpt lat="49.28809" lon="1.19475">
        <ele>83</ele>
        <time>2017-03-21T15:34:13Z</time>
      </trkpt>
      <trkpt lat="49.28808" lon="1.1947">
        <ele>83</ele>
        <time>2017-03-21T15:34:28Z</time>
      </trkpt>
      <trkpt lat="49.28806" lon="1.19463">
        <ele>83</ele>
        <time>2017-03-21T15:34:28Z</time>
      </trkpt>
      <trkpt lat="49.28804" lon="1.19458">
        <ele>87</ele>
        <time>2017-03-21T15:34:28Z</time>
      </trkpt>
      <trkpt lat="49.28802" lon="1.19452">
        <ele>87</ele>
        <time>2017-03-21T15:34:28Z</time>
      </trkpt>
      <trkpt lat="49.288" lon="1.19446">
        <ele>87</ele>
        <time>2017-03-21T15:34:44Z</time>
      </trkpt>
      <trkpt lat="49.28799" lon="1.19439">
        <ele>87</ele>
        <time>2017-03-21T15:34:44Z</time>
      </trkpt>
      <trkpt lat="49.28797" lon="1.19433">
        <ele>87</ele>
        <time>2017-03-21T15:34:44Z</time>
      </trkpt>
      <trkpt lat="49.28794" lon="1.19427">
        <ele>87</ele>
        <time>2017-03-21T15:34:44Z</time>
      </trkpt>
      <trkpt lat="49.28794" lon="1.19429">
        <ele>87</ele>
        <time>2017-03-21T15:38:09Z</time>
      </trkpt>
      <trkpt lat="49.2879" lon="1.19421">
        <ele>89</ele>
        <time>2017-03-21T15:38:09Z</time>
      </trkpt>
      <trkpt lat="49.28794" lon="1.19417">
        <ele>87</ele>
        <time>2017-03-21T15:38:09Z</time>
      </trkpt>
      <trkpt lat="49.28795" lon="1.19411">
        <ele>87</ele>
        <time>2017-03-21T15:38:09Z</time>
      </trkpt>
      <trkpt lat="49.28792" lon="1.19402">
        <ele>87</ele>
        <time>2017-03-21T15:38:09Z</time>
      </trkpt>
      <trkpt lat="49.2879" lon="1.19396">
        <ele>89</ele>
        <time>2017-03-21T15:38:25Z</time>
      </trkpt>
      <trkpt lat="49.28789" lon="1.1939">
        <ele>89</ele>
        <time>2017-03-21T15:38:25Z</time>
      </trkpt>
      <trkpt lat="49.28786" lon="1.19386">
        <ele>89</ele>
        <time>2017-03-21T15:38:25Z</time>
      </trkpt>
      <trkpt lat="49.28782" lon="1.19381">
        <ele>89</ele>
        <time>2017-03-21T15:38:25Z</time>
      </trkpt>
      <trkpt lat="49.2878" lon="1.19374">
        <ele>89</ele>
        <time>2017-03-21T15:38:40Z</time>
      </trkpt>
      <trkpt lat="49.28778" lon="1.19369">
        <ele>89</ele>
        <time>2017-03-21T15:38:40Z</time>
      </trkpt>
      <trkpt lat="49.28777" lon="1.19363">
        <ele>89</ele>
        <time>2017-03-21T15:38:40Z</time>
      </trkpt>
      <trkpt lat="49.28776" lon="1.19356">
        <ele>89</ele>
        <time>2017-03-21T15:38:40Z</time>
      </trkpt>
      <trkpt lat="49.28775" lon="1.19349">
        <ele>89</ele>
        <time>2017-03-21T15:38:57Z</time>
      </trkpt>
      <trkpt lat="49.28773" lon="1.19343">
        <ele>89</ele>
        <time>2017-03-21T15:38:57Z</time>
      </trkpt>
      <trkpt lat="49.28771" lon="1.19338">
        <ele>89</ele>
        <time>2017-03-21T15:38:57Z</time>
      </trkpt>
      <trkpt lat="49.28769" lon="1.19329">
        <ele>89</ele>
        <time>2017-03-21T15:38:57Z</time>
      </trkpt>
      <trkpt lat="49.28767" lon="1.19324">
        <ele>89</ele>
        <time>2017-03-21T15:39:13Z</time>
      </trkpt>
      <trkpt lat="49.28765" lon="1.19318">
        <ele>89</ele>
        <time>2017-03-21T15:39:13Z</time>
      </trkpt>
      <trkpt lat="49.28762" lon="1.19312">
        <ele>89</ele>
        <time>2017-03-21T15:39:13Z</time>
      </trkpt>
      <trkpt lat="49.2876" lon="1.19305">
        <ele>89</ele>
        <time>2017-03-21T15:39:13Z</time>
      </trkpt>
      <trkpt lat="49.28759" lon="1.19299">
        <ele>89</ele>
        <time>2017-03-21T15:39:29Z</time>
      </trkpt>
      <trkpt lat="49.28757" lon="1.19292">
        <ele>89</ele>
        <time>2017-03-21T15:39:29Z</time>
      </trkpt>
      <trkpt lat="49.28756" lon="1.19285">
        <ele>87</ele>
        <time>2017-03-21T15:39:29Z</time>
      </trkpt>
      <trkpt lat="49.28755" lon="1.19281">
        <ele>87</ele>
        <time>2017-03-21T15:39:29Z</time>
      </trkpt>
      <trkpt lat="49.28753" lon="1.19269">
        <ele>87</ele>
        <time>2017-03-21T15:39:46Z</time>
      </trkpt>
      <trkpt lat="49.28752" lon="1.19262">
        <ele>87</ele>
        <time>2017-03-21T15:39:46Z</time>
      </trkpt>
      <trkpt lat="49.28751" lon="1.19255">
        <ele>87</ele>
        <time>2017-03-21T15:39:46Z</time>
      </trkpt>
      <trkpt lat="49.28749" lon="1.19248">
        <ele>87</ele>
        <time>2017-03-21T15:39:46Z</time>
      </trkpt>
      <trkpt lat="49.28748" lon="1.19242">
        <ele>87</ele>
        <time>2017-03-21T15:40:01Z</time>
      </trkpt>
      <trkpt lat="49.28746" lon="1.19233">
        <ele>87</ele>
        <time>2017-03-21T15:40:01Z</time>
      </trkpt>
      <trkpt lat="49.28745" lon="1.19227">
        <ele>87</ele>
        <time>2017-03-21T15:40:01Z</time>
      </trkpt>
      <trkpt lat="49.28744" lon="1.1922">
        <ele>87</ele>
        <time>2017-03-21T15:40:01Z</time>
      </trkpt>
      <trkpt lat="49.28742" lon="1.19211">
        <ele>87</ele>
        <time>2017-03-21T15:40:17Z</time>
      </trkpt>
      <trkpt lat="49.28741" lon="1.19206">
        <ele>85</ele>
        <time>2017-03-21T15:40:17Z</time>
      </trkpt>
      <trkpt lat="49.28739" lon="1.192">
        <ele>85</ele>
        <time>2017-03-21T15:40:17Z</time>
      </trkpt>
      <trkpt lat="49.28736" lon="1.19193">
        <ele>85</ele>
        <time>2017-03-21T15:40:17Z</time>
      </trkpt>
      <trkpt lat="49.28734" lon="1.19184">
        <ele>85</ele>
        <time>2017-03-21T15:40:33Z</time>
      </trkpt>
      <trkpt lat="49.28732" lon="1.19178">
        <ele>85</ele>
        <time>2017-03-21T15:40:33Z</time>
      </trkpt>
      <trkpt lat="49.28731" lon="1.19173">
        <ele>85</ele>
        <time>2017-03-21T15:40:33Z</time>
      </trkpt>
      <trkpt lat="49.2873" lon="1.19166">
        <ele>85</ele>
        <time>2017-03-21T15:40:33Z</time>
      </trkpt>
      <trkpt lat="49.28728" lon="1.19159">
        <ele>85</ele>
        <time>2017-03-21T15:40:48Z</time>
      </trkpt>
      <trkpt lat="49.28725" lon="1.19148">
        <ele>85</ele>
        <time>2017-03-21T15:40:48Z</time>
      </trkpt>
      <trkpt lat="49.28721" lon="1.19142">
        <ele>85</ele>
        <time>2017-03-21T15:40:48Z</time>
      </trkpt>
      <trkpt lat="49.2872" lon="1.19138">
        <ele>85</ele>
        <time>2017-03-21T15:40:48Z</time>
      </trkpt>
      <trkpt lat="49.28718" lon="1.19132">
        <ele>85</ele>
        <time>2017-03-21T15:41:05Z</time>
      </trkpt>
      <trkpt lat="49.28717" lon="1.19123">
        <ele>83</ele>
        <time>2017-03-21T15:41:05Z</time>
      </trkpt>
      <trkpt lat="49.28718" lon="1.19117">
        <ele>83</ele>
        <time>2017-03-21T15:41:05Z</time>
      </trkpt>
      <trkpt lat="49.28722" lon="1.19114">
        <ele>83</ele>
        <time>2017-03-21T15:41:05Z</time>
      </trkpt>
      <trkpt lat="49.28726" lon="1.19111">
        <ele>83</ele>
        <time>2017-03-21T15:41:21Z</time>
      </trkpt>
      <trkpt lat="49.28731" lon="1.1911">
        <ele>83</ele>
        <time>2017-03-21T15:41:21Z</time>
      </trkpt>
      <trkpt lat="49.28735" lon="1.19107">
        <ele>83</ele>
        <time>2017-03-21T15:41:21Z</time>
      </trkpt>
      <trkpt lat="49.28739" lon="1.19106">
        <ele>83</ele>
        <time>2017-03-21T15:41:21Z</time>
      </trkpt>
      <trkpt lat="49.28743" lon="1.19104">
        <ele>83</ele>
        <time>2017-03-21T15:41:42Z</time>
      </trkpt>
      <trkpt lat="49.28745" lon="1.19102">
        <ele>83</ele>
        <time>2017-03-21T15:41:42Z</time>
      </trkpt>
      <trkpt lat="49.28747" lon="1.191">
        <ele>83</ele>
        <time>2017-03-21T15:41:42Z</time>
      </trkpt>
      <trkpt lat="49.28749" lon="1.19101">
        <ele>83</ele>
        <time>2017-03-21T15:41:42Z</time>
      </trkpt>
      <trkpt lat="49.28755" lon="1.19099">
        <ele>83</ele>
        <time>2017-03-21T15:41:42Z</time>
      </trkpt>
      <trkpt lat="49.28758" lon="1.19097">
        <ele>83</ele>
        <time>2017-03-21T15:41:57Z</time>
      </trkpt>
      <trkpt lat="49.28762" lon="1.19093">
        <ele>83</ele>
        <time>2017-03-21T15:41:57Z</time>
      </trkpt>
      <trkpt lat="49.28766" lon="1.19089">
        <ele>83</ele>
        <time>2017-03-21T15:41:57Z</time>
      </trkpt>
      <trkpt lat="49.2877" lon="1.19086">
        <ele>83</ele>
        <time>2017-03-21T15:41:57Z</time>
      </trkpt>
      <trkpt lat="49.28773" lon="1.19082">
        <ele>83</ele>
        <time>2017-03-21T15:42:13Z</time>
      </trkpt>
      <trkpt lat="49.28778" lon="1.19079">
        <ele>83</ele>
        <time>2017-03-21T15:42:13Z</time>
      </trkpt>
      <trkpt lat="49.28783" lon="1.19077">
        <ele>83</ele>
        <time>2017-03-21T15:42:13Z</time>
      </trkpt>
      <trkpt lat="49.28786" lon="1.19073">
        <ele>83</ele>
        <time>2017-03-21T15:42:13Z</time>
      </trkpt>
      <trkpt lat="49.28791" lon="1.19071">
        <ele>83</ele>
        <time>2017-03-21T15:42:29Z</time>
      </trkpt>
      <trkpt lat="49.28796" lon="1.1907">
        <ele>79</ele>
        <time>2017-03-21T15:42:29Z</time>
      </trkpt>
      <trkpt lat="49.28801" lon="1.19067">
        <ele>79</ele>
        <time>2017-03-21T15:42:29Z</time>
      </trkpt>
      <trkpt lat="49.28805" lon="1.19065">
        <ele>79</ele>
        <time>2017-03-21T15:42:29Z</time>
      </trkpt>
      <trkpt lat="49.2881" lon="1.19062">
        <ele>79</ele>
        <time>2017-03-21T15:42:45Z</time>
      </trkpt>
      <trkpt lat="49.28815" lon="1.19058">
        <ele>79</ele>
        <time>2017-03-21T15:42:45Z</time>
      </trkpt>
      <trkpt lat="49.28821" lon="1.19056">
        <ele>79</ele>
        <time>2017-03-21T15:42:45Z</time>
      </trkpt>
      <trkpt lat="49.28824" lon="1.19054">
        <ele>79</ele>
        <time>2017-03-21T15:42:45Z</time>
      </trkpt>
      <trkpt lat="49.28829" lon="1.1905">
        <ele>79</ele>
        <time>2017-03-21T15:43:01Z</time>
      </trkpt>
      <trkpt lat="49.28831" lon="1.19047">
        <ele>79</ele>
        <time>2017-03-21T15:43:01Z</time>
      </trkpt>
      <trkpt lat="49.28835" lon="1.19044">
        <ele>79</ele>
        <time>2017-03-21T15:43:01Z</time>
      </trkpt>
      <trkpt lat="49.2884" lon="1.19043">
        <ele>79</ele>
        <time>2017-03-21T15:43:01Z</time>
      </trkpt>
      <trkpt lat="49.28844" lon="1.1904">
        <ele>78</ele>
        <time>2017-03-21T15:43:17Z</time>
      </trkpt>
      <trkpt lat="49.28848" lon="1.19038">
        <ele>78</ele>
        <time>2017-03-21T15:43:17Z</time>
      </trkpt>
      <trkpt lat="49.28854" lon="1.19038">
        <ele>78</ele>
        <time>2017-03-21T15:43:17Z</time>
      </trkpt>
      <trkpt lat="49.28861" lon="1.19036">
        <ele>78</ele>
        <time>2017-03-21T15:43:17Z</time>
      </trkpt>
      <trkpt lat="49.28864" lon="1.19034">
        <ele>78</ele>
        <time>2017-03-21T15:43:33Z</time>
      </trkpt>
      <trkpt lat="49.28869" lon="1.1903">
        <ele>78</ele>
        <time>2017-03-21T15:43:33Z</time>
      </trkpt>
      <trkpt lat="49.28873" lon="1.19028">
        <ele>78</ele>
        <time>2017-03-21T15:43:33Z</time>
      </trkpt>
      <trkpt lat="49.28879" lon="1.19025">
        <ele>75</ele>
        <time>2017-03-21T15:43:33Z</time>
      </trkpt>
      <trkpt lat="49.28882" lon="1.19023">
        <ele>75</ele>
        <time>2017-03-21T15:43:49Z</time>
      </trkpt>
      <trkpt lat="49.28886" lon="1.19021">
        <ele>75</ele>
        <time>2017-03-21T15:43:49Z</time>
      </trkpt>
      <trkpt lat="49.28892" lon="1.19016">
        <ele>75</ele>
        <time>2017-03-21T15:43:49Z</time>
      </trkpt>
      <trkpt lat="49.28895" lon="1.19013">
        <ele>75</ele>
        <time>2017-03-21T15:43:49Z</time>
      </trkpt>
      <trkpt lat="49.289" lon="1.19011">
        <ele>75</ele>
        <time>2017-03-21T15:44:04Z</time>
      </trkpt>
      <trkpt lat="49.28904" lon="1.19008">
        <ele>75</ele>
        <time>2017-03-21T15:44:04Z</time>
      </trkpt>
      <trkpt lat="49.28908" lon="1.19005">
        <ele>75</ele>
        <time>2017-03-21T15:44:04Z</time>
      </trkpt>
      <trkpt lat="49.28913" lon="1.19003">
        <ele>75</ele>
        <time>2017-03-21T15:44:04Z</time>
      </trkpt>
      <trkpt lat="49.28918" lon="1.19001">
        <ele>75</ele>
        <time>2017-03-21T15:44:21Z</time>
      </trkpt>
      <trkpt lat="49.28922" lon="1.18998">
        <ele>75</ele>
        <time>2017-03-21T15:44:21Z</time>
      </trkpt>
      <trkpt lat="49.28927" lon="1.18994">
        <ele>75</ele>
        <time>2017-03-21T15:44:21Z</time>
      </trkpt>
      <trkpt lat="49.28932" lon="1.18991">
        <ele>75</ele>
        <time>2017-03-21T15:44:21Z</time>
      </trkpt>
      <trkpt lat="49.28937" lon="1.18986">
        <ele>75</ele>
        <time>2017-03-21T15:44:38Z</time>
      </trkpt>
      <trkpt lat="49.28942" lon="1.18984">
        <ele>75</ele>
        <time>2017-03-21T15:44:38Z</time>
      </trkpt>
      <trkpt lat="49.28947" lon="1.18983">
        <ele>75</ele>
        <time>2017-03-21T15:44:38Z</time>
      </trkpt>
      <trkpt lat="49.28951" lon="1.18981">
        <ele>75</ele>
        <time>2017-03-21T15:44:38Z</time>
      </trkpt>
      <trkpt lat="49.28954" lon="1.1898">
        <ele>75</ele>
        <time>2017-03-21T15:44:53Z</time>
      </trkpt>
      <trkpt lat="49.2896" lon="1.18977">
        <ele>73</ele>
        <time>2017-03-21T15:44:53Z</time>
      </trkpt>
      <trkpt lat="49.28963" lon="1.18974">
        <ele>73</ele>
        <time>2017-03-21T15:44:53Z</time>
      </trkpt>
      <trkpt lat="49.28969" lon="1.18971">
        <ele>73</ele>
        <time>2017-03-21T15:44:54Z</time>
      </trkpt>
      <trkpt lat="49.28971" lon="1.18969">
        <ele>73</ele>
        <time>2017-03-21T15:45:09Z</time>
      </trkpt>
      <trkpt lat="49.28975" lon="1.18967">
        <ele>73</ele>
        <time>2017-03-21T15:45:09Z</time>
      </trkpt>
      <trkpt lat="49.2898" lon="1.18965">
        <ele>73</ele>
        <time>2017-03-21T15:45:09Z</time>
      </trkpt>
      <trkpt lat="49.28985" lon="1.18962">
        <ele>73</ele>
        <time>2017-03-21T15:45:09Z</time>
      </trkpt>
      <trkpt lat="49.28992" lon="1.18958">
        <ele>73</ele>
        <time>2017-03-21T15:45:26Z</time>
      </trkpt>
      <trkpt lat="49.28995" lon="1.18957">
        <ele>73</ele>
        <time>2017-03-21T15:45:26Z</time>
      </trkpt>
      <trkpt lat="49.28999" lon="1.18955">
        <ele>73</ele>
        <time>2017-03-21T15:45:26Z</time>
      </trkpt>
      <trkpt lat="49.29005" lon="1.1895">
        <ele>73</ele>
        <time>2017-03-21T15:45:26Z</time>
      </trkpt>
      <trkpt lat="49.29008" lon="1.18947">
        <ele>73</ele>
        <time>2017-03-21T15:45:41Z</time>
      </trkpt>
      <trkpt lat="49.29013" lon="1.18943">
        <ele>73</ele>
        <time>2017-03-21T15:45:41Z</time>
      </trkpt>
      <trkpt lat="49.29017" lon="1.18942">
        <ele>73</ele>
        <time>2017-03-21T15:45:41Z</time>
      </trkpt>
      <trkpt lat="49.29021" lon="1.1894">
        <ele>73</ele>
        <time>2017-03-21T15:45:41Z</time>
      </trkpt>
      <trkpt lat="49.29025" lon="1.18937">
        <ele>73</ele>
        <time>2017-03-21T15:45:57Z</time>
      </trkpt>
      <trkpt lat="49.29029" lon="1.18936">
        <ele>73</ele>
        <time>2017-03-21T15:45:57Z</time>
      </trkpt>
      <trkpt lat="49.29034" lon="1.18936">
        <ele>73</ele>
        <time>2017-03-21T15:45:57Z</time>
      </trkpt>
      <trkpt lat="49.29041" lon="1.18934">
        <ele>73</ele>
        <time>2017-03-21T15:45:57Z</time>
      </trkpt>
      <trkpt lat="49.29045" lon="1.18932">
        <ele>70</ele>
        <time>2017-03-21T15:46:13Z</time>
      </trkpt>
      <trkpt lat="49.2905" lon="1.1893">
        <ele>70</ele>
        <time>2017-03-21T15:46:13Z</time>
      </trkpt>
      <trkpt lat="49.29055" lon="1.18927">
        <ele>70</ele>
        <time>2017-03-21T15:46:13Z</time>
      </trkpt>
      <trkpt lat="49.29058" lon="1.18924">
        <ele>70</ele>
        <time>2017-03-21T15:46:13Z</time>
      </trkpt>
      <trkpt lat="49.29061" lon="1.18923">
        <ele>70</ele>
        <time>2017-03-21T15:46:28Z</time>
      </trkpt>
      <trkpt lat="49.29066" lon="1.18919">
        <ele>70</ele>
        <time>2017-03-21T15:46:28Z</time>
      </trkpt>
      <trkpt lat="49.2907" lon="1.18915">
        <ele>70</ele>
        <time>2017-03-21T15:46:28Z</time>
      </trkpt>
      <trkpt lat="49.29074" lon="1.18914">
        <ele>70</ele>
        <time>2017-03-21T15:46:28Z</time>
      </trkpt>
      <trkpt lat="49.29079" lon="1.18913">
        <ele>70</ele>
        <time>2017-03-21T15:46:45Z</time>
      </trkpt>
      <trkpt lat="49.29083" lon="1.1891">
        <ele>70</ele>
        <time>2017-03-21T15:46:45Z</time>
      </trkpt>
      <trkpt lat="49.29087" lon="1.18906">
        <ele>70</ele>
        <time>2017-03-21T15:46:45Z</time>
      </trkpt>
      <trkpt lat="49.29091" lon="1.18903">
        <ele>70</ele>
        <time>2017-03-21T15:46:45Z</time>
      </trkpt>
      <trkpt lat="49.29096" lon="1.18899">
        <ele>70</ele>
        <time>2017-03-21T15:47:01Z</time>
      </trkpt>
      <trkpt lat="49.29098" lon="1.18897">
        <ele>70</ele>
        <time>2017-03-21T15:47:01Z</time>
      </trkpt>
      <trkpt lat="49.29103" lon="1.18893">
        <ele>70</ele>
        <time>2017-03-21T15:47:01Z</time>
      </trkpt>
      <trkpt lat="49.29107" lon="1.1889">
        <ele>70</ele>
        <time>2017-03-21T15:47:01Z</time>
      </trkpt>
      <trkpt lat="49.29115" lon="1.18885">
        <ele>70</ele>
        <time>2017-03-21T15:47:16Z</time>
      </trkpt>
      <trkpt lat="49.29122" lon="1.1888">
        <ele>70</ele>
        <time>2017-03-21T15:47:16Z</time>
      </trkpt>
      <trkpt lat="49.29132" lon="1.18876">
        <ele>69</ele>
        <time>2017-03-21T15:47:16Z</time>
      </trkpt>
      <trkpt lat="49.29137" lon="1.18874">
        <ele>67</ele>
        <time>2017-03-21T15:47:16Z</time>
      </trkpt>
      <trkpt lat="49.29143" lon="1.18867">
        <ele>67</ele>
        <time>2017-03-21T15:47:32Z</time>
      </trkpt>
      <trkpt lat="49.2915" lon="1.18863">
        <ele>67</ele>
        <time>2017-03-21T15:47:32Z</time>
      </trkpt>
      <trkpt lat="49.29153" lon="1.1886">
        <ele>67</ele>
        <time>2017-03-21T15:47:32Z</time>
      </trkpt>
      <trkpt lat="49.29157" lon="1.18856">
        <ele>67</ele>
        <time>2017-03-21T15:47:32Z</time>
      </trkpt>
      <trkpt lat="49.29162" lon="1.18851">
        <ele>67</ele>
        <time>2017-03-21T15:47:48Z</time>
      </trkpt>
      <trkpt lat="49.29165" lon="1.18848">
        <ele>67</ele>
        <time>2017-03-21T15:47:48Z</time>
      </trkpt>
      <trkpt lat="49.29169" lon="1.18842">
        <ele>67</ele>
        <time>2017-03-21T15:47:48Z</time>
      </trkpt>
      <trkpt lat="49.29175" lon="1.18837">
        <ele>67</ele>
        <time>2017-03-21T15:47:48Z</time>
      </trkpt>
      <trkpt lat="49.29178" lon="1.18832">
        <ele>67</ele>
        <time>2017-03-21T15:48:05Z</time>
      </trkpt>
      <trkpt lat="49.29182" lon="1.18826">
        <ele>67</ele>
        <time>2017-03-21T15:48:06Z</time>
      </trkpt>
      <trkpt lat="49.29187" lon="1.18819">
        <ele>67</ele>
        <time>2017-03-21T15:48:06Z</time>
      </trkpt>
      <trkpt lat="49.29191" lon="1.18814">
        <ele>67</ele>
        <time>2017-03-21T15:48:06Z</time>
      </trkpt>
      <trkpt lat="49.29195" lon="1.18811">
        <ele>67</ele>
        <time>2017-03-21T15:48:20Z</time>
      </trkpt>
      <trkpt lat="49.29198" lon="1.18807">
        <ele>67</ele>
        <time>2017-03-21T15:48:20Z</time>
      </trkpt>
      <trkpt lat="49.29202" lon="1.18801">
        <ele>67</ele>
        <time>2017-03-21T15:48:20Z</time>
      </trkpt>
      <trkpt lat="49.29205" lon="1.18795">
        <ele>67</ele>
        <time>2017-03-21T15:48:20Z</time>
      </trkpt>
      <trkpt lat="49.29209" lon="1.18788">
        <ele>66</ele>
        <time>2017-03-21T15:48:36Z</time>
      </trkpt>
      <trkpt lat="49.29212" lon="1.18781">
        <ele>66</ele>
        <time>2017-03-21T15:48:36Z</time>
      </trkpt>
      <trkpt lat="49.29216" lon="1.18776">
        <ele>66</ele>
        <time>2017-03-21T15:48:36Z</time>
      </trkpt>
      <trkpt lat="49.29218" lon="1.1877">
        <ele>66</ele>
        <time>2017-03-21T15:48:36Z</time>
      </trkpt>
      <trkpt lat="49.29222" lon="1.18762">
        <ele>66</ele>
        <time>2017-03-21T15:48:52Z</time>
      </trkpt>
      <trkpt lat="49.29225" lon="1.18755">
        <ele>66</ele>
        <time>2017-03-21T15:48:52Z</time>
      </trkpt>
      <trkpt lat="49.29228" lon="1.18751">
        <ele>66</ele>
        <time>2017-03-21T15:48:52Z</time>
      </trkpt>
      <trkpt lat="49.29231" lon="1.18745">
        <ele>66</ele>
        <time>2017-03-21T15:48:52Z</time>
      </trkpt>
      <trkpt lat="49.29233" lon="1.18739">
        <ele>66</ele>
        <time>2017-03-21T15:49:09Z</time>
      </trkpt>
      <trkpt lat="49.29236" lon="1.18732">
        <ele>66</ele>
        <time>2017-03-21T15:49:09Z</time>
      </trkpt>
      <trkpt lat="49.29239" lon="1.18726">
        <ele>66</ele>
        <time>2017-03-21T15:49:09Z</time>
      </trkpt>
      <trkpt lat="49.29241" lon="1.1872">
        <ele>66</ele>
        <time>2017-03-21T15:49:09Z</time>
      </trkpt>
      <trkpt lat="49.29243" lon="1.18714">
        <ele>66</ele>
        <time>2017-03-21T15:49:26Z</time>
      </trkpt>
      <trkpt lat="49.29246" lon="1.18708">
        <ele>62</ele>
        <time>2017-03-21T15:49:26Z</time>
      </trkpt>
      <trkpt lat="49.29249" lon="1.18702">
        <ele>62</ele>
        <time>2017-03-21T15:49:26Z</time>
      </trkpt>
      <trkpt lat="49.29254" lon="1.18694">
        <ele>62</ele>
        <time>2017-03-21T15:49:26Z</time>
      </trkpt>
      <trkpt lat="49.29255" lon="1.18689">
        <ele>62</ele>
        <time>2017-03-21T15:49:40Z</time>
      </trkpt>
      <trkpt lat="49.29258" lon="1.18685">
        <ele>62</ele>
        <time>2017-03-21T15:49:40Z</time>
      </trkpt>
      <trkpt lat="49.2926" lon="1.18681">
        <ele>62</ele>
        <time>2017-03-21T15:49:40Z</time>
      </trkpt>
      <trkpt lat="49.29263" lon="1.18676">
        <ele>62</ele>
        <time>2017-03-21T15:49:40Z</time>
      </trkpt>
      <trkpt lat="49.29266" lon="1.18667">
        <ele>62</ele>
        <time>2017-03-21T15:49:57Z</time>
      </trkpt>
      <trkpt lat="49.29269" lon="1.1866">
        <ele>62</ele>
        <time>2017-03-21T15:49:57Z</time>
      </trkpt>
      <trkpt lat="49.29272" lon="1.18651">
        <ele>62</ele>
        <time>2017-03-21T15:49:57Z</time>
      </trkpt>
      <trkpt lat="49.29275" lon="1.18643">
        <ele>62</ele>
        <time>2017-03-21T15:49:57Z</time>
      </trkpt>
      <trkpt lat="49.29277" lon="1.18636">
        <ele>62</ele>
        <time>2017-03-21T15:50:17Z</time>
      </trkpt>
      <trkpt lat="49.29277" lon="1.18631">
        <ele>62</ele>
        <time>2017-03-21T15:50:17Z</time>
      </trkpt>
      <trkpt lat="49.29281" lon="1.18629">
        <ele>62</ele>
        <time>2017-03-21T15:50:17Z</time>
      </trkpt>
      <trkpt lat="49.29281" lon="1.18629">
        <ele>62</ele>
        <time>2017-03-21T15:50:17Z</time>
      </trkpt>
      <trkpt lat="49.29284" lon="1.18617">
        <ele>62</ele>
        <time>2017-03-21T15:50:17Z</time>
      </trkpt>
      <trkpt lat="49.29284" lon="1.18612">
        <ele>62</ele>
        <time>2017-03-21T15:50:32Z</time>
      </trkpt>
      <trkpt lat="49.29287" lon="1.18603">
        <ele>62</ele>
        <time>2017-03-21T15:50:32Z</time>
      </trkpt>
      <trkpt lat="49.29291" lon="1.18598">
        <ele>62</ele>
        <time>2017-03-21T15:50:32Z</time>
      </trkpt>
      <trkpt lat="49.29292" lon="1.18591">
        <ele>65</ele>
        <time>2017-03-21T15:50:32Z</time>
      </trkpt>
      <trkpt lat="49.29295" lon="1.18588">
        <ele>65</ele>
        <time>2017-03-21T15:50:48Z</time>
      </trkpt>
      <trkpt lat="49.29301" lon="1.1858">
        <ele>65</ele>
        <time>2017-03-21T15:50:48Z</time>
      </trkpt>
      <trkpt lat="49.29302" lon="1.18576">
        <ele>65</ele>
        <time>2017-03-21T15:50:48Z</time>
      </trkpt>
      <trkpt lat="49.29304" lon="1.18572">
        <ele>65</ele>
        <time>2017-03-21T15:50:48Z</time>
      </trkpt>
      <trkpt lat="49.29307" lon="1.18567">
        <ele>65</ele>
        <time>2017-03-21T15:51:04Z</time>
      </trkpt>
      <trkpt lat="49.29309" lon="1.18561">
        <ele>65</ele>
        <time>2017-03-21T15:51:04Z</time>
      </trkpt>
      <trkpt lat="49.29312" lon="1.18556">
        <ele>65</ele>
        <time>2017-03-21T15:51:04Z</time>
      </trkpt>
      <trkpt lat="49.29314" lon="1.18549">
        <ele>65</ele>
        <time>2017-03-21T15:51:04Z</time>
      </trkpt>
      <trkpt lat="49.29316" lon="1.18542">
        <ele>65</ele>
        <time>2017-03-21T15:51:21Z</time>
      </trkpt>
      <trkpt lat="49.2932" lon="1.18534">
        <ele>60</ele>
        <time>2017-03-21T15:51:21Z</time>
      </trkpt>
      <trkpt lat="49.29322" lon="1.18529">
        <ele>60</ele>
        <time>2017-03-21T15:51:21Z</time>
      </trkpt>
      <trkpt lat="49.29324" lon="1.18525">
        <ele>60</ele>
        <time>2017-03-21T15:51:21Z</time>
      </trkpt>
      <trkpt lat="49.29327" lon="1.18519">
        <ele>60</ele>
        <time>2017-03-21T15:51:42Z</time>
      </trkpt>
      <trkpt lat="49.29328" lon="1.18512">
        <ele>60</ele>
        <time>2017-03-21T15:51:42Z</time>
      </trkpt>
      <trkpt lat="49.29328" lon="1.18507">
        <ele>60</ele>
        <time>2017-03-21T15:51:42Z</time>
      </trkpt>
      <trkpt lat="49.29329" lon="1.18506">
        <ele>60</ele>
        <time>2017-03-21T15:51:42Z</time>
      </trkpt>
      <trkpt lat="49.29334" lon="1.18494">
        <ele>60</ele>
        <time>2017-03-21T15:51:42Z</time>
      </trkpt>
      <trkpt lat="49.29336" lon="1.1849">
        <ele>60</ele>
        <time>2017-03-21T15:51:57Z</time>
      </trkpt>
      <trkpt lat="49.29339" lon="1.18484">
        <ele>60</ele>
        <time>2017-03-21T15:51:57Z</time>
      </trkpt>
      <trkpt lat="49.29341" lon="1.18478">
        <ele>60</ele>
        <time>2017-03-21T15:51:57Z</time>
      </trkpt>
      <trkpt lat="49.29343" lon="1.18472">
        <ele>60</ele>
        <time>2017-03-21T15:51:57Z</time>
      </trkpt>
      <trkpt lat="49.29344" lon="1.18465">
        <ele>60</ele>
        <time>2017-03-21T15:52:12Z</time>
      </trkpt>
      <trkpt lat="49.29347" lon="1.18458">
        <ele>57</ele>
        <time>2017-03-21T15:52:12Z</time>
      </trkpt>
      <trkpt lat="49.29349" lon="1.18449">
        <ele>57</ele>
        <time>2017-03-21T15:52:12Z</time>
      </trkpt>
      <trkpt lat="49.29351" lon="1.18441">
        <ele>57</ele>
        <time>2017-03-21T15:52:12Z</time>
      </trkpt>
      <trkpt lat="49.29354" lon="1.18436">
        <ele>57</ele>
        <time>2017-03-21T15:52:28Z</time>
      </trkpt>
      <trkpt lat="49.29357" lon="1.18431">
        <ele>57</ele>
        <time>2017-03-21T15:52:28Z</time>
      </trkpt>
      <trkpt lat="49.2936" lon="1.18426">
        <ele>57</ele>
        <time>2017-03-21T15:52:28Z</time>
      </trkpt>
      <trkpt lat="49.29363" lon="1.18418">
        <ele>57</ele>
        <time>2017-03-21T15:52:28Z</time>
      </trkpt>
      <trkpt lat="49.29366" lon="1.18413">
        <ele>57</ele>
        <time>2017-03-21T15:52:44Z</time>
      </trkpt>
      <trkpt lat="49.29369" lon="1.18405">
        <ele>57</ele>
        <time>2017-03-21T15:52:44Z</time>
      </trkpt>
      <trkpt lat="49.2937" lon="1.18397">
        <ele>57</ele>
        <time>2017-03-21T15:52:44Z</time>
      </trkpt>
      <trkpt lat="49.29373" lon="1.18391">
        <ele>57</ele>
        <time>2017-03-21T15:52:44Z</time>
      </trkpt>
      <trkpt lat="49.29375" lon="1.18386">
        <ele>64</ele>
        <time>2017-03-21T15:53:00Z</time>
      </trkpt>
      <trkpt lat="49.29377" lon="1.18379">
        <ele>64</ele>
        <time>2017-03-21T15:53:00Z</time>
      </trkpt>
      <trkpt lat="49.2938" lon="1.18373">
        <ele>56</ele>
        <time>2017-03-21T15:53:00Z</time>
      </trkpt>
      <trkpt lat="49.29382" lon="1.18367">
        <ele>56</ele>
        <time>2017-03-21T15:53:00Z</time>
      </trkpt>
      <trkpt lat="49.29378" lon="1.18363">
        <ele>56</ele>
        <time>2017-03-21T15:54:24Z</time>
      </trkpt>
      <trkpt lat="49.29379" lon="1.18359">
        <ele>56</ele>
        <time>2017-03-21T15:54:24Z</time>
      </trkpt>
      <trkpt lat="49.2938" lon="1.1835">
        <ele>56</ele>
        <time>2017-03-21T15:54:24Z</time>
      </trkpt>
      <trkpt lat="49.29381" lon="1.18346">
        <ele>56</ele>
        <time>2017-03-21T15:54:24Z</time>
      </trkpt>
      <trkpt lat="49.29384" lon="1.18339">
        <ele>56</ele>
        <time>2017-03-21T15:54:24Z</time>
      </trkpt>
      <trkpt lat="49.29387" lon="1.18335">
        <ele>56</ele>
        <time>2017-03-21T15:54:40Z</time>
      </trkpt>
      <trkpt lat="49.29389" lon="1.18331">
        <ele>56</ele>
        <time>2017-03-21T15:54:40Z</time>
      </trkpt>
      <trkpt lat="49.2939" lon="1.18326">
        <ele>56</ele>
        <time>2017-03-21T15:54:40Z</time>
      </trkpt>
      <trkpt lat="49.29392" lon="1.18322">
        <ele>56</ele>
        <time>2017-03-21T15:54:40Z</time>
      </trkpt>
      <trkpt lat="49.29393" lon="1.18317">
        <ele>56</ele>
        <time>2017-03-21T15:54:56Z</time>
      </trkpt>
      <trkpt lat="49.29393" lon="1.18311">
        <ele>56</ele>
        <time>2017-03-21T15:54:56Z</time>
      </trkpt>
      <trkpt lat="49.29393" lon="1.18304">
        <ele>56</ele>
        <time>2017-03-21T15:54:56Z</time>
      </trkpt>
      <trkpt lat="49.29394" lon="1.18298">
        <ele>56</ele>
        <time>2017-03-21T15:54:56Z</time>
      </trkpt>
      <trkpt lat="49.29396" lon="1.18294">
        <ele>56</ele>
        <time>2017-03-21T15:55:12Z</time>
      </trkpt>
      <trkpt lat="49.29397" lon="1.18289">
        <ele>52</ele>
        <time>2017-03-21T15:55:12Z</time>
      </trkpt>
      <trkpt lat="49.29399" lon="1.18284">
        <ele>52</ele>
        <time>2017-03-21T15:55:12Z</time>
      </trkpt>
      <trkpt lat="49.29397" lon="1.18279">
        <ele>52</ele>
        <time>2017-03-21T15:55:12Z</time>
      </trkpt>
      <trkpt lat="49.29403" lon="1.18272">
        <ele>52</ele>
        <time>2017-03-21T16:10:52Z</time>
      </trkpt>
      <trkpt lat="49.29405" lon="1.18267">
        <ele>52</ele>
        <time>2017-03-21T16:10:52Z</time>
      </trkpt>
      <trkpt lat="49.29405" lon="1.18262">
        <ele>52</ele>
        <time>2017-03-21T16:10:52Z</time>
      </trkpt>
      <trkpt lat="49.29407" lon="1.18256">
        <ele>52</ele>
        <time>2017-03-21T16:10:52Z</time>
      </trkpt>
      <trkpt lat="49.29408" lon="1.18253">
        <ele>52</ele>
        <time>2017-03-21T16:10:52Z</time>
      </trkpt>
      <trkpt lat="49.29411" lon="1.1825">
        <ele>52</ele>
        <time>2017-03-21T16:11:08Z</time>
      </trkpt>
      <trkpt lat="49.29414" lon="1.18244">
        <ele>52</ele>
        <time>2017-03-21T16:11:08Z</time>
      </trkpt>
      <trkpt lat="49.29416" lon="1.18239">
        <ele>52</ele>
        <time>2017-03-21T16:11:08Z</time>
      </trkpt>
      <trkpt lat="49.29419" lon="1.18237">
        <ele>52</ele>
        <time>2017-03-21T16:11:08Z</time>
      </trkpt>
      <trkpt lat="49.29419" lon="1.18232">
        <ele>52</ele>
        <time>2017-03-21T16:11:24Z</time>
      </trkpt>
      <trkpt lat="49.29421" lon="1.1822">
        <ele>52</ele>
        <time>2017-03-21T16:11:24Z</time>
      </trkpt>
      <trkpt lat="49.29422" lon="1.18215">
        <ele>52</ele>
        <time>2017-03-21T16:11:24Z</time>
      </trkpt>
      <trkpt lat="49.29425" lon="1.18209">
        <ele>52</ele>
        <time>2017-03-21T16:11:24Z</time>
      </trkpt>
      <trkpt lat="49.29428" lon="1.18202">
        <ele>51</ele>
        <time>2017-03-21T16:11:41Z</time>
      </trkpt>
      <trkpt lat="49.2943" lon="1.18195">
        <ele>51</ele>
        <time>2017-03-21T16:11:41Z</time>
      </trkpt>
      <trkpt lat="49.29432" lon="1.18189">
        <ele>51</ele>
        <time>2017-03-21T16:11:41Z</time>
      </trkpt>
      <trkpt lat="49.29434" lon="1.18183">
        <ele>51</ele>
        <time>2017-03-21T16:11:41Z</time>
      </trkpt>
      <trkpt lat="49.29437" lon="1.18177">
        <ele>51</ele>
        <time>2017-03-21T16:11:56Z</time>
      </trkpt>
      <trkpt lat="49.29439" lon="1.18172">
        <ele>51</ele>
        <time>2017-03-21T16:11:56Z</time>
      </trkpt>
      <trkpt lat="49.29442" lon="1.18164">
        <ele>51</ele>
        <time>2017-03-21T16:11:56Z</time>
      </trkpt>
      <trkpt lat="49.29444" lon="1.18157">
        <ele>51</ele>
        <time>2017-03-21T16:11:56Z</time>
      </trkpt>
      <trkpt lat="49.29447" lon="1.18151">
        <ele>51</ele>
        <time>2017-03-21T16:12:12Z</time>
      </trkpt>
      <trkpt lat="49.2945" lon="1.18146">
        <ele>51</ele>
        <time>2017-03-21T16:12:12Z</time>
      </trkpt>
      <trkpt lat="49.29453" lon="1.18141">
        <ele>51</ele>
        <time>2017-03-21T16:12:12Z</time>
      </trkpt>
      <trkpt lat="49.29457" lon="1.18133">
        <ele>51</ele>
        <time>2017-03-21T16:12:12Z</time>
      </trkpt>
      <trkpt lat="49.29459" lon="1.18126">
        <ele>56</ele>
        <time>2017-03-21T16:12:28Z</time>
      </trkpt>
      <trkpt lat="49.29462" lon="1.18119">
        <ele>48</ele>
        <time>2017-03-21T16:12:28Z</time>
      </trkpt>
      <trkpt lat="49.29466" lon="1.18112">
        <ele>48</ele>
        <time>2017-03-21T16:12:28Z</time>
      </trkpt>
      <trkpt lat="49.29468" lon="1.18107">
        <ele>48</ele>
        <time>2017-03-21T16:12:28Z</time>
      </trkpt>
      <trkpt lat="49.29471" lon="1.18101">
        <ele>48</ele>
        <time>2017-03-21T16:12:45Z</time>
      </trkpt>
      <trkpt lat="49.29474" lon="1.18095">
        <ele>48</ele>
        <time>2017-03-21T16:12:45Z</time>
      </trkpt>
      <trkpt lat="49.29478" lon="1.18089">
        <ele>48</ele>
        <time>2017-03-21T16:12:45Z</time>
      </trkpt>
      <trkpt lat="49.29482" lon="1.18083">
        <ele>48</ele>
        <time>2017-03-21T16:12:45Z</time>
      </trkpt>
      <trkpt lat="49.29486" lon="1.18076">
        <ele>48</ele>
        <time>2017-03-21T16:13:01Z</time>
      </trkpt>
      <trkpt lat="49.29489" lon="1.1807">
        <ele>48</ele>
        <time>2017-03-21T16:13:01Z</time>
      </trkpt>
      <trkpt lat="49.29493" lon="1.18063">
        <ele>48</ele>
        <time>2017-03-21T16:13:01Z</time>
      </trkpt>
      <trkpt lat="49.29496" lon="1.18057">
        <ele>48</ele>
        <time>2017-03-21T16:13:01Z</time>
      </trkpt>
      <trkpt lat="49.29499" lon="1.18052">
        <ele>48</ele>
        <time>2017-03-21T16:13:17Z</time>
      </trkpt>
      <trkpt lat="49.29502" lon="1.18047">
        <ele>48</ele>
        <time>2017-03-21T16:13:17Z</time>
      </trkpt>
      <trkpt lat="49.29506" lon="1.18042">
        <ele>48</ele>
        <time>2017-03-21T16:13:17Z</time>
      </trkpt>
      <trkpt lat="49.2951" lon="1.18036">
        <ele>46</ele>
        <time>2017-03-21T16:13:17Z</time>
      </trkpt>
      <trkpt lat="49.29514" lon="1.18031">
        <ele>46</ele>
        <time>2017-03-21T16:13:32Z</time>
      </trkpt>
      <trkpt lat="49.29519" lon="1.18026">
        <ele>46</ele>
        <time>2017-03-21T16:13:32Z</time>
      </trkpt>
      <trkpt lat="49.29523" lon="1.18021">
        <ele>46</ele>
        <time>2017-03-21T16:13:32Z</time>
      </trkpt>
      <trkpt lat="49.29527" lon="1.18015">
        <ele>46</ele>
        <time>2017-03-21T16:13:32Z</time>
      </trkpt>
      <trkpt lat="49.29532" lon="1.18006">
        <ele>46</ele>
        <time>2017-03-21T16:13:48Z</time>
      </trkpt>
      <trkpt lat="49.29536" lon="1.18">
        <ele>46</ele>
        <time>2017-03-21T16:13:48Z</time>
      </trkpt>
      <trkpt lat="49.29541" lon="1.17992">
        <ele>46</ele>
        <time>2017-03-21T16:13:48Z</time>
      </trkpt>
      <trkpt lat="49.29544" lon="1.17989">
        <ele>47</ele>
        <time>2017-03-21T16:13:48Z</time>
      </trkpt>
      <trkpt lat="49.29548" lon="1.17984">
        <ele>47</ele>
        <time>2017-03-21T16:14:04Z</time>
      </trkpt>
      <trkpt lat="49.29553" lon="1.17978">
        <ele>47</ele>
        <time>2017-03-21T16:14:04Z</time>
      </trkpt>
      <trkpt lat="49.29557" lon="1.17973">
        <ele>47</ele>
        <time>2017-03-21T16:14:04Z</time>
      </trkpt>
      <trkpt lat="49.2956" lon="1.17968">
        <ele>47</ele>
        <time>2017-03-21T16:14:04Z</time>
      </trkpt>
      <trkpt lat="49.29564" lon="1.17963">
        <ele>47</ele>
        <time>2017-03-21T16:14:22Z</time>
      </trkpt>
      <trkpt lat="49.29568" lon="1.17958">
        <ele>42</ele>
        <time>2017-03-21T16:14:22Z</time>
      </trkpt>
      <trkpt lat="49.29572" lon="1.17953">
        <ele>42</ele>
        <time>2017-03-21T16:14:22Z</time>
      </trkpt>
      <trkpt lat="49.29577" lon="1.17947">
        <ele>42</ele>
        <time>2017-03-21T16:14:22Z</time>
      </trkpt>
      <trkpt lat="49.2958" lon="1.17943">
        <ele>42</ele>
        <time>2017-03-21T16:14:36Z</time>
      </trkpt>
      <trkpt lat="49.29585" lon="1.17937">
        <ele>42</ele>
        <time>2017-03-21T16:14:36Z</time>
      </trkpt>
      <trkpt lat="49.29588" lon="1.1793">
        <ele>42</ele>
        <time>2017-03-21T16:14:36Z</time>
      </trkpt>
      <trkpt lat="49.29591" lon="1.17925">
        <ele>42</ele>
        <time>2017-03-21T16:14:36Z</time>
      </trkpt>
      <trkpt lat="49.29596" lon="1.17919">
        <ele>42</ele>
        <time>2017-03-21T16:14:52Z</time>
      </trkpt>
      <trkpt lat="49.296" lon="1.17912">
        <ele>42</ele>
        <time>2017-03-21T16:14:52Z</time>
      </trkpt>
      <trkpt lat="49.29602" lon="1.17906">
        <ele>42</ele>
        <time>2017-03-21T16:14:52Z</time>
      </trkpt>
      <trkpt lat="49.29607" lon="1.17901">
        <ele>42</ele>
        <time>2017-03-21T16:14:52Z</time>
      </trkpt>
      <trkpt lat="49.29609" lon="1.17895">
        <ele>42</ele>
        <time>2017-03-21T16:15:09Z</time>
      </trkpt>
      <trkpt lat="49.29614" lon="1.17887">
        <ele>42</ele>
        <time>2017-03-21T16:15:09Z</time>
      </trkpt>
      <trkpt lat="49.29618" lon="1.17881">
        <ele>42</ele>
        <time>2017-03-21T16:15:09Z</time>
      </trkpt>
      <trkpt lat="49.29622" lon="1.17876">
        <ele>42</ele>
        <time>2017-03-21T16:15:09Z</time>
      </trkpt>
      <trkpt lat="49.29626" lon="1.17874">
        <ele>40</ele>
        <time>2017-03-21T16:15:24Z</time>
      </trkpt>
      <trkpt lat="49.2963" lon="1.17868">
        <ele>40</ele>
        <time>2017-03-21T16:15:24Z</time>
      </trkpt>
      <trkpt lat="49.29633" lon="1.17862">
        <ele>40</ele>
        <time>2017-03-21T16:15:24Z</time>
      </trkpt>
      <trkpt lat="49.29637" lon="1.17857">
        <ele>40</ele>
        <time>2017-03-21T16:15:24Z</time>
      </trkpt>
      <trkpt lat="49.29642" lon="1.17851">
        <ele>40</ele>
        <time>2017-03-21T16:15:40Z</time>
      </trkpt>
      <trkpt lat="49.29646" lon="1.17845">
        <ele>40</ele>
        <time>2017-03-21T16:15:40Z</time>
      </trkpt>
      <trkpt lat="49.2965" lon="1.1784">
        <ele>40</ele>
        <time>2017-03-21T16:15:40Z</time>
      </trkpt>
      <trkpt lat="49.29654" lon="1.17835">
        <ele>40</ele>
        <time>2017-03-21T16:15:40Z</time>
      </trkpt>
      <trkpt lat="49.29658" lon="1.17829">
        <ele>40</ele>
        <time>2017-03-21T16:15:56Z</time>
      </trkpt>
      <trkpt lat="49.29661" lon="1.1782">
        <ele>40</ele>
        <time>2017-03-21T16:15:56Z</time>
      </trkpt>
      <trkpt lat="49.29665" lon="1.17814">
        <ele>40</ele>
        <time>2017-03-21T16:15:56Z</time>
      </trkpt>
      <trkpt lat="49.29669" lon="1.17808">
        <ele>40</ele>
        <time>2017-03-21T16:15:56Z</time>
      </trkpt>
      <trkpt lat="49.29673" lon="1.17802">
        <ele>40</ele>
        <time>2017-03-21T16:16:12Z</time>
      </trkpt>
      <trkpt lat="49.29677" lon="1.17796">
        <ele>40</ele>
        <time>2017-03-21T16:16:12Z</time>
      </trkpt>
      <trkpt lat="49.2968" lon="1.17792">
        <ele>40</ele>
        <time>2017-03-21T16:16:12Z</time>
      </trkpt>
      <trkpt lat="49.29683" lon="1.17787">
        <ele>40</ele>
        <time>2017-03-21T16:16:12Z</time>
      </trkpt>
      <trkpt lat="49.29685" lon="1.17784">
        <ele>40</ele>
        <time>2017-03-21T16:16:29Z</time>
      </trkpt>
      <trkpt lat="49.2969" lon="1.17776">
        <ele>40</ele>
        <time>2017-03-21T16:16:29Z</time>
      </trkpt>
      <trkpt lat="49.29693" lon="1.17773">
        <ele>40</ele>
        <time>2017-03-21T16:16:29Z</time>
      </trkpt>
      <trkpt lat="49.29696" lon="1.17767">
        <ele>40</ele>
        <time>2017-03-21T16:16:29Z</time>
      </trkpt>
      <trkpt lat="49.29698" lon="1.17762">
        <ele>40</ele>
        <time>2017-03-21T16:16:46Z</time>
      </trkpt>
      <trkpt lat="49.29701" lon="1.17757">
        <ele>40</ele>
        <time>2017-03-21T16:16:46Z</time>
      </trkpt>
      <trkpt lat="49.29705" lon="1.17751">
        <ele>40</ele>
        <time>2017-03-21T16:16:46Z</time>
      </trkpt>
      <trkpt lat="49.29709" lon="1.17745">
        <ele>36</ele>
        <time>2017-03-21T16:16:46Z</time>
      </trkpt>
      <trkpt lat="49.29712" lon="1.17742">
        <ele>36</ele>
        <time>2017-03-21T16:17:01Z</time>
      </trkpt>
      <trkpt lat="49.29716" lon="1.17737">
        <ele>36</ele>
        <time>2017-03-21T16:17:01Z</time>
      </trkpt>
      <trkpt lat="49.29722" lon="1.17729">
        <ele>36</ele>
        <time>2017-03-21T16:17:01Z</time>
      </trkpt>
      <trkpt lat="49.29726" lon="1.17719">
        <ele>36</ele>
        <time>2017-03-21T16:17:01Z</time>
      </trkpt>
      <trkpt lat="49.2973" lon="1.17715">
        <ele>36</ele>
        <time>2017-03-21T16:17:17Z</time>
      </trkpt>
      <trkpt lat="49.29735" lon="1.17711">
        <ele>36</ele>
        <time>2017-03-21T16:17:17Z</time>
      </trkpt>
      <trkpt lat="49.29738" lon="1.17707">
        <ele>40</ele>
        <time>2017-03-21T16:17:17Z</time>
      </trkpt>
      <trkpt lat="49.29742" lon="1.17702">
        <ele>40</ele>
        <time>2017-03-21T16:17:17Z</time>
      </trkpt>
      <trkpt lat="49.29746" lon="1.17696">
        <ele>40</ele>
        <time>2017-03-21T16:17:33Z</time>
      </trkpt>
      <trkpt lat="49.29749" lon="1.1769">
        <ele>40</ele>
        <time>2017-03-21T16:17:33Z</time>
      </trkpt>
      <trkpt lat="49.29752" lon="1.17686">
        <ele>40</ele>
        <time>2017-03-21T16:17:33Z</time>
      </trkpt>
      <trkpt lat="49.29757" lon="1.17683">
        <ele>40</ele>
        <time>2017-03-21T16:17:33Z</time>
      </trkpt>
      <trkpt lat="49.29761" lon="1.17681">
        <ele>40</ele>
        <time>2017-03-21T16:17:49Z</time>
      </trkpt>
      <trkpt lat="49.29766" lon="1.17678">
        <ele>40</ele>
        <time>2017-03-21T16:17:49Z</time>
      </trkpt>
      <trkpt lat="49.2977" lon="1.17674">
        <ele>40</ele>
        <time>2017-03-21T16:17:49Z</time>
      </trkpt>
      <trkpt lat="49.29774" lon="1.1767">
        <ele>40</ele>
        <time>2017-03-21T16:17:49Z</time>
      </trkpt>
      <trkpt lat="49.29777" lon="1.17665">
        <ele>40</ele>
        <time>2017-03-21T16:18:04Z</time>
      </trkpt>
      <trkpt lat="49.29781" lon="1.1766">
        <ele>40</ele>
        <time>2017-03-21T16:18:04Z</time>
      </trkpt>
      <trkpt lat="49.29784" lon="1.17655">
        <ele>40</ele>
        <time>2017-03-21T16:18:04Z</time>
      </trkpt>
      <trkpt lat="49.29787" lon="1.17642">
        <ele>40</ele>
        <time>2017-03-21T16:18:04Z</time>
      </trkpt>
      <trkpt lat="49.29789" lon="1.17634">
        <ele>40</ele>
        <time>2017-03-21T16:18:21Z</time>
      </trkpt>
      <trkpt lat="49.29794" lon="1.17629">
        <ele>34</ele>
        <time>2017-03-21T16:18:21Z</time>
      </trkpt>
      <trkpt lat="49.29797" lon="1.17624">
        <ele>41</ele>
        <time>2017-03-21T16:18:21Z</time>
      </trkpt>
      <trkpt lat="49.29801" lon="1.17617">
        <ele>41</ele>
        <time>2017-03-21T16:18:21Z</time>
      </trkpt>
      <trkpt lat="49.29803" lon="1.17613">
        <ele>41</ele>
        <time>2017-03-21T16:18:37Z</time>
      </trkpt>
      <trkpt lat="49.29809" lon="1.17606">
        <ele>41</ele>
        <time>2017-03-21T16:18:37Z</time>
      </trkpt>
      <trkpt lat="49.29813" lon="1.17602">
        <ele>41</ele>
        <time>2017-03-21T16:18:37Z</time>
      </trkpt>
      <trkpt lat="49.29817" lon="1.17596">
        <ele>41</ele>
        <time>2017-03-21T16:18:37Z</time>
      </trkpt>
      <trkpt lat="49.2982" lon="1.1759">
        <ele>41</ele>
        <time>2017-03-21T16:18:52Z</time>
      </trkpt>
      <trkpt lat="49.29823" lon="1.17586">
        <ele>41</ele>
        <time>2017-03-21T16:18:52Z</time>
      </trkpt>
      <trkpt lat="49.29826" lon="1.17581">
        <ele>41</ele>
        <time>2017-03-21T16:18:52Z</time>
      </trkpt>
      <trkpt lat="49.2983" lon="1.17577">
        <ele>41</ele>
        <time>2017-03-21T16:18:52Z</time>
      </trkpt>
      <trkpt lat="49.29835" lon="1.17574">
        <ele>41</ele>
        <time>2017-03-21T16:19:08Z</time>
      </trkpt>
      <trkpt lat="49.2984" lon="1.17565">
        <ele>41</ele>
        <time>2017-03-21T16:19:08Z</time>
      </trkpt>
      <trkpt lat="49.29843" lon="1.17559">
        <ele>41</ele>
        <time>2017-03-21T16:19:08Z</time>
      </trkpt>
      <trkpt lat="49.29845" lon="1.17554">
        <ele>41</ele>
        <time>2017-03-21T16:19:08Z</time>
      </trkpt>
      <trkpt lat="49.29849" lon="1.17547">
        <ele>41</ele>
        <time>2017-03-21T16:19:25Z</time>
      </trkpt>
      <trkpt lat="49.29853" lon="1.17543">
        <ele>41</ele>
        <time>2017-03-21T16:19:25Z</time>
      </trkpt>
      <trkpt lat="49.29857" lon="1.17536">
        <ele>44</ele>
        <time>2017-03-21T16:19:25Z</time>
      </trkpt>
      <trkpt lat="49.29859" lon="1.17531">
        <ele>44</ele>
        <time>2017-03-21T16:19:25Z</time>
      </trkpt>
      <trkpt lat="49.29864" lon="1.17522">
        <ele>44</ele>
        <time>2017-03-21T16:19:45Z</time>
      </trkpt>
      <trkpt lat="49.2987" lon="1.17517">
        <ele>44</ele>
        <time>2017-03-21T16:19:45Z</time>
      </trkpt>
      <trkpt lat="49.29874" lon="1.17514">
        <ele>44</ele>
        <time>2017-03-21T16:19:45Z</time>
      </trkpt>
      <trkpt lat="49.29878" lon="1.17511">
        <ele>35</ele>
        <time>2017-03-21T16:19:45Z</time>
      </trkpt>
      <trkpt lat="49.29883" lon="1.17506">
        <ele>35</ele>
        <time>2017-03-21T16:20:00Z</time>
      </trkpt>
      <trkpt lat="49.29886" lon="1.175">
        <ele>35</ele>
        <time>2017-03-21T16:20:00Z</time>
      </trkpt>
      <trkpt lat="49.2989" lon="1.17495">
        <ele>35</ele>
        <time>2017-03-21T16:20:00Z</time>
      </trkpt>
      <trkpt lat="49.29893" lon="1.1749">
        <ele>35</ele>
        <time>2017-03-21T16:20:00Z</time>
      </trkpt>
      <trkpt lat="49.29897" lon="1.17487">
        <ele>35</ele>
        <time>2017-03-21T16:20:16Z</time>
      </trkpt>
      <trkpt lat="49.29902" lon="1.17486">
        <ele>35</ele>
        <time>2017-03-21T16:20:16Z</time>
      </trkpt>
      <trkpt lat="49.29903" lon="1.1748">
        <ele>35</ele>
        <time>2017-03-21T16:20:16Z</time>
      </trkpt>
      <trkpt lat="49.29903" lon="1.17475">
        <ele>35</ele>
        <time>2017-03-21T16:20:16Z</time>
      </trkpt>
      <trkpt lat="49.29904" lon="1.1747">
        <ele>35</ele>
        <time>2017-03-21T16:20:33Z</time>
      </trkpt>
      <trkpt lat="49.29907" lon="1.17464">
        <ele>35</ele>
        <time>2017-03-21T16:20:33Z</time>
      </trkpt>
      <trkpt lat="49.2991" lon="1.17459">
        <ele>35</ele>
        <time>2017-03-21T16:20:33Z</time>
      </trkpt>
      <trkpt lat="49.29914" lon="1.17458">
        <ele>35</ele>
        <time>2017-03-21T16:20:33Z</time>
      </trkpt>
      <trkpt lat="49.29918" lon="1.17458">
        <ele>35</ele>
        <time>2017-03-21T16:20:48Z</time>
      </trkpt>
      <trkpt lat="49.29924" lon="1.17459">
        <ele>35</ele>
        <time>2017-03-21T16:20:48Z</time>
      </trkpt>
      <trkpt lat="49.2993" lon="1.17461">
        <ele>35</ele>
        <time>2017-03-21T16:20:48Z</time>
      </trkpt>
      <trkpt lat="49.29936" lon="1.17465">
        <ele>35</ele>
        <time>2017-03-21T16:20:48Z</time>
      </trkpt>
      <trkpt lat="49.2994" lon="1.17469">
        <ele>35</ele>
        <time>2017-03-21T16:21:05Z</time>
      </trkpt>
      <trkpt lat="49.29945" lon="1.1747">
        <ele>35</ele>
        <time>2017-03-21T16:21:05Z</time>
      </trkpt>
      <trkpt lat="49.29951" lon="1.17471">
        <ele>35</ele>
        <time>2017-03-21T16:21:05Z</time>
      </trkpt>
      <trkpt lat="49.29955" lon="1.17473">
        <ele>35</ele>
        <time>2017-03-21T16:21:05Z</time>
      </trkpt>
      <trkpt lat="49.29958" lon="1.17475">
        <ele>35</ele>
        <time>2017-03-21T16:21:21Z</time>
      </trkpt>
      <trkpt lat="49.29963" lon="1.17478">
        <ele>32</ele>
        <time>2017-03-21T16:21:21Z</time>
      </trkpt>
      <trkpt lat="49.29968" lon="1.1748">
        <ele>32</ele>
        <time>2017-03-21T16:21:21Z</time>
      </trkpt>
      <trkpt lat="49.29972" lon="1.17482">
        <ele>32</ele>
        <time>2017-03-21T16:21:21Z</time>
      </trkpt>
      <trkpt lat="49.29977" lon="1.17484">
        <ele>32</ele>
        <time>2017-03-21T16:21:37Z</time>
      </trkpt>
      <trkpt lat="49.29981" lon="1.17487">
        <ele>32</ele>
        <time>2017-03-21T16:21:37Z</time>
      </trkpt>
      <trkpt lat="49.29985" lon="1.1749">
        <ele>32</ele>
        <time>2017-03-21T16:21:37Z</time>
      </trkpt>
      <trkpt lat="49.29989" lon="1.17493">
        <ele>32</ele>
        <time>2017-03-21T16:21:37Z</time>
      </trkpt>
      <trkpt lat="49.29995" lon="1.17496">
        <ele>32</ele>
        <time>2017-03-21T16:21:52Z</time>
      </trkpt>
      <trkpt lat="49.3" lon="1.17498">
        <ele>32</ele>
        <time>2017-03-21T16:21:53Z</time>
      </trkpt>
      <trkpt lat="49.30004" lon="1.175">
        <ele>32</ele>
        <time>2017-03-21T16:21:53Z</time>
      </trkpt>
      <trkpt lat="49.30007" lon="1.17504">
        <ele>32</ele>
        <time>2017-03-21T16:21:53Z</time>
      </trkpt>
      <trkpt lat="49.3001" lon="1.1751">
        <ele>32</ele>
        <time>2017-03-21T16:22:09Z</time>
      </trkpt>
      <trkpt lat="49.30013" lon="1.17513">
        <ele>32</ele>
        <time>2017-03-21T16:22:09Z</time>
      </trkpt>
      <trkpt lat="49.30018" lon="1.1752">
        <ele>32</ele>
        <time>2017-03-21T16:22:09Z</time>
      </trkpt>
      <trkpt lat="49.30021" lon="1.17527">
        <ele>32</ele>
        <time>2017-03-21T16:22:09Z</time>
      </trkpt>
      <trkpt lat="49.30024" lon="1.17533">
        <ele>32</ele>
        <time>2017-03-21T16:22:25Z</time>
      </trkpt>
      <trkpt lat="49.30027" lon="1.17537">
        <ele>32</ele>
        <time>2017-03-21T16:22:25Z</time>
      </trkpt>
      <trkpt lat="49.30029" lon="1.17543">
        <ele>31</ele>
        <time>2017-03-21T16:22:25Z</time>
      </trkpt>
      <trkpt lat="49.30031" lon="1.17547">
        <ele>31</ele>
        <time>2017-03-21T16:22:25Z</time>
      </trkpt>
      <trkpt lat="49.30033" lon="1.17551">
        <ele>31</ele>
        <time>2017-03-21T16:22:42Z</time>
      </trkpt>
      <trkpt lat="49.30035" lon="1.17556">
        <ele>31</ele>
        <time>2017-03-21T16:22:42Z</time>
      </trkpt>
      <trkpt lat="49.30038" lon="1.17561">
        <ele>31</ele>
        <time>2017-03-21T16:22:42Z</time>
      </trkpt>
      <trkpt lat="49.30041" lon="1.17566">
        <ele>31</ele>
        <time>2017-03-21T16:22:42Z</time>
      </trkpt>
      <trkpt lat="49.30043" lon="1.1757">
        <ele>30</ele>
        <time>2017-03-21T16:22:57Z</time>
      </trkpt>
      <trkpt lat="49.30046" lon="1.17576">
        <ele>30</ele>
        <time>2017-03-21T16:22:57Z</time>
      </trkpt>
      <trkpt lat="49.30049" lon="1.17582">
        <ele>30</ele>
        <time>2017-03-21T16:22:57Z</time>
      </trkpt>
      <trkpt lat="49.30052" lon="1.17588">
        <ele>30</ele>
        <time>2017-03-21T16:22:57Z</time>
      </trkpt>
      <trkpt lat="49.30054" lon="1.17592">
        <ele>30</ele>
        <time>2017-03-21T16:23:13Z</time>
      </trkpt>
      <trkpt lat="49.30056" lon="1.17597">
        <ele>30</ele>
        <time>2017-03-21T16:23:13Z</time>
      </trkpt>
      <trkpt lat="49.30059" lon="1.17602">
        <ele>30</ele>
        <time>2017-03-21T16:23:13Z</time>
      </trkpt>
      <trkpt lat="49.30061" lon="1.17609">
        <ele>30</ele>
        <time>2017-03-21T16:23:13Z</time>
      </trkpt>
      <trkpt lat="49.30063" lon="1.17617">
        <ele>30</ele>
        <time>2017-03-21T16:23:29Z</time>
      </trkpt>
      <trkpt lat="49.30065" lon="1.17622">
        <ele>30</ele>
        <time>2017-03-21T16:23:29Z</time>
      </trkpt>
      <trkpt lat="49.30067" lon="1.17627">
        <ele>29</ele>
        <time>2017-03-21T16:23:29Z</time>
      </trkpt>
      <trkpt lat="49.30071" lon="1.17629">
        <ele>29</ele>
        <time>2017-03-21T16:23:29Z</time>
      </trkpt>
      <trkpt lat="49.30075" lon="1.17636">
        <ele>29</ele>
        <time>2017-03-21T16:23:45Z</time>
      </trkpt>
      <trkpt lat="49.30076" lon="1.17641">
        <ele>29</ele>
        <time>2017-03-21T16:23:45Z</time>
      </trkpt>
      <trkpt lat="49.30079" lon="1.17648">
        <ele>29</ele>
        <time>2017-03-21T16:23:45Z</time>
      </trkpt>
      <trkpt lat="49.30082" lon="1.17652">
        <ele>29</ele>
        <time>2017-03-21T16:23:45Z</time>
      </trkpt>
      <trkpt lat="49.30085" lon="1.17657">
        <ele>29</ele>
        <time>2017-03-21T16:24:00Z</time>
      </trkpt>
      <trkpt lat="49.30087" lon="1.17661">
        <ele>29</ele>
        <time>2017-03-21T16:24:00Z</time>
      </trkpt>
      <trkpt lat="49.30092" lon="1.17664">
        <ele>29</ele>
        <time>2017-03-21T16:24:00Z</time>
      </trkpt>
      <trkpt lat="49.30094" lon="1.17666">
        <ele>29</ele>
        <time>2017-03-21T16:24:00Z</time>
      </trkpt>
      <trkpt lat="49.30098" lon="1.17669">
        <ele>29</ele>
        <time>2017-03-21T16:24:17Z</time>
      </trkpt>
      <trkpt lat="49.30101" lon="1.17672">
        <ele>29</ele>
        <time>2017-03-21T16:24:17Z</time>
      </trkpt>
      <trkpt lat="49.30105" lon="1.17677">
        <ele>29</ele>
        <time>2017-03-21T16:24:17Z</time>
      </trkpt>
      <trkpt lat="49.30109" lon="1.17682">
        <ele>29</ele>
        <time>2017-03-21T16:24:17Z</time>
      </trkpt>
      <trkpt lat="49.30114" lon="1.17684">
        <ele>29</ele>
        <time>2017-03-21T16:24:56Z</time>
      </trkpt>
      <trkpt lat="49.30119" lon="1.17688">
        <ele>29</ele>
        <time>2017-03-21T16:24:56Z</time>
      </trkpt>
      <trkpt lat="49.30122" lon="1.1769">
        <ele>29</ele>
        <time>2017-03-21T16:24:56Z</time>
      </trkpt>
      <trkpt lat="49.30143" lon="1.17715">
        <ele>21</ele>
        <time>2017-03-21T16:24:56Z</time>
      </trkpt>
      <trkpt lat="49.30144" lon="1.1771">
        <ele>21</ele>
        <time>2017-03-21T16:25:12Z</time>
      </trkpt>
      <trkpt lat="49.30151" lon="1.17712">
        <ele>21</ele>
        <time>2017-03-21T16:25:12Z</time>
      </trkpt>
      <trkpt lat="49.30168" lon="1.17722">
        <ele>21</ele>
        <time>2017-03-21T16:25:12Z</time>
      </trkpt>
      <trkpt lat="49.3017" lon="1.17721">
        <ele>21</ele>
        <time>2017-03-21T16:25:12Z</time>
      </trkpt>
      <trkpt lat="49.30175" lon="1.17726">
        <ele>21</ele>
        <time>2017-03-21T16:25:28Z</time>
      </trkpt>
      <trkpt lat="49.3018" lon="1.17726">
        <ele>21</ele>
        <time>2017-03-21T16:25:28Z</time>
      </trkpt>
      <trkpt lat="49.30185" lon="1.17726">
        <ele>21</ele>
        <time>2017-03-21T16:25:28Z</time>
      </trkpt>
      <trkpt lat="49.30189" lon="1.17726">
        <ele>21</ele>
        <time>2017-03-21T16:25:28Z</time>
      </trkpt>
      <trkpt lat="49.30195" lon="1.17728">
        <ele>21</ele>
        <time>2017-03-21T16:25:45Z</time>
      </trkpt>
      <trkpt lat="49.302" lon="1.17731">
        <ele>21</ele>
        <time>2017-03-21T16:25:45Z</time>
      </trkpt>
      <trkpt lat="49.30204" lon="1.17734">
        <ele>21</ele>
        <time>2017-03-21T16:25:45Z</time>
      </trkpt>
      <trkpt lat="49.30208" lon="1.17738">
        <ele>21</ele>
        <time>2017-03-21T16:25:45Z</time>
      </trkpt>
      <trkpt lat="49.30213" lon="1.17742">
        <ele>16</ele>
        <time>2017-03-21T16:26:00Z</time>
      </trkpt>
      <trkpt lat="49.30217" lon="1.17749">
        <ele>16</ele>
        <time>2017-03-21T16:26:00Z</time>
      </trkpt>
      <trkpt lat="49.30221" lon="1.17754">
        <ele>16</ele>
        <time>2017-03-21T16:26:01Z</time>
      </trkpt>
      <trkpt lat="49.30223" lon="1.17759">
        <ele>16</ele>
        <time>2017-03-21T16:26:01Z</time>
      </trkpt>
      <trkpt lat="49.30226" lon="1.17764">
        <ele>16</ele>
        <time>2017-03-21T16:26:16Z</time>
      </trkpt>
      <trkpt lat="49.30227" lon="1.17767">
        <ele>16</ele>
        <time>2017-03-21T16:26:16Z</time>
      </trkpt>
      <trkpt lat="49.30231" lon="1.17774">
        <ele>16</ele>
        <time>2017-03-21T16:26:16Z</time>
      </trkpt>
      <trkpt lat="49.30234" lon="1.17777">
        <ele>16</ele>
        <time>2017-03-21T16:26:16Z</time>
      </trkpt>
      <trkpt lat="49.30237" lon="1.17783">
        <ele>16</ele>
        <time>2017-03-21T16:26:34Z</time>
      </trkpt>
      <trkpt lat="49.30239" lon="1.17787">
        <ele>16</ele>
        <time>2017-03-21T16:26:34Z</time>
      </trkpt>
      <trkpt lat="49.30242" lon="1.17791">
        <ele>16</ele>
        <time>2017-03-21T16:26:34Z</time>
      </trkpt>
      <trkpt lat="49.30248" lon="1.17796">
        <ele>12</ele>
        <time>2017-03-21T16:26:34Z</time>
      </trkpt>
      <trkpt lat="49.30251" lon="1.17798">
        <ele>12</ele>
        <time>2017-03-21T16:26:48Z</time>
      </trkpt>
      <trkpt lat="49.30254" lon="1.17799">
        <ele>12</ele>
        <time>2017-03-21T16:26:48Z</time>
      </trkpt>
      <trkpt lat="49.30259" lon="1.178">
        <ele>12</ele>
        <time>2017-03-21T16:26:48Z</time>
      </trkpt>
      <trkpt lat="49.30263" lon="1.17802">
        <ele>12</ele>
        <time>2017-03-21T16:26:48Z</time>
      </trkpt>
      <trkpt lat="49.30267" lon="1.17805">
        <ele>12</ele>
        <time>2017-03-21T16:27:04Z</time>
      </trkpt>
      <trkpt lat="49.30271" lon="1.17808">
        <ele>12</ele>
        <time>2017-03-21T16:27:04Z</time>
      </trkpt>
      <trkpt lat="49.30275" lon="1.1781">
        <ele>12</ele>
        <time>2017-03-21T16:27:04Z</time>
      </trkpt>
      <trkpt lat="49.30279" lon="1.17812">
        <ele>12</ele>
        <time>2017-03-21T16:27:04Z</time>
      </trkpt>
      <trkpt lat="49.30284" lon="1.17814">
        <ele>12</ele>
        <time>2017-03-21T16:27:20Z</time>
      </trkpt>
      <trkpt lat="49.3029" lon="1.17817">
        <ele>12</ele>
        <time>2017-03-21T16:27:20Z</time>
      </trkpt>
      <trkpt lat="49.30294" lon="1.17818">
        <ele>9</ele>
        <time>2017-03-21T16:27:20Z</time>
      </trkpt>
      <trkpt lat="49.30299" lon="1.17819">
        <ele>9</ele>
        <time>2017-03-21T16:27:20Z</time>
      </trkpt>
      <trkpt lat="49.30305" lon="1.17821">
        <ele>9</ele>
        <time>2017-03-21T16:27:38Z</time>
      </trkpt>
      <trkpt lat="49.30311" lon="1.17824">
        <ele>9</ele>
        <time>2017-03-21T16:27:38Z</time>
      </trkpt>
      <trkpt lat="49.30315" lon="1.1783">
        <ele>9</ele>
        <time>2017-03-21T16:27:38Z</time>
      </trkpt>
      <trkpt lat="49.30318" lon="1.17838">
        <ele>9</ele>
        <time>2017-03-21T16:27:38Z</time>
      </trkpt>
      <trkpt lat="49.30317" lon="1.17843">
        <ele>9</ele>
        <time>2017-03-21T16:27:53Z</time>
      </trkpt>
      <trkpt lat="49.30317" lon="1.1784">
        <ele>9</ele>
        <time>2017-03-21T16:27:53Z</time>
      </trkpt>
      <trkpt lat="49.30318" lon="1.17832">
        <ele>9</ele>
        <time>2017-03-21T16:27:53Z</time>
      </trkpt>
      <trkpt lat="49.30318" lon="1.17825">
        <ele>9</ele>
        <time>2017-03-21T16:27:53Z</time>
      </trkpt>
      <trkpt lat="49.30323" lon="1.17824">
        <ele>9</ele>
        <time>2017-03-21T16:28:10Z</time>
      </trkpt>
      <trkpt lat="49.30327" lon="1.17816">
        <ele>9</ele>
        <time>2017-03-21T16:28:10Z</time>
      </trkpt>
      <trkpt lat="49.30331" lon="1.17814">
        <ele>9</ele>
        <time>2017-03-21T16:28:10Z</time>
      </trkpt>
      <trkpt lat="49.30337" lon="1.17815">
        <ele>9</ele>
        <time>2017-03-21T16:28:10Z</time>
      </trkpt>
      <trkpt lat="49.3034" lon="1.17816">
        <ele>9</ele>
        <time>2017-03-21T16:28:25Z</time>
      </trkpt>
      <trkpt lat="49.30344" lon="1.17818">
        <ele>9</ele>
        <time>2017-03-21T16:28:25Z</time>
      </trkpt>
      <trkpt lat="49.30345" lon="1.17823">
        <ele>9</ele>
        <time>2017-03-21T16:28:25Z</time>
      </trkpt>
      <trkpt lat="49.30346" lon="1.1783">
        <ele>9</ele>
        <time>2017-03-21T16:28:25Z</time>
      </trkpt>
      <trkpt lat="49.30348" lon="1.17836">
        <ele>9</ele>
        <time>2017-03-21T16:28:41Z</time>
      </trkpt>
      <trkpt lat="49.30351" lon="1.17843">
        <ele>9</ele>
        <time>2017-03-21T16:28:41Z</time>
      </trkpt>
      <trkpt lat="49.30354" lon="1.17849">
        <ele>9</ele>
        <time>2017-03-21T16:28:41Z</time>
      </trkpt>
      <trkpt lat="49.30356" lon="1.17854">
        <ele>9</ele>
        <time>2017-03-21T16:28:41Z</time>
      </trkpt>
      <trkpt lat="49.30359" lon="1.1786">
        <ele>9</ele>
        <time>2017-03-21T16:28:56Z</time>
      </trkpt>
      <trkpt lat="49.30363" lon="1.17867">
        <ele>9</ele>
        <time>2017-03-21T16:28:56Z</time>
      </trkpt>
      <trkpt lat="49.30364" lon="1.17871">
        <ele>9</ele>
        <time>2017-03-21T16:28:56Z</time>
      </trkpt>
      <trkpt lat="49.30365" lon="1.17877">
        <ele>10</ele>
        <time>2017-03-21T16:28:56Z</time>
      </trkpt>
      <trkpt lat="49.30366" lon="1.17887">
        <ele>10</ele>
        <time>2017-03-21T16:29:12Z</time>
      </trkpt>
      <trkpt lat="49.30365" lon="1.17895">
        <ele>10</ele>
        <time>2017-03-21T16:29:12Z</time>
      </trkpt>
      <trkpt lat="49.30364" lon="1.17903">
        <ele>10</ele>
        <time>2017-03-21T16:29:12Z</time>
      </trkpt>
      <trkpt lat="49.30363" lon="1.17911">
        <ele>10</ele>
        <time>2017-03-21T16:29:12Z</time>
      </trkpt>
      <trkpt lat="49.30362" lon="1.17918">
        <ele>10</ele>
        <time>2017-03-21T16:29:28Z</time>
      </trkpt>
      <trkpt lat="49.30361" lon="1.17924">
        <ele>10</ele>
        <time>2017-03-21T16:29:28Z</time>
      </trkpt>
      <trkpt lat="49.30361" lon="1.17931">
        <ele>10</ele>
        <time>2017-03-21T16:29:28Z</time>
      </trkpt>
      <trkpt lat="49.30361" lon="1.17937">
        <ele>10</ele>
        <time>2017-03-21T16:29:28Z</time>
      </trkpt>
      <trkpt lat="49.30358" lon="1.17948">
        <ele>10</ele>
        <time>2017-03-21T16:29:48Z</time>
      </trkpt>
      <trkpt lat="49.30354" lon="1.17958">
        <ele>10</ele>
        <time>2017-03-21T16:29:48Z</time>
      </trkpt>
      <trkpt lat="49.3035" lon="1.17966">
        <ele>7</ele>
        <time>2017-03-21T16:29:48Z</time>
      </trkpt>
      <trkpt lat="49.30347" lon="1.17972">
        <ele>7</ele>
        <time>2017-03-21T16:29:48Z</time>
      </trkpt>
      <trkpt lat="49.30345" lon="1.17979">
        <ele>7</ele>
        <time>2017-03-21T16:30:05Z</time>
      </trkpt>
      <trkpt lat="49.30343" lon="1.17987">
        <ele>7</ele>
        <time>2017-03-21T16:30:05Z</time>
      </trkpt>
      <trkpt lat="49.30342" lon="1.17993">
        <ele>7</ele>
        <time>2017-03-21T16:30:05Z</time>
      </trkpt>
      <trkpt lat="49.3034" lon="1.18">
        <ele>7</ele>
        <time>2017-03-21T16:30:05Z</time>
      </trkpt>
      <trkpt lat="49.30338" lon="1.18006">
        <ele>7</ele>
        <time>2017-03-21T16:30:21Z</time>
      </trkpt>
      <trkpt lat="49.30336" lon="1.18012">
        <ele>7</ele>
        <time>2017-03-21T16:30:21Z</time>
      </trkpt>
      <trkpt lat="49.30333" lon="1.18019">
        <ele>7</ele>
        <time>2017-03-21T16:30:21Z</time>
      </trkpt>
      <trkpt lat="49.3033" lon="1.18025">
        <ele>7</ele>
        <time>2017-03-21T16:30:21Z</time>
      </trkpt>
      <trkpt lat="49.30327" lon="1.18034">
        <ele>7</ele>
        <time>2017-03-21T16:30:36Z</time>
      </trkpt>
      <trkpt lat="49.30324" lon="1.18038">
        <ele>7</ele>
        <time>2017-03-21T16:30:36Z</time>
      </trkpt>
      <trkpt lat="49.30321" lon="1.18044">
        <ele>7</ele>
        <time>2017-03-21T16:30:36Z</time>
      </trkpt>
      <trkpt lat="49.30318" lon="1.18049">
        <ele>7</ele>
        <time>2017-03-21T16:30:36Z</time>
      </trkpt>
      <trkpt lat="49.30315" lon="1.18055">
        <ele>7</ele>
        <time>2017-03-21T16:30:52Z</time>
      </trkpt>
      <trkpt lat="49.30312" lon="1.1806">
        <ele>7</ele>
        <time>2017-03-21T16:30:52Z</time>
      </trkpt>
      <trkpt lat="49.30308" lon="1.18067">
        <ele>7</ele>
        <time>2017-03-21T16:30:52Z</time>
      </trkpt>
      <trkpt lat="49.30306" lon="1.18072">
        <ele>7</ele>
        <time>2017-03-21T16:30:52Z</time>
      </trkpt>
      <trkpt lat="49.30303" lon="1.18077">
        <ele>7</ele>
        <time>2017-03-21T16:31:08Z</time>
      </trkpt>
      <trkpt lat="49.303" lon="1.18084">
        <ele>7</ele>
        <time>2017-03-21T16:31:08Z</time>
      </trkpt>
      <trkpt lat="49.30299" lon="1.18091">
        <ele>7</ele>
        <time>2017-03-21T16:31:08Z</time>
      </trkpt>
      <trkpt lat="49.30298" lon="1.18097">
        <ele>7</ele>
        <time>2017-03-21T16:31:08Z</time>
      </trkpt>
      <trkpt lat="49.30298" lon="1.18096">
        <ele>7</ele>
        <time>2017-03-21T16:31:24Z</time>
      </trkpt>
      <trkpt lat="49.30298" lon="1.18099">
        <ele>7</ele>
        <time>2017-03-21T16:31:24Z</time>
      </trkpt>
      <trkpt lat="49.30301" lon="1.18104">
        <ele>7</ele>
        <time>2017-03-21T16:31:24Z</time>
      </trkpt>
      <trkpt lat="49.30303" lon="1.18108">
        <ele>7</ele>
        <time>2017-03-21T16:31:24Z</time>
      </trkpt>
      <trkpt lat="49.30306" lon="1.18113">
        <ele>7</ele>
        <time>2017-03-21T16:31:40Z</time>
      </trkpt>
      <trkpt lat="49.30311" lon="1.18117">
        <ele>7</ele>
        <time>2017-03-21T16:31:40Z</time>
      </trkpt>
      <trkpt lat="49.30314" lon="1.18117">
        <ele>7</ele>
        <time>2017-03-21T16:31:40Z</time>
      </trkpt>
      <trkpt lat="49.30318" lon="1.18121">
        <ele>7</ele>
        <time>2017-03-21T16:31:40Z</time>
      </trkpt>
      <trkpt lat="49.30323" lon="1.18123">
        <ele>7</ele>
        <time>2017-03-21T16:31:57Z</time>
      </trkpt>
      <trkpt lat="49.30327" lon="1.18127">
        <ele>5</ele>
        <time>2017-03-21T16:31:57Z</time>
      </trkpt>
      <trkpt lat="49.3033" lon="1.18129">
        <ele>5</ele>
        <time>2017-03-21T16:31:57Z</time>
      </trkpt>
      <trkpt lat="49.30333" lon="1.1813">
        <ele>5</ele>
        <time>2017-03-21T16:31:57Z</time>
      </trkpt>
      <trkpt lat="49.30337" lon="1.1813">
        <ele>5</ele>
        <time>2017-03-21T16:32:13Z</time>
      </trkpt>
      <trkpt lat="49.30341" lon="1.18133">
        <ele>5</ele>
        <time>2017-03-21T16:32:13Z</time>
      </trkpt>
      <trkpt lat="49.30345" lon="1.18133">
        <ele>5</ele>
        <time>2017-03-21T16:32:13Z</time>
      </trkpt>
      <trkpt lat="49.30349" lon="1.18133">
        <ele>5</ele>
        <time>2017-03-21T16:32:13Z</time>
      </trkpt>
      <trkpt lat="49.30354" lon="1.18134">
        <ele>5</ele>
        <time>2017-03-21T16:32:29Z</time>
      </trkpt>
      <trkpt lat="49.30359" lon="1.18135">
        <ele>5</ele>
        <time>2017-03-21T16:32:29Z</time>
      </trkpt>
      <trkpt lat="49.30364" lon="1.18134">
        <ele>5</ele>
        <time>2017-03-21T16:32:29Z</time>
      </trkpt>
      <trkpt lat="49.30369" lon="1.18134">
        <ele>5</ele>
        <time>2017-03-21T16:32:29Z</time>
      </trkpt>
      <trkpt lat="49.30374" lon="1.18133">
        <ele>5</ele>
        <time>2017-03-21T16:32:44Z</time>
      </trkpt>
      <trkpt lat="49.30379" lon="1.18133">
        <ele>6</ele>
        <time>2017-03-21T16:32:44Z</time>
      </trkpt>
      <trkpt lat="49.30385" lon="1.18132">
        <ele>6</ele>
        <time>2017-03-21T16:32:44Z</time>
      </trkpt>
      <trkpt lat="49.30388" lon="1.18132">
        <ele>6</ele>
        <time>2017-03-21T16:32:44Z</time>
      </trkpt>
      <trkpt lat="49.30393" lon="1.18131">
        <ele>6</ele>
        <time>2017-03-21T16:33:01Z</time>
      </trkpt>
      <trkpt lat="49.30396" lon="1.1813">
        <ele>6</ele>
        <time>2017-03-21T16:33:01Z</time>
      </trkpt>
      <trkpt lat="49.30401" lon="1.18129">
        <ele>6</ele>
        <time>2017-03-21T16:33:01Z</time>
      </trkpt>
      <trkpt lat="49.30407" lon="1.18128">
        <ele>6</ele>
        <time>2017-03-21T16:33:01Z</time>
      </trkpt>
      <trkpt lat="49.30412" lon="1.18128">
        <ele>6</ele>
        <time>2017-03-21T16:33:18Z</time>
      </trkpt>
      <trkpt lat="49.30418" lon="1.18129">
        <ele>6</ele>
        <time>2017-03-21T16:33:18Z</time>
      </trkpt>
      <trkpt lat="49.30423" lon="1.1813">
        <ele>6</ele>
        <time>2017-03-21T16:33:18Z</time>
      </trkpt>
      <trkpt lat="49.3043" lon="1.18132">
        <ele>6</ele>
        <time>2017-03-21T16:33:18Z</time>
      </trkpt>
      <trkpt lat="49.30435" lon="1.18133">
        <ele>6</ele>
        <time>2017-03-21T16:33:33Z</time>
      </trkpt>
      <trkpt lat="49.3044" lon="1.18132">
        <ele>6</ele>
        <time>2017-03-21T16:33:33Z</time>
      </trkpt>
      <trkpt lat="49.30446" lon="1.18131">
        <ele>6</ele>
        <time>2017-03-21T16:33:33Z</time>
      </trkpt>
      <trkpt lat="49.30451" lon="1.18131">
        <ele>6</ele>
        <time>2017-03-21T16:33:33Z</time>
      </trkpt>
      <trkpt lat="49.30458" lon="1.18132">
        <ele>6</ele>
        <time>2017-03-21T16:33:48Z</time>
      </trkpt>
      <trkpt lat="49.30462" lon="1.18134">
        <ele>8</ele>
        <time>2017-03-21T16:33:48Z</time>
      </trkpt>
      <trkpt lat="49.30467" lon="1.18138">
        <ele>8</ele>
        <time>2017-03-21T16:33:48Z</time>
      </trkpt>
      <trkpt lat="49.30472" lon="1.18141">
        <ele>8</ele>
        <time>2017-03-21T16:33:48Z</time>
      </trkpt>
      <trkpt lat="49.30477" lon="1.18144">
        <ele>8</ele>
        <time>2017-03-21T16:34:05Z</time>
      </trkpt>
      <trkpt lat="49.30481" lon="1.18144">
        <ele>8</ele>
        <time>2017-03-21T16:34:05Z</time>
      </trkpt>
      <trkpt lat="49.30486" lon="1.18144">
        <ele>8</ele>
        <time>2017-03-21T16:34:05Z</time>
      </trkpt>
      <trkpt lat="49.30491" lon="1.18146">
        <ele>8</ele>
        <time>2017-03-21T16:34:05Z</time>
      </trkpt>
      <trkpt lat="49.30496" lon="1.18147">
        <ele>8</ele>
        <time>2017-03-21T16:34:21Z</time>
      </trkpt>
      <trkpt lat="49.305" lon="1.18147">
        <ele>8</ele>
        <time>2017-03-21T16:34:21Z</time>
      </trkpt>
      <trkpt lat="49.30505" lon="1.18146">
        <ele>8</ele>
        <time>2017-03-21T16:34:21Z</time>
      </trkpt>
      <trkpt lat="49.3051" lon="1.18145">
        <ele>8</ele>
        <time>2017-03-21T16:34:21Z</time>
      </trkpt>
      <trkpt lat="49.30515" lon="1.18144">
        <ele>8</ele>
        <time>2017-03-21T16:34:36Z</time>
      </trkpt>
      <trkpt lat="49.30519" lon="1.18144">
        <ele>8</ele>
        <time>2017-03-21T16:34:36Z</time>
      </trkpt>
      <trkpt lat="49.30525" lon="1.18143">
        <ele>8</ele>
        <time>2017-03-21T16:34:36Z</time>
      </trkpt>
      <trkpt lat="49.30531" lon="1.18142">
        <ele>8</ele>
        <time>2017-03-21T16:34:36Z</time>
      </trkpt>
      <trkpt lat="49.30536" lon="1.18141">
        <ele>8</ele>
        <time>2017-03-21T16:34:52Z</time>
      </trkpt>
      <trkpt lat="49.30542" lon="1.18139">
        <ele>8</ele>
        <time>2017-03-21T16:34:52Z</time>
      </trkpt>
      <trkpt lat="49.30547" lon="1.1814">
        <ele>8</ele>
        <time>2017-03-21T16:34:52Z</time>
      </trkpt>
      <trkpt lat="49.30552" lon="1.18143">
        <ele>8</ele>
        <time>2017-03-21T16:34:52Z</time>
      </trkpt>
      <trkpt lat="49.30557" lon="1.1815">
        <ele>8</ele>
        <time>2017-03-21T16:35:09Z</time>
      </trkpt>
      <trkpt lat="49.30559" lon="1.18153">
        <ele>8</ele>
        <time>2017-03-21T16:35:09Z</time>
      </trkpt>
      <trkpt lat="49.30564" lon="1.18159">
        <ele>8</ele>
        <time>2017-03-21T16:35:09Z</time>
      </trkpt>
      <trkpt lat="49.30567" lon="1.18165">
        <ele>8</ele>
        <time>2017-03-21T16:35:09Z</time>
      </trkpt>
      <trkpt lat="49.30566" lon="1.18172">
        <ele>8</ele>
        <time>2017-03-21T16:35:25Z</time>
      </trkpt>
      <trkpt lat="49.30568" lon="1.18179">
        <ele>8</ele>
        <time>2017-03-21T16:35:25Z</time>
      </trkpt>
      <trkpt lat="49.3057" lon="1.18188">
        <ele>8</ele>
        <time>2017-03-21T16:35:25Z</time>
      </trkpt>
      <trkpt lat="49.30572" lon="1.18193">
        <ele>8</ele>
        <time>2017-03-21T16:35:25Z</time>
      </trkpt>
      <trkpt lat="49.30574" lon="1.182">
        <ele>8</ele>
        <time>2017-03-21T16:35:41Z</time>
      </trkpt>
      <trkpt lat="49.30575" lon="1.18207">
        <ele>8</ele>
        <time>2017-03-21T16:35:41Z</time>
      </trkpt>
      <trkpt lat="49.30576" lon="1.18215">
        <ele>8</ele>
        <time>2017-03-21T16:35:41Z</time>
      </trkpt>
      <trkpt lat="49.30577" lon="1.18225">
        <ele>8</ele>
        <time>2017-03-21T16:35:41Z</time>
      </trkpt>
      <trkpt lat="49.30577" lon="1.18232">
        <ele>8</ele>
        <time>2017-03-21T16:35:57Z</time>
      </trkpt>
      <trkpt lat="49.30579" lon="1.18242">
        <ele>8</ele>
        <time>2017-03-21T16:35:57Z</time>
      </trkpt>
      <trkpt lat="49.3058" lon="1.18249">
        <ele>8</ele>
        <time>2017-03-21T16:35:57Z</time>
      </trkpt>
      <trkpt lat="49.30579" lon="1.18259">
        <ele>8</ele>
        <time>2017-03-21T16:35:57Z</time>
      </trkpt>
      <trkpt lat="49.30577" lon="1.1827">
        <ele>8</ele>
        <time>2017-03-21T16:36:13Z</time>
      </trkpt>
      <trkpt lat="49.30576" lon="1.18277">
        <ele>8</ele>
        <time>2017-03-21T16:36:13Z</time>
      </trkpt>
      <trkpt lat="49.30574" lon="1.18285">
        <ele>8</ele>
        <time>2017-03-21T16:36:13Z</time>
      </trkpt>
      <trkpt lat="49.30574" lon="1.18292">
        <ele>8</ele>
        <time>2017-03-21T16:36:13Z</time>
      </trkpt>
      <trkpt lat="49.30576" lon="1.183">
        <ele>8</ele>
        <time>2017-03-21T16:36:29Z</time>
      </trkpt>
      <trkpt lat="49.30577" lon="1.18305">
        <ele>8</ele>
        <time>2017-03-21T16:36:29Z</time>
      </trkpt>
      <trkpt lat="49.3058" lon="1.18311">
        <ele>8</ele>
        <time>2017-03-21T16:36:29Z</time>
      </trkpt>
      <trkpt lat="49.30582" lon="1.18318">
        <ele>8</ele>
        <time>2017-03-21T16:36:29Z</time>
      </trkpt>
      <trkpt lat="49.30584" lon="1.18325">
        <ele>8</ele>
        <time>2017-03-21T16:36:44Z</time>
      </trkpt>
      <trkpt lat="49.30586" lon="1.18331">
        <ele>8</ele>
        <time>2017-03-21T16:36:44Z</time>
      </trkpt>
      <trkpt lat="49.30587" lon="1.18339">
        <ele>8</ele>
        <time>2017-03-21T16:36:44Z</time>
      </trkpt>
      <trkpt lat="49.30588" lon="1.18345">
        <ele>8</ele>
        <time>2017-03-21T16:36:44Z</time>
      </trkpt>
      <trkpt lat="49.30592" lon="1.18356">
        <ele>8</ele>
        <time>2017-03-21T16:37:01Z</time>
      </trkpt>
      <trkpt lat="49.30594" lon="1.18362">
        <ele>8</ele>
        <time>2017-03-21T16:37:01Z</time>
      </trkpt>
      <trkpt lat="49.30597" lon="1.18369">
        <ele>8</ele>
        <time>2017-03-21T16:37:01Z</time>
      </trkpt>
      <trkpt lat="49.30599" lon="1.18375">
        <ele>10</ele>
        <time>2017-03-21T16:37:01Z</time>
      </trkpt>
      <trkpt lat="49.30602" lon="1.18383">
        <ele>10</ele>
        <time>2017-03-21T16:37:17Z</time>
      </trkpt>
      <trkpt lat="49.30604" lon="1.18388">
        <ele>10</ele>
        <time>2017-03-21T16:37:17Z</time>
      </trkpt>
      <trkpt lat="49.30607" lon="1.18394">
        <ele>10</ele>
        <time>2017-03-21T16:37:17Z</time>
      </trkpt>
      <trkpt lat="49.30608" lon="1.18405">
        <ele>10</ele>
        <time>2017-03-21T16:37:17Z</time>
      </trkpt>
      <trkpt lat="49.30609" lon="1.18413">
        <ele>10</ele>
        <time>2017-03-21T16:37:32Z</time>
      </trkpt>
      <trkpt lat="49.30611" lon="1.18421">
        <ele>10</ele>
        <time>2017-03-21T16:37:32Z</time>
      </trkpt>
      <trkpt lat="49.30613" lon="1.18427">
        <ele>10</ele>
        <time>2017-03-21T16:37:33Z</time>
      </trkpt>
      <trkpt lat="49.30612" lon="1.18435">
        <ele>10</ele>
        <time>2017-03-21T16:37:33Z</time>
      </trkpt>
      <trkpt lat="49.30613" lon="1.18442">
        <ele>10</ele>
        <time>2017-03-21T16:37:49Z</time>
      </trkpt>
      <trkpt lat="49.30615" lon="1.18449">
        <ele>10</ele>
        <time>2017-03-21T16:37:49Z</time>
      </trkpt>
      <trkpt lat="49.30616" lon="1.18456">
        <ele>10</ele>
        <time>2017-03-21T16:37:49Z</time>
      </trkpt>
      <trkpt lat="49.30619" lon="1.18466">
        <ele>12</ele>
        <time>2017-03-21T16:37:49Z</time>
      </trkpt>
      <trkpt lat="49.3062" lon="1.18472">
        <ele>12</ele>
        <time>2017-03-21T16:38:05Z</time>
      </trkpt>
      <trkpt lat="49.30622" lon="1.18479">
        <ele>12</ele>
        <time>2017-03-21T16:38:05Z</time>
      </trkpt>
      <trkpt lat="49.30622" lon="1.18486">
        <ele>12</ele>
        <time>2017-03-21T16:38:05Z</time>
      </trkpt>
      <trkpt lat="49.30623" lon="1.18492">
        <ele>12</ele>
        <time>2017-03-21T16:38:05Z</time>
      </trkpt>
      <trkpt lat="49.30624" lon="1.18499">
        <ele>12</ele>
        <time>2017-03-21T16:38:21Z</time>
      </trkpt>
      <trkpt lat="49.30626" lon="1.18506">
        <ele>3</ele>
        <time>2017-03-21T16:38:21Z</time>
      </trkpt>
      <trkpt lat="49.30629" lon="1.18514">
        <ele>3</ele>
        <time>2017-03-21T16:38:21Z</time>
      </trkpt>
      <trkpt lat="49.30631" lon="1.18519">
        <ele>3</ele>
        <time>2017-03-21T16:38:21Z</time>
      </trkpt>
      <trkpt lat="49.30633" lon="1.18526">
        <ele>3</ele>
        <time>2017-03-21T16:38:37Z</time>
      </trkpt>
      <trkpt lat="49.30634" lon="1.18533">
        <ele>3</ele>
        <time>2017-03-21T16:38:37Z</time>
      </trkpt>
      <trkpt lat="49.30636" lon="1.1854">
        <ele>3</ele>
        <time>2017-03-21T16:38:37Z</time>
      </trkpt>
      <trkpt lat="49.30639" lon="1.18548">
        <ele>3</ele>
        <time>2017-03-21T16:38:37Z</time>
      </trkpt>
      <trkpt lat="49.30641" lon="1.18553">
        <ele>3</ele>
        <time>2017-03-21T16:38:53Z</time>
      </trkpt>
      <trkpt lat="49.3064" lon="1.18567">
        <ele>3</ele>
        <time>2017-03-21T16:38:53Z</time>
      </trkpt>
      <trkpt lat="49.30642" lon="1.18577">
        <ele>3</ele>
        <time>2017-03-21T16:38:53Z</time>
      </trkpt>
      <trkpt lat="49.30642" lon="1.18585">
        <ele>3</ele>
        <time>2017-03-21T16:38:53Z</time>
      </trkpt>
      <trkpt lat="49.30644" lon="1.18592">
        <ele>3</ele>
        <time>2017-03-21T16:39:09Z</time>
      </trkpt>
      <trkpt lat="49.30646" lon="1.18596">
        <ele>3</ele>
        <time>2017-03-21T16:39:09Z</time>
      </trkpt>
      <trkpt lat="49.30649" lon="1.18604">
        <ele>3</ele>
        <time>2017-03-21T16:39:09Z</time>
      </trkpt>
      <trkpt lat="49.3065" lon="1.1861">
        <ele>3</ele>
        <time>2017-03-21T16:39:09Z</time>
      </trkpt>
      <trkpt lat="49.30652" lon="1.18617">
        <ele>3</ele>
        <time>2017-03-21T16:39:25Z</time>
      </trkpt>
      <trkpt lat="49.30652" lon="1.18623">
        <ele>3</ele>
        <time>2017-03-21T16:39:25Z</time>
      </trkpt>
      <trkpt lat="49.30652" lon="1.18632">
        <ele>11</ele>
        <time>2017-03-21T16:39:25Z</time>
      </trkpt>
      <trkpt lat="49.30652" lon="1.18637">
        <ele>11</ele>
        <time>2017-03-21T16:39:25Z</time>
      </trkpt>
      <trkpt lat="49.30651" lon="1.18642">
        <ele>11</ele>
        <time>2017-03-21T16:39:41Z</time>
      </trkpt>
      <trkpt lat="49.30652" lon="1.18651">
        <ele>11</ele>
        <time>2017-03-21T16:39:41Z</time>
      </trkpt>
      <trkpt lat="49.30653" lon="1.18659">
        <ele>11</ele>
        <time>2017-03-21T16:39:41Z</time>
      </trkpt>
      <trkpt lat="49.30654" lon="1.1867">
        <ele>11</ele>
        <time>2017-03-21T16:39:41Z</time>
      </trkpt>
      <trkpt lat="49.30655" lon="1.18676">
        <ele>11</ele>
        <time>2017-03-21T16:39:57Z</time>
      </trkpt>
      <trkpt lat="49.30655" lon="1.1868">
        <ele>11</ele>
        <time>2017-03-21T16:39:57Z</time>
      </trkpt>
      <trkpt lat="49.30656" lon="1.18688">
        <ele>11</ele>
        <time>2017-03-21T16:39:57Z</time>
      </trkpt>
      <trkpt lat="49.30656" lon="1.18694">
        <ele>11</ele>
        <time>2017-03-21T16:39:57Z</time>
      </trkpt>
      <trkpt lat="49.30656" lon="1.18701">
        <ele>11</ele>
        <time>2017-03-21T16:40:13Z</time>
      </trkpt>
      <trkpt lat="49.30656" lon="1.18708">
        <ele>11</ele>
        <time>2017-03-21T16:40:13Z</time>
      </trkpt>
      <trkpt lat="49.30656" lon="1.18716">
        <ele>11</ele>
        <time>2017-03-21T16:40:13Z</time>
      </trkpt>
      <trkpt lat="49.30657" lon="1.18723">
        <ele>11</ele>
        <time>2017-03-21T16:40:13Z</time>
      </trkpt>
      <trkpt lat="49.30657" lon="1.18732">
        <ele>11</ele>
        <time>2017-03-21T16:40:29Z</time>
      </trkpt>
      <trkpt lat="49.30658" lon="1.18735">
        <ele>11</ele>
        <time>2017-03-21T16:40:29Z</time>
      </trkpt>
      <trkpt lat="49.30657" lon="1.18743">
        <ele>11</ele>
        <time>2017-03-21T16:40:29Z</time>
      </trkpt>
      <trkpt lat="49.30658" lon="1.18751">
        <ele>11</ele>
        <time>2017-03-21T16:40:29Z</time>
      </trkpt>
      <trkpt lat="49.30658" lon="1.18758">
        <ele>11</ele>
        <time>2017-03-21T16:40:45Z</time>
      </trkpt>
      <trkpt lat="49.3066" lon="1.18765">
        <ele>11</ele>
        <time>2017-03-21T16:40:45Z</time>
      </trkpt>
      <trkpt lat="49.30662" lon="1.18773">
        <ele>11</ele>
        <time>2017-03-21T16:40:45Z</time>
      </trkpt>
      <trkpt lat="49.30662" lon="1.18781">
        <ele>11</ele>
        <time>2017-03-21T16:40:45Z</time>
      </trkpt>
      <trkpt lat="49.30663" lon="1.18785">
        <ele>11</ele>
        <time>2017-03-21T16:41:01Z</time>
      </trkpt>
      <trkpt lat="49.30663" lon="1.18794">
        <ele>10</ele>
        <time>2017-03-21T16:41:01Z</time>
      </trkpt>
      <trkpt lat="49.30662" lon="1.18801">
        <ele>10</ele>
        <time>2017-03-21T16:41:01Z</time>
      </trkpt>
      <trkpt lat="49.30663" lon="1.18807">
        <ele>10</ele>
        <time>2017-03-21T16:41:01Z</time>
      </trkpt>
      <trkpt lat="49.30663" lon="1.18813">
        <ele>10</ele>
        <time>2017-03-21T16:41:17Z</time>
      </trkpt>
      <trkpt lat="49.30667" lon="1.18825">
        <ele>10</ele>
        <time>2017-03-21T16:41:17Z</time>
      </trkpt>
      <trkpt lat="49.30668" lon="1.18831">
        <ele>10</ele>
        <time>2017-03-21T16:41:17Z</time>
      </trkpt>
      <trkpt lat="49.3067" lon="1.18838">
        <ele>10</ele>
        <time>2017-03-21T16:41:17Z</time>
      </trkpt>
      <trkpt lat="49.30672" lon="1.18845">
        <ele>10</ele>
        <time>2017-03-21T16:41:33Z</time>
      </trkpt>
      <trkpt lat="49.30675" lon="1.18849">
        <ele>10</ele>
        <time>2017-03-21T16:41:33Z</time>
      </trkpt>
      <trkpt lat="49.30677" lon="1.18856">
        <ele>10</ele>
        <time>2017-03-21T16:41:33Z</time>
      </trkpt>
      <trkpt lat="49.30679" lon="1.18862">
        <ele>10</ele>
        <time>2017-03-21T16:41:33Z</time>
      </trkpt>
      <trkpt lat="49.30682" lon="1.1887">
        <ele>10</ele>
        <time>2017-03-21T16:41:49Z</time>
      </trkpt>
      <trkpt lat="49.30683" lon="1.18875">
        <ele>10</ele>
        <time>2017-03-21T16:41:49Z</time>
      </trkpt>
      <trkpt lat="49.30685" lon="1.18885">
        <ele>11</ele>
        <time>2017-03-21T16:41:49Z</time>
      </trkpt>
      <trkpt lat="49.30686" lon="1.18891">
        <ele>11</ele>
        <time>2017-03-21T16:41:49Z</time>
      </trkpt>
      <trkpt lat="49.30688" lon="1.18899">
        <ele>11</ele>
        <time>2017-03-21T16:42:04Z</time>
      </trkpt>
      <trkpt lat="49.30689" lon="1.18906">
        <ele>11</ele>
        <time>2017-03-21T16:42:04Z</time>
      </trkpt>
      <trkpt lat="49.30691" lon="1.18912">
        <ele>11</ele>
        <time>2017-03-21T16:42:04Z</time>
      </trkpt>
      <trkpt lat="49.30693" lon="1.18918">
        <ele>11</ele>
        <time>2017-03-21T16:42:04Z</time>
      </trkpt>
      <trkpt lat="49.30694" lon="1.18927">
        <ele>11</ele>
        <time>2017-03-21T16:42:20Z</time>
      </trkpt>
      <trkpt lat="49.30693" lon="1.18934">
        <ele>11</ele>
        <time>2017-03-21T16:42:20Z</time>
      </trkpt>
      <trkpt lat="49.30693" lon="1.18941">
        <ele>11</ele>
        <time>2017-03-21T16:42:20Z</time>
      </trkpt>
      <trkpt lat="49.30693" lon="1.18949">
        <ele>11</ele>
        <time>2017-03-21T16:42:20Z</time>
      </trkpt>
      <trkpt lat="49.30692" lon="1.18956">
        <ele>11</ele>
        <time>2017-03-21T16:42:37Z</time>
      </trkpt>
      <trkpt lat="49.30693" lon="1.18962">
        <ele>10</ele>
        <time>2017-03-21T16:42:37Z</time>
      </trkpt>
      <trkpt lat="49.30693" lon="1.18972">
        <ele>10</ele>
        <time>2017-03-21T16:42:37Z</time>
      </trkpt>
      <trkpt lat="49.30694" lon="1.18979">
        <ele>10</ele>
        <time>2017-03-21T16:42:37Z</time>
      </trkpt>
      <trkpt lat="49.30696" lon="1.18987">
        <ele>10</ele>
        <time>2017-03-21T16:42:53Z</time>
      </trkpt>
      <trkpt lat="49.30696" lon="1.18995">
        <ele>10</ele>
        <time>2017-03-21T16:42:53Z</time>
      </trkpt>
      <trkpt lat="49.30697" lon="1.19002">
        <ele>10</ele>
        <time>2017-03-21T16:42:53Z</time>
      </trkpt>
      <trkpt lat="49.30698" lon="1.19008">
        <ele>10</ele>
        <time>2017-03-21T16:42:53Z</time>
      </trkpt>
      <trkpt lat="49.30701" lon="1.19013">
        <ele>10</ele>
        <time>2017-03-21T16:43:09Z</time>
      </trkpt>
      <trkpt lat="49.30703" lon="1.19021">
        <ele>10</ele>
        <time>2017-03-21T16:43:09Z</time>
      </trkpt>
      <trkpt lat="49.30705" lon="1.19029">
        <ele>10</ele>
        <time>2017-03-21T16:43:09Z</time>
      </trkpt>
      <trkpt lat="49.30705" lon="1.19038">
        <ele>10</ele>
        <time>2017-03-21T16:43:09Z</time>
      </trkpt>
      <trkpt lat="49.30705" lon="1.19042">
        <ele>8</ele>
        <time>2017-03-21T16:43:25Z</time>
      </trkpt>
      <trkpt lat="49.30705" lon="1.19048">
        <ele>8</ele>
        <time>2017-03-21T16:43:25Z</time>
      </trkpt>
      <trkpt lat="49.30705" lon="1.19055">
        <ele>8</ele>
        <time>2017-03-21T16:43:25Z</time>
      </trkpt>
      <trkpt lat="49.30705" lon="1.19062">
        <ele>8</ele>
        <time>2017-03-21T16:43:25Z</time>
      </trkpt>
      <trkpt lat="49.30706" lon="1.1907">
        <ele>8</ele>
        <time>2017-03-21T16:43:41Z</time>
      </trkpt>
      <trkpt lat="49.30706" lon="1.19079">
        <ele>8</ele>
        <time>2017-03-21T16:43:41Z</time>
      </trkpt>
      <trkpt lat="49.30706" lon="1.19088">
        <ele>8</ele>
        <time>2017-03-21T16:43:41Z</time>
      </trkpt>
      <trkpt lat="49.30707" lon="1.19096">
        <ele>8</ele>
        <time>2017-03-21T16:43:41Z</time>
      </trkpt>
      <trkpt lat="49.30707" lon="1.19103">
        <ele>8</ele>
        <time>2017-03-21T16:43:57Z</time>
      </trkpt>
      <trkpt lat="49.30707" lon="1.1911">
        <ele>8</ele>
        <time>2017-03-21T16:43:57Z</time>
      </trkpt>
      <trkpt lat="49.30708" lon="1.1912">
        <ele>8</ele>
        <time>2017-03-21T16:43:57Z</time>
      </trkpt>
      <trkpt lat="49.3071" lon="1.19129">
        <ele>7</ele>
        <time>2017-03-21T16:43:57Z</time>
      </trkpt>
      <trkpt lat="49.3071" lon="1.19135">
        <ele>7</ele>
        <time>2017-03-21T16:44:13Z</time>
      </trkpt>
      <trkpt lat="49.30711" lon="1.19143">
        <ele>7</ele>
        <time>2017-03-21T16:44:13Z</time>
      </trkpt>
      <trkpt lat="49.3071" lon="1.19148">
        <ele>7</ele>
        <time>2017-03-21T16:44:13Z</time>
      </trkpt>
      <trkpt lat="49.30711" lon="1.19154">
        <ele>7</ele>
        <time>2017-03-21T16:44:13Z</time>
      </trkpt>
      <trkpt lat="49.30712" lon="1.19163">
        <ele>7</ele>
        <time>2017-03-21T16:44:29Z</time>
      </trkpt>
      <trkpt lat="49.30712" lon="1.19169">
        <ele>7</ele>
        <time>2017-03-21T16:44:29Z</time>
      </trkpt>
      <trkpt lat="49.30713" lon="1.19178">
        <ele>7</ele>
        <time>2017-03-21T16:44:29Z</time>
      </trkpt>
      <trkpt lat="49.30713" lon="1.19186">
        <ele>7</ele>
        <time>2017-03-21T16:44:29Z</time>
      </trkpt>
      <trkpt lat="49.30714" lon="1.19193">
        <ele>7</ele>
        <time>2017-03-21T16:44:45Z</time>
      </trkpt>
      <trkpt lat="49.30716" lon="1.192">
        <ele>7</ele>
        <time>2017-03-21T16:44:45Z</time>
      </trkpt>
      <trkpt lat="49.30718" lon="1.19206">
        <ele>7</ele>
        <time>2017-03-21T16:44:45Z</time>
      </trkpt>
      <trkpt lat="49.3072" lon="1.19211">
        <ele>8</ele>
        <time>2017-03-21T16:44:45Z</time>
      </trkpt>
      <trkpt lat="49.30722" lon="1.19217">
        <ele>8</ele>
        <time>2017-03-21T16:45:00Z</time>
      </trkpt>
      <trkpt lat="49.30723" lon="1.19227">
        <ele>8</ele>
        <time>2017-03-21T16:45:00Z</time>
      </trkpt>
      <trkpt lat="49.30725" lon="1.19232">
        <ele>8</ele>
        <time>2017-03-21T16:45:00Z</time>
      </trkpt>
      <trkpt lat="49.30725" lon="1.19241">
        <ele>8</ele>
        <time>2017-03-21T16:45:00Z</time>
      </trkpt>
      <trkpt lat="49.30725" lon="1.1925">
        <ele>8</ele>
        <time>2017-03-21T16:45:17Z</time>
      </trkpt>
      <trkpt lat="49.30726" lon="1.19258">
        <ele>8</ele>
        <time>2017-03-21T16:45:17Z</time>
      </trkpt>
      <trkpt lat="49.30728" lon="1.19264">
        <ele>8</ele>
        <time>2017-03-21T16:45:17Z</time>
      </trkpt>
      <trkpt lat="49.30728" lon="1.19271">
        <ele>8</ele>
        <time>2017-03-21T16:45:17Z</time>
      </trkpt>
      <trkpt lat="49.30731" lon="1.19277">
        <ele>8</ele>
        <time>2017-03-21T16:45:33Z</time>
      </trkpt>
      <trkpt lat="49.30734" lon="1.19285">
        <ele>8</ele>
        <time>2017-03-21T16:45:33Z</time>
      </trkpt>
      <trkpt lat="49.30735" lon="1.19293">
        <ele>8</ele>
        <time>2017-03-21T16:45:33Z</time>
      </trkpt>
      <trkpt lat="49.30736" lon="1.19299">
        <ele>8</ele>
        <time>2017-03-21T16:45:33Z</time>
      </trkpt>
      <trkpt lat="49.30739" lon="1.19305">
        <ele>8</ele>
        <time>2017-03-21T16:45:49Z</time>
      </trkpt>
      <trkpt lat="49.30742" lon="1.19312">
        <ele>8</ele>
        <time>2017-03-21T16:45:49Z</time>
      </trkpt>
      <trkpt lat="49.30745" lon="1.19318">
        <ele>8</ele>
        <time>2017-03-21T16:45:49Z</time>
      </trkpt>
      <trkpt lat="49.30749" lon="1.19322">
        <ele>8</ele>
        <time>2017-03-21T16:45:49Z</time>
      </trkpt>
      <trkpt lat="49.30753" lon="1.19327">
        <ele>8</ele>
        <time>2017-03-21T16:46:04Z</time>
      </trkpt>
      <trkpt lat="49.30754" lon="1.19333">
        <ele>8</ele>
        <time>2017-03-21T16:46:04Z</time>
      </trkpt>
      <trkpt lat="49.30758" lon="1.19341">
        <ele>8</ele>
        <time>2017-03-21T16:46:04Z</time>
      </trkpt>
      <trkpt lat="49.30759" lon="1.19346">
        <ele>8</ele>
        <time>2017-03-21T16:46:04Z</time>
      </trkpt>
      <trkpt lat="49.30759" lon="1.19354">
        <ele>8</ele>
        <time>2017-03-21T16:46:21Z</time>
      </trkpt>
      <trkpt lat="49.30758" lon="1.1936">
        <ele>8</ele>
        <time>2017-03-21T16:46:21Z</time>
      </trkpt>
      <trkpt lat="49.30759" lon="1.1937">
        <ele>8</ele>
        <time>2017-03-21T16:46:21Z</time>
      </trkpt>
      <trkpt lat="49.3076" lon="1.19376">
        <ele>10</ele>
        <time>2017-03-21T16:46:21Z</time>
      </trkpt>
      <trkpt lat="49.30761" lon="1.19384">
        <ele>10</ele>
        <time>2017-03-21T16:46:37Z</time>
      </trkpt>
      <trkpt lat="49.30763" lon="1.19391">
        <ele>10</ele>
        <time>2017-03-21T16:46:37Z</time>
      </trkpt>
      <trkpt lat="49.30765" lon="1.19398">
        <ele>10</ele>
        <time>2017-03-21T16:46:37Z</time>
      </trkpt>
      <trkpt lat="49.30767" lon="1.19405">
        <ele>10</ele>
        <time>2017-03-21T16:46:37Z</time>
      </trkpt>
      <trkpt lat="49.30767" lon="1.19411">
        <ele>10</ele>
        <time>2017-03-21T16:46:53Z</time>
      </trkpt>
      <trkpt lat="49.30771" lon="1.1942">
        <ele>10</ele>
        <time>2017-03-21T16:46:53Z</time>
      </trkpt>
      <trkpt lat="49.30773" lon="1.19424">
        <ele>10</ele>
        <time>2017-03-21T16:46:53Z</time>
      </trkpt>
      <trkpt lat="49.30776" lon="1.19431">
        <ele>10</ele>
        <time>2017-03-21T16:46:53Z</time>
      </trkpt>
      <trkpt lat="49.30777" lon="1.19439">
        <ele>10</ele>
        <time>2017-03-21T16:47:08Z</time>
      </trkpt>
      <trkpt lat="49.30778" lon="1.19446">
        <ele>10</ele>
        <time>2017-03-21T16:47:08Z</time>
      </trkpt>
      <trkpt lat="49.30779" lon="1.19452">
        <ele>10</ele>
        <time>2017-03-21T16:47:08Z</time>
      </trkpt>
      <trkpt lat="49.3078" lon="1.19459">
        <ele>11</ele>
        <time>2017-03-21T16:47:08Z</time>
      </trkpt>
      <trkpt lat="49.30783" lon="1.19469">
        <ele>11</ele>
        <time>2017-03-21T16:47:25Z</time>
      </trkpt>
      <trkpt lat="49.30782" lon="1.19474">
        <ele>11</ele>
        <time>2017-03-21T16:47:25Z</time>
      </trkpt>
      <trkpt lat="49.30781" lon="1.19483">
        <ele>11</ele>
        <time>2017-03-21T16:47:25Z</time>
      </trkpt>
      <trkpt lat="49.3078" lon="1.19491">
        <ele>11</ele>
        <time>2017-03-21T16:47:25Z</time>
      </trkpt>
      <trkpt lat="49.30781" lon="1.19499">
        <ele>11</ele>
        <time>2017-03-21T16:47:41Z</time>
      </trkpt>
      <trkpt lat="49.30783" lon="1.19507">
        <ele>11</ele>
        <time>2017-03-21T16:47:41Z</time>
      </trkpt>
      <trkpt lat="49.30784" lon="1.19513">
        <ele>11</ele>
        <time>2017-03-21T16:47:42Z</time>
      </trkpt>
      <trkpt lat="49.30785" lon="1.19521">
        <ele>11</ele>
        <time>2017-03-21T16:47:42Z</time>
      </trkpt>
      <trkpt lat="49.30786" lon="1.19526">
        <ele>11</ele>
        <time>2017-03-21T16:47:57Z</time>
      </trkpt>
      <trkpt lat="49.30788" lon="1.19533">
        <ele>11</ele>
        <time>2017-03-21T16:47:57Z</time>
      </trkpt>
      <trkpt lat="49.30788" lon="1.19541">
        <ele>11</ele>
        <time>2017-03-21T16:47:57Z</time>
      </trkpt>
      <trkpt lat="49.30788" lon="1.19549">
        <ele>9</ele>
        <time>2017-03-21T16:47:57Z</time>
      </trkpt>
      <trkpt lat="49.30789" lon="1.19558">
        <ele>9</ele>
        <time>2017-03-21T16:48:12Z</time>
      </trkpt>
      <trkpt lat="49.3079" lon="1.19563">
        <ele>9</ele>
        <time>2017-03-21T16:48:12Z</time>
      </trkpt>
      <trkpt lat="49.30793" lon="1.1957">
        <ele>3</ele>
        <time>2017-03-21T16:48:12Z</time>
      </trkpt>
      <trkpt lat="49.30793" lon="1.19579">
        <ele>3</ele>
        <time>2017-03-21T16:48:12Z</time>
      </trkpt>
      <trkpt lat="49.30794" lon="1.19586">
        <ele>3</ele>
        <time>2017-03-21T16:48:29Z</time>
      </trkpt>
      <trkpt lat="49.30793" lon="1.19592">
        <ele>3</ele>
        <time>2017-03-21T16:48:29Z</time>
      </trkpt>
      <trkpt lat="49.30795" lon="1.19599">
        <ele>3</ele>
        <time>2017-03-21T16:48:29Z</time>
      </trkpt>
      <trkpt lat="49.30796" lon="1.19606">
        <ele>3</ele>
        <time>2017-03-21T16:48:29Z</time>
      </trkpt>
      <trkpt lat="49.30797" lon="1.19613">
        <ele>3</ele>
        <time>2017-03-21T16:48:45Z</time>
      </trkpt>
      <trkpt lat="49.30798" lon="1.19622">
        <ele>3</ele>
        <time>2017-03-21T16:48:45Z</time>
      </trkpt>
      <trkpt lat="49.30799" lon="1.1963">
        <ele>3</ele>
        <time>2017-03-21T16:48:45Z</time>
      </trkpt>
      <trkpt lat="49.308" lon="1.19636">
        <ele>3</ele>
        <time>2017-03-21T16:48:45Z</time>
      </trkpt>
      <trkpt lat="49.308" lon="1.19643">
        <ele>3</ele>
        <time>2017-03-21T16:49:01Z</time>
      </trkpt>
      <trkpt lat="49.30801" lon="1.1965">
        <ele>3</ele>
        <time>2017-03-21T16:49:01Z</time>
      </trkpt>
      <trkpt lat="49.30802" lon="1.19657">
        <ele>3</ele>
        <time>2017-03-21T16:49:01Z</time>
      </trkpt>
      <trkpt lat="49.30803" lon="1.19665">
        <ele>3</ele>
        <time>2017-03-21T16:49:01Z</time>
      </trkpt>
      <trkpt lat="49.30803" lon="1.19673">
        <ele>3</ele>
        <time>2017-03-21T16:49:17Z</time>
      </trkpt>
      <trkpt lat="49.30804" lon="1.1968">
        <ele>3</ele>
        <time>2017-03-21T16:49:17Z</time>
      </trkpt>
      <trkpt lat="49.30806" lon="1.19686">
        <ele>3</ele>
        <time>2017-03-21T16:49:17Z</time>
      </trkpt>
      <trkpt lat="49.30807" lon="1.19694">
        <ele>3</ele>
        <time>2017-03-21T16:49:17Z</time>
      </trkpt>
      <trkpt lat="49.30806" lon="1.19702">
        <ele>3</ele>
        <time>2017-03-21T16:49:33Z</time>
      </trkpt>
      <trkpt lat="49.30806" lon="1.19707">
        <ele>3</ele>
        <time>2017-03-21T16:49:33Z</time>
      </trkpt>
      <trkpt lat="49.30806" lon="1.19716">
        <ele>3</ele>
        <time>2017-03-21T16:49:33Z</time>
      </trkpt>
      <trkpt lat="49.30807" lon="1.19723">
        <ele>3</ele>
        <time>2017-03-21T16:49:33Z</time>
      </trkpt>
      <trkpt lat="49.30807" lon="1.19732">
        <ele>3</ele>
        <time>2017-03-21T16:49:49Z</time>
      </trkpt>
      <trkpt lat="49.30808" lon="1.19739">
        <ele>3</ele>
        <time>2017-03-21T16:49:49Z</time>
      </trkpt>
      <trkpt lat="49.30809" lon="1.19747">
        <ele>3</ele>
        <time>2017-03-21T16:49:49Z</time>
      </trkpt>
      <trkpt lat="49.3081" lon="1.19756">
        <ele>3</ele>
        <time>2017-03-21T16:49:49Z</time>
      </trkpt>
      <trkpt lat="49.30811" lon="1.19762">
        <ele>3</ele>
        <time>2017-03-21T16:50:05Z</time>
      </trkpt>
      <trkpt lat="49.30812" lon="1.19767">
        <ele>3</ele>
        <time>2017-03-21T16:50:05Z</time>
      </trkpt>
      <trkpt lat="49.30812" lon="1.19775">
        <ele>3</ele>
        <time>2017-03-21T16:50:05Z</time>
      </trkpt>
      <trkpt lat="49.30812" lon="1.19782">
        <ele>3</ele>
        <time>2017-03-21T16:50:05Z</time>
      </trkpt>
      <trkpt lat="49.30813" lon="1.19788">
        <ele>3</ele>
        <time>2017-03-21T16:50:20Z</time>
      </trkpt>
      <trkpt lat="49.30814" lon="1.19798">
        <ele>7</ele>
        <time>2017-03-21T16:50:20Z</time>
      </trkpt>
      <trkpt lat="49.30814" lon="1.19804">
        <ele>7</ele>
        <time>2017-03-21T16:50:20Z</time>
      </trkpt>
      <trkpt lat="49.30815" lon="1.1981">
        <ele>7</ele>
        <time>2017-03-21T16:50:20Z</time>
      </trkpt>
      <trkpt lat="49.30817" lon="1.19819">
        <ele>7</ele>
        <time>2017-03-21T16:50:37Z</time>
      </trkpt>
      <trkpt lat="49.30819" lon="1.19824">
        <ele>7</ele>
        <time>2017-03-21T16:50:37Z</time>
      </trkpt>
      <trkpt lat="49.30821" lon="1.1983">
        <ele>7</ele>
        <time>2017-03-21T16:50:37Z</time>
      </trkpt>
      <trkpt lat="49.30822" lon="1.1984">
        <ele>7</ele>
        <time>2017-03-21T16:50:37Z</time>
      </trkpt>
      <trkpt lat="49.30823" lon="1.19848">
        <ele>7</ele>
        <time>2017-03-21T16:50:53Z</time>
      </trkpt>
      <trkpt lat="49.30824" lon="1.19856">
        <ele>7</ele>
        <time>2017-03-21T16:50:53Z</time>
      </trkpt>
      <trkpt lat="49.30823" lon="1.19866">
        <ele>7</ele>
        <time>2017-03-21T16:50:53Z</time>
      </trkpt>
      <trkpt lat="49.30823" lon="1.19871">
        <ele>7</ele>
        <time>2017-03-21T16:50:53Z</time>
      </trkpt>
      <trkpt lat="49.30823" lon="1.19878">
        <ele>9</ele>
        <time>2017-03-21T16:51:09Z</time>
      </trkpt>
      <trkpt lat="49.30821" lon="1.19884">
        <ele>9</ele>
        <time>2017-03-21T16:51:09Z</time>
      </trkpt>
      <trkpt lat="49.30818" lon="1.19891">
        <ele>9</ele>
        <time>2017-03-21T16:51:09Z</time>
      </trkpt>
      <trkpt lat="49.30816" lon="1.19898">
        <ele>9</ele>
        <time>2017-03-21T16:51:09Z</time>
      </trkpt>
      <trkpt lat="49.30814" lon="1.19903">
        <ele>9</ele>
        <time>2017-03-21T16:51:25Z</time>
      </trkpt>
      <trkpt lat="49.30811" lon="1.19911">
        <ele>9</ele>
        <time>2017-03-21T16:51:25Z</time>
      </trkpt>
      <trkpt lat="49.3081" lon="1.19919">
        <ele>9</ele>
        <time>2017-03-21T16:51:25Z</time>
      </trkpt>
      <trkpt lat="49.3081" lon="1.19925">
        <ele>9</ele>
        <time>2017-03-21T16:51:25Z</time>
      </trkpt>
      <trkpt lat="49.30809" lon="1.19932">
        <ele>9</ele>
        <time>2017-03-21T16:51:41Z</time>
      </trkpt>
      <trkpt lat="49.30809" lon="1.19939">
        <ele>9</ele>
        <time>2017-03-21T16:51:41Z</time>
      </trkpt>
      <trkpt lat="49.30808" lon="1.19946">
        <ele>9</ele>
        <time>2017-03-21T16:51:41Z</time>
      </trkpt>
      <trkpt lat="49.30808" lon="1.19955">
        <ele>9</ele>
        <time>2017-03-21T16:51:41Z</time>
      </trkpt>
      <trkpt lat="49.30808" lon="1.19961">
        <ele>8</ele>
        <time>2017-03-21T16:51:57Z</time>
      </trkpt>
      <trkpt lat="49.30807" lon="1.19967">
        <ele>8</ele>
        <time>2017-03-21T16:51:57Z</time>
      </trkpt>
      <trkpt lat="49.30805" lon="1.19972">
        <ele>8</ele>
        <time>2017-03-21T16:51:57Z</time>
      </trkpt>
      <trkpt lat="49.30801" lon="1.19975">
        <ele>8</ele>
        <time>2017-03-21T16:51:57Z</time>
      </trkpt>
      <trkpt lat="49.30795" lon="1.19976">
        <ele>8</ele>
        <time>2017-03-21T16:52:13Z</time>
      </trkpt>
      <trkpt lat="49.30792" lon="1.19978">
        <ele>9</ele>
        <time>2017-03-21T16:52:13Z</time>
      </trkpt>
      <trkpt lat="49.30788" lon="1.19977">
        <ele>9</ele>
        <time>2017-03-21T16:52:13Z</time>
      </trkpt>
      <trkpt lat="49.30785" lon="1.19976">
        <ele>9</ele>
        <time>2017-03-21T16:52:13Z</time>
      </trkpt>
      <trkpt lat="49.30781" lon="1.19973">
        <ele>9</ele>
        <time>2017-03-21T16:52:29Z</time>
      </trkpt>
      <trkpt lat="49.30779" lon="1.19969">
        <ele>9</ele>
        <time>2017-03-21T16:52:29Z</time>
      </trkpt>
      <trkpt lat="49.30776" lon="1.19966">
        <ele>9</ele>
        <time>2017-03-21T16:52:29Z</time>
      </trkpt>
      <trkpt lat="49.30777" lon="1.19959">
        <ele>9</ele>
        <time>2017-03-21T16:52:29Z</time>
      </trkpt>
      <trkpt lat="49.30792" lon="1.19935">
        <ele>9</ele>
        <time>2017-03-21T16:53:21Z</time>
      </trkpt>
      <trkpt lat="49.30792" lon="1.19935">
        <ele>9</ele>
        <time>2017-03-21T16:53:21Z</time>
      </trkpt>
      <trkpt lat="49.30796" lon="1.19933">
        <ele>9</ele>
        <time>2017-03-21T16:53:21Z</time>
      </trkpt>
      <trkpt lat="49.30801" lon="1.19929">
        <ele>9</ele>
        <time>2017-03-21T16:53:21Z</time>
      </trkpt>
      <trkpt lat="49.30804" lon="1.19927">
        <ele>9</ele>
        <time>2017-03-21T16:53:21Z</time>
      </trkpt>
      <trkpt lat="49.30804" lon="1.1993">
        <ele>9</ele>
        <time>2017-03-21T16:53:46Z</time>
      </trkpt>
      <trkpt lat="49.30804" lon="1.19927">
        <ele>9</ele>
        <time>2017-03-21T16:53:46Z</time>
      </trkpt>
      <trkpt lat="49.30809" lon="1.19929">
        <ele>9</ele>
        <time>2017-03-21T16:53:46Z</time>
      </trkpt>
      <trkpt lat="49.30813" lon="1.19927">
        <ele>9</ele>
        <time>2017-03-21T16:53:46Z</time>
      </trkpt>
      <trkpt lat="49.30818" lon="1.19927">
        <ele>9</ele>
        <time>2017-03-21T16:53:46Z</time>
      </trkpt>
      <trkpt lat="49.3082" lon="1.19924">
        <ele>9</ele>
        <time>2017-03-21T16:54:02Z</time>
      </trkpt>
      <trkpt lat="49.30824" lon="1.19919">
        <ele>9</ele>
        <time>2017-03-21T16:54:02Z</time>
      </trkpt>
      <trkpt lat="49.30827" lon="1.19914">
        <ele>9</ele>
        <time>2017-03-21T16:54:02Z</time>
      </trkpt>
      <trkpt lat="49.30832" lon="1.19911">
        <ele>9</ele>
        <time>2017-03-21T16:54:02Z</time>
      </trkpt>
      <trkpt lat="49.30834" lon="1.19907">
        <ele>9</ele>
        <time>2017-03-21T16:54:17Z</time>
      </trkpt>
      <trkpt lat="49.30838" lon="1.19902">
        <ele>9</ele>
        <time>2017-03-21T16:54:17Z</time>
      </trkpt>
      <trkpt lat="49.3084" lon="1.19899">
        <ele>9</ele>
        <time>2017-03-21T16:54:17Z</time>
      </trkpt>
      <trkpt lat="49.30844" lon="1.19896">
        <ele>9</ele>
        <time>2017-03-21T16:54:17Z</time>
      </trkpt>
      <trkpt lat="49.30849" lon="1.19894">
        <ele>9</ele>
        <time>2017-03-21T16:54:33Z</time>
      </trkpt>
      <trkpt lat="49.30851" lon="1.19893">
        <ele>9</ele>
        <time>2017-03-21T16:54:33Z</time>
      </trkpt>
      <trkpt lat="49.30855" lon="1.1989">
        <ele>9</ele>
        <time>2017-03-21T16:54:33Z</time>
      </trkpt>
      <trkpt lat="49.30859" lon="1.19886">
        <ele>9</ele>
        <time>2017-03-21T16:54:33Z</time>
      </trkpt>
      <trkpt lat="49.30863" lon="1.19881">
        <ele>9</ele>
        <time>2017-03-21T16:54:49Z</time>
      </trkpt>
      <trkpt lat="49.30867" lon="1.19879">
        <ele>9</ele>
        <time>2017-03-21T16:54:49Z</time>
      </trkpt>
      <trkpt lat="49.30872" lon="1.19875">
        <ele>9</ele>
        <time>2017-03-21T16:54:49Z</time>
      </trkpt>
      <trkpt lat="49.30877" lon="1.19875">
        <ele>3</ele>
        <time>2017-03-21T16:54:49Z</time>
      </trkpt>
      <trkpt lat="49.30882" lon="1.19874">
        <ele>3</ele>
        <time>2017-03-21T16:55:05Z</time>
      </trkpt>
      <trkpt lat="49.30885" lon="1.1987">
        <ele>3</ele>
        <time>2017-03-21T16:55:05Z</time>
      </trkpt>
      <trkpt lat="49.30889" lon="1.19867">
        <ele>3</ele>
        <time>2017-03-21T16:55:05Z</time>
      </trkpt>
      <trkpt lat="49.30893" lon="1.19863">
        <ele>3</ele>
        <time>2017-03-21T16:55:05Z</time>
      </trkpt>
      <trkpt lat="49.30896" lon="1.19861">
        <ele>3</ele>
        <time>2017-03-21T16:55:20Z</time>
      </trkpt>
      <trkpt lat="49.30901" lon="1.19859">
        <ele>3</ele>
        <time>2017-03-21T16:55:20Z</time>
      </trkpt>
      <trkpt lat="49.30906" lon="1.19857">
        <ele>3</ele>
        <time>2017-03-21T16:55:20Z</time>
      </trkpt>
      <trkpt lat="49.30909" lon="1.19856">
        <ele>3</ele>
        <time>2017-03-21T16:55:20Z</time>
      </trkpt>
      <trkpt lat="49.30913" lon="1.19851">
        <ele>3</ele>
        <time>2017-03-21T16:55:37Z</time>
      </trkpt>
      <trkpt lat="49.30915" lon="1.19846">
        <ele>3</ele>
        <time>2017-03-21T16:55:37Z</time>
      </trkpt>
      <trkpt lat="49.3092" lon="1.19841">
        <ele>3</ele>
        <time>2017-03-21T16:55:37Z</time>
      </trkpt>
      <trkpt lat="49.30924" lon="1.19836">
        <ele>3</ele>
        <time>2017-03-21T16:55:37Z</time>
      </trkpt>
      <trkpt lat="49.30931" lon="1.19831">
        <ele>3</ele>
        <time>2017-03-21T16:55:52Z</time>
      </trkpt>
      <trkpt lat="49.30933" lon="1.19828">
        <ele>3</ele>
        <time>2017-03-21T16:55:52Z</time>
      </trkpt>
      <trkpt lat="49.30937" lon="1.19827">
        <ele>3</ele>
        <time>2017-03-21T16:55:52Z</time>
      </trkpt>
      <trkpt lat="49.30941" lon="1.19823">
        <ele>3</ele>
        <time>2017-03-21T16:55:52Z</time>
      </trkpt>
      <trkpt lat="49.30946" lon="1.19818">
        <ele>3</ele>
        <time>2017-03-21T16:56:08Z</time>
      </trkpt>
      <trkpt lat="49.3095" lon="1.19814">
        <ele>3</ele>
        <time>2017-03-21T16:56:08Z</time>
      </trkpt>
      <trkpt lat="49.30954" lon="1.1981">
        <ele>3</ele>
        <time>2017-03-21T16:56:08Z</time>
      </trkpt>
      <trkpt lat="49.30957" lon="1.19806">
        <ele>3</ele>
        <time>2017-03-21T16:56:08Z</time>
      </trkpt>
      <trkpt lat="49.30961" lon="1.19804">
        <ele>9</ele>
        <time>2017-03-21T16:56:24Z</time>
      </trkpt>
      <trkpt lat="49.30965" lon="1.19799">
        <ele>9</ele>
        <time>2017-03-21T16:56:24Z</time>
      </trkpt>
      <trkpt lat="49.30969" lon="1.198">
        <ele>9</ele>
        <time>2017-03-21T16:56:24Z</time>
      </trkpt>
      <trkpt lat="49.30973" lon="1.19798">
        <ele>9</ele>
        <time>2017-03-21T16:56:24Z</time>
      </trkpt>
      <trkpt lat="49.30977" lon="1.19796">
        <ele>9</ele>
        <time>2017-03-21T16:56:40Z</time>
      </trkpt>
      <trkpt lat="49.30981" lon="1.19796">
        <ele>9</ele>
        <time>2017-03-21T16:56:40Z</time>
      </trkpt>
      <trkpt lat="49.30984" lon="1.19797">
        <ele>9</ele>
        <time>2017-03-21T16:56:40Z</time>
      </trkpt>
      <trkpt lat="49.30987" lon="1.19799">
        <ele>9</ele>
        <time>2017-03-21T16:56:40Z</time>
      </trkpt>
      <trkpt lat="49.30992" lon="1.19797">
        <ele>9</ele>
        <time>2017-03-21T16:56:56Z</time>
      </trkpt>
      <trkpt lat="49.30995" lon="1.19795">
        <ele>9</ele>
        <time>2017-03-21T16:56:56Z</time>
      </trkpt>
      <trkpt lat="49.30999" lon="1.1979">
        <ele>8</ele>
        <time>2017-03-21T16:56:56Z</time>
      </trkpt>
      <trkpt lat="49.31004" lon="1.19788">
        <ele>8</ele>
        <time>2017-03-21T16:56:56Z</time>
      </trkpt>
      <trkpt lat="49.31008" lon="1.19786">
        <ele>8</ele>
        <time>2017-03-21T16:57:12Z</time>
      </trkpt>
      <trkpt lat="49.31012" lon="1.19782">
        <ele>8</ele>
        <time>2017-03-21T16:57:12Z</time>
      </trkpt>
      <trkpt lat="49.31016" lon="1.19778">
        <ele>8</ele>
        <time>2017-03-21T16:57:12Z</time>
      </trkpt>
      <trkpt lat="49.31016" lon="1.19776">
        <ele>8</ele>
        <time>2017-03-21T16:57:12Z</time>
      </trkpt>
      <trkpt lat="49.31016" lon="1.19776">
        <ele>8</ele>
        <time>2017-03-21T16:58:12Z</time>
      </trkpt>
      <trkpt lat="49.31016" lon="1.19776">
        <ele>8</ele>
        <time>2017-03-21T16:58:12Z</time>
      </trkpt>
      <trkpt lat="49.31015" lon="1.19778">
        <ele>8</ele>
        <time>2017-03-21T16:58:12Z</time>
      </trkpt>
      <trkpt lat="49.31009" lon="1.19781">
        <ele>8</ele>
        <time>2017-03-21T16:58:12Z</time>
      </trkpt>
      <trkpt lat="49.31003" lon="1.19788">
        <ele>8</ele>
        <time>2017-03-21T16:58:12Z</time>
      </trkpt>
      <trkpt lat="49.31" lon="1.19795">
        <ele>9</ele>
        <time>2017-03-21T16:58:28Z</time>
      </trkpt>
      <trkpt lat="49.30998" lon="1.19802">
        <ele>9</ele>
        <time>2017-03-21T16:58:28Z</time>
      </trkpt>
      <trkpt lat="49.30996" lon="1.19807">
        <ele>9</ele>
        <time>2017-03-21T16:58:28Z</time>
      </trkpt>
      <trkpt lat="49.30994" lon="1.19814">
        <ele>9</ele>
        <time>2017-03-21T16:58:28Z</time>
      </trkpt>
      <trkpt lat="49.30994" lon="1.19817">
        <ele>9</ele>
        <time>2017-03-21T16:58:44Z</time>
      </trkpt>
      <trkpt lat="49.3099" lon="1.19814">
        <ele>9</ele>
        <time>2017-03-21T16:58:44Z</time>
      </trkpt>
      <trkpt lat="49.30985" lon="1.19815">
        <ele>9</ele>
        <time>2017-03-21T16:58:44Z</time>
      </trkpt>
      <trkpt lat="49.30981" lon="1.19815">
        <ele>9</ele>
        <time>2017-03-21T16:58:44Z</time>
      </trkpt>
      <trkpt lat="49.30979" lon="1.19828">
        <ele>9</ele>
        <time>2017-03-21T16:59:32Z</time>
      </trkpt>
      <trkpt lat="49.30979" lon="1.19829">
        <ele>9</ele>
        <time>2017-03-21T16:59:32Z</time>
      </trkpt>
      <trkpt lat="49.30979" lon="1.19829">
        <ele>9</ele>
        <time>2017-03-21T16:59:32Z</time>
      </trkpt>
      <trkpt lat="49.30977" lon="1.19835">
        <ele>9</ele>
        <time>2017-03-21T16:59:32Z</time>
      </trkpt>
      <trkpt lat="49.30976" lon="1.19837">
        <ele>9</ele>
        <time>2017-03-21T16:59:32Z</time>
      </trkpt>
      <trkpt lat="49.3097" lon="1.1984">
        <ele>9</ele>
        <time>2017-03-21T17:00:28Z</time>
      </trkpt>
      <trkpt lat="49.3097" lon="1.1984">
        <ele>9</ele>
        <time>2017-03-21T17:00:28Z</time>
      </trkpt>
      <trkpt lat="49.3097" lon="1.1984">
        <ele>9</ele>
        <time>2017-03-21T17:00:28Z</time>
      </trkpt>
      <trkpt lat="49.3097" lon="1.19842">
        <ele>9</ele>
        <time>2017-03-21T17:00:28Z</time>
      </trkpt>
      <trkpt lat="49.30983" lon="1.19895">
        <ele>9</ele>
        <time>2017-03-21T17:00:28Z</time>
      </trkpt>
      <trkpt lat="49.30984" lon="1.19905">
        <ele>9</ele>
        <time>2017-03-21T17:00:44Z</time>
      </trkpt>
      <trkpt lat="49.30985" lon="1.19914">
        <ele>9</ele>
        <time>2017-03-21T17:00:44Z</time>
      </trkpt>
      <trkpt lat="49.30986" lon="1.19921">
        <ele>9</ele>
        <time>2017-03-21T17:00:44Z</time>
      </trkpt>
      <trkpt lat="49.30986" lon="1.1993">
        <ele>9</ele>
        <time>2017-03-21T17:00:44Z</time>
      </trkpt>
      <trkpt lat="49.30989" lon="1.19959">
        <ele>10</ele>
        <time>2017-03-21T17:01:09Z</time>
      </trkpt>
      <trkpt lat="49.30991" lon="1.19962">
        <ele>10</ele>
        <time>2017-03-21T17:01:09Z</time>
      </trkpt>
      <trkpt lat="49.30988" lon="1.19988">
        <ele>10</ele>
        <time>2017-03-21T17:01:10Z</time>
      </trkpt>
      <trkpt lat="49.30989" lon="1.19994">
        <ele>10</ele>
        <time>2017-03-21T17:01:10Z</time>
      </trkpt>
      <trkpt lat="49.3099" lon="1.19999">
        <ele>10</ele>
        <time>2017-03-21T17:01:25Z</time>
      </trkpt>
      <trkpt lat="49.3099" lon="1.20005">
        <ele>10</ele>
        <time>2017-03-21T17:01:25Z</time>
      </trkpt>
      <trkpt lat="49.30991" lon="1.20015">
        <ele>10</ele>
        <time>2017-03-21T17:01:25Z</time>
      </trkpt>
      <trkpt lat="49.30988" lon="1.20019">
        <ele>10</ele>
        <time>2017-03-21T17:01:25Z</time>
      </trkpt>
      <trkpt lat="49.30991" lon="1.20027">
        <ele>10</ele>
        <time>2017-03-21T17:01:41Z</time>
      </trkpt>
      <trkpt lat="49.30992" lon="1.20032">
        <ele>10</ele>
        <time>2017-03-21T17:01:41Z</time>
      </trkpt>
      <trkpt lat="49.30993" lon="1.20041">
        <ele>10</ele>
        <time>2017-03-21T17:01:41Z</time>
      </trkpt>
      <trkpt lat="49.30994" lon="1.20046">
        <ele>8</ele>
        <time>2017-03-21T17:01:41Z</time>
      </trkpt>
      <trkpt lat="49.30995" lon="1.20054">
        <ele>8</ele>
        <time>2017-03-21T17:01:56Z</time>
      </trkpt>
      <trkpt lat="49.30996" lon="1.20061">
        <ele>8</ele>
        <time>2017-03-21T17:01:56Z</time>
      </trkpt>
      <trkpt lat="49.30995" lon="1.20066">
        <ele>8</ele>
        <time>2017-03-21T17:01:56Z</time>
      </trkpt>
      <trkpt lat="49.30994" lon="1.20072">
        <ele>8</ele>
        <time>2017-03-21T17:01:56Z</time>
      </trkpt>
      <trkpt lat="49.30993" lon="1.20078">
        <ele>8</ele>
        <time>2017-03-21T17:02:12Z</time>
      </trkpt>
      <trkpt lat="49.30994" lon="1.20085">
        <ele>8</ele>
        <time>2017-03-21T17:02:12Z</time>
      </trkpt>
      <trkpt lat="49.30994" lon="1.20092">
        <ele>8</ele>
        <time>2017-03-21T17:02:12Z</time>
      </trkpt>
      <trkpt lat="49.30995" lon="1.20097">
        <ele>8</ele>
        <time>2017-03-21T17:02:12Z</time>
      </trkpt>
      <trkpt lat="49.30996" lon="1.20105">
        <ele>8</ele>
        <time>2017-03-21T17:02:28Z</time>
      </trkpt>
      <trkpt lat="49.30998" lon="1.20112">
        <ele>8</ele>
        <time>2017-03-21T17:02:28Z</time>
      </trkpt>
      <trkpt lat="49.30999" lon="1.20119">
        <ele>8</ele>
        <time>2017-03-21T17:02:28Z</time>
      </trkpt>
      <trkpt lat="49.31" lon="1.20126">
        <ele>5</ele>
        <time>2017-03-21T17:02:28Z</time>
      </trkpt>
      <trkpt lat="49.31001" lon="1.20132">
        <ele>5</ele>
        <time>2017-03-21T17:02:44Z</time>
      </trkpt>
      <trkpt lat="49.31002" lon="1.20137">
        <ele>5</ele>
        <time>2017-03-21T17:02:44Z</time>
      </trkpt>
      <trkpt lat="49.31004" lon="1.20146">
        <ele>5</ele>
        <time>2017-03-21T17:02:44Z</time>
      </trkpt>
      <trkpt lat="49.31004" lon="1.20151">
        <ele>5</ele>
        <time>2017-03-21T17:02:44Z</time>
      </trkpt>
      <trkpt lat="49.31006" lon="1.2016">
        <ele>5</ele>
        <time>2017-03-21T17:03:00Z</time>
      </trkpt>
      <trkpt lat="49.31007" lon="1.20166">
        <ele>5</ele>
        <time>2017-03-21T17:03:00Z</time>
      </trkpt>
      <trkpt lat="49.31013" lon="1.20181">
        <ele>5</ele>
        <time>2017-03-21T17:03:00Z</time>
      </trkpt>
      <trkpt lat="49.31017" lon="1.2019">
        <ele>5</ele>
        <time>2017-03-21T17:03:00Z</time>
      </trkpt>
      <trkpt lat="49.3102" lon="1.20198">
        <ele>5</ele>
        <time>2017-03-21T17:03:16Z</time>
      </trkpt>
      <trkpt lat="49.31021" lon="1.20203">
        <ele>5</ele>
        <time>2017-03-21T17:03:16Z</time>
      </trkpt>
      <trkpt lat="49.31023" lon="1.2021">
        <ele>6</ele>
        <time>2017-03-21T17:03:16Z</time>
      </trkpt>
      <trkpt lat="49.31025" lon="1.20218">
        <ele>6</ele>
        <time>2017-03-21T17:03:16Z</time>
      </trkpt>
      <trkpt lat="49.31026" lon="1.20223">
        <ele>6</ele>
        <time>2017-03-21T17:03:32Z</time>
      </trkpt>
      <trkpt lat="49.31027" lon="1.20229">
        <ele>6</ele>
        <time>2017-03-21T17:03:32Z</time>
      </trkpt>
      <trkpt lat="49.31029" lon="1.20236">
        <ele>6</ele>
        <time>2017-03-21T17:03:32Z</time>
      </trkpt>
      <trkpt lat="49.3103" lon="1.20243">
        <ele>6</ele>
        <time>2017-03-21T17:03:32Z</time>
      </trkpt>
      <trkpt lat="49.31032" lon="1.20252">
        <ele>6</ele>
        <time>2017-03-21T17:03:48Z</time>
      </trkpt>
      <trkpt lat="49.31033" lon="1.20259">
        <ele>6</ele>
        <time>2017-03-21T17:03:48Z</time>
      </trkpt>
      <trkpt lat="49.31034" lon="1.20266">
        <ele>6</ele>
        <time>2017-03-21T17:03:48Z</time>
      </trkpt>
      <trkpt lat="49.31035" lon="1.20272">
        <ele>6</ele>
        <time>2017-03-21T17:03:48Z</time>
      </trkpt>
      <trkpt lat="49.31037" lon="1.20279">
        <ele>6</ele>
        <time>2017-03-21T17:04:04Z</time>
      </trkpt>
      <trkpt lat="49.31038" lon="1.20286">
        <ele>6</ele>
        <time>2017-03-21T17:04:04Z</time>
      </trkpt>
      <trkpt lat="49.31038" lon="1.20291">
        <ele>6</ele>
        <time>2017-03-21T17:04:04Z</time>
      </trkpt>
      <trkpt lat="49.31036" lon="1.20308">
        <ele>8</ele>
        <time>2017-03-21T17:04:04Z</time>
      </trkpt>
      <trkpt lat="49.31034" lon="1.20318">
        <ele>8</ele>
        <time>2017-03-21T17:04:20Z</time>
      </trkpt>
      <trkpt lat="49.31038" lon="1.20326">
        <ele>8</ele>
        <time>2017-03-21T17:04:20Z</time>
      </trkpt>
      <trkpt lat="49.31038" lon="1.20334">
        <ele>8</ele>
        <time>2017-03-21T17:04:20Z</time>
      </trkpt>
      <trkpt lat="49.31039" lon="1.2034">
        <ele>8</ele>
        <time>2017-03-21T17:04:20Z</time>
      </trkpt>
      <trkpt lat="49.31039" lon="1.20347">
        <ele>8</ele>
        <time>2017-03-21T17:04:36Z</time>
      </trkpt>
      <trkpt lat="49.3104" lon="1.20354">
        <ele>8</ele>
        <time>2017-03-21T17:04:36Z</time>
      </trkpt>
      <trkpt lat="49.31041" lon="1.20361">
        <ele>8</ele>
        <time>2017-03-21T17:04:36Z</time>
      </trkpt>
      <trkpt lat="49.31042" lon="1.20368">
        <ele>8</ele>
        <time>2017-03-21T17:04:36Z</time>
      </trkpt>
      <trkpt lat="49.31044" lon="1.20377">
        <ele>9</ele>
        <time>2017-03-21T17:04:52Z</time>
      </trkpt>
      <trkpt lat="49.31044" lon="1.20385">
        <ele>9</ele>
        <time>2017-03-21T17:04:52Z</time>
      </trkpt>
      <trkpt lat="49.31046" lon="1.20392">
        <ele>9</ele>
        <time>2017-03-21T17:04:52Z</time>
      </trkpt>
      <trkpt lat="49.31049" lon="1.20399">
        <ele>9</ele>
        <time>2017-03-21T17:04:52Z</time>
      </trkpt>
      <trkpt lat="49.31051" lon="1.20407">
        <ele>9</ele>
        <time>2017-03-21T17:05:08Z</time>
      </trkpt>
      <trkpt lat="49.31053" lon="1.20414">
        <ele>9</ele>
        <time>2017-03-21T17:05:08Z</time>
      </trkpt>
      <trkpt lat="49.31055" lon="1.20419">
        <ele>9</ele>
        <time>2017-03-21T17:05:08Z</time>
      </trkpt>
      <trkpt lat="49.31057" lon="1.20424">
        <ele>9</ele>
        <time>2017-03-21T17:05:08Z</time>
      </trkpt>
      <trkpt lat="49.3106" lon="1.2043">
        <ele>9</ele>
        <time>2017-03-21T17:05:24Z</time>
      </trkpt>
      <trkpt lat="49.31063" lon="1.20433">
        <ele>9</ele>
        <time>2017-03-21T17:05:24Z</time>
      </trkpt>
      <trkpt lat="49.31067" lon="1.20437">
        <ele>9</ele>
        <time>2017-03-21T17:05:24Z</time>
      </trkpt>
      <trkpt lat="49.31069" lon="1.20441">
        <ele>9</ele>
        <time>2017-03-21T17:05:24Z</time>
      </trkpt>
      <trkpt lat="49.31071" lon="1.20449">
        <ele>9</ele>
        <time>2017-03-21T17:05:40Z</time>
      </trkpt>
      <trkpt lat="49.31072" lon="1.20456">
        <ele>9</ele>
        <time>2017-03-21T17:05:40Z</time>
      </trkpt>
      <trkpt lat="49.31074" lon="1.20463">
        <ele>8</ele>
        <time>2017-03-21T17:05:40Z</time>
      </trkpt>
      <trkpt lat="49.31075" lon="1.20468">
        <ele>8</ele>
        <time>2017-03-21T17:05:40Z</time>
      </trkpt>
      <trkpt lat="49.31076" lon="1.20477">
        <ele>8</ele>
        <time>2017-03-21T17:05:56Z</time>
      </trkpt>
      <trkpt lat="49.31077" lon="1.20487">
        <ele>8</ele>
        <time>2017-03-21T17:05:56Z</time>
      </trkpt>
      <trkpt lat="49.31076" lon="1.20494">
        <ele>8</ele>
        <time>2017-03-21T17:05:56Z</time>
      </trkpt>
      <trkpt lat="49.31074" lon="1.20502">
        <ele>8</ele>
        <time>2017-03-21T17:05:56Z</time>
      </trkpt>
      <trkpt lat="49.31074" lon="1.20507">
        <ele>8</ele>
        <time>2017-03-21T17:06:12Z</time>
      </trkpt>
      <trkpt lat="49.31075" lon="1.20517">
        <ele>8</ele>
        <time>2017-03-21T17:06:12Z</time>
      </trkpt>
      <trkpt lat="49.31076" lon="1.20522">
        <ele>8</ele>
        <time>2017-03-21T17:06:12Z</time>
      </trkpt>
      <trkpt lat="49.31076" lon="1.2053">
        <ele>8</ele>
        <time>2017-03-21T17:06:12Z</time>
      </trkpt>
      <trkpt lat="49.31077" lon="1.20543">
        <ele>8</ele>
        <time>2017-03-21T17:06:48Z</time>
      </trkpt>
      <trkpt lat="49.31078" lon="1.20543">
        <ele>8</ele>
        <time>2017-03-21T17:06:48Z</time>
      </trkpt>
      <trkpt lat="49.31081" lon="1.20549">
        <ele>8</ele>
        <time>2017-03-21T17:06:48Z</time>
      </trkpt>
      <trkpt lat="49.31083" lon="1.20555">
        <ele>8</ele>
        <time>2017-03-21T17:06:48Z</time>
      </trkpt>
      <trkpt lat="49.31085" lon="1.20564">
        <ele>8</ele>
        <time>2017-03-21T17:06:48Z</time>
      </trkpt>
      <trkpt lat="49.31085" lon="1.20571">
        <ele>8</ele>
        <time>2017-03-21T17:07:04Z</time>
      </trkpt>
      <trkpt lat="49.31087" lon="1.20578">
        <ele>8</ele>
        <time>2017-03-21T17:07:04Z</time>
      </trkpt>
      <trkpt lat="49.31087" lon="1.20585">
        <ele>8</ele>
        <time>2017-03-21T17:07:04Z</time>
      </trkpt>
      <trkpt lat="49.31087" lon="1.20591">
        <ele>8</ele>
        <time>2017-03-21T17:07:04Z</time>
      </trkpt>
      <trkpt lat="49.31086" lon="1.20597">
        <ele>8</ele>
        <time>2017-03-21T17:07:20Z</time>
      </trkpt>
      <trkpt lat="49.31087" lon="1.20606">
        <ele>8</ele>
        <time>2017-03-21T17:07:20Z</time>
      </trkpt>
      <trkpt lat="49.31087" lon="1.20611">
        <ele>8</ele>
        <time>2017-03-21T17:07:20Z</time>
      </trkpt>
      <trkpt lat="49.31087" lon="1.2062">
        <ele>8</ele>
        <time>2017-03-21T17:07:20Z</time>
      </trkpt>
      <trkpt lat="49.31088" lon="1.20627">
        <ele>8</ele>
        <time>2017-03-21T17:07:36Z</time>
      </trkpt>
      <trkpt lat="49.31089" lon="1.20636">
        <ele>8</ele>
        <time>2017-03-21T17:07:36Z</time>
      </trkpt>
      <trkpt lat="49.31087" lon="1.20641">
        <ele>8</ele>
        <time>2017-03-21T17:07:36Z</time>
      </trkpt>
      <trkpt lat="49.31086" lon="1.20646">
        <ele>8</ele>
        <time>2017-03-21T17:07:36Z</time>
      </trkpt>
      <trkpt lat="49.31086" lon="1.20655">
        <ele>8</ele>
        <time>2017-03-21T17:07:52Z</time>
      </trkpt>
      <trkpt lat="49.31086" lon="1.20662">
        <ele>8</ele>
        <time>2017-03-21T17:07:52Z</time>
      </trkpt>
      <trkpt lat="49.31087" lon="1.20669">
        <ele>8</ele>
        <time>2017-03-21T17:07:52Z</time>
      </trkpt>
      <trkpt lat="49.31088" lon="1.20676">
        <ele>8</ele>
        <time>2017-03-21T17:07:52Z</time>
      </trkpt>
      <trkpt lat="49.31089" lon="1.20683">
        <ele>8</ele>
        <time>2017-03-21T17:08:08Z</time>
      </trkpt>
      <trkpt lat="49.3109" lon="1.2069">
        <ele>8</ele>
        <time>2017-03-21T17:08:08Z</time>
      </trkpt>
      <trkpt lat="49.31091" lon="1.20696">
        <ele>8</ele>
        <time>2017-03-21T17:08:08Z</time>
      </trkpt>
      <trkpt lat="49.31092" lon="1.207">
        <ele>8</ele>
        <time>2017-03-21T17:08:08Z</time>
      </trkpt>
      <trkpt lat="49.31093" lon="1.20706">
        <ele>8</ele>
        <time>2017-03-21T17:08:24Z</time>
      </trkpt>
      <trkpt lat="49.31094" lon="1.20712">
        <ele>7</ele>
        <time>2017-03-21T17:08:24Z</time>
      </trkpt>
      <trkpt lat="49.31095" lon="1.20719">
        <ele>7</ele>
        <time>2017-03-21T17:08:24Z</time>
      </trkpt>
      <trkpt lat="49.31095" lon="1.20726">
        <ele>7</ele>
        <time>2017-03-21T17:08:24Z</time>
      </trkpt>
      <trkpt lat="49.31096" lon="1.20733">
        <ele>7</ele>
        <time>2017-03-21T17:08:40Z</time>
      </trkpt>
      <trkpt lat="49.31095" lon="1.2074">
        <ele>7</ele>
        <time>2017-03-21T17:08:40Z</time>
      </trkpt>
      <trkpt lat="49.31096" lon="1.20746">
        <ele>7</ele>
        <time>2017-03-21T17:08:40Z</time>
      </trkpt>
      <trkpt lat="49.31099" lon="1.20752">
        <ele>7</ele>
        <time>2017-03-21T17:08:40Z</time>
      </trkpt>
      <trkpt lat="49.31101" lon="1.2076">
        <ele>7</ele>
        <time>2017-03-21T17:08:56Z</time>
      </trkpt>
      <trkpt lat="49.31101" lon="1.20766">
        <ele>7</ele>
        <time>2017-03-21T17:08:56Z</time>
      </trkpt>
      <trkpt lat="49.31101" lon="1.20773">
        <ele>7</ele>
        <time>2017-03-21T17:08:56Z</time>
      </trkpt>
      <trkpt lat="49.311" lon="1.2078">
        <ele>7</ele>
        <time>2017-03-21T17:08:56Z</time>
      </trkpt>
      <trkpt lat="49.31101" lon="1.20788">
        <ele>7</ele>
        <time>2017-03-21T17:09:12Z</time>
      </trkpt>
      <trkpt lat="49.31102" lon="1.20796">
        <ele>8</ele>
        <time>2017-03-21T17:09:12Z</time>
      </trkpt>
      <trkpt lat="49.31103" lon="1.20801">
        <ele>8</ele>
        <time>2017-03-21T17:09:12Z</time>
      </trkpt>
      <trkpt lat="49.31105" lon="1.20801">
        <ele>8</ele>
        <time>2017-03-21T17:09:12Z</time>
      </trkpt>
      <trkpt lat="49.31105" lon="1.20801">
        <ele>8</ele>
        <time>2017-03-21T17:09:44Z</time>
      </trkpt>
      <trkpt lat="49.31105" lon="1.20801">
        <ele>8</ele>
        <time>2017-03-21T17:09:44Z</time>
      </trkpt>
      <trkpt lat="49.31107" lon="1.20805">
        <ele>8</ele>
        <time>2017-03-21T17:09:44Z</time>
      </trkpt>
      <trkpt lat="49.31106" lon="1.20812">
        <ele>8</ele>
        <time>2017-03-21T17:09:44Z</time>
      </trkpt>
      <trkpt lat="49.31108" lon="1.20818">
        <ele>8</ele>
        <time>2017-03-21T17:09:44Z</time>
      </trkpt>
      <trkpt lat="49.31109" lon="1.20825">
        <ele>8</ele>
        <time>2017-03-21T17:10:00Z</time>
      </trkpt>
      <trkpt lat="49.3111" lon="1.2083">
        <ele>8</ele>
        <time>2017-03-21T17:10:00Z</time>
      </trkpt>
      <trkpt lat="49.31111" lon="1.20837">
        <ele>8</ele>
        <time>2017-03-21T17:10:00Z</time>
      </trkpt>
      <trkpt lat="49.31113" lon="1.20843">
        <ele>8</ele>
        <time>2017-03-21T17:10:00Z</time>
      </trkpt>
      <trkpt lat="49.31115" lon="1.20849">
        <ele>8</ele>
        <time>2017-03-21T17:10:16Z</time>
      </trkpt>
      <trkpt lat="49.31117" lon="1.20856">
        <ele>8</ele>
        <time>2017-03-21T17:10:16Z</time>
      </trkpt>
      <trkpt lat="49.31119" lon="1.20862">
        <ele>8</ele>
        <time>2017-03-21T17:10:16Z</time>
      </trkpt>
      <trkpt lat="49.31122" lon="1.20868">
        <ele>8</ele>
        <time>2017-03-21T17:10:16Z</time>
      </trkpt>
      <trkpt lat="49.31123" lon="1.20874">
        <ele>8</ele>
        <time>2017-03-21T17:10:32Z</time>
      </trkpt>
      <trkpt lat="49.31125" lon="1.2088">
        <ele>8</ele>
        <time>2017-03-21T17:10:32Z</time>
      </trkpt>
      <trkpt lat="49.31123" lon="1.20888">
        <ele>8</ele>
        <time>2017-03-21T17:10:32Z</time>
      </trkpt>
      <trkpt lat="49.31122" lon="1.20894">
        <ele>8</ele>
        <time>2017-03-21T17:10:32Z</time>
      </trkpt>
      <trkpt lat="49.31123" lon="1.20902">
        <ele>8</ele>
        <time>2017-03-21T17:10:48Z</time>
      </trkpt>
      <trkpt lat="49.31125" lon="1.20906">
        <ele>10</ele>
        <time>2017-03-21T17:10:48Z</time>
      </trkpt>
      <trkpt lat="49.31127" lon="1.20914">
        <ele>10</ele>
        <time>2017-03-21T17:10:48Z</time>
      </trkpt>
      <trkpt lat="49.31126" lon="1.2092">
        <ele>10</ele>
        <time>2017-03-21T17:10:48Z</time>
      </trkpt>
      <trkpt lat="49.31127" lon="1.20929">
        <ele>10</ele>
        <time>2017-03-21T17:11:04Z</time>
      </trkpt>
      <trkpt lat="49.31128" lon="1.20935">
        <ele>10</ele>
        <time>2017-03-21T17:11:04Z</time>
      </trkpt>
      <trkpt lat="49.31129" lon="1.20943">
        <ele>10</ele>
        <time>2017-03-21T17:11:04Z</time>
      </trkpt>
      <trkpt lat="49.3113" lon="1.2095">
        <ele>10</ele>
        <time>2017-03-21T17:11:04Z</time>
      </trkpt>
      <trkpt lat="49.3113" lon="1.20958">
        <ele>10</ele>
        <time>2017-03-21T17:11:20Z</time>
      </trkpt>
      <trkpt lat="49.31131" lon="1.20967">
        <ele>10</ele>
        <time>2017-03-21T17:11:20Z</time>
      </trkpt>
      <trkpt lat="49.31133" lon="1.20972">
        <ele>10</ele>
        <time>2017-03-21T17:11:20Z</time>
      </trkpt>
      <trkpt lat="49.31135" lon="1.20978">
        <ele>10</ele>
        <time>2017-03-21T17:11:20Z</time>
      </trkpt>
      <trkpt lat="49.31137" lon="1.20984">
        <ele>10</ele>
        <time>2017-03-21T17:11:36Z</time>
      </trkpt>
      <trkpt lat="49.31139" lon="1.2099">
        <ele>10</ele>
        <time>2017-03-21T17:11:36Z</time>
      </trkpt>
      <trkpt lat="49.31141" lon="1.20997">
        <ele>10</ele>
        <time>2017-03-21T17:11:36Z</time>
      </trkpt>
      <trkpt lat="49.31142" lon="1.21003">
        <ele>10</ele>
        <time>2017-03-21T17:11:36Z</time>
      </trkpt>
      <trkpt lat="49.31144" lon="1.21007">
        <ele>10</ele>
        <time>2017-03-21T17:11:52Z</time>
      </trkpt>
      <trkpt lat="49.31145" lon="1.21014">
        <ele>10</ele>
        <time>2017-03-21T17:11:52Z</time>
      </trkpt>
      <trkpt lat="49.31148" lon="1.2102">
        <ele>10</ele>
        <time>2017-03-21T17:11:52Z</time>
      </trkpt>
      <trkpt lat="49.3115" lon="1.21026">
        <ele>10</ele>
        <time>2017-03-21T17:11:52Z</time>
      </trkpt>
      <trkpt lat="49.31152" lon="1.21032">
        <ele>10</ele>
        <time>2017-03-21T17:12:08Z</time>
      </trkpt>
      <trkpt lat="49.31153" lon="1.21038">
        <ele>10</ele>
        <time>2017-03-21T17:12:08Z</time>
      </trkpt>
      <trkpt lat="49.31151" lon="1.21047">
        <ele>9</ele>
        <time>2017-03-21T17:12:08Z</time>
      </trkpt>
      <trkpt lat="49.31152" lon="1.21057">
        <ele>9</ele>
        <time>2017-03-21T17:12:08Z</time>
      </trkpt>
      <trkpt lat="49.31152" lon="1.21064">
        <ele>9</ele>
        <time>2017-03-21T17:12:24Z</time>
      </trkpt>
      <trkpt lat="49.31151" lon="1.21075">
        <ele>9</ele>
        <time>2017-03-21T17:12:24Z</time>
      </trkpt>
      <trkpt lat="49.3115" lon="1.21084">
        <ele>9</ele>
        <time>2017-03-21T17:12:24Z</time>
      </trkpt>
      <trkpt lat="49.3115" lon="1.21089">
        <ele>9</ele>
        <time>2017-03-21T17:12:24Z</time>
      </trkpt>
      <trkpt lat="49.31155" lon="1.21098">
        <ele>9</ele>
        <time>2017-03-21T17:13:00Z</time>
      </trkpt>
      <trkpt lat="49.31156" lon="1.21098">
        <ele>9</ele>
        <time>2017-03-21T17:13:00Z</time>
      </trkpt>
      <trkpt lat="49.31158" lon="1.21104">
        <ele>9</ele>
        <time>2017-03-21T17:13:00Z</time>
      </trkpt>
      <trkpt lat="49.31161" lon="1.21112">
        <ele>9</ele>
        <time>2017-03-21T17:13:00Z</time>
      </trkpt>
      <trkpt lat="49.31162" lon="1.21118">
        <ele>9</ele>
        <time>2017-03-21T17:13:00Z</time>
      </trkpt>
      <trkpt lat="49.31163" lon="1.21125">
        <ele>8</ele>
        <time>2017-03-21T17:13:16Z</time>
      </trkpt>
      <trkpt lat="49.31164" lon="1.21136">
        <ele>8</ele>
        <time>2017-03-21T17:13:16Z</time>
      </trkpt>
      <trkpt lat="49.31166" lon="1.21143">
        <ele>8</ele>
        <time>2017-03-21T17:13:16Z</time>
      </trkpt>
      <trkpt lat="49.31169" lon="1.21152">
        <ele>8</ele>
        <time>2017-03-21T17:13:16Z</time>
      </trkpt>
      <trkpt lat="49.31171" lon="1.21157">
        <ele>8</ele>
        <time>2017-03-21T17:13:32Z</time>
      </trkpt>
      <trkpt lat="49.31174" lon="1.21162">
        <ele>8</ele>
        <time>2017-03-21T17:13:32Z</time>
      </trkpt>
      <trkpt lat="49.31176" lon="1.21169">
        <ele>8</ele>
        <time>2017-03-21T17:13:32Z</time>
      </trkpt>
      <trkpt lat="49.31178" lon="1.21175">
        <ele>8</ele>
        <time>2017-03-21T17:13:32Z</time>
      </trkpt>
      <trkpt lat="49.31181" lon="1.21181">
        <ele>8</ele>
        <time>2017-03-21T17:13:48Z</time>
      </trkpt>
      <trkpt lat="49.31183" lon="1.21187">
        <ele>8</ele>
        <time>2017-03-21T17:13:48Z</time>
      </trkpt>
      <trkpt lat="49.31183" lon="1.21194">
        <ele>8</ele>
        <time>2017-03-21T17:13:48Z</time>
      </trkpt>
      <trkpt lat="49.31184" lon="1.21201">
        <ele>8</ele>
        <time>2017-03-21T17:13:48Z</time>
      </trkpt>
      <trkpt lat="49.31184" lon="1.21209">
        <ele>9</ele>
        <time>2017-03-21T17:14:04Z</time>
      </trkpt>
      <trkpt lat="49.31183" lon="1.21215">
        <ele>9</ele>
        <time>2017-03-21T17:14:04Z</time>
      </trkpt>
      <trkpt lat="49.31179" lon="1.21219">
        <ele>9</ele>
        <time>2017-03-21T17:14:04Z</time>
      </trkpt>
      <trkpt lat="49.31178" lon="1.21226">
        <ele>9</ele>
        <time>2017-03-21T17:14:04Z</time>
      </trkpt>
      <trkpt lat="49.31178" lon="1.21233">
        <ele>9</ele>
        <time>2017-03-21T17:14:20Z</time>
      </trkpt>
      <trkpt lat="49.31177" lon="1.21239">
        <ele>9</ele>
        <time>2017-03-21T17:14:20Z</time>
      </trkpt>
      <trkpt lat="49.31176" lon="1.21246">
        <ele>9</ele>
        <time>2017-03-21T17:14:20Z</time>
      </trkpt>
      <trkpt lat="49.31175" lon="1.21253">
        <ele>9</ele>
        <time>2017-03-21T17:14:20Z</time>
      </trkpt>
      <trkpt lat="49.31173" lon="1.21261">
        <ele>9</ele>
        <time>2017-03-21T17:14:36Z</time>
      </trkpt>
      <trkpt lat="49.31172" lon="1.2127">
        <ele>9</ele>
        <time>2017-03-21T17:14:36Z</time>
      </trkpt>
      <trkpt lat="49.31171" lon="1.21279">
        <ele>9</ele>
        <time>2017-03-21T17:14:36Z</time>
      </trkpt>
      <trkpt lat="49.3117" lon="1.21286">
        <ele>9</ele>
        <time>2017-03-21T17:14:36Z</time>
      </trkpt>
      <trkpt lat="49.3117" lon="1.21293">
        <ele>11</ele>
        <time>2017-03-21T17:14:52Z</time>
      </trkpt>
      <trkpt lat="49.31169" lon="1.213">
        <ele>11</ele>
        <time>2017-03-21T17:14:52Z</time>
      </trkpt>
      <trkpt lat="49.31167" lon="1.21306">
        <ele>11</ele>
        <time>2017-03-21T17:14:52Z</time>
      </trkpt>
      <trkpt lat="49.31165" lon="1.21311">
        <ele>11</ele>
        <time>2017-03-21T17:14:52Z</time>
      </trkpt>
      <trkpt lat="49.31164" lon="1.21315">
        <ele>11</ele>
        <time>2017-03-21T17:15:08Z</time>
      </trkpt>
      <trkpt lat="49.31163" lon="1.21324">
        <ele>11</ele>
        <time>2017-03-21T17:15:08Z</time>
      </trkpt>
      <trkpt lat="49.31162" lon="1.21331">
        <ele>11</ele>
        <time>2017-03-21T17:15:08Z</time>
      </trkpt>
      <trkpt lat="49.31159" lon="1.2134">
        <ele>11</ele>
        <time>2017-03-21T17:15:08Z</time>
      </trkpt>
      <trkpt lat="49.31158" lon="1.21348">
        <ele>11</ele>
        <time>2017-03-21T17:15:24Z</time>
      </trkpt>
      <trkpt lat="49.31156" lon="1.21356">
        <ele>11</ele>
        <time>2017-03-21T17:15:24Z</time>
      </trkpt>
      <trkpt lat="49.31155" lon="1.21364">
        <ele>11</ele>
        <time>2017-03-21T17:15:24Z</time>
      </trkpt>
      <trkpt lat="49.31155" lon="1.21371">
        <ele>11</ele>
        <time>2017-03-21T17:15:24Z</time>
      </trkpt>
      <trkpt lat="49.31155" lon="1.2138">
        <ele>9</ele>
        <time>2017-03-21T17:15:40Z</time>
      </trkpt>
      <trkpt lat="49.31153" lon="1.21389">
        <ele>9</ele>
        <time>2017-03-21T17:15:40Z</time>
      </trkpt>
      <trkpt lat="49.31151" lon="1.21398">
        <ele>9</ele>
        <time>2017-03-21T17:15:40Z</time>
      </trkpt>
      <trkpt lat="49.31151" lon="1.21404">
        <ele>9</ele>
        <time>2017-03-21T17:15:40Z</time>
      </trkpt>
      <trkpt lat="49.31151" lon="1.21409">
        <ele>9</ele>
        <time>2017-03-21T17:15:56Z</time>
      </trkpt>
      <trkpt lat="49.31151" lon="1.21416">
        <ele>9</ele>
        <time>2017-03-21T17:15:56Z</time>
      </trkpt>
      <trkpt lat="49.31149" lon="1.21422">
        <ele>9</ele>
        <time>2017-03-21T17:15:56Z</time>
      </trkpt>
      <trkpt lat="49.31148" lon="1.21429">
        <ele>9</ele>
        <time>2017-03-21T17:15:56Z</time>
      </trkpt>
      <trkpt lat="49.31149" lon="1.21438">
        <ele>9</ele>
        <time>2017-03-21T17:16:12Z</time>
      </trkpt>
      <trkpt lat="49.31147" lon="1.21445">
        <ele>9</ele>
        <time>2017-03-21T17:16:12Z</time>
      </trkpt>
      <trkpt lat="49.31145" lon="1.21453">
        <ele>9</ele>
        <time>2017-03-21T17:16:12Z</time>
      </trkpt>
      <trkpt lat="49.31143" lon="1.21459">
        <ele>9</ele>
        <time>2017-03-21T17:16:12Z</time>
      </trkpt>
      <trkpt lat="49.31142" lon="1.21466">
        <ele>9</ele>
        <time>2017-03-21T17:16:28Z</time>
      </trkpt>
      <trkpt lat="49.3114" lon="1.21474">
        <ele>9</ele>
        <time>2017-03-21T17:16:28Z</time>
      </trkpt>
      <trkpt lat="49.31141" lon="1.21481">
        <ele>9</ele>
        <time>2017-03-21T17:16:28Z</time>
      </trkpt>
      <trkpt lat="49.31139" lon="1.21488">
        <ele>9</ele>
        <time>2017-03-21T17:16:28Z</time>
      </trkpt>
      <trkpt lat="49.31137" lon="1.21497">
        <ele>9</ele>
        <time>2017-03-21T17:16:44Z</time>
      </trkpt>
      <trkpt lat="49.31135" lon="1.21505">
        <ele>9</ele>
        <time>2017-03-21T17:16:44Z</time>
      </trkpt>
      <trkpt lat="49.31134" lon="1.2151">
        <ele>9</ele>
        <time>2017-03-21T17:16:44Z</time>
      </trkpt>
      <trkpt lat="49.31131" lon="1.21518">
        <ele>9</ele>
        <time>2017-03-21T17:16:44Z</time>
      </trkpt>
      <trkpt lat="49.31129" lon="1.21523">
        <ele>9</ele>
        <time>2017-03-21T17:17:00Z</time>
      </trkpt>
      <trkpt lat="49.31127" lon="1.21531">
        <ele>9</ele>
        <time>2017-03-21T17:17:00Z</time>
      </trkpt>
      <trkpt lat="49.31125" lon="1.21537">
        <ele>7</ele>
        <time>2017-03-21T17:17:00Z</time>
      </trkpt>
      <trkpt lat="49.31123" lon="1.21544">
        <ele>9</ele>
        <time>2017-03-21T17:17:00Z</time>
      </trkpt>
      <trkpt lat="49.31122" lon="1.21549">
        <ele>9</ele>
        <time>2017-03-21T17:17:16Z</time>
      </trkpt>
      <trkpt lat="49.31119" lon="1.21556">
        <ele>9</ele>
        <time>2017-03-21T17:17:16Z</time>
      </trkpt>
      <trkpt lat="49.31117" lon="1.21561">
        <ele>9</ele>
        <time>2017-03-21T17:17:16Z</time>
      </trkpt>
      <trkpt lat="49.31113" lon="1.21568">
        <ele>9</ele>
        <time>2017-03-21T17:17:16Z</time>
      </trkpt>
      <trkpt lat="49.31112" lon="1.21573">
        <ele>9</ele>
        <time>2017-03-21T17:17:32Z</time>
      </trkpt>
      <trkpt lat="49.3111" lon="1.21581">
        <ele>9</ele>
        <time>2017-03-21T17:17:32Z</time>
      </trkpt>
      <trkpt lat="49.31109" lon="1.21587">
        <ele>9</ele>
        <time>2017-03-21T17:17:32Z</time>
      </trkpt>
      <trkpt lat="49.31107" lon="1.21595">
        <ele>9</ele>
        <time>2017-03-21T17:17:32Z</time>
      </trkpt>
      <trkpt lat="49.31107" lon="1.21601">
        <ele>9</ele>
        <time>2017-03-21T17:17:48Z</time>
      </trkpt>
      <trkpt lat="49.31106" lon="1.21608">
        <ele>9</ele>
        <time>2017-03-21T17:17:48Z</time>
      </trkpt>
      <trkpt lat="49.31105" lon="1.21615">
        <ele>9</ele>
        <time>2017-03-21T17:17:48Z</time>
      </trkpt>
      <trkpt lat="49.31101" lon="1.21629">
        <ele>9</ele>
        <time>2017-03-21T17:17:48Z</time>
      </trkpt>
      <trkpt lat="49.31101" lon="1.21641">
        <ele>9</ele>
        <time>2017-03-21T17:18:04Z</time>
      </trkpt>
      <trkpt lat="49.311" lon="1.21648">
        <ele>9</ele>
        <time>2017-03-21T17:18:04Z</time>
      </trkpt>
      <trkpt lat="49.311" lon="1.21655">
        <ele>9</ele>
        <time>2017-03-21T17:18:04Z</time>
      </trkpt>
      <trkpt lat="49.311" lon="1.2166">
        <ele>9</ele>
        <time>2017-03-21T17:18:04Z</time>
      </trkpt>
      <trkpt lat="49.31102" lon="1.21667">
        <ele>9</ele>
        <time>2017-03-21T17:18:20Z</time>
      </trkpt>
      <trkpt lat="49.31101" lon="1.21674">
        <ele>9</ele>
        <time>2017-03-21T17:18:20Z</time>
      </trkpt>
      <trkpt lat="49.31099" lon="1.21681">
        <ele>9</ele>
        <time>2017-03-21T17:18:20Z</time>
      </trkpt>
      <trkpt lat="49.31098" lon="1.21688">
        <ele>9</ele>
        <time>2017-03-21T17:18:20Z</time>
      </trkpt>
      <trkpt lat="49.31098" lon="1.21696">
        <ele>9</ele>
        <time>2017-03-21T17:18:36Z</time>
      </trkpt>
      <trkpt lat="49.311" lon="1.21703">
        <ele>9</ele>
        <time>2017-03-21T17:18:36Z</time>
      </trkpt>
      <trkpt lat="49.31099" lon="1.2171">
        <ele>7</ele>
        <time>2017-03-21T17:18:36Z</time>
      </trkpt>
      <trkpt lat="49.31097" lon="1.21718">
        <ele>7</ele>
        <time>2017-03-21T17:18:36Z</time>
      </trkpt>
      <trkpt lat="49.31097" lon="1.21725">
        <ele>7</ele>
        <time>2017-03-21T17:18:52Z</time>
      </trkpt>
      <trkpt lat="49.31096" lon="1.21732">
        <ele>7</ele>
        <time>2017-03-21T17:18:52Z</time>
      </trkpt>
      <trkpt lat="49.31096" lon="1.2174">
        <ele>7</ele>
        <time>2017-03-21T17:18:52Z</time>
      </trkpt>
      <trkpt lat="49.31096" lon="1.21745">
        <ele>7</ele>
        <time>2017-03-21T17:18:52Z</time>
      </trkpt>
      <trkpt lat="49.31096" lon="1.21752">
        <ele>7</ele>
        <time>2017-03-21T17:19:08Z</time>
      </trkpt>
      <trkpt lat="49.31096" lon="1.21763">
        <ele>7</ele>
        <time>2017-03-21T17:19:08Z</time>
      </trkpt>
      <trkpt lat="49.31096" lon="1.21769">
        <ele>7</ele>
        <time>2017-03-21T17:19:08Z</time>
      </trkpt>
      <trkpt lat="49.31097" lon="1.21777">
        <ele>7</ele>
        <time>2017-03-21T17:19:08Z</time>
      </trkpt>
      <trkpt lat="49.311" lon="1.21784">
        <ele>7</ele>
        <time>2017-03-21T17:19:24Z</time>
      </trkpt>
      <trkpt lat="49.31101" lon="1.21795">
        <ele>7</ele>
        <time>2017-03-21T17:19:24Z</time>
      </trkpt>
      <trkpt lat="49.31101" lon="1.21803">
        <ele>7</ele>
        <time>2017-03-21T17:19:24Z</time>
      </trkpt>
      <trkpt lat="49.31101" lon="1.2181">
        <ele>7</ele>
        <time>2017-03-21T17:19:24Z</time>
      </trkpt>
      <trkpt lat="49.31102" lon="1.21817">
        <ele>7</ele>
        <time>2017-03-21T17:19:40Z</time>
      </trkpt>
      <trkpt lat="49.31103" lon="1.21825">
        <ele>7</ele>
        <time>2017-03-21T17:19:40Z</time>
      </trkpt>
      <trkpt lat="49.31103" lon="1.21833">
        <ele>7</ele>
        <time>2017-03-21T17:19:40Z</time>
      </trkpt>
      <trkpt lat="49.31104" lon="1.2184">
        <ele>7</ele>
        <time>2017-03-21T17:19:40Z</time>
      </trkpt>
      <trkpt lat="49.31102" lon="1.21848">
        <ele>7</ele>
        <time>2017-03-21T17:19:56Z</time>
      </trkpt>
      <trkpt lat="49.31102" lon="1.21857">
        <ele>7</ele>
        <time>2017-03-21T17:19:56Z</time>
      </trkpt>
      <trkpt lat="49.31103" lon="1.21865">
        <ele>7</ele>
        <time>2017-03-21T17:19:56Z</time>
      </trkpt>
      <trkpt lat="49.31102" lon="1.2187">
        <ele>7</ele>
        <time>2017-03-21T17:19:56Z</time>
      </trkpt>
      <trkpt lat="49.31103" lon="1.21877">
        <ele>7</ele>
        <time>2017-03-21T17:20:12Z</time>
      </trkpt>
      <trkpt lat="49.31102" lon="1.21885">
        <ele>7</ele>
        <time>2017-03-21T17:20:12Z</time>
      </trkpt>
      <trkpt lat="49.31102" lon="1.21893">
        <ele>7</ele>
        <time>2017-03-21T17:20:12Z</time>
      </trkpt>
      <trkpt lat="49.31102" lon="1.219">
        <ele>7</ele>
        <time>2017-03-21T17:20:12Z</time>
      </trkpt>
      <trkpt lat="49.31102" lon="1.21907">
        <ele>7</ele>
        <time>2017-03-21T17:20:28Z</time>
      </trkpt>
      <trkpt lat="49.31102" lon="1.21914">
        <ele>7</ele>
        <time>2017-03-21T17:20:28Z</time>
      </trkpt>
      <trkpt lat="49.311" lon="1.21922">
        <ele>7</ele>
        <time>2017-03-21T17:20:28Z</time>
      </trkpt>
      <trkpt lat="49.31101" lon="1.21928">
        <ele>7</ele>
        <time>2017-03-21T17:20:28Z</time>
      </trkpt>
      <trkpt lat="49.31102" lon="1.21934">
        <ele>7</ele>
        <time>2017-03-21T17:20:44Z</time>
      </trkpt>
      <trkpt lat="49.31103" lon="1.21942">
        <ele>7</ele>
        <time>2017-03-21T17:20:44Z</time>
      </trkpt>
      <trkpt lat="49.31103" lon="1.2195">
        <ele>7</ele>
        <time>2017-03-21T17:20:44Z</time>
      </trkpt>
      <trkpt lat="49.31103" lon="1.21958">
        <ele>7</ele>
        <time>2017-03-21T17:20:44Z</time>
      </trkpt>
      <trkpt lat="49.31103" lon="1.21967">
        <ele>7</ele>
        <time>2017-03-21T17:21:00Z</time>
      </trkpt>
      <trkpt lat="49.31103" lon="1.21975">
        <ele>7</ele>
        <time>2017-03-21T17:21:00Z</time>
      </trkpt>
      <trkpt lat="49.31104" lon="1.21981">
        <ele>7</ele>
        <time>2017-03-21T17:21:00Z</time>
      </trkpt>
      <trkpt lat="49.31106" lon="1.21987">
        <ele>7</ele>
        <time>2017-03-21T17:21:00Z</time>
      </trkpt>
      <trkpt lat="49.31107" lon="1.21995">
        <ele>7</ele>
        <time>2017-03-21T17:21:16Z</time>
      </trkpt>
      <trkpt lat="49.31107" lon="1.22003">
        <ele>7</ele>
        <time>2017-03-21T17:21:16Z</time>
      </trkpt>
      <trkpt lat="49.31106" lon="1.22009">
        <ele>7</ele>
        <time>2017-03-21T17:21:16Z</time>
      </trkpt>
      <trkpt lat="49.31106" lon="1.22016">
        <ele>7</ele>
        <time>2017-03-21T17:21:16Z</time>
      </trkpt>
      <trkpt lat="49.31107" lon="1.22024">
        <ele>7</ele>
        <time>2017-03-21T17:21:32Z</time>
      </trkpt>
      <trkpt lat="49.31108" lon="1.22031">
        <ele>7</ele>
        <time>2017-03-21T17:21:32Z</time>
      </trkpt>
      <trkpt lat="49.31109" lon="1.22039">
        <ele>7</ele>
        <time>2017-03-21T17:21:32Z</time>
      </trkpt>
      <trkpt lat="49.31109" lon="1.22045">
        <ele>7</ele>
        <time>2017-03-21T17:21:32Z</time>
      </trkpt>
      <trkpt lat="49.31111" lon="1.22053">
        <ele>7</ele>
        <time>2017-03-21T17:21:48Z</time>
      </trkpt>
      <trkpt lat="49.31111" lon="1.22061">
        <ele>7</ele>
        <time>2017-03-21T17:21:48Z</time>
      </trkpt>
      <trkpt lat="49.31112" lon="1.2207">
        <ele>7</ele>
        <time>2017-03-21T17:21:48Z</time>
      </trkpt>
      <trkpt lat="49.31112" lon="1.22077">
        <ele>7</ele>
        <time>2017-03-21T17:21:48Z</time>
      </trkpt>
      <trkpt lat="49.31112" lon="1.22084">
        <ele>7</ele>
        <time>2017-03-21T17:22:04Z</time>
      </trkpt>
      <trkpt lat="49.31113" lon="1.22091">
        <ele>7</ele>
        <time>2017-03-21T17:22:04Z</time>
      </trkpt>
      <trkpt lat="49.31114" lon="1.22098">
        <ele>7</ele>
        <time>2017-03-21T17:22:04Z</time>
      </trkpt>
      <trkpt lat="49.31115" lon="1.22106">
        <ele>7</ele>
        <time>2017-03-21T17:22:04Z</time>
      </trkpt>
      <trkpt lat="49.31115" lon="1.22114">
        <ele>7</ele>
        <time>2017-03-21T17:22:20Z</time>
      </trkpt>
      <trkpt lat="49.31117" lon="1.22123">
        <ele>7</ele>
        <time>2017-03-21T17:22:20Z</time>
      </trkpt>
      <trkpt lat="49.31118" lon="1.2213">
        <ele>7</ele>
        <time>2017-03-21T17:22:20Z</time>
      </trkpt>
      <trkpt lat="49.31118" lon="1.22138">
        <ele>7</ele>
        <time>2017-03-21T17:22:20Z</time>
      </trkpt>
      <trkpt lat="49.31118" lon="1.22145">
        <ele>7</ele>
        <time>2017-03-21T17:22:36Z</time>
      </trkpt>
      <trkpt lat="49.31118" lon="1.22152">
        <ele>7</ele>
        <time>2017-03-21T17:22:36Z</time>
      </trkpt>
      <trkpt lat="49.31119" lon="1.22161">
        <ele>7</ele>
        <time>2017-03-21T17:22:36Z</time>
      </trkpt>
      <trkpt lat="49.31119" lon="1.2217">
        <ele>7</ele>
        <time>2017-03-21T17:22:36Z</time>
      </trkpt>
      <trkpt lat="49.31118" lon="1.22178">
        <ele>7</ele>
        <time>2017-03-21T17:22:52Z</time>
      </trkpt>
      <trkpt lat="49.31118" lon="1.22186">
        <ele>7</ele>
        <time>2017-03-21T17:22:52Z</time>
      </trkpt>
      <trkpt lat="49.31119" lon="1.22193">
        <ele>7</ele>
        <time>2017-03-21T17:22:52Z</time>
      </trkpt>
      <trkpt lat="49.3112" lon="1.222">
        <ele>7</ele>
        <time>2017-03-21T17:22:52Z</time>
      </trkpt>
      <trkpt lat="49.31121" lon="1.22206">
        <ele>7</ele>
        <time>2017-03-21T17:23:08Z</time>
      </trkpt>
      <trkpt lat="49.31122" lon="1.22214">
        <ele>6</ele>
        <time>2017-03-21T17:23:08Z</time>
      </trkpt>
      <trkpt lat="49.31123" lon="1.22221">
        <ele>6</ele>
        <time>2017-03-21T17:23:08Z</time>
      </trkpt>
      <trkpt lat="49.31125" lon="1.2223">
        <ele>6</ele>
        <time>2017-03-21T17:23:08Z</time>
      </trkpt>
      <trkpt lat="49.31127" lon="1.22237">
        <ele>6</ele>
        <time>2017-03-21T17:23:24Z</time>
      </trkpt>
      <trkpt lat="49.31128" lon="1.22244">
        <ele>6</ele>
        <time>2017-03-21T17:23:24Z</time>
      </trkpt>
      <trkpt lat="49.31128" lon="1.22249">
        <ele>6</ele>
        <time>2017-03-21T17:23:24Z</time>
      </trkpt>
      <trkpt lat="49.31128" lon="1.22259">
        <ele>6</ele>
        <time>2017-03-21T17:23:24Z</time>
      </trkpt>
      <trkpt lat="49.31129" lon="1.22267">
        <ele>6</ele>
        <time>2017-03-21T17:23:40Z</time>
      </trkpt>
      <trkpt lat="49.3113" lon="1.22272">
        <ele>6</ele>
        <time>2017-03-21T17:23:40Z</time>
      </trkpt>
      <trkpt lat="49.31128" lon="1.22281">
        <ele>6</ele>
        <time>2017-03-21T17:23:40Z</time>
      </trkpt>
      <trkpt lat="49.31129" lon="1.22292">
        <ele>6</ele>
        <time>2017-03-21T17:23:40Z</time>
      </trkpt>
      <trkpt lat="49.3113" lon="1.22301">
        <ele>6</ele>
        <time>2017-03-21T17:23:56Z</time>
      </trkpt>
      <trkpt lat="49.3113" lon="1.22308">
        <ele>6</ele>
        <time>2017-03-21T17:23:56Z</time>
      </trkpt>
      <trkpt lat="49.31131" lon="1.22314">
        <ele>6</ele>
        <time>2017-03-21T17:23:56Z</time>
      </trkpt>
      <trkpt lat="49.31131" lon="1.22321">
        <ele>6</ele>
        <time>2017-03-21T17:23:56Z</time>
      </trkpt>
      <trkpt lat="49.31131" lon="1.22327">
        <ele>6</ele>
        <time>2017-03-21T17:24:12Z</time>
      </trkpt>
      <trkpt lat="49.31132" lon="1.22332">
        <ele>6</ele>
        <time>2017-03-21T17:24:12Z</time>
      </trkpt>
      <trkpt lat="49.31134" lon="1.2234">
        <ele>6</ele>
        <time>2017-03-21T17:24:12Z</time>
      </trkpt>
      <trkpt lat="49.31135" lon="1.22347">
        <ele>6</ele>
        <time>2017-03-21T17:24:12Z</time>
      </trkpt>
      <trkpt lat="49.31135" lon="1.22355">
        <ele>6</ele>
        <time>2017-03-21T17:24:28Z</time>
      </trkpt>
      <trkpt lat="49.31136" lon="1.22363">
        <ele>6</ele>
        <time>2017-03-21T17:24:28Z</time>
      </trkpt>
      <trkpt lat="49.31138" lon="1.22369">
        <ele>6</ele>
        <time>2017-03-21T17:24:28Z</time>
      </trkpt>
      <trkpt lat="49.31141" lon="1.22377">
        <ele>7</ele>
        <time>2017-03-21T17:24:28Z</time>
      </trkpt>
      <trkpt lat="49.31144" lon="1.22384">
        <ele>7</ele>
        <time>2017-03-21T17:24:44Z</time>
      </trkpt>
      <trkpt lat="49.31146" lon="1.22389">
        <ele>7</ele>
        <time>2017-03-21T17:24:44Z</time>
      </trkpt>
      <trkpt lat="49.3115" lon="1.22396">
        <ele>7</ele>
        <time>2017-03-21T17:24:44Z</time>
      </trkpt>
      <trkpt lat="49.31154" lon="1.22403">
        <ele>7</ele>
        <time>2017-03-21T17:24:44Z</time>
      </trkpt>
      <trkpt lat="49.31159" lon="1.22407">
        <ele>7</ele>
        <time>2017-03-21T17:25:00Z</time>
      </trkpt>
      <trkpt lat="49.31163" lon="1.2241">
        <ele>7</ele>
        <time>2017-03-21T17:25:00Z</time>
      </trkpt>
      <trkpt lat="49.31168" lon="1.22416">
        <ele>7</ele>
        <time>2017-03-21T17:25:00Z</time>
      </trkpt>
      <trkpt lat="49.31172" lon="1.2242">
        <ele>7</ele>
        <time>2017-03-21T17:25:00Z</time>
      </trkpt>
      <trkpt lat="49.31176" lon="1.22423">
        <ele>7</ele>
        <time>2017-03-21T17:25:16Z</time>
      </trkpt>
      <trkpt lat="49.3118" lon="1.22427">
        <ele>7</ele>
        <time>2017-03-21T17:25:16Z</time>
      </trkpt>
      <trkpt lat="49.31184" lon="1.22432">
        <ele>7</ele>
        <time>2017-03-21T17:25:16Z</time>
      </trkpt>
      <trkpt lat="49.31189" lon="1.22434">
        <ele>7</ele>
        <time>2017-03-21T17:25:16Z</time>
      </trkpt>
      <trkpt lat="49.31193" lon="1.22438">
        <ele>7</ele>
        <time>2017-03-21T17:25:32Z</time>
      </trkpt>
      <trkpt lat="49.31196" lon="1.22443">
        <ele>7</ele>
        <time>2017-03-21T17:25:32Z</time>
      </trkpt>
      <trkpt lat="49.312" lon="1.22446">
        <ele>7</ele>
        <time>2017-03-21T17:25:32Z</time>
      </trkpt>
      <trkpt lat="49.31205" lon="1.22449">
        <ele>7</ele>
        <time>2017-03-21T17:25:32Z</time>
      </trkpt>
      <trkpt lat="49.3121" lon="1.22452">
        <ele>7</ele>
        <time>2017-03-21T17:25:48Z</time>
      </trkpt>
      <trkpt lat="49.31214" lon="1.22455">
        <ele>7</ele>
        <time>2017-03-21T17:25:48Z</time>
      </trkpt>
      <trkpt lat="49.31217" lon="1.22459">
        <ele>8</ele>
        <time>2017-03-21T17:25:48Z</time>
      </trkpt>
      <trkpt lat="49.31221" lon="1.22463">
        <ele>8</ele>
        <time>2017-03-21T17:25:48Z</time>
      </trkpt>
      <trkpt lat="49.31225" lon="1.22469">
        <ele>8</ele>
        <time>2017-03-21T17:26:04Z</time>
      </trkpt>
      <trkpt lat="49.31229" lon="1.22474">
        <ele>8</ele>
        <time>2017-03-21T17:26:04Z</time>
      </trkpt>
      <trkpt lat="49.31233" lon="1.22478">
        <ele>8</ele>
        <time>2017-03-21T17:26:04Z</time>
      </trkpt>
      <trkpt lat="49.31236" lon="1.22483">
        <ele>8</ele>
        <time>2017-03-21T17:26:04Z</time>
      </trkpt>
      <trkpt lat="49.31238" lon="1.22487">
        <ele>8</ele>
        <time>2017-03-21T17:26:20Z</time>
      </trkpt>
      <trkpt lat="49.3124" lon="1.2249">
        <ele>8</ele>
        <time>2017-03-21T17:26:20Z</time>
      </trkpt>
      <trkpt lat="49.31244" lon="1.22492">
        <ele>8</ele>
        <time>2017-03-21T17:26:20Z</time>
      </trkpt>
      <trkpt lat="49.3125" lon="1.22496">
        <ele>8</ele>
        <time>2017-03-21T17:26:20Z</time>
      </trkpt>
      <trkpt lat="49.31253" lon="1.225">
        <ele>8</ele>
        <time>2017-03-21T17:26:36Z</time>
      </trkpt>
      <trkpt lat="49.31258" lon="1.22505">
        <ele>8</ele>
        <time>2017-03-21T17:26:36Z</time>
      </trkpt>
      <trkpt lat="49.31263" lon="1.22509">
        <ele>8</ele>
        <time>2017-03-21T17:26:36Z</time>
      </trkpt>
      <trkpt lat="49.31267" lon="1.22512">
        <ele>8</ele>
        <time>2017-03-21T17:26:36Z</time>
      </trkpt>
      <trkpt lat="49.31271" lon="1.22516">
        <ele>8</ele>
        <time>2017-03-21T17:26:52Z</time>
      </trkpt>
      <trkpt lat="49.31275" lon="1.22519">
        <ele>8</ele>
        <time>2017-03-21T17:26:52Z</time>
      </trkpt>
      <trkpt lat="49.3128" lon="1.22521">
        <ele>8</ele>
        <time>2017-03-21T17:26:52Z</time>
      </trkpt>
      <trkpt lat="49.31284" lon="1.22523">
        <ele>8</ele>
        <time>2017-03-21T17:26:52Z</time>
      </trkpt>
      <trkpt lat="49.31288" lon="1.22527">
        <ele>8</ele>
        <time>2017-03-21T17:27:08Z</time>
      </trkpt>
      <trkpt lat="49.31292" lon="1.2253">
        <ele>7</ele>
        <time>2017-03-21T17:27:08Z</time>
      </trkpt>
      <trkpt lat="49.31296" lon="1.22533">
        <ele>7</ele>
        <time>2017-03-21T17:27:08Z</time>
      </trkpt>
      <trkpt lat="49.313" lon="1.22537">
        <ele>7</ele>
        <time>2017-03-21T17:27:08Z</time>
      </trkpt>
      <trkpt lat="49.31305" lon="1.2254">
        <ele>7</ele>
        <time>2017-03-21T17:27:24Z</time>
      </trkpt>
      <trkpt lat="49.31309" lon="1.22543">
        <ele>7</ele>
        <time>2017-03-21T17:27:24Z</time>
      </trkpt>
      <trkpt lat="49.31313" lon="1.22546">
        <ele>7</ele>
        <time>2017-03-21T17:27:24Z</time>
      </trkpt>
      <trkpt lat="49.31317" lon="1.2255">
        <ele>7</ele>
        <time>2017-03-21T17:27:24Z</time>
      </trkpt>
      <trkpt lat="49.31322" lon="1.22553">
        <ele>7</ele>
        <time>2017-03-21T17:27:40Z</time>
      </trkpt>
      <trkpt lat="49.31326" lon="1.22557">
        <ele>7</ele>
        <time>2017-03-21T17:27:40Z</time>
      </trkpt>
      <trkpt lat="49.3133" lon="1.2256">
        <ele>7</ele>
        <time>2017-03-21T17:27:40Z</time>
      </trkpt>
      <trkpt lat="49.31334" lon="1.22564">
        <ele>7</ele>
        <time>2017-03-21T17:27:40Z</time>
      </trkpt>
      <trkpt lat="49.31339" lon="1.22569">
        <ele>7</ele>
        <time>2017-03-21T17:27:56Z</time>
      </trkpt>
      <trkpt lat="49.31342" lon="1.22573">
        <ele>7</ele>
        <time>2017-03-21T17:27:56Z</time>
      </trkpt>
      <trkpt lat="49.31347" lon="1.2258">
        <ele>7</ele>
        <time>2017-03-21T17:27:56Z</time>
      </trkpt>
      <trkpt lat="49.31352" lon="1.22583">
        <ele>7</ele>
        <time>2017-03-21T17:27:56Z</time>
      </trkpt>
      <trkpt lat="49.31356" lon="1.22587">
        <ele>7</ele>
        <time>2017-03-21T17:28:12Z</time>
      </trkpt>
      <trkpt lat="49.3136" lon="1.22591">
        <ele>7</ele>
        <time>2017-03-21T17:28:12Z</time>
      </trkpt>
      <trkpt lat="49.31364" lon="1.22595">
        <ele>7</ele>
        <time>2017-03-21T17:28:12Z</time>
      </trkpt>
      <trkpt lat="49.31368" lon="1.22599">
        <ele>7</ele>
        <time>2017-03-21T17:28:12Z</time>
      </trkpt>
      <trkpt lat="49.31372" lon="1.22603">
        <ele>7</ele>
        <time>2017-03-21T17:28:28Z</time>
      </trkpt>
      <trkpt lat="49.31376" lon="1.22607">
        <ele>6</ele>
        <time>2017-03-21T17:28:28Z</time>
      </trkpt>
      <trkpt lat="49.3138" lon="1.2261">
        <ele>6</ele>
        <time>2017-03-21T17:28:28Z</time>
      </trkpt>
      <trkpt lat="49.31384" lon="1.22615">
        <ele>6</ele>
        <time>2017-03-21T17:28:28Z</time>
      </trkpt>
      <trkpt lat="49.31388" lon="1.22619">
        <ele>6</ele>
        <time>2017-03-21T17:28:44Z</time>
      </trkpt>
      <trkpt lat="49.31392" lon="1.22622">
        <ele>6</ele>
        <time>2017-03-21T17:28:44Z</time>
      </trkpt>
      <trkpt lat="49.31396" lon="1.22626">
        <ele>8</ele>
        <time>2017-03-21T17:28:44Z</time>
      </trkpt>
      <trkpt lat="49.31401" lon="1.2263">
        <ele>8</ele>
        <time>2017-03-21T17:28:44Z</time>
      </trkpt>
      <trkpt lat="49.31405" lon="1.22635">
        <ele>8</ele>
        <time>2017-03-21T17:29:00Z</time>
      </trkpt>
      <trkpt lat="49.31409" lon="1.22639">
        <ele>8</ele>
        <time>2017-03-21T17:29:00Z</time>
      </trkpt>
      <trkpt lat="49.31413" lon="1.22642">
        <ele>8</ele>
        <time>2017-03-21T17:29:00Z</time>
      </trkpt>
      <trkpt lat="49.31418" lon="1.22646">
        <ele>8</ele>
        <time>2017-03-21T17:29:00Z</time>
      </trkpt>
      <trkpt lat="49.31422" lon="1.22649">
        <ele>8</ele>
        <time>2017-03-21T17:29:16Z</time>
      </trkpt>
      <trkpt lat="49.31424" lon="1.22657">
        <ele>8</ele>
        <time>2017-03-21T17:29:16Z</time>
      </trkpt>
      <trkpt lat="49.31428" lon="1.22662">
        <ele>8</ele>
        <time>2017-03-21T17:29:16Z</time>
      </trkpt>
      <trkpt lat="49.31432" lon="1.22667">
        <ele>8</ele>
        <time>2017-03-21T17:29:16Z</time>
      </trkpt>
      <trkpt lat="49.31436" lon="1.22673">
        <ele>8</ele>
        <time>2017-03-21T17:29:32Z</time>
      </trkpt>
      <trkpt lat="49.3144" lon="1.22677">
        <ele>8</ele>
        <time>2017-03-21T17:29:32Z</time>
      </trkpt>
      <trkpt lat="49.31444" lon="1.22682">
        <ele>8</ele>
        <time>2017-03-21T17:29:32Z</time>
      </trkpt>
      <trkpt lat="49.31448" lon="1.22686">
        <ele>8</ele>
        <time>2017-03-21T17:29:32Z</time>
      </trkpt>
      <trkpt lat="49.31452" lon="1.2269">
        <ele>8</ele>
        <time>2017-03-21T17:29:48Z</time>
      </trkpt>
      <trkpt lat="49.31456" lon="1.22694">
        <ele>8</ele>
        <time>2017-03-21T17:29:48Z</time>
      </trkpt>
      <trkpt lat="49.3146" lon="1.22698">
        <ele>7</ele>
        <time>2017-03-21T17:29:48Z</time>
      </trkpt>
      <trkpt lat="49.31464" lon="1.22701">
        <ele>7</ele>
        <time>2017-03-21T17:29:48Z</time>
      </trkpt>
      <trkpt lat="49.31468" lon="1.22705">
        <ele>7</ele>
        <time>2017-03-21T17:30:04Z</time>
      </trkpt>
      <trkpt lat="49.31472" lon="1.22709">
        <ele>8</ele>
        <time>2017-03-21T17:30:04Z</time>
      </trkpt>
      <trkpt lat="49.31476" lon="1.22714">
        <ele>8</ele>
        <time>2017-03-21T17:30:04Z</time>
      </trkpt>
      <trkpt lat="49.3148" lon="1.22717">
        <ele>8</ele>
        <time>2017-03-21T17:30:04Z</time>
      </trkpt>
      <trkpt lat="49.31483" lon="1.2272">
        <ele>8</ele>
        <time>2017-03-21T17:30:20Z</time>
      </trkpt>
      <trkpt lat="49.31488" lon="1.22725">
        <ele>8</ele>
        <time>2017-03-21T17:30:20Z</time>
      </trkpt>
      <trkpt lat="49.31492" lon="1.2273">
        <ele>8</ele>
        <time>2017-03-21T17:30:20Z</time>
      </trkpt>
      <trkpt lat="49.31494" lon="1.22733">
        <ele>8</ele>
        <time>2017-03-21T17:30:20Z</time>
      </trkpt>
      <trkpt lat="49.31499" lon="1.22738">
        <ele>8</ele>
        <time>2017-03-21T17:30:36Z</time>
      </trkpt>
      <trkpt lat="49.31504" lon="1.22751">
        <ele>8</ele>
        <time>2017-03-21T17:30:36Z</time>
      </trkpt>
      <trkpt lat="49.31509" lon="1.22756">
        <ele>8</ele>
        <time>2017-03-21T17:30:36Z</time>
      </trkpt>
      <trkpt lat="49.31508" lon="1.22762">
        <ele>8</ele>
        <time>2017-03-21T17:30:36Z</time>
      </trkpt>
      <trkpt lat="49.31514" lon="1.22771">
        <ele>8</ele>
        <time>2017-03-21T17:34:36Z</time>
      </trkpt>
      <trkpt lat="49.31507" lon="1.22775">
        <ele>8</ele>
        <time>2017-03-21T17:34:36Z</time>
      </trkpt>
      <trkpt lat="49.31504" lon="1.22779">
        <ele>8</ele>
        <time>2017-03-21T17:34:36Z</time>
      </trkpt>
      <trkpt lat="49.31501" lon="1.22783">
        <ele>8</ele>
        <time>2017-03-21T17:34:36Z</time>
      </trkpt>
      <trkpt lat="49.315" lon="1.22786">
        <ele>8</ele>
        <time>2017-03-21T17:34:36Z</time>
      </trkpt>
      <trkpt lat="49.315" lon="1.22788">
        <ele>8</ele>
        <time>2017-03-21T17:34:52Z</time>
      </trkpt>
      <trkpt lat="49.31501" lon="1.22789">
        <ele>8</ele>
        <time>2017-03-21T17:34:52Z</time>
      </trkpt>
      <trkpt lat="49.31499" lon="1.22796">
        <ele>9</ele>
        <time>2017-03-21T17:34:52Z</time>
      </trkpt>
      <trkpt lat="49.31498" lon="1.22803">
        <ele>9</ele>
        <time>2017-03-21T17:34:52Z</time>
      </trkpt>
      <trkpt lat="49.31496" lon="1.22808">
        <ele>9</ele>
        <time>2017-03-21T17:35:08Z</time>
      </trkpt>
      <trkpt lat="49.31493" lon="1.22811">
        <ele>9</ele>
        <time>2017-03-21T17:35:08Z</time>
      </trkpt>
      <trkpt lat="49.31492" lon="1.22816">
        <ele>9</ele>
        <time>2017-03-21T17:35:08Z</time>
      </trkpt>
      <trkpt lat="49.3149" lon="1.2282">
        <ele>9</ele>
        <time>2017-03-21T17:35:08Z</time>
      </trkpt>
      <trkpt lat="49.31489" lon="1.22826">
        <ele>9</ele>
        <time>2017-03-21T17:35:24Z</time>
      </trkpt>
      <trkpt lat="49.31486" lon="1.22831">
        <ele>9</ele>
        <time>2017-03-21T17:35:24Z</time>
      </trkpt>
      <trkpt lat="49.31484" lon="1.22837">
        <ele>9</ele>
        <time>2017-03-21T17:35:24Z</time>
      </trkpt>
      <trkpt lat="49.31481" lon="1.22844">
        <ele>9</ele>
        <time>2017-03-21T17:35:24Z</time>
      </trkpt>
      <trkpt lat="49.31478" lon="1.22848">
        <ele>9</ele>
        <time>2017-03-21T17:35:40Z</time>
      </trkpt>
      <trkpt lat="49.31475" lon="1.22854">
        <ele>9</ele>
        <time>2017-03-21T17:35:40Z</time>
      </trkpt>
      <trkpt lat="49.31473" lon="1.22859">
        <ele>9</ele>
        <time>2017-03-21T17:35:40Z</time>
      </trkpt>
      <trkpt lat="49.3147" lon="1.22864">
        <ele>9</ele>
        <time>2017-03-21T17:35:40Z</time>
      </trkpt>
      <trkpt lat="49.31467" lon="1.2287">
        <ele>9</ele>
        <time>2017-03-21T17:35:56Z</time>
      </trkpt>
      <trkpt lat="49.31464" lon="1.22876">
        <ele>8</ele>
        <time>2017-03-21T17:35:56Z</time>
      </trkpt>
      <trkpt lat="49.31461" lon="1.22882">
        <ele>8</ele>
        <time>2017-03-21T17:35:56Z</time>
      </trkpt>
      <trkpt lat="49.31458" lon="1.22888">
        <ele>8</ele>
        <time>2017-03-21T17:35:56Z</time>
      </trkpt>
      <trkpt lat="49.31456" lon="1.22894">
        <ele>8</ele>
        <time>2017-03-21T17:36:12Z</time>
      </trkpt>
      <trkpt lat="49.31453" lon="1.22901">
        <ele>8</ele>
        <time>2017-03-21T17:36:12Z</time>
      </trkpt>
      <trkpt lat="49.3145" lon="1.22906">
        <ele>8</ele>
        <time>2017-03-21T17:36:12Z</time>
      </trkpt>
      <trkpt lat="49.31448" lon="1.22912">
        <ele>8</ele>
        <time>2017-03-21T17:36:12Z</time>
      </trkpt>
      <trkpt lat="49.31445" lon="1.22918">
        <ele>8</ele>
        <time>2017-03-21T17:36:28Z</time>
      </trkpt>
      <trkpt lat="49.31443" lon="1.22925">
        <ele>8</ele>
        <time>2017-03-21T17:36:28Z</time>
      </trkpt>
      <trkpt lat="49.31441" lon="1.22929">
        <ele>8</ele>
        <time>2017-03-21T17:36:28Z</time>
      </trkpt>
      <trkpt lat="49.31438" lon="1.22937">
        <ele>8</ele>
        <time>2017-03-21T17:36:28Z</time>
      </trkpt>
      <trkpt lat="49.31436" lon="1.22944">
        <ele>8</ele>
        <time>2017-03-21T17:36:44Z</time>
      </trkpt>
      <trkpt lat="49.31434" lon="1.22948">
        <ele>8</ele>
        <time>2017-03-21T17:36:44Z</time>
      </trkpt>
      <trkpt lat="49.3143" lon="1.22953">
        <ele>8</ele>
        <time>2017-03-21T17:36:44Z</time>
      </trkpt>
      <trkpt lat="49.31428" lon="1.22961">
        <ele>8</ele>
        <time>2017-03-21T17:36:44Z</time>
      </trkpt>
      <trkpt lat="49.31426" lon="1.22966">
        <ele>8</ele>
        <time>2017-03-21T17:37:00Z</time>
      </trkpt>
      <trkpt lat="49.31423" lon="1.22972">
        <ele>8</ele>
        <time>2017-03-21T17:37:00Z</time>
      </trkpt>
      <trkpt lat="49.31421" lon="1.22979">
        <ele>8</ele>
        <time>2017-03-21T17:37:00Z</time>
      </trkpt>
      <trkpt lat="49.3142" lon="1.22985">
        <ele>8</ele>
        <time>2017-03-21T17:37:00Z</time>
      </trkpt>
      <trkpt lat="49.31418" lon="1.22992">
        <ele>8</ele>
        <time>2017-03-21T17:37:16Z</time>
      </trkpt>
      <trkpt lat="49.31416" lon="1.22999">
        <ele>8</ele>
        <time>2017-03-21T17:37:16Z</time>
      </trkpt>
      <trkpt lat="49.31414" lon="1.23005">
        <ele>8</ele>
        <time>2017-03-21T17:37:16Z</time>
      </trkpt>
      <trkpt lat="49.31412" lon="1.23012">
        <ele>8</ele>
        <time>2017-03-21T17:37:16Z</time>
      </trkpt>
      <trkpt lat="49.31409" lon="1.23018">
        <ele>8</ele>
        <time>2017-03-21T17:37:32Z</time>
      </trkpt>
      <trkpt lat="49.31407" lon="1.23024">
        <ele>8</ele>
        <time>2017-03-21T17:37:32Z</time>
      </trkpt>
      <trkpt lat="49.31405" lon="1.23029">
        <ele>8</ele>
        <time>2017-03-21T17:37:32Z</time>
      </trkpt>
      <trkpt lat="49.31403" lon="1.23037">
        <ele>8</ele>
        <time>2017-03-21T17:37:32Z</time>
      </trkpt>
      <trkpt lat="49.31396" lon="1.23044">
        <ele>9</ele>
        <time>2017-03-21T17:37:48Z</time>
      </trkpt>
      <trkpt lat="49.31392" lon="1.23049">
        <ele>9</ele>
        <time>2017-03-21T17:37:48Z</time>
      </trkpt>
      <trkpt lat="49.31386" lon="1.23054">
        <ele>9</ele>
        <time>2017-03-21T17:37:48Z</time>
      </trkpt>
      <trkpt lat="49.31383" lon="1.23058">
        <ele>9</ele>
        <time>2017-03-21T17:37:48Z</time>
      </trkpt>
      <trkpt lat="49.3138" lon="1.23062">
        <ele>9</ele>
        <time>2017-03-21T17:38:04Z</time>
      </trkpt>
      <trkpt lat="49.31377" lon="1.23068">
        <ele>9</ele>
        <time>2017-03-21T17:38:04Z</time>
      </trkpt>
      <trkpt lat="49.31376" lon="1.23071">
        <ele>9</ele>
        <time>2017-03-21T17:38:04Z</time>
      </trkpt>
      <trkpt lat="49.31373" lon="1.23074">
        <ele>10</ele>
        <time>2017-03-21T17:38:04Z</time>
      </trkpt>
      <trkpt lat="49.31371" lon="1.2308">
        <ele>10</ele>
        <time>2017-03-21T17:38:20Z</time>
      </trkpt>
      <trkpt lat="49.31368" lon="1.23085">
        <ele>10</ele>
        <time>2017-03-21T17:38:20Z</time>
      </trkpt>
      <trkpt lat="49.31364" lon="1.2309">
        <ele>10</ele>
        <time>2017-03-21T17:38:20Z</time>
      </trkpt>
      <trkpt lat="49.31362" lon="1.23095">
        <ele>10</ele>
        <time>2017-03-21T17:38:20Z</time>
      </trkpt>
      <trkpt lat="49.3136" lon="1.231">
        <ele>10</ele>
        <time>2017-03-21T17:38:36Z</time>
      </trkpt>
      <trkpt lat="49.31358" lon="1.23106">
        <ele>10</ele>
        <time>2017-03-21T17:38:36Z</time>
      </trkpt>
      <trkpt lat="49.31354" lon="1.23111">
        <ele>10</ele>
        <time>2017-03-21T17:38:36Z</time>
      </trkpt>
      <trkpt lat="49.3135" lon="1.23115">
        <ele>10</ele>
        <time>2017-03-21T17:38:36Z</time>
      </trkpt>
      <trkpt lat="49.31347" lon="1.2312">
        <ele>10</ele>
        <time>2017-03-21T17:38:52Z</time>
      </trkpt>
      <trkpt lat="49.31345" lon="1.23129">
        <ele>11</ele>
        <time>2017-03-21T17:38:52Z</time>
      </trkpt>
      <trkpt lat="49.31343" lon="1.23136">
        <ele>11</ele>
        <time>2017-03-21T17:38:52Z</time>
      </trkpt>
      <trkpt lat="49.31338" lon="1.23138">
        <ele>11</ele>
        <time>2017-03-21T17:38:52Z</time>
      </trkpt>
      <trkpt lat="49.31334" lon="1.23142">
        <ele>11</ele>
        <time>2017-03-21T17:39:08Z</time>
      </trkpt>
      <trkpt lat="49.31329" lon="1.23148">
        <ele>11</ele>
        <time>2017-03-21T17:39:08Z</time>
      </trkpt>
      <trkpt lat="49.31324" lon="1.23151">
        <ele>11</ele>
        <time>2017-03-21T17:39:08Z</time>
      </trkpt>
      <trkpt lat="49.3132" lon="1.23154">
        <ele>11</ele>
        <time>2017-03-21T17:39:08Z</time>
      </trkpt>
      <trkpt lat="49.31317" lon="1.23158">
        <ele>11</ele>
        <time>2017-03-21T17:39:24Z</time>
      </trkpt>
      <trkpt lat="49.31313" lon="1.23163">
        <ele>11</ele>
        <time>2017-03-21T17:39:24Z</time>
      </trkpt>
      <trkpt lat="49.31309" lon="1.23168">
        <ele>11</ele>
        <time>2017-03-21T17:39:24Z</time>
      </trkpt>
      <trkpt lat="49.31305" lon="1.23172">
        <ele>11</ele>
        <time>2017-03-21T17:39:24Z</time>
      </trkpt>
      <trkpt lat="49.313" lon="1.23173">
        <ele>11</ele>
        <time>2017-03-21T17:39:40Z</time>
      </trkpt>
      <trkpt lat="49.31296" lon="1.23176">
        <ele>11</ele>
        <time>2017-03-21T17:39:40Z</time>
      </trkpt>
      <trkpt lat="49.31292" lon="1.23178">
        <ele>11</ele>
        <time>2017-03-21T17:39:40Z</time>
      </trkpt>
      <trkpt lat="49.31288" lon="1.23182">
        <ele>6</ele>
        <time>2017-03-21T17:39:40Z</time>
      </trkpt>
      <trkpt lat="49.31285" lon="1.23187">
        <ele>6</ele>
        <time>2017-03-21T17:39:56Z</time>
      </trkpt>
      <trkpt lat="49.31281" lon="1.23193">
        <ele>6</ele>
        <time>2017-03-21T17:39:56Z</time>
      </trkpt>
      <trkpt lat="49.31279" lon="1.23199">
        <ele>6</ele>
        <time>2017-03-21T17:39:56Z</time>
      </trkpt>
      <trkpt lat="49.31277" lon="1.23205">
        <ele>6</ele>
        <time>2017-03-21T17:39:56Z</time>
      </trkpt>
      <trkpt lat="49.31276" lon="1.23213">
        <ele>5</ele>
        <time>2017-03-21T17:40:12Z</time>
      </trkpt>
      <trkpt lat="49.31275" lon="1.2322">
        <ele>5</ele>
        <time>2017-03-21T17:40:12Z</time>
      </trkpt>
      <trkpt lat="49.31275" lon="1.23227">
        <ele>5</ele>
        <time>2017-03-21T17:40:12Z</time>
      </trkpt>
      <trkpt lat="49.31274" lon="1.23234">
        <ele>5</ele>
        <time>2017-03-21T17:40:12Z</time>
      </trkpt>
      <trkpt lat="49.31275" lon="1.23241">
        <ele>5</ele>
        <time>2017-03-21T17:40:28Z</time>
      </trkpt>
      <trkpt lat="49.31276" lon="1.23248">
        <ele>5</ele>
        <time>2017-03-21T17:40:28Z</time>
      </trkpt>
      <trkpt lat="49.31277" lon="1.23255">
        <ele>5</ele>
        <time>2017-03-21T17:40:28Z</time>
      </trkpt>
      <trkpt lat="49.31274" lon="1.2326">
        <ele>5</ele>
        <time>2017-03-21T17:40:28Z</time>
      </trkpt>
      <trkpt lat="49.31273" lon="1.23276">
        <ele>5</ele>
        <time>2017-03-21T17:40:52Z</time>
      </trkpt>
      <trkpt lat="49.31275" lon="1.23278">
        <ele>5</ele>
        <time>2017-03-21T17:40:52Z</time>
      </trkpt>
      <trkpt lat="49.31277" lon="1.23278">
        <ele>5</ele>
        <time>2017-03-21T17:40:52Z</time>
      </trkpt>
      <trkpt lat="49.31279" lon="1.23277">
        <ele>5</ele>
        <time>2017-03-21T17:40:52Z</time>
      </trkpt>
      <trkpt lat="49.31281" lon="1.23279">
        <ele>5</ele>
        <time>2017-03-21T17:40:52Z</time>
      </trkpt>
      <trkpt lat="49.31282" lon="1.23281">
        <ele>5</ele>
        <time>2017-03-21T17:41:08Z</time>
      </trkpt>
      <trkpt lat="49.31283" lon="1.23286">
        <ele>5</ele>
        <time>2017-03-21T17:41:08Z</time>
      </trkpt>
      <trkpt lat="49.31285" lon="1.23293">
        <ele>6</ele>
        <time>2017-03-21T17:41:08Z</time>
      </trkpt>
      <trkpt lat="49.31286" lon="1.23295">
        <ele>6</ele>
        <time>2017-03-21T17:41:08Z</time>
      </trkpt>
      <trkpt lat="49.31287" lon="1.23299">
        <ele>6</ele>
        <time>2017-03-21T17:41:24Z</time>
      </trkpt>
      <trkpt lat="49.31286" lon="1.23313">
        <ele>6</ele>
        <time>2017-03-21T17:41:24Z</time>
      </trkpt>
      <trkpt lat="49.31288" lon="1.23323">
        <ele>6</ele>
        <time>2017-03-21T17:41:24Z</time>
      </trkpt>
      <trkpt lat="49.31288" lon="1.23333">
        <ele>6</ele>
        <time>2017-03-21T17:41:24Z</time>
      </trkpt>
      <trkpt lat="49.3129" lon="1.23332">
        <ele>6</ele>
        <time>2017-03-21T17:41:40Z</time>
      </trkpt>
      <trkpt lat="49.31291" lon="1.23341">
        <ele>6</ele>
        <time>2017-03-21T17:41:40Z</time>
      </trkpt>
      <trkpt lat="49.31291" lon="1.23344">
        <ele>6</ele>
        <time>2017-03-21T17:41:40Z</time>
      </trkpt>
      <trkpt lat="49.31292" lon="1.23349">
        <ele>6</ele>
        <time>2017-03-21T17:41:40Z</time>
      </trkpt>
      <trkpt lat="49.31292" lon="1.23353">
        <ele>6</ele>
        <time>2017-03-21T17:41:56Z</time>
      </trkpt>
      <trkpt lat="49.31293" lon="1.23362">
        <ele>6</ele>
        <time>2017-03-21T17:41:56Z</time>
      </trkpt>
      <trkpt lat="49.31293" lon="1.23368">
        <ele>6</ele>
        <time>2017-03-21T17:41:56Z</time>
      </trkpt>
      <trkpt lat="49.31294" lon="1.2337">
        <ele>6</ele>
        <time>2017-03-21T17:41:56Z</time>
      </trkpt>
      <trkpt lat="49.31296" lon="1.23371">
        <ele>6</ele>
        <time>2017-03-21T17:42:12Z</time>
      </trkpt>
      <trkpt lat="49.31294" lon="1.23379">
        <ele>6</ele>
        <time>2017-03-21T17:42:12Z</time>
      </trkpt>
      <trkpt lat="49.31296" lon="1.23386">
        <ele>6</ele>
        <time>2017-03-21T17:42:12Z</time>
      </trkpt>
      <trkpt lat="49.31296" lon="1.23393">
        <ele>6</ele>
        <time>2017-03-21T17:42:12Z</time>
      </trkpt>
      <trkpt lat="49.31293" lon="1.234">
        <ele>6</ele>
        <time>2017-03-21T17:42:28Z</time>
      </trkpt>
      <trkpt lat="49.31291" lon="1.23406">
        <ele>5</ele>
        <time>2017-03-21T17:42:28Z</time>
      </trkpt>
      <trkpt lat="49.31288" lon="1.23412">
        <ele>5</ele>
        <time>2017-03-21T17:42:28Z</time>
      </trkpt>
      <trkpt lat="49.31286" lon="1.23418">
        <ele>5</ele>
        <time>2017-03-21T17:42:28Z</time>
      </trkpt>
      <trkpt lat="49.31285" lon="1.23425">
        <ele>5</ele>
        <time>2017-03-21T17:42:44Z</time>
      </trkpt>
      <trkpt lat="49.31284" lon="1.23432">
        <ele>5</ele>
        <time>2017-03-21T17:42:44Z</time>
      </trkpt>
      <trkpt lat="49.31284" lon="1.23439">
        <ele>5</ele>
        <time>2017-03-21T17:42:44Z</time>
      </trkpt>
      <trkpt lat="49.31283" lon="1.23445">
        <ele>5</ele>
        <time>2017-03-21T17:42:44Z</time>
      </trkpt>
      <trkpt lat="49.31283" lon="1.23452">
        <ele>5</ele>
        <time>2017-03-21T17:43:00Z</time>
      </trkpt>
      <trkpt lat="49.31282" lon="1.23459">
        <ele>5</ele>
        <time>2017-03-21T17:43:00Z</time>
      </trkpt>
      <trkpt lat="49.31282" lon="1.23466">
        <ele>5</ele>
        <time>2017-03-21T17:43:00Z</time>
      </trkpt>
      <trkpt lat="49.31283" lon="1.23473">
        <ele>5</ele>
        <time>2017-03-21T17:43:00Z</time>
      </trkpt>
      <trkpt lat="49.31284" lon="1.2348">
        <ele>5</ele>
        <time>2017-03-21T17:43:16Z</time>
      </trkpt>
      <trkpt lat="49.31285" lon="1.23487">
        <ele>5</ele>
        <time>2017-03-21T17:43:16Z</time>
      </trkpt>
      <trkpt lat="49.31286" lon="1.23493">
        <ele>5</ele>
        <time>2017-03-21T17:43:16Z</time>
      </trkpt>
      <trkpt lat="49.31287" lon="1.23501">
        <ele>5</ele>
        <time>2017-03-21T17:43:16Z</time>
      </trkpt>
      <trkpt lat="49.31288" lon="1.23508">
        <ele>5</ele>
        <time>2017-03-21T17:43:32Z</time>
      </trkpt>
      <trkpt lat="49.31288" lon="1.23515">
        <ele>5</ele>
        <time>2017-03-21T17:43:32Z</time>
      </trkpt>
      <trkpt lat="49.31286" lon="1.23522">
        <ele>5</ele>
        <time>2017-03-21T17:43:32Z</time>
      </trkpt>
      <trkpt lat="49.31284" lon="1.23529">
        <ele>5</ele>
        <time>2017-03-21T17:43:32Z</time>
      </trkpt>
      <trkpt lat="49.31283" lon="1.23535">
        <ele>5</ele>
        <time>2017-03-21T17:43:48Z</time>
      </trkpt>
      <trkpt lat="49.31282" lon="1.23542">
        <ele>6</ele>
        <time>2017-03-21T17:43:48Z</time>
      </trkpt>
      <trkpt lat="49.31281" lon="1.23549">
        <ele>6</ele>
        <time>2017-03-21T17:43:48Z</time>
      </trkpt>
      <trkpt lat="49.31281" lon="1.23556">
        <ele>6</ele>
        <time>2017-03-21T17:43:48Z</time>
      </trkpt>
      <trkpt lat="49.31279" lon="1.23561">
        <ele>6</ele>
        <time>2017-03-21T17:44:40Z</time>
      </trkpt>
      <trkpt lat="49.31278" lon="1.23569">
        <ele>6</ele>
        <time>2017-03-21T17:44:40Z</time>
      </trkpt>
      <trkpt lat="49.31277" lon="1.23577">
        <ele>6</ele>
        <time>2017-03-21T17:44:40Z</time>
      </trkpt>
      <trkpt lat="49.31277" lon="1.23692">
        <ele>7</ele>
        <time>2017-03-21T17:44:40Z</time>
      </trkpt>
    </trkseg>
  </trk>
</gpx>